<?xml version='1.0' encoding='UTF-8'?><gpx version="1.1" creator="JPX - https://github.com/jenetics/jpx" xmlns="http://www.topografix.com/GPX/1/1"><trk><trkseg><trkpt lat="45.34064592760945" lon="9.272930333226501"><ele>92.0</ele><time>2026-04-02T11:55:42Z</time></trkpt><trkpt lat="45.34071219428828" lon="9.27296415037454"><ele>92.0</ele><time>2026-04-02T11:55:44Z</time></trkpt><trkpt lat="45.34080681889901" lon="9.273021011220662"><ele>92.0</ele><time>2026-04-02T11:55:46Z</time></trkpt><trkpt lat="45.34085042509635" lon="9.27309248046562"><ele>92.0</ele><time>2026-04-02T11:55:48Z</time></trkpt><trkpt lat="45.34089759429277" lon="9.273157537646167"><ele>92.0</ele><time>2026-04-02T11:55:51Z</time></trkpt><trkpt lat="45.340875293941686" lon="9.273250558067488"><ele>92.0</ele><time>2026-04-02T11:55:53Z</time></trkpt><trkpt lat="45.3407794815206" lon="9.273389969987425"><ele>91.8</ele><time>2026-04-02T11:55:55Z</time></trkpt><trkpt lat="45.34073222046916" lon="9.273471966343239"><ele>91.6</ele><time>2026-04-02T11:55:56Z</time></trkpt><trkpt lat="45.340677989378726" lon="9.273572089214985"><ele>91.39999999999999</ele><time>2026-04-02T11:55:57Z</time></trkpt><trkpt lat="45.34062260860605" lon="9.27367912193578"><ele>91.19999999999999</ele><time>2026-04-02T11:55:58Z</time></trkpt><trkpt lat="45.34056624189587" lon="9.273794074734136"><ele>91.0</ele><time>2026-04-02T11:55:59Z</time></trkpt><trkpt lat="45.340493533561364" lon="9.273884677101654"><ele>91.0</ele><time>2026-04-02T11:56:00Z</time></trkpt><trkpt lat="45.3404106080997" lon="9.27393434047333"><ele>91.0</ele><time>2026-04-02T11:56:01Z</time></trkpt><trkpt lat="45.34035933791644" lon="9.274010377517389"><ele>91.0</ele><time>2026-04-02T11:56:02Z</time></trkpt><trkpt lat="45.340344920853276" lon="9.274107557602402"><ele>91.0</ele><time>2026-04-02T11:56:03Z</time></trkpt><trkpt lat="45.34036258297511" lon="9.27423030059899"><ele>91.0</ele><time>2026-04-02T11:56:04Z</time></trkpt><trkpt lat="45.34041374176566" lon="9.274395528884671"><ele>91.0</ele><time>2026-04-02T11:56:05Z</time></trkpt><trkpt lat="45.34047715852994" lon="9.274550048991097"><ele>90.66666666666666</ele><time>2026-04-02T11:56:06Z</time></trkpt><trkpt lat="45.34056054322426" lon="9.274710012974099"><ele>90.33333333333333</ele><time>2026-04-02T11:56:07Z</time></trkpt><trkpt lat="45.34066054783755" lon="9.274927436232057"><ele>90.0</ele><time>2026-04-02T11:56:08Z</time></trkpt><trkpt lat="45.34080715033274" lon="9.275112035351611"><ele>90.0</ele><time>2026-04-02T11:56:09Z</time></trkpt><trkpt lat="45.34091714795724" lon="9.275309777336775"><ele>90.0</ele><time>2026-04-02T11:56:10Z</time></trkpt><trkpt lat="45.341018705865785" lon="9.275492108291656"><ele>90.0</ele><time>2026-04-02T11:56:10.999Z</time></trkpt><trkpt lat="45.3411034143054" lon="9.275657058578545"><ele>90.0</ele><time>2026-04-02T11:56:11.999Z</time></trkpt><trkpt lat="45.34118028543624" lon="9.275795472323733"><ele>90.0</ele><time>2026-04-02T11:56:12.999Z</time></trkpt><trkpt lat="45.34124976095469" lon="9.275918615731984"><ele>90.0</ele><time>2026-04-02T11:56:13.999Z</time></trkpt><trkpt lat="45.341299001557296" lon="9.276027924881904"><ele>90.0</ele><time>2026-04-02T11:56:14.999Z</time></trkpt><trkpt lat="45.34134123709229" lon="9.276117872442814"><ele>90.0</ele><time>2026-04-02T11:56:15.999Z</time></trkpt><trkpt lat="45.34138720485963" lon="9.27622761588117"><ele>90.0</ele><time>2026-04-02T11:56:17.999Z</time></trkpt><trkpt lat="45.341573672188794" lon="9.276057620122774"><ele>90.0</ele><time>2026-04-02T11:56:19.999Z</time></trkpt><trkpt lat="45.3416675278831" lon="9.275904722693154"><ele>90.0</ele><time>2026-04-02T11:56:20.999Z</time></trkpt><trkpt lat="45.34178802129675" lon="9.275728584536248"><ele>90.0</ele><time>2026-04-02T11:56:21.999Z</time></trkpt><trkpt lat="45.34191917126238" lon="9.275548176443442"><ele>90.0</ele><time>2026-04-02T11:56:22.999Z</time></trkpt><trkpt lat="45.34206253045548" lon="9.275362711134086"><ele>90.0</ele><time>2026-04-02T11:56:23.999Z</time></trkpt><trkpt lat="45.34219286222714" lon="9.275171238356174"><ele>90.33333333333333</ele><time>2026-04-02T11:56:24.999Z</time></trkpt><trkpt lat="45.342317010280816" lon="9.274981954842698"><ele>90.66666666666666</ele><time>2026-04-02T11:56:25.999Z</time></trkpt><trkpt lat="45.34241192161586" lon="9.274776872375442"><ele>91.0</ele><time>2026-04-02T11:56:26.999Z</time></trkpt><trkpt lat="45.342486269816824" lon="9.274586203963509"><ele>91.0</ele><time>2026-04-02T11:56:27.999Z</time></trkpt><trkpt lat="45.34257308383201" lon="9.274409878495472"><ele>91.0</ele><time>2026-04-02T11:56:29Z</time></trkpt><trkpt lat="45.34266959909041" lon="9.274228859304442"><ele>91.0</ele><time>2026-04-02T11:56:30Z</time></trkpt><trkpt lat="45.342754314004374" lon="9.27405854155423"><ele>91.0</ele><time>2026-04-02T11:56:31Z</time></trkpt><trkpt lat="45.342836869346826" lon="9.273887950360752"><ele>91.0</ele><time>2026-04-02T11:56:32Z</time></trkpt><trkpt lat="45.342916790833065" lon="9.273703166636626"><ele>91.0</ele><time>2026-04-02T11:56:33Z</time></trkpt><trkpt lat="45.34297165865719" lon="9.273506453613306"><ele>91.0</ele><time>2026-04-02T11:56:34Z</time></trkpt><trkpt lat="45.34300037502772" lon="9.273298605448813"><ele>91.0</ele><time>2026-04-02T11:56:35Z</time></trkpt><trkpt lat="45.34300651238065" lon="9.273121851368158"><ele>91.0</ele><time>2026-04-02T11:56:36Z</time></trkpt><trkpt lat="45.34300626015034" lon="9.273000953617942"><ele>91.0</ele><time>2026-04-02T11:56:37Z</time></trkpt><trkpt lat="45.343031602409134" lon="9.272864659857637"><ele>91.0</ele><time>2026-04-02T11:56:39Z</time></trkpt><trkpt lat="45.343051975405764" lon="9.272757887108929"><ele>91.0</ele><time>2026-04-02T11:56:40Z</time></trkpt><trkpt lat="45.343021290032084" lon="9.272623138176066"><ele>91.0</ele><time>2026-04-02T11:56:41Z</time></trkpt><trkpt lat="45.34293585905269" lon="9.272472736115423"><ele>91.0</ele><time>2026-04-02T11:56:42Z</time></trkpt><trkpt lat="45.342819579232106" lon="9.272292284227131"><ele>91.0</ele><time>2026-04-02T11:56:43Z</time></trkpt><trkpt lat="45.34270043927659" lon="9.272096908507724"><ele>90.75</ele><time>2026-04-02T11:56:44Z</time></trkpt><trkpt lat="45.342601217011484" lon="9.27192561374458"><ele>90.5</ele><time>2026-04-02T11:56:45Z</time></trkpt><trkpt lat="45.34251854165865" lon="9.271786352172342"><ele>90.25</ele><time>2026-04-02T11:56:46Z</time></trkpt><trkpt lat="45.3424547174436" lon="9.271650157134433"><ele>90.0</ele><time>2026-04-02T11:56:47Z</time></trkpt><trkpt lat="45.34244338409648" lon="9.27149575276432"><ele>89.75</ele><time>2026-04-02T11:56:48Z</time></trkpt><trkpt lat="45.34247132372219" lon="9.271328333899689"><ele>89.5</ele><time>2026-04-02T11:56:49Z</time></trkpt><trkpt lat="45.34254348987742" lon="9.271168946118681"><ele>89.25</ele><time>2026-04-02T11:56:50Z</time></trkpt><trkpt lat="45.34264747338916" lon="9.271032380717537"><ele>89.0</ele><time>2026-04-02T11:56:51Z</time></trkpt><trkpt lat="45.342773352998364" lon="9.270899871496642"><ele>89.0</ele><time>2026-04-02T11:56:52Z</time></trkpt><trkpt lat="45.342895289004986" lon="9.270756484776483"><ele>89.0</ele><time>2026-04-02T11:56:53Z</time></trkpt><trkpt lat="45.34299228666785" lon="9.270628658503826"><ele>89.0</ele><time>2026-04-02T11:56:54Z</time></trkpt><trkpt lat="45.34306426181718" lon="9.270519918282154"><ele>89.0</ele><time>2026-04-02T11:56:55Z</time></trkpt><trkpt lat="45.34313647429961" lon="9.270430012337547"><ele>89.33333333333334</ele><time>2026-04-02T11:56:56Z</time></trkpt><trkpt lat="45.343198639134805" lon="9.270378267783805"><ele>89.66666666666667</ele><time>2026-04-02T11:56:57Z</time></trkpt><trkpt lat="45.34328822553453" lon="9.270358549526332"><ele>90.0</ele><time>2026-04-02T11:56:59Z</time></trkpt><trkpt lat="45.34334993472915" lon="9.270386035953123"><ele>90.33333333333333</ele><time>2026-04-02T11:57:02Z</time></trkpt><trkpt lat="45.34346350880452" lon="9.270419655031752"><ele>90.66666666666666</ele><time>2026-04-02T11:57:04Z</time></trkpt><trkpt lat="45.34353038779332" lon="9.270438931606378"><ele>91.0</ele><time>2026-04-02T11:57:05Z</time></trkpt><trkpt lat="45.343605508863995" lon="9.270467334426035"><ele>91.0</ele><time>2026-04-02T11:57:06Z</time></trkpt><trkpt lat="45.3436498853261" lon="9.270671610834695"><ele>91.0</ele><time>2026-04-02T11:57:07Z</time></trkpt><trkpt lat="45.343710510352054" lon="9.270792590605307"><ele>91.0</ele><time>2026-04-02T11:57:08Z</time></trkpt><trkpt lat="45.343757322634296" lon="9.270926726229165"><ele>91.0</ele><time>2026-04-02T11:57:09Z</time></trkpt><trkpt lat="45.34380471298397" lon="9.27107293793909"><ele>91.0</ele><time>2026-04-02T11:57:10Z</time></trkpt><trkpt lat="45.34385438812014" lon="9.271221620327202"><ele>91.0</ele><time>2026-04-02T11:57:11Z</time></trkpt><trkpt lat="45.343910014018675" lon="9.271384241452042"><ele>91.0</ele><time>2026-04-02T11:57:12Z</time></trkpt><trkpt lat="45.34396759257472" lon="9.271549800388637"><ele>91.0</ele><time>2026-04-02T11:57:13Z</time></trkpt><trkpt lat="45.34402522179116" lon="9.271720642996595"><ele>91.0</ele><time>2026-04-02T11:57:14Z</time></trkpt><trkpt lat="45.34407926319408" lon="9.27187859001209"><ele>91.0</ele><time>2026-04-02T11:57:15Z</time></trkpt><trkpt lat="45.34413300553352" lon="9.272032856067364"><ele>91.0</ele><time>2026-04-02T11:57:16Z</time></trkpt><trkpt lat="45.344192338296956" lon="9.272194549519241"><ele>91.0</ele><time>2026-04-02T11:57:17Z</time></trkpt><trkpt lat="45.34425217335353" lon="9.272361821623086"><ele>91.0</ele><time>2026-04-02T11:57:18Z</time></trkpt><trkpt lat="45.34431183618029" lon="9.272531982624104"><ele>91.0</ele><time>2026-04-02T11:57:19Z</time></trkpt><trkpt lat="45.3443715097867" lon="9.272705595156914"><ele>91.0</ele><time>2026-04-02T11:57:20Z</time></trkpt><trkpt lat="45.34443079620985" lon="9.27287730574174"><ele>91.0</ele><time>2026-04-02T11:57:21Z</time></trkpt><trkpt lat="45.344490821350135" lon="9.273051447325331"><ele>91.0</ele><time>2026-04-02T11:57:22Z</time></trkpt><trkpt lat="45.34455131410914" lon="9.273228403692556"><ele>91.0</ele><time>2026-04-02T11:57:23Z</time></trkpt><trkpt lat="45.34461362032834" lon="9.273404667059204"><ele>91.0</ele><time>2026-04-02T11:57:24Z</time></trkpt><trkpt lat="45.34467066171281" lon="9.27356852908115"><ele>91.0</ele><time>2026-04-02T11:57:25Z</time></trkpt><trkpt lat="45.34472158888957" lon="9.273715401478205"><ele>91.19999999999999</ele><time>2026-04-02T11:57:26Z</time></trkpt><trkpt lat="45.34477270926757" lon="9.273859442579013"><ele>91.39999999999999</ele><time>2026-04-02T11:57:27Z</time></trkpt><trkpt lat="45.344818643938815" lon="9.273987832017598"><ele>91.6</ele><time>2026-04-02T11:57:28Z</time></trkpt><trkpt lat="45.344858334537506" lon="9.274099925497366"><ele>91.8</ele><time>2026-04-02T11:57:29Z</time></trkpt><trkpt lat="45.34489462129335" lon="9.274205370708119"><ele>92.0</ele><time>2026-04-02T11:57:30Z</time></trkpt><trkpt lat="45.34492998300188" lon="9.274309973647009"><ele>92.16666666666667</ele><time>2026-04-02T11:57:31Z</time></trkpt><trkpt lat="45.3449682387182" lon="9.274416283531973"><ele>92.33333333333334</ele><time>2026-04-02T11:57:32Z</time></trkpt><trkpt lat="45.345009648958445" lon="9.274530593338724"><ele>92.5</ele><time>2026-04-02T11:57:33Z</time></trkpt><trkpt lat="45.345045828915026" lon="9.274644494923052"><ele>92.66666666666667</ele><time>2026-04-02T11:57:34Z</time></trkpt><trkpt lat="45.34508564767571" lon="9.274757836619859"><ele>92.83333333333333</ele><time>2026-04-02T11:57:35Z</time></trkpt><trkpt lat="45.34512591621036" lon="9.27487000533973"><ele>93.0</ele><time>2026-04-02T11:57:36Z</time></trkpt><trkpt lat="45.34516580969089" lon="9.274983677212125"><ele>92.60000000000001</ele><time>2026-04-02T11:57:37Z</time></trkpt><trkpt lat="45.34520530324573" lon="9.275091016979284"><ele>92.2</ele><time>2026-04-02T11:57:38Z</time></trkpt><trkpt lat="45.34524206268517" lon="9.27519814301753"><ele>91.8</ele><time>2026-04-02T11:57:39Z</time></trkpt><trkpt lat="45.34528185744656" lon="9.27531007998982"><ele>91.4</ele><time>2026-04-02T11:57:40Z</time></trkpt><trkpt lat="45.34532460615689" lon="9.275432408467616"><ele>91.0</ele><time>2026-04-02T11:57:41Z</time></trkpt><trkpt lat="45.34537111065587" lon="9.275558367422065"><ele>90.5</ele><time>2026-04-02T11:57:42Z</time></trkpt><trkpt lat="45.34541531491415" lon="9.275692700066775"><ele>90.0</ele><time>2026-04-02T11:57:43Z</time></trkpt><trkpt lat="45.34546269659093" lon="9.275834579471546"><ele>89.5</ele><time>2026-04-02T11:57:44Z</time></trkpt><trkpt lat="45.34551302821762" lon="9.275979349637979"><ele>89.0</ele><time>2026-04-02T11:57:45Z</time></trkpt><trkpt lat="45.34556754581522" lon="9.276137023850268"><ele>89.0</ele><time>2026-04-02T11:57:46Z</time></trkpt><trkpt lat="45.34562349384281" lon="9.276302412953308"><ele>89.0</ele><time>2026-04-02T11:57:47Z</time></trkpt><trkpt lat="45.34568527992506" lon="9.276466890232513"><ele>89.0</ele><time>2026-04-02T11:57:48Z</time></trkpt><trkpt lat="45.34574529643095" lon="9.276628481012603"><ele>89.0</ele><time>2026-04-02T11:57:49Z</time></trkpt><trkpt lat="45.34580091328374" lon="9.27679544300257"><ele>89.0</ele><time>2026-04-02T11:57:50Z</time></trkpt><trkpt lat="45.345856982370584" lon="9.27696009690182"><ele>89.0</ele><time>2026-04-02T11:57:51Z</time></trkpt><trkpt lat="45.345913183910184" lon="9.27712440331429"><ele>89.0</ele><time>2026-04-02T11:57:52Z</time></trkpt><trkpt lat="45.34596915691885" lon="9.277287015068854"><ele>89.0</ele><time>2026-04-02T11:57:53Z</time></trkpt><trkpt lat="45.34602091594622" lon="9.277435034541432"><ele>89.0</ele><time>2026-04-02T11:57:54Z</time></trkpt><trkpt lat="45.34606787403362" lon="9.277555558192395"><ele>89.0</ele><time>2026-04-02T11:57:55Z</time></trkpt><trkpt lat="45.34611003787027" lon="9.277660895446784"><ele>89.0</ele><time>2026-04-02T11:57:56Z</time></trkpt><trkpt lat="45.34614675841986" lon="9.277763036101781"><ele>89.0</ele><time>2026-04-02T11:57:57Z</time></trkpt><trkpt lat="45.34617988325593" lon="9.277862569442444"><ele>89.0</ele><time>2026-04-02T11:57:58Z</time></trkpt><trkpt lat="45.346212411609805" lon="9.277963390909035"><ele>89.0</ele><time>2026-04-02T11:57:59Z</time></trkpt><trkpt lat="45.34624312238571" lon="9.278058940158058"><ele>89.0</ele><time>2026-04-02T11:58:00Z</time></trkpt><trkpt lat="45.34627688200726" lon="9.278152733396013"><ele>89.0</ele><time>2026-04-02T11:58:01Z</time></trkpt><trkpt lat="45.34631211874672" lon="9.278251388671595"><ele>89.0</ele><time>2026-04-02T11:58:02Z</time></trkpt><trkpt lat="45.34634661258011" lon="9.278348327127034"><ele>89.0</ele><time>2026-04-02T11:58:03Z</time></trkpt><trkpt lat="45.34638016358305" lon="9.278441607778674"><ele>89.0</ele><time>2026-04-02T11:58:04Z</time></trkpt><trkpt lat="45.34641691973765" lon="9.278539295811122"><ele>89.0</ele><time>2026-04-02T11:58:05Z</time></trkpt><trkpt lat="45.34645200512339" lon="9.27863542859276"><ele>89.2</ele><time>2026-04-02T11:58:06Z</time></trkpt><trkpt lat="45.34648607553175" lon="9.278736871541316"><ele>89.4</ele><time>2026-04-02T11:58:07Z</time></trkpt><trkpt lat="45.346524065952806" lon="9.278840759854239"><ele>89.6</ele><time>2026-04-02T11:58:08Z</time></trkpt><trkpt lat="45.34657645202514" lon="9.278964092922"><ele>89.8</ele><time>2026-04-02T11:58:09Z</time></trkpt><trkpt lat="45.346619079813955" lon="9.279126266002487"><ele>90.0</ele><time>2026-04-02T11:58:10Z</time></trkpt><trkpt lat="45.346693854101076" lon="9.279340358888314"><ele>90.0</ele><time>2026-04-02T11:58:11Z</time></trkpt><trkpt lat="45.346751276527336" lon="9.279494035926547"><ele>90.0</ele><time>2026-04-02T11:58:12Z</time></trkpt><trkpt lat="45.34679528057143" lon="9.27963284837317"><ele>90.0</ele><time>2026-04-02T11:58:13Z</time></trkpt><trkpt lat="45.3468385203404" lon="9.279759484983359"><ele>90.0</ele><time>2026-04-02T11:58:14Z</time></trkpt><trkpt lat="45.34687984104752" lon="9.279877389108702"><ele>90.0</ele><time>2026-04-02T11:58:15Z</time></trkpt><trkpt lat="45.346920604515" lon="9.27998461115768"><ele>90.0</ele><time>2026-04-02T11:58:16Z</time></trkpt><trkpt lat="45.346959648860754" lon="9.280088369556053"><ele>90.0</ele><time>2026-04-02T11:58:16.998Z</time></trkpt><trkpt lat="45.346994147522516" lon="9.280192034382686"><ele>90.0</ele><time>2026-04-02T11:58:17.998Z</time></trkpt><trkpt lat="45.3470289131111" lon="9.280300089758132"><ele>90.0</ele><time>2026-04-02T11:58:18.998Z</time></trkpt><trkpt lat="45.34706717391719" lon="9.280410245092295"><ele>90.0</ele><time>2026-04-02T11:58:19.998Z</time></trkpt><trkpt lat="45.347107749519665" lon="9.280523651308478"><ele>90.0</ele><time>2026-04-02T11:58:20.998Z</time></trkpt><trkpt lat="45.347147490075855" lon="9.280631203450685"><ele>90.16666666666667</ele><time>2026-04-02T11:58:21.998Z</time></trkpt><trkpt lat="45.34718499685325" lon="9.280731413957122"><ele>90.33333333333333</ele><time>2026-04-02T11:58:22.998Z</time></trkpt><trkpt lat="45.3472218572955" lon="9.280838864827082"><ele>90.5</ele><time>2026-04-02T11:58:23.998Z</time></trkpt><trkpt lat="45.34726041478275" lon="9.28095725769578"><ele>90.66666666666666</ele><time>2026-04-02T11:58:24.998Z</time></trkpt><trkpt lat="45.34729419035447" lon="9.281062111502681"><ele>90.83333333333333</ele><time>2026-04-02T11:58:25.998Z</time></trkpt><trkpt lat="45.34732922906213" lon="9.281161164754794"><ele>91.0</ele><time>2026-04-02T11:58:26.998Z</time></trkpt><trkpt lat="45.34737016261938" lon="9.281284248471263"><ele>90.75</ele><time>2026-04-02T11:58:27.999Z</time></trkpt><trkpt lat="45.347418572638" lon="9.28146494330272"><ele>90.5</ele><time>2026-04-02T11:58:28.999Z</time></trkpt><trkpt lat="45.34745078675719" lon="9.281657217060026"><ele>90.25</ele><time>2026-04-02T11:58:29.999Z</time></trkpt><trkpt lat="45.34746590317527" lon="9.281811733184885"><ele>90.0</ele><time>2026-04-02T11:58:30.999Z</time></trkpt><trkpt lat="45.34748566377191" lon="9.281962312934338"><ele>90.0</ele><time>2026-04-02T11:58:31.999Z</time></trkpt><trkpt lat="45.34750887542213" lon="9.282152283340926"><ele>90.0</ele><time>2026-04-02T11:58:32.999Z</time></trkpt><trkpt lat="45.347535632449464" lon="9.282305769407715"><ele>90.0</ele><time>2026-04-02T11:58:33.999Z</time></trkpt><trkpt lat="45.34757701152707" lon="9.282444645776604"><ele>90.0</ele><time>2026-04-02T11:58:34.999Z</time></trkpt><trkpt lat="45.34764043859654" lon="9.282547340182543"><ele>90.0</ele><time>2026-04-02T11:58:35.999Z</time></trkpt><trkpt lat="45.3477144761622" lon="9.282620442176153"><ele>90.0</ele><time>2026-04-02T11:58:36.999Z</time></trkpt><trkpt lat="45.34780785399248" lon="9.282673725320768"><ele>90.0</ele><time>2026-04-02T11:58:37.999Z</time></trkpt><trkpt lat="45.34790674918352" lon="9.282672826293627"><ele>90.0</ele><time>2026-04-02T11:58:38.999Z</time></trkpt><trkpt lat="45.34799537033427" lon="9.282600656800872"><ele>90.0</ele><time>2026-04-02T11:58:39.999Z</time></trkpt><trkpt lat="45.34805280448747" lon="9.282462776865655"><ele>90.0</ele><time>2026-04-02T11:58:40.999Z</time></trkpt><trkpt lat="45.34804906016402" lon="9.282276991867914"><ele>90.0</ele><time>2026-04-02T11:58:41.999Z</time></trkpt><trkpt lat="45.348024335362574" lon="9.282099448515314"><ele>90.0</ele><time>2026-04-02T11:58:42.999Z</time></trkpt><trkpt lat="45.3479562335204" lon="9.28194015888107"><ele>90.0</ele><time>2026-04-02T11:58:43.999Z</time></trkpt><trkpt lat="45.34788191084309" lon="9.281814366569032"><ele>90.0</ele><time>2026-04-02T11:58:44.999Z</time></trkpt><trkpt lat="45.34779563662608" lon="9.28169253868286"><ele>90.0</ele><time>2026-04-02T11:58:45.999Z</time></trkpt><trkpt lat="45.347677546685205" lon="9.281582360120655"><ele>90.0</ele><time>2026-04-02T11:58:46.999Z</time></trkpt><trkpt lat="45.347550735718634" lon="9.281450378811812"><ele>90.0</ele><time>2026-04-02T11:58:47.999Z</time></trkpt><trkpt lat="45.347459706425134" lon="9.281317825270696"><ele>90.0</ele><time>2026-04-02T11:58:48.999Z</time></trkpt><trkpt lat="45.34736659170535" lon="9.281175796656862"><ele>90.0</ele><time>2026-04-02T11:58:49.999Z</time></trkpt><trkpt lat="45.34731595850639" lon="9.280991134675268"><ele>90.0</ele><time>2026-04-02T11:58:50.999Z</time></trkpt><trkpt lat="45.347257913371344" lon="9.28082773467261"><ele>90.0</ele><time>2026-04-02T11:58:51.999Z</time></trkpt><trkpt lat="45.34720064005396" lon="9.28066835191788"><ele>90.0</ele><time>2026-04-02T11:58:52.999Z</time></trkpt><trkpt lat="45.347143539172286" lon="9.28050818994394"><ele>90.0</ele><time>2026-04-02T11:58:53.999Z</time></trkpt><trkpt lat="45.34708656466237" lon="9.28034679939005"><ele>90.0</ele><time>2026-04-02T11:58:54.999Z</time></trkpt><trkpt lat="45.347026704715404" lon="9.280185489437006"><ele>90.0</ele><time>2026-04-02T11:58:55.999Z</time></trkpt><trkpt lat="45.34696426106222" lon="9.280017822169208"><ele>90.0</ele><time>2026-04-02T11:58:57Z</time></trkpt><trkpt lat="45.34690494528207" lon="9.279835706255973"><ele>90.0</ele><time>2026-04-02T11:58:58Z</time></trkpt><trkpt lat="45.34685596083437" lon="9.279649934610287"><ele>90.0</ele><time>2026-04-02T11:58:59Z</time></trkpt><trkpt lat="45.346809891267284" lon="9.279490047393491"><ele>90.0</ele><time>2026-04-02T11:59:00Z</time></trkpt><trkpt lat="45.34677489577349" lon="9.279342018661469"><ele>90.0</ele><time>2026-04-02T11:59:01Z</time></trkpt><trkpt lat="45.34674124220025" lon="9.279202027127466"><ele>90.0</ele><time>2026-04-02T11:59:02Z</time></trkpt><trkpt lat="45.346713886911694" lon="9.279071552825371"><ele>90.0</ele><time>2026-04-02T11:59:03Z</time></trkpt><trkpt lat="45.346668664836415" lon="9.278975719483022"><ele>90.0</ele><time>2026-04-02T11:59:04Z</time></trkpt><trkpt lat="45.346643722268674" lon="9.278867350906822"><ele>90.0</ele><time>2026-04-02T11:59:06Z</time></trkpt><trkpt lat="45.346825958771866" lon="9.27871206362046"><ele>90.0</ele><time>2026-04-02T11:59:08Z</time></trkpt><trkpt lat="45.34689323303815" lon="9.278669884876082"><ele>90.0</ele><time>2026-04-02T11:59:09Z</time></trkpt><trkpt lat="45.346996609989496" lon="9.27875597122084"><ele>90.0</ele><time>2026-04-02T11:59:11Z</time></trkpt><trkpt lat="45.347040790479795" lon="9.278876385407006"><ele>90.0</ele><time>2026-04-02T11:59:12Z</time></trkpt><trkpt lat="45.34707556439719" lon="9.27903903901982"><ele>90.0</ele><time>2026-04-02T11:59:13Z</time></trkpt><trkpt lat="45.347102987986794" lon="9.279213446664876"><ele>90.0</ele><time>2026-04-02T11:59:14Z</time></trkpt><trkpt lat="45.34711667438773" lon="9.279318279793737"><ele>90.0</ele><time>2026-04-02T11:59:15Z</time></trkpt><trkpt lat="45.347070282280306" lon="9.279380158090323"><ele>90.0</ele><time>2026-04-02T11:59:18Z</time></trkpt><trkpt lat="45.347008350339536" lon="9.279456140611087"><ele>90.0</ele><time>2026-04-02T12:01:23Z</time></trkpt><trkpt lat="45.34691974180509" lon="9.279407946164607"><ele>90.0</ele><time>2026-04-02T12:01:26Z</time></trkpt><trkpt lat="45.34688557440753" lon="9.279303286119218"><ele>90.0</ele><time>2026-04-02T12:01:27Z</time></trkpt><trkpt lat="45.34685765915812" lon="9.2791763815516"><ele>90.0</ele><time>2026-04-02T12:01:28Z</time></trkpt><trkpt lat="45.34682930670178" lon="9.27906822497154"><ele>90.0</ele><time>2026-04-02T12:01:29Z</time></trkpt><trkpt lat="45.346816825566954" lon="9.27896725270269"><ele>90.0</ele><time>2026-04-02T12:01:30Z</time></trkpt><trkpt lat="45.34680743423461" lon="9.27884067783542"><ele>90.0</ele><time>2026-04-02T12:01:32Z</time></trkpt><trkpt lat="45.34672365308516" lon="9.278761376145772"><ele>90.0</ele><time>2026-04-02T12:01:35Z</time></trkpt><trkpt lat="45.34665558567557" lon="9.278752692520044"><ele>90.0</ele><time>2026-04-02T12:01:36Z</time></trkpt><trkpt lat="45.34659068008272" lon="9.278705681100902"><ele>90.0</ele><time>2026-04-02T12:01:37Z</time></trkpt><trkpt lat="45.34652661163119" lon="9.278600464154135"><ele>90.0</ele><time>2026-04-02T12:01:38Z</time></trkpt><trkpt lat="45.34644753022035" lon="9.278427495007893"><ele>90.0</ele><time>2026-04-02T12:01:39Z</time></trkpt><trkpt lat="45.34636937695017" lon="9.278209047168948"><ele>90.0</ele><time>2026-04-02T12:01:40Z</time></trkpt><trkpt lat="45.34628324646884" lon="9.277957013925356"><ele>89.5</ele><time>2026-04-02T12:01:41Z</time></trkpt><trkpt lat="45.346186100226575" lon="9.27768022584658"><ele>89.0</ele><time>2026-04-02T12:01:42Z</time></trkpt><trkpt lat="45.346080772869854" lon="9.277374289781564"><ele>89.5</ele><time>2026-04-02T12:01:43Z</time></trkpt><trkpt lat="45.34596977373023" lon="9.277057073292973"><ele>90.0</ele><time>2026-04-02T12:01:44Z</time></trkpt><trkpt lat="45.345854789593226" lon="9.276763079334707"><ele>90.0</ele><time>2026-04-02T12:01:45.001Z</time></trkpt><trkpt lat="45.34574201794867" lon="9.276495225951418"><ele>90.0</ele><time>2026-04-02T12:01:46.001Z</time></trkpt><trkpt lat="45.3456389902799" lon="9.276226607366262"><ele>90.0</ele><time>2026-04-02T12:01:47.001Z</time></trkpt><trkpt lat="45.345546368785435" lon="9.27596755832279"><ele>90.33333333333333</ele><time>2026-04-02T12:01:48.001Z</time></trkpt><trkpt lat="45.345463335774284" lon="9.275719183260648"><ele>90.66666666666666</ele><time>2026-04-02T12:01:49.001Z</time></trkpt><trkpt lat="45.34538755178765" lon="9.27548552944155"><ele>91.0</ele><time>2026-04-02T12:01:50.001Z</time></trkpt><trkpt lat="45.3453106723886" lon="9.27525990884403"><ele>91.0</ele><time>2026-04-02T12:01:51.001Z</time></trkpt><trkpt lat="45.34523683292828" lon="9.2750443946373"><ele>91.0</ele><time>2026-04-02T12:01:52.001Z</time></trkpt><trkpt lat="45.34516139277128" lon="9.274829263620674"><ele>91.0</ele><time>2026-04-02T12:01:53.001Z</time></trkpt><trkpt lat="45.34508074479631" lon="9.274600802836028"><ele>91.33333333333333</ele><time>2026-04-02T12:01:54.001Z</time></trkpt><trkpt lat="45.344996059277236" lon="9.274363027537179"><ele>91.66666666666667</ele><time>2026-04-02T12:01:55.001Z</time></trkpt><trkpt lat="45.344913392922905" lon="9.274127825264182"><ele>92.0</ele><time>2026-04-02T12:01:56.001Z</time></trkpt><trkpt lat="45.34483931662754" lon="9.273907308594778"><ele>92.0</ele><time>2026-04-02T12:01:57.001Z</time></trkpt><trkpt lat="45.34476525279613" lon="9.273694935547297"><ele>92.0</ele><time>2026-04-02T12:01:58.001Z</time></trkpt><trkpt lat="45.34469495082882" lon="9.273485407578903"><ele>92.0</ele><time>2026-04-02T12:01:59.001Z</time></trkpt><trkpt lat="45.34462206622348" lon="9.27327726010753"><ele>91.66666666666667</ele><time>2026-04-02T12:02:00.001Z</time></trkpt><trkpt lat="45.34454657845023" lon="9.273068927636603"><ele>91.33333333333333</ele><time>2026-04-02T12:02:01.001Z</time></trkpt><trkpt lat="45.344466960858895" lon="9.27285748546453"><ele>91.0</ele><time>2026-04-02T12:02:02.001Z</time></trkpt><trkpt lat="45.34439447505498" lon="9.272655431125559"><ele>91.0</ele><time>2026-04-02T12:02:03.001Z</time></trkpt><trkpt lat="45.34432575012913" lon="9.272457302484993"><ele>91.0</ele><time>2026-04-02T12:02:04.001Z</time></trkpt><trkpt lat="45.344260465525934" lon="9.272271464843255"><ele>91.0</ele><time>2026-04-02T12:02:05.001Z</time></trkpt><trkpt lat="45.344199652360096" lon="9.272095322536199"><ele>91.0</ele><time>2026-04-02T12:02:06.001Z</time></trkpt><trkpt lat="45.34413803507476" lon="9.271922213031855"><ele>91.0</ele><time>2026-04-02T12:02:07.001Z</time></trkpt><trkpt lat="45.34407723133715" lon="9.271755324534375"><ele>91.0</ele><time>2026-04-02T12:02:08.001Z</time></trkpt><trkpt lat="45.344026903735205" lon="9.271602305113374"><ele>91.0</ele><time>2026-04-02T12:02:09.001Z</time></trkpt><trkpt lat="45.34397657856295" lon="9.271461105420604"><ele>91.0</ele><time>2026-04-02T12:02:10.001Z</time></trkpt><trkpt lat="45.34392477855201" lon="9.271311992372416"><ele>91.0</ele><time>2026-04-02T12:02:11.001Z</time></trkpt><trkpt lat="45.343876729091726" lon="9.271175893705326"><ele>91.0</ele><time>2026-04-02T12:02:12.001Z</time></trkpt><trkpt lat="45.34383797869254" lon="9.271053542068739"><ele>91.0</ele><time>2026-04-02T12:02:13.001Z</time></trkpt><trkpt lat="45.34379864542777" lon="9.270940209138892"><ele>91.0</ele><time>2026-04-02T12:02:14.001Z</time></trkpt><trkpt lat="45.3437637813423" lon="9.270837700380815"><ele>91.0</ele><time>2026-04-02T12:02:15.001Z</time></trkpt><trkpt lat="45.34372886666379" lon="9.270743038214857"><ele>91.0</ele><time>2026-04-02T12:02:16.001Z</time></trkpt><trkpt lat="45.34370089769181" lon="9.270658185140856"><ele>91.0</ele><time>2026-04-02T12:02:17.001Z</time></trkpt><trkpt lat="45.343663514059" lon="9.270504551381606"><ele>91.0</ele><time>2026-04-02T12:02:19.001Z</time></trkpt><trkpt lat="45.34364906733656" lon="9.270345561801577"><ele>91.0</ele><time>2026-04-02T12:02:21.001Z</time></trkpt><trkpt lat="45.34366397691302" lon="9.270174339493561"><ele>91.0</ele><time>2026-04-02T12:02:23.001Z</time></trkpt><trkpt lat="45.34367090083604" lon="9.270015425834089"><ele>91.0</ele><time>2026-04-02T12:02:25.001Z</time></trkpt><trkpt lat="45.343608252686835" lon="9.26986589656186"><ele>91.0</ele><time>2026-04-02T12:02:27.001Z</time></trkpt><trkpt lat="45.343545867724934" lon="9.269818551410468"><ele>91.0</ele><time>2026-04-02T12:02:28.001Z</time></trkpt><trkpt lat="45.34347646827131" lon="9.269801358095519"><ele>91.0</ele><time>2026-04-02T12:02:29Z</time></trkpt><trkpt lat="45.34340789072514" lon="9.269790515813343"><ele>91.0</ele><time>2026-04-02T12:02:30Z</time></trkpt><trkpt lat="45.34334516481132" lon="9.26986654818195"><ele>91.0</ele><time>2026-04-02T12:02:31Z</time></trkpt><trkpt lat="45.343295427993326" lon="9.269955948998037"><ele>91.0</ele><time>2026-04-02T12:02:32Z</time></trkpt><trkpt lat="45.34324470519452" lon="9.27010165460106"><ele>91.0</ele><time>2026-04-02T12:02:33Z</time></trkpt><trkpt lat="45.343190782380915" lon="9.270261065685295"><ele>91.0</ele><time>2026-04-02T12:02:34Z</time></trkpt><trkpt lat="45.343088684623496" lon="9.270402763660787"><ele>91.0</ele><time>2026-04-02T12:02:35Z</time></trkpt><trkpt lat="45.342953308181194" lon="9.27056706101567"><ele>90.33333333333333</ele><time>2026-04-02T12:02:36Z</time></trkpt><trkpt lat="45.342820889646156" lon="9.270737603288133"><ele>89.66666666666667</ele><time>2026-04-02T12:02:37Z</time></trkpt><trkpt lat="45.342709367063506" lon="9.270885942272807"><ele>89.0</ele><time>2026-04-02T12:02:38Z</time></trkpt><trkpt lat="45.34261605754806" lon="9.271008471096247"><ele>89.0</ele><time>2026-04-02T12:02:39Z</time></trkpt><trkpt lat="45.34254493613986" lon="9.271108091733302"><ele>89.0</ele><time>2026-04-02T12:02:40Z</time></trkpt><trkpt lat="45.34249233986549" lon="9.271182249576666"><ele>89.0</ele><time>2026-04-02T12:02:41Z</time></trkpt><trkpt lat="45.3424431616681" lon="9.27124379648491"><ele>89.0</ele><time>2026-04-02T12:02:42Z</time></trkpt><trkpt lat="45.342378546078265" lon="9.271296440388285"><ele>89.0</ele><time>2026-04-02T12:02:43Z</time></trkpt><trkpt lat="45.342310537231796" lon="9.271331863338464"><ele>89.0</ele><time>2026-04-02T12:02:44Z</time></trkpt><trkpt lat="45.34224258194012" lon="9.271210767968487"><ele>89.2</ele><time>2026-04-02T12:02:45Z</time></trkpt><trkpt lat="45.34217250345121" lon="9.271208586651946"><ele>89.4</ele><time>2026-04-02T12:02:46Z</time></trkpt><trkpt lat="45.34211451753611" lon="9.271153289837862"><ele>89.6</ele><time>2026-04-02T12:02:47Z</time></trkpt><trkpt lat="45.34198842213193" lon="9.27122316267069"><ele>89.8</ele><time>2026-04-02T12:02:49Z</time></trkpt><trkpt lat="45.34193916645082" lon="9.271309463826023"><ele>90.0</ele><time>2026-04-02T12:02:50Z</time></trkpt><trkpt lat="45.34183626150497" lon="9.271204655364432"><ele>90.0</ele><time>2026-04-02T12:02:51Z</time></trkpt><trkpt lat="45.341713234381444" lon="9.271139766774263"><ele>90.0</ele><time>2026-04-02T12:02:52Z</time></trkpt><trkpt lat="45.341594455294754" lon="9.27105486879994"><ele>90.0</ele><time>2026-04-02T12:02:53Z</time></trkpt><trkpt lat="45.341474379672604" lon="9.271003383309123"><ele>90.0</ele><time>2026-04-02T12:02:54Z</time></trkpt><trkpt lat="45.34135249731279" lon="9.271008380129809"><ele>90.0</ele><time>2026-04-02T12:02:55Z</time></trkpt><trkpt lat="45.34122783913818" lon="9.271107915276643"><ele>90.0</ele><time>2026-04-02T12:02:56Z</time></trkpt><trkpt lat="45.34111687836786" lon="9.271119753100841"><ele>90.0</ele><time>2026-04-02T12:02:57Z</time></trkpt><trkpt lat="45.34105182980863" lon="9.271102219724687"><ele>90.0</ele><time>2026-04-02T12:02:58Z</time></trkpt><trkpt lat="45.340995008948035" lon="9.271028849886669"><ele>90.0</ele><time>2026-04-02T12:02:59Z</time></trkpt><trkpt lat="45.34095843814438" lon="9.270901485489555"><ele>90.0</ele><time>2026-04-02T12:03:00Z</time></trkpt><trkpt lat="45.34095681410438" lon="9.270729223621261"><ele>90.0</ele><time>2026-04-02T12:03:01Z</time></trkpt><trkpt lat="45.34091428211402" lon="9.270538082819392"><ele>90.0</ele><time>2026-04-02T12:03:02Z</time></trkpt><trkpt lat="45.3408922967516" lon="9.270320436392868"><ele>90.0</ele><time>2026-04-02T12:03:03Z</time></trkpt><trkpt lat="45.34086441377954" lon="9.270104004046482"><ele>90.0</ele><time>2026-04-02T12:03:04Z</time></trkpt><trkpt lat="45.34083916218528" lon="9.269927387152558"><ele>90.0</ele><time>2026-04-02T12:03:05Z</time></trkpt><trkpt lat="45.3408219690381" lon="9.269806980851705"><ele>90.0</ele><time>2026-04-02T12:03:06Z</time></trkpt><trkpt lat="45.340787323096336" lon="9.269676819107103"><ele>90.0</ele><time>2026-04-02T12:03:08Z</time></trkpt><trkpt lat="45.34049174612582" lon="9.269710922383585"><ele>90.0</ele><time>2026-04-02T12:03:12Z</time></trkpt><trkpt lat="45.34033327889587" lon="9.269750904145004"><ele>90.0</ele><time>2026-04-02T12:03:13Z</time></trkpt><trkpt lat="45.340161495861736" lon="9.269788875868938"><ele>90.0</ele><time>2026-04-02T12:03:14Z</time></trkpt><trkpt lat="45.340020115797124" lon="9.269833533259876"><ele>90.0</ele><time>2026-04-02T12:03:15Z</time></trkpt><trkpt lat="45.33990660526553" lon="9.269898688491384"><ele>90.0</ele><time>2026-04-02T12:03:16Z</time></trkpt><trkpt lat="45.339775786977405" lon="9.26999171268079"><ele>90.0</ele><time>2026-04-02T12:03:17Z</time></trkpt><trkpt lat="45.339603807986805" lon="9.27009878813536"><ele>90.25</ele><time>2026-04-02T12:03:18Z</time></trkpt><trkpt lat="45.339451176381154" lon="9.270192873658086"><ele>90.5</ele><time>2026-04-02T12:03:19Z</time></trkpt><trkpt lat="45.33932245324168" lon="9.270272551324156"><ele>90.75</ele><time>2026-04-02T12:03:20Z</time></trkpt><trkpt lat="45.33920634285003" lon="9.270347459664787"><ele>91.0</ele><time>2026-04-02T12:03:21Z</time></trkpt><trkpt lat="45.339102470258446" lon="9.270419420793528"><ele>91.0</ele><time>2026-04-02T12:03:22Z</time></trkpt><trkpt lat="45.3390006979694" lon="9.27047870005708"><ele>91.0</ele><time>2026-04-02T12:03:23Z</time></trkpt><trkpt lat="45.33889948894038" lon="9.27054377276004"><ele>91.0</ele><time>2026-04-02T12:03:24Z</time></trkpt><trkpt lat="45.33879163103184" lon="9.270614502171897"><ele>91.0</ele><time>2026-04-02T12:03:25Z</time></trkpt><trkpt lat="45.338690157639796" lon="9.270688391780997"><ele>91.0</ele><time>2026-04-02T12:03:26.001Z</time></trkpt><trkpt lat="45.33859709234975" lon="9.270751406199915"><ele>91.0</ele><time>2026-04-02T12:03:27.001Z</time></trkpt><trkpt lat="45.338508447259414" lon="9.270809211466258"><ele>91.0</ele><time>2026-04-02T12:03:28.001Z</time></trkpt><trkpt lat="45.33841581447373" lon="9.270851752626148"><ele>91.0</ele><time>2026-04-02T12:03:29.001Z</time></trkpt><trkpt lat="45.33832761499981" lon="9.270912432867185"><ele>91.0</ele><time>2026-04-02T12:03:30.001Z</time></trkpt><trkpt lat="45.338234862930385" lon="9.270978656683257"><ele>91.0</ele><time>2026-04-02T12:03:31.001Z</time></trkpt><trkpt lat="45.33813987060133" lon="9.271047441716107"><ele>91.0</ele><time>2026-04-02T12:03:32.001Z</time></trkpt><trkpt lat="45.33803670896113" lon="9.271113536433711"><ele>91.0</ele><time>2026-04-02T12:03:33.001Z</time></trkpt><trkpt lat="45.33793247818975" lon="9.27117712044425"><ele>91.0</ele><time>2026-04-02T12:03:34.001Z</time></trkpt><trkpt lat="45.337826577096756" lon="9.271245531363096"><ele>91.0</ele><time>2026-04-02T12:03:35.001Z</time></trkpt><trkpt lat="45.337713976671964" lon="9.271313704952524"><ele>90.75</ele><time>2026-04-02T12:03:36.001Z</time></trkpt><trkpt lat="45.33760754405906" lon="9.27138408145409"><ele>90.5</ele><time>2026-04-02T12:03:37.001Z</time></trkpt><trkpt lat="45.337482713112124" lon="9.271472060382946"><ele>90.25</ele><time>2026-04-02T12:03:38.001Z</time></trkpt><trkpt lat="45.337337363169816" lon="9.271573497446328"><ele>90.0</ele><time>2026-04-02T12:03:39.001Z</time></trkpt><trkpt lat="45.33718567407641" lon="9.271671789064353"><ele>90.0</ele><time>2026-04-02T12:03:40.001Z</time></trkpt><trkpt lat="45.3370294304931" lon="9.271774149623308"><ele>90.0</ele><time>2026-04-02T12:03:41.001Z</time></trkpt><trkpt lat="45.33687945914864" lon="9.271868956833593"><ele>90.0</ele><time>2026-04-02T12:03:42.001Z</time></trkpt><trkpt lat="45.33673407386926" lon="9.271959761446842"><ele>90.0</ele><time>2026-04-02T12:03:43.001Z</time></trkpt><trkpt lat="45.33659232298008" lon="9.272046004304665"><ele>90.0</ele><time>2026-04-02T12:03:44.001Z</time></trkpt><trkpt lat="45.33646701135768" lon="9.272127488196455"><ele>90.0</ele><time>2026-04-02T12:03:45.001Z</time></trkpt><trkpt lat="45.336352043006855" lon="9.272192648964085"><ele>90.0</ele><time>2026-04-02T12:03:46.001Z</time></trkpt><trkpt lat="45.336256725740164" lon="9.272245187748098"><ele>89.66666666666667</ele><time>2026-04-02T12:03:47.001Z</time></trkpt><trkpt lat="45.33617285616522" lon="9.272281436792083"><ele>89.33333333333333</ele><time>2026-04-02T12:03:48.001Z</time></trkpt><trkpt lat="45.33608918131982" lon="9.272272799305695"><ele>89.0</ele><time>2026-04-02T12:03:49.001Z</time></trkpt><trkpt lat="45.33600609058099" lon="9.272262523258279"><ele>88.66666666666666</ele><time>2026-04-02T12:03:50.001Z</time></trkpt><trkpt lat="45.33593269761123" lon="9.27231400514547"><ele>88.33333333333333</ele><time>2026-04-02T12:03:51.001Z</time></trkpt><trkpt lat="45.33587588408328" lon="9.2724201241712"><ele>88.0</ele><time>2026-04-02T12:03:52.001Z</time></trkpt><trkpt lat="45.335796725064604" lon="9.272529594188708"><ele>88.0</ele><time>2026-04-02T12:03:53.001Z</time></trkpt><trkpt lat="45.335669859324035" lon="9.272596232132269"><ele>88.0</ele><time>2026-04-02T12:03:54.001Z</time></trkpt><trkpt lat="45.335530143871075" lon="9.272679505037686"><ele>88.0</ele><time>2026-04-02T12:03:55.001Z</time></trkpt><trkpt lat="45.33538842121127" lon="9.272769282144894"><ele>88.0</ele><time>2026-04-02T12:03:56.001Z</time></trkpt><trkpt lat="45.33527449012235" lon="9.272868788182164"><ele>88.0</ele><time>2026-04-02T12:03:57.001Z</time></trkpt><trkpt lat="45.335197908023986" lon="9.273001016534364"><ele>88.0</ele><time>2026-04-02T12:03:58.001Z</time></trkpt><trkpt lat="45.335103723674166" lon="9.273054789710685"><ele>88.0</ele><time>2026-04-02T12:03:59.001Z</time></trkpt><trkpt lat="45.33503141269817" lon="9.273100715395076"><ele>88.0</ele><time>2026-04-02T12:04:00.001Z</time></trkpt><trkpt lat="45.33493758288814" lon="9.27316648487547"><ele>88.0</ele><time>2026-04-02T12:04:02.001Z</time></trkpt><trkpt lat="45.334867663140095" lon="9.273215740672436"><ele>88.0</ele><time>2026-04-02T12:04:04.001Z</time></trkpt><trkpt lat="45.33479904079812" lon="9.27326500758942"><ele>88.0</ele><time>2026-04-02T12:04:07.001Z</time></trkpt><trkpt lat="45.33474158584198" lon="9.273307288989855"><ele>88.0</ele><time>2026-04-02T12:04:10.001Z</time></trkpt><trkpt lat="45.33467701346479" lon="9.273355158292167"><ele>88.0</ele><time>2026-04-02T12:04:12.001Z</time></trkpt><trkpt lat="45.33460471955612" lon="9.273409900301735"><ele>88.0</ele><time>2026-04-02T12:04:13.001Z</time></trkpt><trkpt lat="45.334499339863164" lon="9.273489835270723"><ele>88.0</ele><time>2026-04-02T12:04:14.001Z</time></trkpt><trkpt lat="45.33437287208143" lon="9.273586109997515"><ele>88.33333333333333</ele><time>2026-04-02T12:04:15.001Z</time></trkpt><trkpt lat="45.33421790005584" lon="9.27371096580436"><ele>88.66666666666667</ele><time>2026-04-02T12:04:16.001Z</time></trkpt><trkpt lat="45.334039037847916" lon="9.273865418192038"><ele>89.0</ele><time>2026-04-02T12:04:17.001Z</time></trkpt><trkpt lat="45.33384504685066" lon="9.27403831910766"><ele>89.5</ele><time>2026-04-02T12:04:18.001Z</time></trkpt><trkpt lat="45.33363590043656" lon="9.274227423891219"><ele>90.0</ele><time>2026-04-02T12:04:19.001Z</time></trkpt><trkpt lat="45.33341943094542" lon="9.274423150002482"><ele>90.0</ele><time>2026-04-02T12:04:20.001Z</time></trkpt><trkpt lat="45.333218107510305" lon="9.274608707488964"><ele>90.0</ele><time>2026-04-02T12:04:21.001Z</time></trkpt><trkpt lat="45.33304345258279" lon="9.27480000982513"><ele>90.33333333333333</ele><time>2026-04-02T12:04:22.001Z</time></trkpt><trkpt lat="45.332865725234484" lon="9.274959756893423"><ele>90.66666666666666</ele><time>2026-04-02T12:04:23.001Z</time></trkpt><trkpt lat="45.332686849073404" lon="9.27511688285753"><ele>91.0</ele><time>2026-04-02T12:04:24.001Z</time></trkpt><trkpt lat="45.3325113549819" lon="9.275263018409285"><ele>91.0</ele><time>2026-04-02T12:04:25.001Z</time></trkpt><trkpt lat="45.332338154999555" lon="9.275404592969663"><ele>91.0</ele><time>2026-04-02T12:04:26.001Z</time></trkpt><trkpt lat="45.33216977783019" lon="9.275548644856793"><ele>91.0</ele><time>2026-04-02T12:04:27.001Z</time></trkpt><trkpt lat="45.33200259161581" lon="9.2757063878935"><ele>90.66666666666666</ele><time>2026-04-02T12:04:28.001Z</time></trkpt><trkpt lat="45.331840512251354" lon="9.275874702793525"><ele>90.33333333333333</ele><time>2026-04-02T12:04:29.002Z</time></trkpt><trkpt lat="45.3316778816272" lon="9.276052637380749"><ele>90.0</ele><time>2026-04-02T12:04:30.002Z</time></trkpt><trkpt lat="45.33151467417355" lon="9.276232582038048"><ele>90.0</ele><time>2026-04-02T12:04:31.002Z</time></trkpt><trkpt lat="45.33135473960406" lon="9.276413798077039"><ele>90.0</ele><time>2026-04-02T12:04:32.002Z</time></trkpt><trkpt lat="45.33119782877035" lon="9.276595040334154"><ele>90.0</ele><time>2026-04-02T12:04:33.002Z</time></trkpt><trkpt lat="45.331043005765125" lon="9.27677363060477"><ele>90.0</ele><time>2026-04-02T12:04:34.002Z</time></trkpt><trkpt lat="45.33089132209035" lon="9.276956146253301"><ele>90.0</ele><time>2026-04-02T12:04:35Z</time></trkpt><trkpt lat="45.330739396522226" lon="9.27713530104315"><ele>90.0</ele><time>2026-04-02T12:04:36Z</time></trkpt><trkpt lat="45.3305889549569" lon="9.277302525629658"><ele>89.33333333333333</ele><time>2026-04-02T12:04:37Z</time></trkpt><trkpt lat="45.33042789553638" lon="9.27746657611045"><ele>88.66666666666666</ele><time>2026-04-02T12:04:38Z</time></trkpt><trkpt lat="45.330268224282726" lon="9.27761787358652"><ele>88.0</ele><time>2026-04-02T12:04:39Z</time></trkpt><trkpt lat="45.33010008991455" lon="9.277766628091788"><ele>88.0</ele><time>2026-04-02T12:04:40Z</time></trkpt><trkpt lat="45.329935599611524" lon="9.27791584498335"><ele>88.0</ele><time>2026-04-02T12:04:41Z</time></trkpt><trkpt lat="45.32977156440763" lon="9.278062849991661"><ele>88.0</ele><time>2026-04-02T12:04:42Z</time></trkpt><trkpt lat="45.32960977713377" lon="9.278208595930803"><ele>87.66666666666666</ele><time>2026-04-02T12:04:43Z</time></trkpt><trkpt lat="45.32945072851681" lon="9.278356872013385"><ele>87.33333333333333</ele><time>2026-04-02T12:04:44Z</time></trkpt><trkpt lat="45.32929074143267" lon="9.278503990581692"><ele>87.0</ele><time>2026-04-02T12:04:45Z</time></trkpt><trkpt lat="45.32913122932667" lon="9.27865065459663"><ele>87.0</ele><time>2026-04-02T12:04:46Z</time></trkpt><trkpt lat="45.328972457917025" lon="9.278798059895426"><ele>87.0</ele><time>2026-04-02T12:04:47Z</time></trkpt><trkpt lat="45.3288152778139" lon="9.278944922010691"><ele>87.0</ele><time>2026-04-02T12:04:48Z</time></trkpt><trkpt lat="45.3286564951201" lon="9.279092617482958"><ele>87.0</ele><time>2026-04-02T12:04:49Z</time></trkpt><trkpt lat="45.32849842915604" lon="9.279238599590233"><ele>87.0</ele><time>2026-04-02T12:04:50Z</time></trkpt><trkpt lat="45.32833889700842" lon="9.279386573620277"><ele>87.0</ele><time>2026-04-02T12:04:51Z</time></trkpt><trkpt lat="45.32818095321272" lon="9.279534011751663"><ele>87.0</ele><time>2026-04-02T12:04:52Z</time></trkpt><trkpt lat="45.328025517643404" lon="9.279680204152054"><ele>87.0</ele><time>2026-04-02T12:04:53Z</time></trkpt><trkpt lat="45.32787204025424" lon="9.27982794962349"><ele>87.0</ele><time>2026-04-02T12:04:54Z</time></trkpt><trkpt lat="45.32772136632208" lon="9.279976160955718"><ele>88.0</ele><time>2026-04-02T12:04:55Z</time></trkpt><trkpt lat="45.327565572562975" lon="9.280128813743461"><ele>89.0</ele><time>2026-04-02T12:04:56Z</time></trkpt><trkpt lat="45.327406569353684" lon="9.280283126734437"><ele>90.0</ele><time>2026-04-02T12:04:57Z</time></trkpt><trkpt lat="45.32725299662618" lon="9.28042727584173"><ele>90.0</ele><time>2026-04-02T12:04:58Z</time></trkpt><trkpt lat="45.32710568146773" lon="9.280569913202475"><ele>90.0</ele><time>2026-04-02T12:04:59Z</time></trkpt><trkpt lat="45.326956989512524" lon="9.280710766984935"><ele>90.0</ele><time>2026-04-02T12:05:00Z</time></trkpt><trkpt lat="45.32680597363063" lon="9.280847810362728"><ele>90.0</ele><time>2026-04-02T12:05:01Z</time></trkpt><trkpt lat="45.32665001438704" lon="9.28098168094927"><ele>90.0</ele><time>2026-04-02T12:05:02Z</time></trkpt><trkpt lat="45.32650175561975" lon="9.281109499986522"><ele>90.0</ele><time>2026-04-02T12:05:03Z</time></trkpt><trkpt lat="45.3263535098952" lon="9.281239789953354"><ele>89.66666666666667</ele><time>2026-04-02T12:05:04Z</time></trkpt><trkpt lat="45.32620973320433" lon="9.281369956191925"><ele>89.33333333333334</ele><time>2026-04-02T12:05:05Z</time></trkpt><trkpt lat="45.32606905049354" lon="9.281502480034083"><ele>89.0</ele><time>2026-04-02T12:05:06Z</time></trkpt><trkpt lat="45.32593627713899" lon="9.281635273629425"><ele>89.0</ele><time>2026-04-02T12:05:07Z</time></trkpt><trkpt lat="45.32581075940319" lon="9.281777124984352"><ele>89.0</ele><time>2026-04-02T12:05:08Z</time></trkpt><trkpt lat="45.32569201846459" lon="9.281946383584206"><ele>89.0</ele><time>2026-04-02T12:05:09Z</time></trkpt><trkpt lat="45.3255774361217" lon="9.28212922812556"><ele>89.0</ele><time>2026-04-02T12:05:10Z</time></trkpt><trkpt lat="45.32547449329827" lon="9.282302679705234"><ele>89.0</ele><time>2026-04-02T12:05:11Z</time></trkpt><trkpt lat="45.32538320159295" lon="9.282468717152776"><ele>89.0</ele><time>2026-04-02T12:05:12Z</time></trkpt><trkpt lat="45.325304396540616" lon="9.282623212643045"><ele>89.0</ele><time>2026-04-02T12:05:13Z</time></trkpt><trkpt lat="45.32523554961546" lon="9.282753482669108"><ele>89.0</ele><time>2026-04-02T12:05:14Z</time></trkpt><trkpt lat="45.325166503673074" lon="9.28285688695655"><ele>89.0</ele><time>2026-04-02T12:05:15Z</time></trkpt><trkpt lat="45.32509096340834" lon="9.28293722101512"><ele>89.0</ele><time>2026-04-02T12:05:16Z</time></trkpt><trkpt lat="45.324999287838416" lon="9.282969975646678"><ele>89.0</ele><time>2026-04-02T12:05:17Z</time></trkpt><trkpt lat="45.32489579036934" lon="9.282954646001214"><ele>89.0</ele><time>2026-04-02T12:05:18Z</time></trkpt><trkpt lat="45.32478679280391" lon="9.282908449790279"><ele>88.75</ele><time>2026-04-02T12:05:19Z</time></trkpt><trkpt lat="45.324683688980286" lon="9.282829188784229"><ele>88.5</ele><time>2026-04-02T12:05:20Z</time></trkpt><trkpt lat="45.32458640151171" lon="9.28272400056759"><ele>88.25</ele><time>2026-04-02T12:05:21Z</time></trkpt><trkpt lat="45.32449160703583" lon="9.282605695902383"><ele>88.0</ele><time>2026-04-02T12:05:22Z</time></trkpt><trkpt lat="45.324395356280235" lon="9.282479738591615"><ele>88.0</ele><time>2026-04-02T12:05:23Z</time></trkpt><trkpt lat="45.32430197423532" lon="9.282346812014671"><ele>88.0</ele><time>2026-04-02T12:05:24Z</time></trkpt><trkpt lat="45.32421808674962" lon="9.282199568922108"><ele>88.0</ele><time>2026-04-02T12:05:25Z</time></trkpt><trkpt lat="45.324120415323335" lon="9.28206331200447"><ele>88.0</ele><time>2026-04-02T12:05:26Z</time></trkpt><trkpt lat="45.324008541358" lon="9.28190684176144"><ele>88.0</ele><time>2026-04-02T12:05:27.001Z</time></trkpt><trkpt lat="45.32387910942788" lon="9.281725774485448"><ele>88.0</ele><time>2026-04-02T12:05:28.001Z</time></trkpt><trkpt lat="45.32372760116711" lon="9.281513553319073"><ele>88.0</ele><time>2026-04-02T12:05:29.001Z</time></trkpt><trkpt lat="45.323561841792724" lon="9.281282994686164"><ele>88.0</ele><time>2026-04-02T12:05:30.001Z</time></trkpt><trkpt lat="45.323379980496156" lon="9.281061863276912"><ele>88.0</ele><time>2026-04-02T12:05:31.001Z</time></trkpt><trkpt lat="45.323205709702044" lon="9.280805369773981"><ele>87.5</ele><time>2026-04-02T12:05:32.001Z</time></trkpt><trkpt lat="45.323023108542586" lon="9.280550132535323"><ele>87.0</ele><time>2026-04-02T12:05:33.001Z</time></trkpt><trkpt lat="45.32283355178172" lon="9.280289693588875"><ele>87.0</ele><time>2026-04-02T12:05:34.001Z</time></trkpt><trkpt lat="45.322641074431296" lon="9.280022107989243"><ele>87.0</ele><time>2026-04-02T12:05:35.001Z</time></trkpt><trkpt lat="45.32245945977567" lon="9.279768754868291"><ele>87.0</ele><time>2026-04-02T12:05:36.001Z</time></trkpt><trkpt lat="45.322294948779465" lon="9.27953670411193"><ele>87.0</ele><time>2026-04-02T12:05:37.001Z</time></trkpt><trkpt lat="45.322142268738006" lon="9.279324318053652"><ele>87.0</ele><time>2026-04-02T12:05:38.001Z</time></trkpt><trkpt lat="45.32199846039328" lon="9.279123449253616"><ele>87.0</ele><time>2026-04-02T12:05:39.001Z</time></trkpt><trkpt lat="45.321866720687694" lon="9.278938704279193"><ele>87.0</ele><time>2026-04-02T12:05:40.001Z</time></trkpt><trkpt lat="45.32175502328282" lon="9.278774326945134"><ele>87.0</ele><time>2026-04-02T12:05:41.001Z</time></trkpt><trkpt lat="45.321663950298436" lon="9.278641312539918"><ele>87.0</ele><time>2026-04-02T12:05:42.001Z</time></trkpt><trkpt lat="45.321588307468964" lon="9.278528012688424"><ele>87.0</ele><time>2026-04-02T12:05:43.001Z</time></trkpt><trkpt lat="45.32152265264231" lon="9.278410858339026"><ele>87.0</ele><time>2026-04-02T12:05:44.001Z</time></trkpt><trkpt lat="45.32147237173693" lon="9.278284924288556"><ele>87.0</ele><time>2026-04-02T12:05:45.001Z</time></trkpt><trkpt lat="45.32144197870118" lon="9.278156649926093"><ele>87.0</ele><time>2026-04-02T12:05:46.001Z</time></trkpt><trkpt lat="45.32141728138797" lon="9.278026432216931"><ele>87.0</ele><time>2026-04-02T12:05:47.001Z</time></trkpt><trkpt lat="45.32136426852932" lon="9.277921266985487"><ele>87.0</ele><time>2026-04-02T12:05:48.001Z</time></trkpt><trkpt lat="45.32126558145672" lon="9.277862786480904"><ele>87.0</ele><time>2026-04-02T12:05:49.001Z</time></trkpt><trkpt lat="45.321147534987595" lon="9.277828881909125"><ele>87.0</ele><time>2026-04-02T12:05:50.001Z</time></trkpt><trkpt lat="45.32102947771709" lon="9.277755495902156"><ele>87.0</ele><time>2026-04-02T12:05:51.001Z</time></trkpt><trkpt lat="45.32090950968393" lon="9.277652687572274"><ele>87.0</ele><time>2026-04-02T12:05:52.001Z</time></trkpt><trkpt lat="45.320817405302" lon="9.277456068207943"><ele>87.0</ele><time>2026-04-02T12:05:53.001Z</time></trkpt><trkpt lat="45.320718346968185" lon="9.277297071157296"><ele>87.0</ele><time>2026-04-02T12:05:54.001Z</time></trkpt><trkpt lat="45.32060931677396" lon="9.277148487122583"><ele>88.0</ele><time>2026-04-02T12:05:55.001Z</time></trkpt><trkpt lat="45.320502700800304" lon="9.276999979419086"><ele>89.0</ele><time>2026-04-02T12:05:56.001Z</time></trkpt><trkpt lat="45.32039952598068" lon="9.276854813405148"><ele>90.0</ele><time>2026-04-02T12:05:57.001Z</time></trkpt><trkpt lat="45.32030120852683" lon="9.27671178370642"><ele>91.0</ele><time>2026-04-02T12:05:58.001Z</time></trkpt><trkpt lat="45.320205942911194" lon="9.276570084827975"><ele>90.5</ele><time>2026-04-02T12:05:59.001Z</time></trkpt><trkpt lat="45.320109752902894" lon="9.276430687250512"><ele>90.0</ele><time>2026-04-02T12:06:00.001Z</time></trkpt><trkpt lat="45.320012089128696" lon="9.27629550965764"><ele>89.5</ele><time>2026-04-02T12:06:01.001Z</time></trkpt><trkpt lat="45.319911714710635" lon="9.276158649786975"><ele>89.0</ele><time>2026-04-02T12:06:02.001Z</time></trkpt><trkpt lat="45.319809594971495" lon="9.27601803907371"><ele>88.75</ele><time>2026-04-02T12:06:03.001Z</time></trkpt><trkpt lat="45.319706082376634" lon="9.275875499347125"><ele>88.5</ele><time>2026-04-02T12:06:04.001Z</time></trkpt><trkpt lat="45.31960153527861" lon="9.27573073444893"><ele>88.25</ele><time>2026-04-02T12:06:05.001Z</time></trkpt><trkpt lat="45.31949640977841" lon="9.275583049993026"><ele>88.0</ele><time>2026-04-02T12:06:06.001Z</time></trkpt><trkpt lat="45.31939290891497" lon="9.275437397749565"><ele>88.0</ele><time>2026-04-02T12:06:07.001Z</time></trkpt><trkpt lat="45.319288478083564" lon="9.275289493414288"><ele>88.0</ele><time>2026-04-02T12:06:08.001Z</time></trkpt><trkpt lat="45.31918353046005" lon="9.275139076848292"><ele>88.0</ele><time>2026-04-02T12:06:09.001Z</time></trkpt><trkpt lat="45.31907833088489" lon="9.27498933275893"><ele>88.0</ele><time>2026-04-02T12:06:10.001Z</time></trkpt><trkpt lat="45.31897265742579" lon="9.27483953489982"><ele>88.25</ele><time>2026-04-02T12:06:11.001Z</time></trkpt><trkpt lat="45.318868282093995" lon="9.274685937883204"><ele>88.5</ele><time>2026-04-02T12:06:12.001Z</time></trkpt><trkpt lat="45.31876372773318" lon="9.27453584613956"><ele>88.75</ele><time>2026-04-02T12:06:13.001Z</time></trkpt><trkpt lat="45.31865999922869" lon="9.27438941471512"><ele>89.0</ele><time>2026-04-02T12:06:14.001Z</time></trkpt><trkpt lat="45.31855444650879" lon="9.27424324833635"><ele>89.0</ele><time>2026-04-02T12:06:15.001Z</time></trkpt><trkpt lat="45.31845197642016" lon="9.274095790076629"><ele>89.0</ele><time>2026-04-02T12:06:16.001Z</time></trkpt><trkpt lat="45.31835052222962" lon="9.27394853039975"><ele>89.0</ele><time>2026-04-02T12:06:17.001Z</time></trkpt><trkpt lat="45.31825123909201" lon="9.273804960674005"><ele>89.0</ele><time>2026-04-02T12:06:18.001Z</time></trkpt><trkpt lat="45.318155248402235" lon="9.273669287497876"><ele>89.0</ele><time>2026-04-02T12:06:19.001Z</time></trkpt><trkpt lat="45.318061481856084" lon="9.273536051704061"><ele>89.0</ele><time>2026-04-02T12:06:20.001Z</time></trkpt><trkpt lat="45.31797177596645" lon="9.273409377669969"><ele>89.0</ele><time>2026-04-02T12:06:21.001Z</time></trkpt><trkpt lat="45.31788986473759" lon="9.273294689985427"><ele>89.0</ele><time>2026-04-02T12:06:22.001Z</time></trkpt><trkpt lat="45.317811165188786" lon="9.273182972018978"><ele>88.25</ele><time>2026-04-02T12:06:23.001Z</time></trkpt><trkpt lat="45.31773308772982" lon="9.273067795310835"><ele>87.5</ele><time>2026-04-02T12:06:24.001Z</time></trkpt><trkpt lat="45.31765272706313" lon="9.272952200970588"><ele>86.75</ele><time>2026-04-02T12:06:25.002Z</time></trkpt><trkpt lat="45.31756941906746" lon="9.272836764302438"><ele>86.0</ele><time>2026-04-02T12:06:26.002Z</time></trkpt><trkpt lat="45.3174901985879" lon="9.272723353557259"><ele>86.0</ele><time>2026-04-02T12:06:27.002Z</time></trkpt><trkpt lat="45.317409936470725" lon="9.272611239517502"><ele>86.0</ele><time>2026-04-02T12:06:28.002Z</time></trkpt><trkpt lat="45.317329983920885" lon="9.272500878433318"><ele>86.0</ele><time>2026-04-02T12:06:29.002Z</time></trkpt><trkpt lat="45.31724837917383" lon="9.272390885225787"><ele>86.0</ele><time>2026-04-02T12:06:30.002Z</time></trkpt><trkpt lat="45.317168733325964" lon="9.272279595094261"><ele>86.0</ele><time>2026-04-02T12:06:31.002Z</time></trkpt><trkpt lat="45.31708986312878" lon="9.272166612262813"><ele>86.5</ele><time>2026-04-02T12:06:32.002Z</time></trkpt><trkpt lat="45.317010848524795" lon="9.272054258372956"><ele>87.0</ele><time>2026-04-02T12:06:33.002Z</time></trkpt><trkpt lat="45.31693065919765" lon="9.271941898889526"><ele>87.5</ele><time>2026-04-02T12:06:34.002Z</time></trkpt><trkpt lat="45.316849131630434" lon="9.271827650607962"><ele>88.0</ele><time>2026-04-02T12:06:35.002Z</time></trkpt><trkpt lat="45.31676633881709" lon="9.271712332208267"><ele>88.0</ele><time>2026-04-02T12:06:36.002Z</time></trkpt><trkpt lat="45.3166834829478" lon="9.271596118738714"><ele>88.0</ele><time>2026-04-02T12:06:37.002Z</time></trkpt><trkpt lat="45.31660389463056" lon="9.271484700160187"><ele>88.0</ele><time>2026-04-02T12:06:38.002Z</time></trkpt><trkpt lat="45.31652341959938" lon="9.271373699153378"><ele>88.0</ele><time>2026-04-02T12:06:39.002Z</time></trkpt><trkpt lat="45.31644997407837" lon="9.27127254191574"><ele>88.0</ele><time>2026-04-02T12:06:40.002Z</time></trkpt><trkpt lat="45.316382326793985" lon="9.271180172957006"><ele>87.83333333333333</ele><time>2026-04-02T12:06:41Z</time></trkpt><trkpt lat="45.31632719882816" lon="9.271103005338036"><ele>87.66666666666666</ele><time>2026-04-02T12:06:42Z</time></trkpt><trkpt lat="45.31627377090864" lon="9.271025167584131"><ele>87.5</ele><time>2026-04-02T12:06:43Z</time></trkpt><trkpt lat="45.31621920641301" lon="9.270947503044102"><ele>87.33333333333333</ele><time>2026-04-02T12:06:44Z</time></trkpt><trkpt lat="45.31615899588402" lon="9.270863700452997"><ele>87.16666666666667</ele><time>2026-04-02T12:06:45Z</time></trkpt><trkpt lat="45.31609822353858" lon="9.270780333442515"><ele>87.0</ele><time>2026-04-02T12:06:46Z</time></trkpt><trkpt lat="45.31603671770676" lon="9.270699328887737"><ele>87.0</ele><time>2026-04-02T12:06:47Z</time></trkpt><trkpt lat="45.31596803875662" lon="9.270623185057397"><ele>87.0</ele><time>2026-04-02T12:06:48Z</time></trkpt><trkpt lat="45.315894009382816" lon="9.270564293335251"><ele>87.0</ele><time>2026-04-02T12:06:49Z</time></trkpt><trkpt lat="45.31581503037467" lon="9.2705128470871"><ele>87.0</ele><time>2026-04-02T12:06:50Z</time></trkpt><trkpt lat="45.31573500862044" lon="9.270474765496196"><ele>87.0</ele><time>2026-04-02T12:06:51Z</time></trkpt><trkpt lat="45.315649447978586" lon="9.2704437282457"><ele>87.0</ele><time>2026-04-02T12:06:52Z</time></trkpt><trkpt lat="45.31556228601455" lon="9.270410605512431"><ele>87.0</ele><time>2026-04-02T12:06:53Z</time></trkpt><trkpt lat="45.31547008667413" lon="9.270382865829971"><ele>87.0</ele><time>2026-04-02T12:06:54Z</time></trkpt><trkpt lat="45.31537374790506" lon="9.270358698164612"><ele>87.0</ele><time>2026-04-02T12:06:55Z</time></trkpt><trkpt lat="45.3152724476496" lon="9.270332005807735"><ele>87.0</ele><time>2026-04-02T12:06:56Z</time></trkpt><trkpt lat="45.3151668436351" lon="9.270300412281552"><ele>87.0</ele><time>2026-04-02T12:06:57Z</time></trkpt><trkpt lat="45.315061062470875" lon="9.27026402935959"><ele>87.0</ele><time>2026-04-02T12:06:58Z</time></trkpt><trkpt lat="45.31494784964366" lon="9.27022226891791"><ele>87.0</ele><time>2026-04-02T12:06:59Z</time></trkpt><trkpt lat="45.314829093390706" lon="9.27018790811469"><ele>87.0</ele><time>2026-04-02T12:07:00Z</time></trkpt><trkpt lat="45.31470567177884" lon="9.270161569974222"><ele>87.0</ele><time>2026-04-02T12:07:01Z</time></trkpt><trkpt lat="45.31458215442637" lon="9.270151550633182"><ele>87.25</ele><time>2026-04-02T12:07:02Z</time></trkpt><trkpt lat="45.31445731264986" lon="9.270157242943183"><ele>87.5</ele><time>2026-04-02T12:07:03Z</time></trkpt><trkpt lat="45.31433095076918" lon="9.270187811812098"><ele>87.75</ele><time>2026-04-02T12:07:04Z</time></trkpt><trkpt lat="45.31419424977808" lon="9.270241952132565"><ele>88.0</ele><time>2026-04-02T12:07:05Z</time></trkpt><trkpt lat="45.31405816063284" lon="9.270311809548332"><ele>88.0</ele><time>2026-04-02T12:07:06Z</time></trkpt><trkpt lat="45.31393012474867" lon="9.270393231346102"><ele>88.0</ele><time>2026-04-02T12:07:07Z</time></trkpt><trkpt lat="45.31380519970213" lon="9.270479982781557"><ele>88.0</ele><time>2026-04-02T12:07:08Z</time></trkpt><trkpt lat="45.31368541182058" lon="9.27057290277117"><ele>88.0</ele><time>2026-04-02T12:07:09Z</time></trkpt><trkpt lat="45.3135676104815" lon="9.270666298635177"><ele>88.0</ele><time>2026-04-02T12:07:10.001Z</time></trkpt><trkpt lat="45.31345068335105" lon="9.270758467065583"><ele>88.0</ele><time>2026-04-02T12:07:11.001Z</time></trkpt><trkpt lat="45.31333023725485" lon="9.270852548977452"><ele>88.0</ele><time>2026-04-02T12:07:12.001Z</time></trkpt><trkpt lat="45.31320794218685" lon="9.270945938500475"><ele>88.0</ele><time>2026-04-02T12:07:13.001Z</time></trkpt><trkpt lat="45.31308910212127" lon="9.27104155846999"><ele>88.25</ele><time>2026-04-02T12:07:14.001Z</time></trkpt><trkpt lat="45.31297002117467" lon="9.271133862788304"><ele>88.5</ele><time>2026-04-02T12:07:15.001Z</time></trkpt><trkpt lat="45.31284931191077" lon="9.27122392567357"><ele>88.75</ele><time>2026-04-02T12:07:16.001Z</time></trkpt><trkpt lat="45.312729625609244" lon="9.271313151360745"><ele>89.0</ele><time>2026-04-02T12:07:17.001Z</time></trkpt><trkpt lat="45.31261080637308" lon="9.27140233515792"><ele>89.0</ele><time>2026-04-02T12:07:18.001Z</time></trkpt><trkpt lat="45.31248889644257" lon="9.271494404599986"><ele>89.0</ele><time>2026-04-02T12:07:19.001Z</time></trkpt><trkpt lat="45.3123674462752" lon="9.271586243374566"><ele>89.0</ele><time>2026-04-02T12:07:20.001Z</time></trkpt><trkpt lat="45.3122465197375" lon="9.27167981204974"><ele>89.0</ele><time>2026-04-02T12:07:21.001Z</time></trkpt><trkpt lat="45.31212514202416" lon="9.271773213727275"><ele>88.5</ele><time>2026-04-02T12:07:22.001Z</time></trkpt><trkpt lat="45.31200789524" lon="9.271863843360727"><ele>88.0</ele><time>2026-04-02T12:07:23.001Z</time></trkpt><trkpt lat="45.311886943131405" lon="9.271954307251143"><ele>87.5</ele><time>2026-04-02T12:07:24.001Z</time></trkpt><trkpt lat="45.311764010681806" lon="9.272043145434404"><ele>87.0</ele><time>2026-04-02T12:07:25.001Z</time></trkpt><trkpt lat="45.31164360291149" lon="9.272133838616975"><ele>87.0</ele><time>2026-04-02T12:07:26.001Z</time></trkpt><trkpt lat="45.31153304421268" lon="9.272214862638346"><ele>87.0</ele><time>2026-04-02T12:07:27.001Z</time></trkpt><trkpt lat="45.31142720049885" lon="9.272292796240137"><ele>87.0</ele><time>2026-04-02T12:07:28.001Z</time></trkpt><trkpt lat="45.31132274405485" lon="9.272369593695604"><ele>87.0</ele><time>2026-04-02T12:07:29.001Z</time></trkpt><trkpt lat="45.31121835810712" lon="9.272442014006042"><ele>86.75</ele><time>2026-04-02T12:07:30.001Z</time></trkpt><trkpt lat="45.31111557447035" lon="9.272512136872912"><ele>86.5</ele><time>2026-04-02T12:07:31.001Z</time></trkpt><trkpt lat="45.311011461763435" lon="9.27258630273902"><ele>86.25</ele><time>2026-04-02T12:07:32.001Z</time></trkpt><trkpt lat="45.310906050943565" lon="9.272658116961619"><ele>86.0</ele><time>2026-04-02T12:07:33.001Z</time></trkpt><trkpt lat="45.310796042251305" lon="9.272721006840582"><ele>86.0</ele><time>2026-04-02T12:07:34.001Z</time></trkpt><trkpt lat="45.31068309368129" lon="9.272773748536402"><ele>86.0</ele><time>2026-04-02T12:07:35.001Z</time></trkpt><trkpt lat="45.31056827436417" lon="9.272817630705072"><ele>86.0</ele><time>2026-04-02T12:07:36.001Z</time></trkpt><trkpt lat="45.31045322030332" lon="9.272844148714732"><ele>86.0</ele><time>2026-04-02T12:07:37.001Z</time></trkpt><trkpt lat="45.3103383464771" lon="9.272856763485661"><ele>86.0</ele><time>2026-04-02T12:07:38.001Z</time></trkpt><trkpt lat="45.310230981509314" lon="9.272852308872904"><ele>86.0</ele><time>2026-04-02T12:07:39.001Z</time></trkpt><trkpt lat="45.310134156064336" lon="9.2728369356238"><ele>86.0</ele><time>2026-04-02T12:07:40.001Z</time></trkpt><trkpt lat="45.31004925054273" lon="9.272813947127025"><ele>86.0</ele><time>2026-04-02T12:07:41.001Z</time></trkpt><trkpt lat="45.3099727310069" lon="9.272783599002638"><ele>86.0</ele><time>2026-04-02T12:07:42.001Z</time></trkpt><trkpt lat="45.309899299542266" lon="9.272743967091653"><ele>86.0</ele><time>2026-04-02T12:07:43.001Z</time></trkpt><trkpt lat="45.30983372544432" lon="9.272683186020249"><ele>86.0</ele><time>2026-04-02T12:07:44.001Z</time></trkpt><trkpt lat="45.309780224643035" lon="9.272613801159302"><ele>86.0</ele><time>2026-04-02T12:07:45.001Z</time></trkpt><trkpt lat="45.309736772171945" lon="9.27254161117846"><ele>86.0</ele><time>2026-04-02T12:07:46.001Z</time></trkpt><trkpt lat="45.30970085815078" lon="9.272463491051242"><ele>86.0</ele><time>2026-04-02T12:07:47.001Z</time></trkpt><trkpt lat="45.30965987289632" lon="9.272311392269348"><ele>86.0</ele><time>2026-04-02T12:07:49.001Z</time></trkpt><trkpt lat="45.30965203690371" lon="9.27222237451451"><ele>86.0</ele><time>2026-04-02T12:07:51.001Z</time></trkpt><trkpt lat="45.30965448698247" lon="9.272092524617754"><ele>86.0</ele><time>2026-04-02T12:08:05.001Z</time></trkpt><trkpt lat="45.3096593990449" lon="9.271984666358701"><ele>86.0</ele><time>2026-04-02T12:08:09.002Z</time></trkpt><trkpt lat="45.309677627289275" lon="9.271898820654936"><ele>86.0</ele><time>2026-04-02T12:08:15.002Z</time></trkpt><trkpt lat="45.3096929771213" lon="9.271684525606227"><ele>86.0</ele><time>2026-04-02T12:08:17.002Z</time></trkpt><trkpt lat="45.30967688297595" lon="9.271554803841518"><ele>86.0</ele><time>2026-04-02T12:08:18.002Z</time></trkpt><trkpt lat="45.309645052316725" lon="9.271431158700532"><ele>86.0</ele><time>2026-04-02T12:08:19.002Z</time></trkpt><trkpt lat="45.30958724413734" lon="9.271325988018793"><ele>86.0</ele><time>2026-04-02T12:08:20.002Z</time></trkpt><trkpt lat="45.30949245009377" lon="9.271247380069681"><ele>86.0</ele><time>2026-04-02T12:08:21.002Z</time></trkpt><trkpt lat="45.309362430082174" lon="9.271168156023686"><ele>86.0</ele><time>2026-04-02T12:08:22.002Z</time></trkpt><trkpt lat="45.30923886565767" lon="9.271114502628485"><ele>86.0</ele><time>2026-04-02T12:08:23.002Z</time></trkpt><trkpt lat="45.30914135764648" lon="9.27105006074327"><ele>86.0</ele><time>2026-04-02T12:08:24.002Z</time></trkpt><trkpt lat="45.30906873403028" lon="9.270973521162391"><ele>86.0</ele><time>2026-04-02T12:08:25.002Z</time></trkpt><trkpt lat="45.309006621394246" lon="9.270893201848308"><ele>86.0</ele><time>2026-04-02T12:08:26.002Z</time></trkpt><trkpt lat="45.30894890380627" lon="9.270815219149936"><ele>86.0</ele><time>2026-04-02T12:08:27.002Z</time></trkpt><trkpt lat="45.30890895136019" lon="9.270722843616104"><ele>86.0</ele><time>2026-04-02T12:08:28.002Z</time></trkpt><trkpt lat="45.3088280278894" lon="9.270614743806384"><ele>86.16666666666667</ele><time>2026-04-02T12:08:30.002Z</time></trkpt><trkpt lat="45.3087793157244" lon="9.270519301272094"><ele>86.33333333333334</ele><time>2026-04-02T12:08:32.002Z</time></trkpt><trkpt lat="45.308724811457154" lon="9.270420207166268"><ele>86.5</ele><time>2026-04-02T12:08:34.002Z</time></trkpt><trkpt lat="45.30867041380423" lon="9.270328913731095"><ele>86.66666666666667</ele><time>2026-04-02T12:08:36.002Z</time></trkpt><trkpt lat="45.30861477352503" lon="9.270235024312136"><ele>86.83333333333333</ele><time>2026-04-02T12:08:38.002Z</time></trkpt><trkpt lat="45.30855816205618" lon="9.270132393643474"><ele>87.0</ele><time>2026-04-02T12:08:40.002Z</time></trkpt><trkpt lat="45.308506668487084" lon="9.270041595215877"><ele>87.0</ele><time>2026-04-02T12:08:42.002Z</time></trkpt><trkpt lat="45.30846271282118" lon="9.269964588880029"><ele>87.0</ele><time>2026-04-02T12:08:44.002Z</time></trkpt><trkpt lat="45.30840314472678" lon="9.269864151008587"><ele>87.0</ele><time>2026-04-02T12:08:47.001Z</time></trkpt><trkpt lat="45.30834868200181" lon="9.269769604070728"><ele>87.0</ele><time>2026-04-02T12:08:50.001Z</time></trkpt><trkpt lat="45.308299185611794" lon="9.269687453693468"><ele>87.0</ele><time>2026-04-02T12:08:52.001Z</time></trkpt><trkpt lat="45.30824536465634" lon="9.269590248864288"><ele>87.0</ele><time>2026-04-02T12:08:54.001Z</time></trkpt><trkpt lat="45.308187742482694" lon="9.269485928626334"><ele>87.0</ele><time>2026-04-02T12:08:56.001Z</time></trkpt><trkpt lat="45.30812890246817" lon="9.269377496326909"><ele>87.0</ele><time>2026-04-02T12:08:58.001Z</time></trkpt><trkpt lat="45.30807527010612" lon="9.269277721439689"><ele>87.0</ele><time>2026-04-02T12:09:00Z</time></trkpt><trkpt lat="45.308034241812" lon="9.269201089223401"><ele>87.0</ele><time>2026-04-02T12:09:02Z</time></trkpt><trkpt lat="45.30797440192192" lon="9.269095187645002"><ele>87.0</ele><time>2026-04-02T12:09:05.001Z</time></trkpt><trkpt lat="45.307933680514715" lon="9.269018274504415"><ele>87.0</ele><time>2026-04-02T12:09:07.001Z</time></trkpt><trkpt lat="45.307905062472074" lon="9.268922555696173"><ele>86.8</ele><time>2026-04-02T12:09:09.001Z</time></trkpt><trkpt lat="45.30789001599907" lon="9.268810382605443"><ele>86.6</ele><time>2026-04-02T12:09:11.001Z</time></trkpt><trkpt lat="45.30787993926789" lon="9.26867393856565"><ele>86.39999999999999</ele><time>2026-04-02T12:09:13.001Z</time></trkpt><trkpt lat="45.307891441769144" lon="9.268522694250642"><ele>86.19999999999999</ele><time>2026-04-02T12:09:15.001Z</time></trkpt><trkpt lat="45.30781240763904" lon="9.268341960394396"><ele>86.0</ele><time>2026-04-02T12:09:17.001Z</time></trkpt><trkpt lat="45.307718053924255" lon="9.268266771680345"><ele>86.0</ele><time>2026-04-02T12:09:18.001Z</time></trkpt><trkpt lat="45.30759356938397" lon="9.268224334544502"><ele>86.0</ele><time>2026-04-02T12:09:19.001Z</time></trkpt><trkpt lat="45.30745545009304" lon="9.26813353873932"><ele>86.0</ele><time>2026-04-02T12:09:20.001Z</time></trkpt><trkpt lat="45.30731641791183" lon="9.268065236218757"><ele>86.0</ele><time>2026-04-02T12:09:21.001Z</time></trkpt><trkpt lat="45.30720247315442" lon="9.267798265902035"><ele>86.0</ele><time>2026-04-02T12:09:22.001Z</time></trkpt><trkpt lat="45.3070720639829" lon="9.267563476310041"><ele>86.0</ele><time>2026-04-02T12:09:23.001Z</time></trkpt><trkpt lat="45.306927501698745" lon="9.267308667905594"><ele>86.0</ele><time>2026-04-02T12:09:24.001Z</time></trkpt><trkpt lat="45.30679499933993" lon="9.267083029918952"><ele>86.33333333333334</ele><time>2026-04-02T12:09:25.001Z</time></trkpt><trkpt lat="45.306675918121016" lon="9.266876218667292"><ele>86.66666666666667</ele><time>2026-04-02T12:09:26.001Z</time></trkpt><trkpt lat="45.306563879933584" lon="9.266683194391762"><ele>87.0</ele><time>2026-04-02T12:09:27.001Z</time></trkpt><trkpt lat="45.3064470467188" lon="9.266488649210478"><ele>86.33333333333333</ele><time>2026-04-02T12:09:28.001Z</time></trkpt><trkpt lat="45.30633041093428" lon="9.266290853860601"><ele>85.66666666666666</ele><time>2026-04-02T12:09:29.001Z</time></trkpt><trkpt lat="45.30621441375909" lon="9.266093996033035"><ele>85.0</ele><time>2026-04-02T12:09:30.001Z</time></trkpt><trkpt lat="45.306096373440745" lon="9.265893230164837"><ele>85.0</ele><time>2026-04-02T12:09:31.001Z</time></trkpt><trkpt lat="45.30597513145909" lon="9.26568705672391"><ele>85.0</ele><time>2026-04-02T12:09:32.001Z</time></trkpt><trkpt lat="45.305856321048346" lon="9.265487128673676"><ele>85.0</ele><time>2026-04-02T12:09:33.001Z</time></trkpt><trkpt lat="45.30575445909906" lon="9.265315209571314"><ele>85.0</ele><time>2026-04-02T12:09:34.001Z</time></trkpt><trkpt lat="45.30568114212575" lon="9.265204152315656"><ele>85.0</ele><time>2026-04-02T12:09:35.001Z</time></trkpt><trkpt lat="45.30560362106875" lon="9.265085908264089"><ele>85.0</ele><time>2026-04-02T12:09:36.001Z</time></trkpt><trkpt lat="45.30549556507072" lon="9.264892754940842"><ele>85.0</ele><time>2026-04-02T12:09:37.001Z</time></trkpt><trkpt lat="45.305374528403966" lon="9.264671884105594"><ele>84.66666666666666</ele><time>2026-04-02T12:09:38.001Z</time></trkpt><trkpt lat="45.30524150464861" lon="9.26444055824172"><ele>84.33333333333333</ele><time>2026-04-02T12:09:39.001Z</time></trkpt><trkpt lat="45.30509146288313" lon="9.264187753853214"><ele>84.0</ele><time>2026-04-02T12:09:40.001Z</time></trkpt><trkpt lat="45.304928148782274" lon="9.263915057221746"><ele>83.0</ele><time>2026-04-02T12:09:41.001Z</time></trkpt><trkpt lat="45.304765939280884" lon="9.26363700479295"><ele>82.0</ele><time>2026-04-02T12:09:42.001Z</time></trkpt><trkpt lat="45.304611666562224" lon="9.2633665071307"><ele>82.0</ele><time>2026-04-02T12:09:43.001Z</time></trkpt><trkpt lat="45.3044673479642" lon="9.26311872004663"><ele>82.0</ele><time>2026-04-02T12:09:44.001Z</time></trkpt><trkpt lat="45.30432684892974" lon="9.262884464143882"><ele>82.0</ele><time>2026-04-02T12:09:45.001Z</time></trkpt><trkpt lat="45.30418925459585" lon="9.262652530547022"><ele>82.33333333333333</ele><time>2026-04-02T12:09:46.001Z</time></trkpt><trkpt lat="45.30405237464707" lon="9.262420772260826"><ele>82.66666666666667</ele><time>2026-04-02T12:09:47.001Z</time></trkpt><trkpt lat="45.303915323930944" lon="9.262188903185587"><ele>83.0</ele><time>2026-04-02T12:09:48.001Z</time></trkpt><trkpt lat="45.303778147046756" lon="9.261957445335332"><ele>83.33333333333334</ele><time>2026-04-02T12:09:49.001Z</time></trkpt><trkpt lat="45.30364067427292" lon="9.261726789667136"><ele>83.66666666666667</ele><time>2026-04-02T12:09:50.001Z</time></trkpt><trkpt lat="45.30350401042535" lon="9.261497262030147"><ele>84.0</ele><time>2026-04-02T12:09:51.001Z</time></trkpt><trkpt lat="45.30336673404911" lon="9.261265765816797"><ele>84.33333333333333</ele><time>2026-04-02T12:09:52.001Z</time></trkpt><trkpt lat="45.30323332969682" lon="9.261032695507383"><ele>84.66666666666666</ele><time>2026-04-02T12:09:53.001Z</time></trkpt><trkpt lat="45.30309924704275" lon="9.260801456014041"><ele>85.0</ele><time>2026-04-02T12:09:54.001Z</time></trkpt><trkpt lat="45.302966822173445" lon="9.260580842376118"><ele>85.0</ele><time>2026-04-02T12:09:55.001Z</time></trkpt><trkpt lat="45.30283390598705" lon="9.260356142236006"><ele>85.0</ele><time>2026-04-02T12:09:56.001Z</time></trkpt><trkpt lat="45.30270487421927" lon="9.260133828269254"><ele>85.0</ele><time>2026-04-02T12:09:57.001Z</time></trkpt><trkpt lat="45.30257618110783" lon="9.259914155593119"><ele>85.33333333333333</ele><time>2026-04-02T12:09:58.001Z</time></trkpt><trkpt lat="45.30244999029569" lon="9.259696283782972"><ele>85.66666666666667</ele><time>2026-04-02T12:09:59.001Z</time></trkpt><trkpt lat="45.30232197908904" lon="9.259482745145304"><ele>86.0</ele><time>2026-04-02T12:10:00.001Z</time></trkpt><trkpt lat="45.30219678263074" lon="9.259270972291711"><ele>85.33333333333334</ele><time>2026-04-02T12:10:01.001Z</time></trkpt><trkpt lat="45.3020673187175" lon="9.25905864543337"><ele>84.66666666666667</ele><time>2026-04-02T12:10:02.001Z</time></trkpt><trkpt lat="45.30194187811684" lon="9.25884774785632"><ele>84.0</ele><time>2026-04-02T12:10:03.001Z</time></trkpt><trkpt lat="45.30181737976247" lon="9.258639242945733"><ele>84.0</ele><time>2026-04-02T12:10:04.001Z</time></trkpt><trkpt lat="45.30169279561461" lon="9.258427746721543"><ele>84.0</ele><time>2026-04-02T12:10:05.001Z</time></trkpt><trkpt lat="45.30156818396818" lon="9.25821508024865"><ele>84.0</ele><time>2026-04-02T12:10:06.001Z</time></trkpt><trkpt lat="45.301443849417986" lon="9.258001376049368"><ele>84.0</ele><time>2026-04-02T12:10:07.001Z</time></trkpt><trkpt lat="45.30131619656406" lon="9.257788332193318"><ele>84.0</ele><time>2026-04-02T12:10:08.001Z</time></trkpt><trkpt lat="45.30119169652183" lon="9.257574168902263"><ele>84.0</ele><time>2026-04-02T12:10:09.001Z</time></trkpt><trkpt lat="45.301066600313334" lon="9.257362925860939"><ele>84.0</ele><time>2026-04-02T12:10:10.001Z</time></trkpt><trkpt lat="45.30094213949164" lon="9.257154408736646"><ele>84.0</ele><time>2026-04-02T12:10:11.001Z</time></trkpt><trkpt lat="45.3008216815456" lon="9.256935940569726"><ele>84.0</ele><time>2026-04-02T12:10:12.001Z</time></trkpt><trkpt lat="45.30069562533174" lon="9.256736209423414"><ele>84.0</ele><time>2026-04-02T12:10:13.001Z</time></trkpt><trkpt lat="45.300574565083046" lon="9.256529481263001"><ele>84.0</ele><time>2026-04-02T12:10:14.001Z</time></trkpt><trkpt lat="45.300454924872064" lon="9.256325983084526"><ele>84.0</ele><time>2026-04-02T12:10:15.001Z</time></trkpt><trkpt lat="45.300331678348634" lon="9.25611812109721"><ele>84.0</ele><time>2026-04-02T12:10:16.001Z</time></trkpt><trkpt lat="45.300208629874675" lon="9.255912939583613"><ele>84.0</ele><time>2026-04-02T12:10:17.001Z</time></trkpt><trkpt lat="45.30008946651648" lon="9.25571262434971"><ele>84.0</ele><time>2026-04-02T12:10:18.001Z</time></trkpt><trkpt lat="45.29997463335921" lon="9.255522726477821"><ele>83.66666666666667</ele><time>2026-04-02T12:10:19.001Z</time></trkpt><trkpt lat="45.29986096791422" lon="9.255342587973193"><ele>83.33333333333334</ele><time>2026-04-02T12:10:20.001Z</time></trkpt><trkpt lat="45.29975464876487" lon="9.255171097818652"><ele>83.0</ele><time>2026-04-02T12:10:21.002Z</time></trkpt><trkpt lat="45.29965631489813" lon="9.255014133553836"><ele>82.75</ele><time>2026-04-02T12:10:22.002Z</time></trkpt><trkpt lat="45.299569936948856" lon="9.254859195118758"><ele>82.5</ele><time>2026-04-02T12:10:23.002Z</time></trkpt><trkpt lat="45.299503238096705" lon="9.25471535603405"><ele>82.25</ele><time>2026-04-02T12:10:24.002Z</time></trkpt><trkpt lat="45.2994550486705" lon="9.25457648644288"><ele>82.0</ele><time>2026-04-02T12:10:25.002Z</time></trkpt><trkpt lat="45.29942000094986" lon="9.254436281235533"><ele>82.0</ele><time>2026-04-02T12:10:26.002Z</time></trkpt><trkpt lat="45.29939375765803" lon="9.254307568807564"><ele>82.0</ele><time>2026-04-02T12:10:27.002Z</time></trkpt><trkpt lat="45.29935852034382" lon="9.254198980914126"><ele>82.0</ele><time>2026-04-02T12:10:28.002Z</time></trkpt><trkpt lat="45.299298126615966" lon="9.254130429623705"><ele>82.0</ele><time>2026-04-02T12:10:29.002Z</time></trkpt><trkpt lat="45.29921786159057" lon="9.254104081526501"><ele>82.0</ele><time>2026-04-02T12:10:30.002Z</time></trkpt><trkpt lat="45.29913630049387" lon="9.254135845787832"><ele>82.0</ele><time>2026-04-02T12:10:31.002Z</time></trkpt><trkpt lat="45.299084137866814" lon="9.25425967268717"><ele>82.0</ele><time>2026-04-02T12:10:32.002Z</time></trkpt><trkpt lat="45.299079415862266" lon="9.25441355242474"><ele>82.0</ele><time>2026-04-02T12:10:33.002Z</time></trkpt><trkpt lat="45.299128196008" lon="9.254548359745217"><ele>82.0</ele><time>2026-04-02T12:10:34.002Z</time></trkpt><trkpt lat="45.299241026609764" lon="9.254601549703137"><ele>82.0</ele><time>2026-04-02T12:10:35.002Z</time></trkpt><trkpt lat="45.29933759862231" lon="9.254626716607916"><ele>82.0</ele><time>2026-04-02T12:10:36.002Z</time></trkpt><trkpt lat="45.299414210709806" lon="9.254683194068978"><ele>82.0</ele><time>2026-04-02T12:10:37.002Z</time></trkpt><trkpt lat="45.29948254290139" lon="9.25477046089429"><ele>82.0</ele><time>2026-04-02T12:10:38.002Z</time></trkpt><trkpt lat="45.299540976601385" lon="9.254866906605233"><ele>82.0</ele><time>2026-04-02T12:10:39.002Z</time></trkpt><trkpt lat="45.299599019154094" lon="9.254965050614537"><ele>82.0</ele><time>2026-04-02T12:10:40.002Z</time></trkpt><trkpt lat="45.299661532080286" lon="9.255067732270957"><ele>82.0</ele><time>2026-04-02T12:10:41.002Z</time></trkpt><trkpt lat="45.2997238575808" lon="9.255182321209045"><ele>82.25</ele><time>2026-04-02T12:10:42.002Z</time></trkpt><trkpt lat="45.299793674701164" lon="9.255307569906604"><ele>82.5</ele><time>2026-04-02T12:10:43.002Z</time></trkpt><trkpt lat="45.29987200404127" lon="9.255437390344882"><ele>82.75</ele><time>2026-04-02T12:10:44.002Z</time></trkpt><trkpt lat="45.29995082230543" lon="9.255566704587057"><ele>83.0</ele><time>2026-04-02T12:10:45.002Z</time></trkpt><trkpt lat="45.30003500820868" lon="9.255707598670215"><ele>83.25</ele><time>2026-04-02T12:10:46.002Z</time></trkpt><trkpt lat="45.300125748842696" lon="9.255860572664083"><ele>83.5</ele><time>2026-04-02T12:10:47.002Z</time></trkpt><trkpt lat="45.30022241854823" lon="9.256025136516012"><ele>83.75</ele><time>2026-04-02T12:10:48.002Z</time></trkpt><trkpt lat="45.300317077315256" lon="9.256181850854778"><ele>84.0</ele><time>2026-04-02T12:10:49.002Z</time></trkpt><trkpt lat="45.30041555220204" lon="9.256343028012054"><ele>84.0</ele><time>2026-04-02T12:10:50.002Z</time></trkpt><trkpt lat="45.300515326642206" lon="9.256511212033939"><ele>84.0</ele><time>2026-04-02T12:10:51.002Z</time></trkpt><trkpt lat="45.300616330768186" lon="9.25668808008593"><ele>84.0</ele><time>2026-04-02T12:10:52.002Z</time></trkpt><trkpt lat="45.30072144951673" lon="9.256870082209845"><ele>84.0</ele><time>2026-04-02T12:10:53.001Z</time></trkpt><trkpt lat="45.30082530821974" lon="9.25704546631973"><ele>84.0</ele><time>2026-04-02T12:10:54.001Z</time></trkpt><trkpt lat="45.3009330213634" lon="9.257226738821643"><ele>84.0</ele><time>2026-04-02T12:10:55.001Z</time></trkpt><trkpt lat="45.301040465990425" lon="9.257407595117549"><ele>84.0</ele><time>2026-04-02T12:10:56Z</time></trkpt><trkpt lat="45.301148998910065" lon="9.257588176287857"><ele>84.0</ele><time>2026-04-02T12:10:57Z</time></trkpt><trkpt lat="45.301259666060076" lon="9.257774137287722"><ele>84.0</ele><time>2026-04-02T12:10:58Z</time></trkpt><trkpt lat="45.301371191910924" lon="9.257967133105875"><ele>84.0</ele><time>2026-04-02T12:10:59Z</time></trkpt><trkpt lat="45.30148512373689" lon="9.25816228258706"><ele>84.0</ele><time>2026-04-02T12:11:00Z</time></trkpt><trkpt lat="45.3015989401773" lon="9.258355837891918"><ele>84.0</ele><time>2026-04-02T12:11:01Z</time></trkpt><trkpt lat="45.30171572424828" lon="9.258549739480815"><ele>84.0</ele><time>2026-04-02T12:11:02Z</time></trkpt><trkpt lat="45.301831683447396" lon="9.258745540248794"><ele>84.0</ele><time>2026-04-02T12:11:03Z</time></trkpt><trkpt lat="45.30194492408624" lon="9.258940794907437"><ele>84.0</ele><time>2026-04-02T12:11:04Z</time></trkpt><trkpt lat="45.30205756411385" lon="9.259137351668798"><ele>83.66666666666667</ele><time>2026-04-02T12:11:05Z</time></trkpt><trkpt lat="45.30217154026605" lon="9.259334761967933"><ele>83.33333333333334</ele><time>2026-04-02T12:11:06Z</time></trkpt><trkpt lat="45.302285883465125" lon="9.25953080040137"><ele>83.0</ele><time>2026-04-02T12:11:07Z</time></trkpt><trkpt lat="45.30239898801171" lon="9.259722064212232"><ele>83.66666666666667</ele><time>2026-04-02T12:11:08Z</time></trkpt><trkpt lat="45.302512434307424" lon="9.259909834889053"><ele>84.33333333333333</ele><time>2026-04-02T12:11:09Z</time></trkpt><trkpt lat="45.30262096944914" lon="9.260093502679847"><ele>85.0</ele><time>2026-04-02T12:11:10Z</time></trkpt><trkpt lat="45.30273217373703" lon="9.260280432439332"><ele>85.0</ele><time>2026-04-02T12:11:11Z</time></trkpt><trkpt lat="45.302844335027295" lon="9.260468802021922"><ele>85.0</ele><time>2026-04-02T12:11:12Z</time></trkpt><trkpt lat="45.30296048126743" lon="9.260664911847515"><ele>85.0</ele><time>2026-04-02T12:11:13Z</time></trkpt><trkpt lat="45.30307592717708" lon="9.260859969397279"><ele>85.0</ele><time>2026-04-02T12:11:14Z</time></trkpt><trkpt lat="45.30318806738904" lon="9.26105010135305"><ele>85.0</ele><time>2026-04-02T12:11:15Z</time></trkpt><trkpt lat="45.30329948297852" lon="9.261238315587722"><ele>85.0</ele><time>2026-04-02T12:11:16Z</time></trkpt><trkpt lat="45.303409661623114" lon="9.261423946540834"><ele>84.66666666666666</ele><time>2026-04-02T12:11:17Z</time></trkpt><trkpt lat="45.30351463768933" lon="9.26160201336848"><ele>84.33333333333333</ele><time>2026-04-02T12:11:18Z</time></trkpt><trkpt lat="45.3036200867624" lon="9.261782669555016"><ele>84.0</ele><time>2026-04-02T12:11:19Z</time></trkpt><trkpt lat="45.30372834127267" lon="9.261967752308713"><ele>84.0</ele><time>2026-04-02T12:11:20Z</time></trkpt><trkpt lat="45.30383481477508" lon="9.262144681610579"><ele>84.0</ele><time>2026-04-02T12:11:21Z</time></trkpt><trkpt lat="45.30394049085446" lon="9.262322546694431"><ele>84.0</ele><time>2026-04-02T12:11:22.001Z</time></trkpt><trkpt lat="45.3040497115155" lon="9.262506637924734"><ele>82.66666666666667</ele><time>2026-04-02T12:11:23.001Z</time></trkpt><trkpt lat="45.30415771198582" lon="9.262687203906209"><ele>81.33333333333334</ele><time>2026-04-02T12:11:24.001Z</time></trkpt><trkpt lat="45.30426457275044" lon="9.26286914667908"><ele>80.0</ele><time>2026-04-02T12:11:25.001Z</time></trkpt><trkpt lat="45.30437409013832" lon="9.263050445753597"><ele>80.5</ele><time>2026-04-02T12:11:26.001Z</time></trkpt><trkpt lat="45.30447388888571" lon="9.263220603874414"><ele>81.0</ele><time>2026-04-02T12:11:27.001Z</time></trkpt><trkpt lat="45.3045605988999" lon="9.263378075916524"><ele>81.5</ele><time>2026-04-02T12:11:28.001Z</time></trkpt><trkpt lat="45.3046394249046" lon="9.26352801906866"><ele>82.0</ele><time>2026-04-02T12:11:29.001Z</time></trkpt><trkpt lat="45.30470959611925" lon="9.263664692072464"><ele>82.0</ele><time>2026-04-02T12:11:30.001Z</time></trkpt><trkpt lat="45.30478035553581" lon="9.263793739579334"><ele>82.0</ele><time>2026-04-02T12:11:31.001Z</time></trkpt><trkpt lat="45.30485541312082" lon="9.263923654715585"><ele>82.0</ele><time>2026-04-02T12:11:32.001Z</time></trkpt><trkpt lat="45.30493276114948" lon="9.264052577785431"><ele>82.0</ele><time>2026-04-02T12:11:33.001Z</time></trkpt><trkpt lat="45.30500779275691" lon="9.264180560597175"><ele>82.39999999999999</ele><time>2026-04-02T12:11:34.001Z</time></trkpt><trkpt lat="45.3050781812711" lon="9.26430401768274"><ele>82.8</ele><time>2026-04-02T12:11:35.001Z</time></trkpt><trkpt lat="45.30514219140044" lon="9.26442101808191"><ele>83.2</ele><time>2026-04-02T12:11:36.001Z</time></trkpt><trkpt lat="45.30520100361797" lon="9.26453345230084"><ele>83.6</ele><time>2026-04-02T12:11:37.001Z</time></trkpt><trkpt lat="45.3052635823588" lon="9.264639581573986"><ele>84.0</ele><time>2026-04-02T12:11:38.001Z</time></trkpt><trkpt lat="45.30532425677821" lon="9.264743022246304"><ele>83.33333333333333</ele><time>2026-04-02T12:11:39.001Z</time></trkpt><trkpt lat="45.30537971957685" lon="9.264837577282611"><ele>82.66666666666666</ele><time>2026-04-02T12:11:40.001Z</time></trkpt><trkpt lat="45.30542539987006" lon="9.264915455021761"><ele>82.0</ele><time>2026-04-02T12:11:41.001Z</time></trkpt><trkpt lat="45.30523239028042" lon="9.265523513002185"><ele>82.0</ele><time>2026-04-02T12:11:43.001Z</time></trkpt><trkpt lat="45.305133368701" lon="9.26556966709167"><ele>82.0</ele><time>2026-04-02T12:11:44.001Z</time></trkpt><trkpt lat="45.30489201879358" lon="9.26568023253399"><ele>82.0</ele><time>2026-04-02T12:11:46.001Z</time></trkpt><trkpt lat="45.30476439758968" lon="9.265754602992818"><ele>82.75</ele><time>2026-04-02T12:11:47.001Z</time></trkpt><trkpt lat="45.30462105564485" lon="9.265820009749477"><ele>83.5</ele><time>2026-04-02T12:11:48.001Z</time></trkpt><trkpt lat="45.30447744517586" lon="9.265888676603694"><ele>84.25</ele><time>2026-04-02T12:11:49.001Z</time></trkpt><trkpt lat="45.304342778023816" lon="9.265947391935844"><ele>85.0</ele><time>2026-04-02T12:11:50.001Z</time></trkpt><trkpt lat="45.30421732602283" lon="9.266008637933837"><ele>85.0</ele><time>2026-04-02T12:11:51.001Z</time></trkpt><trkpt lat="45.30409972382664" lon="9.266064518871103"><ele>85.0</ele><time>2026-04-02T12:11:52.001Z</time></trkpt><trkpt lat="45.30398515065722" lon="9.266117008961759"><ele>85.0</ele><time>2026-04-02T12:11:53.001Z</time></trkpt><trkpt lat="45.30387438373744" lon="9.266168120772832"><ele>85.0</ele><time>2026-04-02T12:11:54.001Z</time></trkpt><trkpt lat="45.30375291528432" lon="9.266222409873816"><ele>84.75</ele><time>2026-04-02T12:11:55.001Z</time></trkpt><trkpt lat="45.30361641472833" lon="9.266270734528668"><ele>84.5</ele><time>2026-04-02T12:11:56.001Z</time></trkpt><trkpt lat="45.30348621309374" lon="9.26630570175033"><ele>84.25</ele><time>2026-04-02T12:11:57.001Z</time></trkpt><trkpt lat="45.30336485742824" lon="9.266343733440177"><ele>84.0</ele><time>2026-04-02T12:11:58.001Z</time></trkpt><trkpt lat="45.30324582134167" lon="9.26638567908027"><ele>84.0</ele><time>2026-04-02T12:11:59.001Z</time></trkpt><trkpt lat="45.30313219559744" lon="9.26642488270647"><ele>84.0</ele><time>2026-04-02T12:12:00.001Z</time></trkpt><trkpt lat="45.303019558972466" lon="9.266463707547182"><ele>84.0</ele><time>2026-04-02T12:12:01.001Z</time></trkpt><trkpt lat="45.302911587221516" lon="9.266506930774577"><ele>84.0</ele><time>2026-04-02T12:12:02.001Z</time></trkpt><trkpt lat="45.30281261711921" lon="9.266559169347556"><ele>84.25</ele><time>2026-04-02T12:12:03.001Z</time></trkpt><trkpt lat="45.30270714088651" lon="9.266607668505419"><ele>84.5</ele><time>2026-04-02T12:12:04.001Z</time></trkpt><trkpt lat="45.30260081997905" lon="9.266659977683755"><ele>84.75</ele><time>2026-04-02T12:12:05.001Z</time></trkpt><trkpt lat="45.30248645860069" lon="9.266730102647427"><ele>85.0</ele><time>2026-04-02T12:12:06.001Z</time></trkpt><trkpt lat="45.3023634871636" lon="9.266779548968572"><ele>84.75</ele><time>2026-04-02T12:12:07.001Z</time></trkpt><trkpt lat="45.30224400090444" lon="9.26683953595018"><ele>84.5</ele><time>2026-04-02T12:12:08.001Z</time></trkpt><trkpt lat="45.30211920759418" lon="9.266895067651237"><ele>84.25</ele><time>2026-04-02T12:12:09.001Z</time></trkpt><trkpt lat="45.301979470220715" lon="9.266945674162116"><ele>84.0</ele><time>2026-04-02T12:12:10.001Z</time></trkpt><trkpt lat="45.30183848562445" lon="9.267003678460988"><ele>84.0</ele><time>2026-04-02T12:12:11.001Z</time></trkpt><trkpt lat="45.30169882185598" lon="9.267060184314493"><ele>84.0</ele><time>2026-04-02T12:12:12.001Z</time></trkpt><trkpt lat="45.301557199885046" lon="9.26711667826648"><ele>84.0</ele><time>2026-04-02T12:12:13.001Z</time></trkpt><trkpt lat="45.301418795885304" lon="9.267166973644084"><ele>84.0</ele><time>2026-04-02T12:12:14.001Z</time></trkpt><trkpt lat="45.301283981514985" lon="9.267214059184084"><ele>84.0</ele><time>2026-04-02T12:12:15.001Z</time></trkpt><trkpt lat="45.301149875585764" lon="9.267255077217579"><ele>84.0</ele><time>2026-04-02T12:12:16.001Z</time></trkpt><trkpt lat="45.301010684581804" lon="9.267298518303049"><ele>84.0</ele><time>2026-04-02T12:12:17.001Z</time></trkpt><trkpt lat="45.30087215471385" lon="9.267344239120002"><ele>84.0</ele><time>2026-04-02T12:12:18.001Z</time></trkpt><trkpt lat="45.30074346340513" lon="9.267389737333211"><ele>84.25</ele><time>2026-04-02T12:12:19.001Z</time></trkpt><trkpt lat="45.300627057536644" lon="9.267422384445643"><ele>84.5</ele><time>2026-04-02T12:12:20.001Z</time></trkpt><trkpt lat="45.300508336395005" lon="9.267460533411857"><ele>84.75</ele><time>2026-04-02T12:12:21.001Z</time></trkpt><trkpt lat="45.30038752389438" lon="9.267496233297672"><ele>85.0</ele><time>2026-04-02T12:12:22.001Z</time></trkpt><trkpt lat="45.30026673914688" lon="9.267534247723136"><ele>84.5</ele><time>2026-04-02T12:12:23.001Z</time></trkpt><trkpt lat="45.300150310290796" lon="9.267576474340265"><ele>84.0</ele><time>2026-04-02T12:12:24.001Z</time></trkpt><trkpt lat="45.30003333055939" lon="9.267619031975329"><ele>83.5</ele><time>2026-04-02T12:12:25.001Z</time></trkpt><trkpt lat="45.299912353326874" lon="9.267658601635294"><ele>83.0</ele><time>2026-04-02T12:12:26.001Z</time></trkpt><trkpt lat="45.29979043820426" lon="9.267698006097982"><ele>83.25</ele><time>2026-04-02T12:12:27.001Z</time></trkpt><trkpt lat="45.29966796585223" lon="9.267732690428971"><ele>83.5</ele><time>2026-04-02T12:12:28.001Z</time></trkpt><trkpt lat="45.299546010907946" lon="9.267763081756344"><ele>83.75</ele><time>2026-04-02T12:12:29.001Z</time></trkpt><trkpt lat="45.29942412602499" lon="9.267791388890483"><ele>84.0</ele><time>2026-04-02T12:12:30.001Z</time></trkpt><trkpt lat="45.29930701332197" lon="9.267810208180586"><ele>84.0</ele><time>2026-04-02T12:12:31.001Z</time></trkpt><trkpt lat="45.299205859056954" lon="9.267840308217417"><ele>84.0</ele><time>2026-04-02T12:12:32.001Z</time></trkpt><trkpt lat="45.29909654598877" lon="9.267861604372708"><ele>84.0</ele><time>2026-04-02T12:12:33.001Z</time></trkpt><trkpt lat="45.298983056197386" lon="9.267892054920784"><ele>84.0</ele><time>2026-04-02T12:12:34.001Z</time></trkpt><trkpt lat="45.29887123168503" lon="9.267920076203358"><ele>84.0</ele><time>2026-04-02T12:12:35.001Z</time></trkpt><trkpt lat="45.298751983815635" lon="9.267942574837871"><ele>84.0</ele><time>2026-04-02T12:12:36.001Z</time></trkpt><trkpt lat="45.298634165522486" lon="9.267967115025789"><ele>84.0</ele><time>2026-04-02T12:12:37.002Z</time></trkpt><trkpt lat="45.298517931670325" lon="9.267995345696"><ele>84.0</ele><time>2026-04-02T12:12:38.002Z</time></trkpt><trkpt lat="45.29840407440351" lon="9.268019171558157"><ele>84.0</ele><time>2026-04-02T12:12:39.002Z</time></trkpt><trkpt lat="45.298290726229816" lon="9.268044219574266"><ele>84.0</ele><time>2026-04-02T12:12:40.002Z</time></trkpt><trkpt lat="45.298175397058166" lon="9.268075447011134"><ele>84.0</ele><time>2026-04-02T12:12:41.002Z</time></trkpt><trkpt lat="45.29805595255941" lon="9.268103401002204"><ele>84.0</ele><time>2026-04-02T12:12:42.002Z</time></trkpt><trkpt lat="45.29793854200366" lon="9.26812848202203"><ele>84.0</ele><time>2026-04-02T12:12:43.002Z</time></trkpt><trkpt lat="45.29782137245833" lon="9.268158591054213"><ele>84.0</ele><time>2026-04-02T12:12:44.002Z</time></trkpt><trkpt lat="45.29770878358469" lon="9.26818487909502"><ele>84.0</ele><time>2026-04-02T12:12:45.002Z</time></trkpt><trkpt lat="45.29759688595326" lon="9.268209941363507"><ele>84.0</ele><time>2026-04-02T12:12:46.002Z</time></trkpt><trkpt lat="45.29748879748158" lon="9.268235476749355"><ele>84.0</ele><time>2026-04-02T12:12:47.002Z</time></trkpt><trkpt lat="45.29738097537251" lon="9.268261588875854"><ele>84.0</ele><time>2026-04-02T12:12:48.002Z</time></trkpt><trkpt lat="45.29726950316966" lon="9.26828200889564"><ele>84.0</ele><time>2026-04-02T12:12:49.002Z</time></trkpt><trkpt lat="45.297158532950434" lon="9.26830311941283"><ele>84.0</ele><time>2026-04-02T12:12:50.002Z</time></trkpt><trkpt lat="45.29704716518784" lon="9.268332205505473"><ele>84.0</ele><time>2026-04-02T12:12:51.002Z</time></trkpt><trkpt lat="45.296935320909625" lon="9.268363326695942"><ele>84.0</ele><time>2026-04-02T12:12:52.002Z</time></trkpt><trkpt lat="45.29682365383412" lon="9.268387465892767"><ele>84.0</ele><time>2026-04-02T12:12:53.002Z</time></trkpt><trkpt lat="45.29671150713332" lon="9.268408559768861"><ele>84.0</ele><time>2026-04-02T12:12:54.002Z</time></trkpt><trkpt lat="45.29659505852533" lon="9.268436026050482"><ele>84.0</ele><time>2026-04-02T12:12:55.002Z</time></trkpt><trkpt lat="45.29647949164691" lon="9.268458774175581"><ele>84.0</ele><time>2026-04-02T12:12:56.002Z</time></trkpt><trkpt lat="45.29636318149158" lon="9.268478376030954"><ele>84.0</ele><time>2026-04-02T12:12:57.002Z</time></trkpt><trkpt lat="45.29624489997301" lon="9.268494262361582"><ele>84.0</ele><time>2026-04-02T12:12:58.002Z</time></trkpt><trkpt lat="45.296125670007456" lon="9.268509712768724"><ele>84.0</ele><time>2026-04-02T12:12:59Z</time></trkpt><trkpt lat="45.29601430927666" lon="9.268528355978647"><ele>84.0</ele><time>2026-04-02T12:13:00Z</time></trkpt><trkpt lat="45.295911656620774" lon="9.268545162112513"><ele>84.0</ele><time>2026-04-02T12:13:01Z</time></trkpt><trkpt lat="45.29581906935335" lon="9.268549953984794"><ele>84.0</ele><time>2026-04-02T12:13:02Z</time></trkpt><trkpt lat="45.29572446333145" lon="9.268568054530228"><ele>84.0</ele><time>2026-04-02T12:13:03Z</time></trkpt><trkpt lat="45.29562582450018" lon="9.268588701998357"><ele>84.0</ele><time>2026-04-02T12:13:04Z</time></trkpt><trkpt lat="45.29552535615395" lon="9.268600418951168"><ele>84.0</ele><time>2026-04-02T12:13:05Z</time></trkpt><trkpt lat="45.295423553567225" lon="9.26861920600249"><ele>84.0</ele><time>2026-04-02T12:13:06Z</time></trkpt><trkpt lat="45.295329086851446" lon="9.268634904008266"><ele>84.0</ele><time>2026-04-02T12:13:07Z</time></trkpt><trkpt lat="45.29522665066475" lon="9.268650205384246"><ele>84.0</ele><time>2026-04-02T12:13:08Z</time></trkpt><trkpt lat="45.29512541536711" lon="9.268659513291686"><ele>84.0</ele><time>2026-04-02T12:13:09Z</time></trkpt><trkpt lat="45.29503550924787" lon="9.268669900366657"><ele>84.0</ele><time>2026-04-02T12:13:10Z</time></trkpt><trkpt lat="45.294944146998624" lon="9.26867273867663"><ele>84.0</ele><time>2026-04-02T12:13:11Z</time></trkpt><trkpt lat="45.29484998831396" lon="9.268675010921832"><ele>84.0</ele><time>2026-04-02T12:13:12Z</time></trkpt><trkpt lat="45.29475674029873" lon="9.268666996759917"><ele>84.0</ele><time>2026-04-02T12:13:13Z</time></trkpt><trkpt lat="45.29466057636809" lon="9.268649386626873"><ele>84.0</ele><time>2026-04-02T12:13:14Z</time></trkpt><trkpt lat="45.294573311269275" lon="9.268627944160828"><ele>84.0</ele><time>2026-04-02T12:13:15Z</time></trkpt><trkpt lat="45.29448527280798" lon="9.268606409902628"><ele>84.0</ele><time>2026-04-02T12:13:16Z</time></trkpt><trkpt lat="45.294407746472004" lon="9.268584435236434"><ele>84.0</ele><time>2026-04-02T12:13:17Z</time></trkpt><trkpt lat="45.29435271914604" lon="9.268533924064773"><ele>84.0</ele><time>2026-04-02T12:13:18Z</time></trkpt><trkpt lat="45.29428957741424" lon="9.268523426736099"><ele>84.0</ele><time>2026-04-02T12:13:19Z</time></trkpt><trkpt lat="45.29423151455716" lon="9.268464275489933"><ele>84.0</ele><time>2026-04-02T12:13:20Z</time></trkpt><trkpt lat="45.29418002507092" lon="9.268385795791978"><ele>84.0</ele><time>2026-04-02T12:13:21Z</time></trkpt><trkpt lat="45.294175340952386" lon="9.268244243929633"><ele>83.75</ele><time>2026-04-02T12:13:22Z</time></trkpt><trkpt lat="45.29413805706995" lon="9.2681022667447"><ele>83.5</ele><time>2026-04-02T12:13:23Z</time></trkpt><trkpt lat="45.2941029520524" lon="9.267953320386718"><ele>83.25</ele><time>2026-04-02T12:13:24Z</time></trkpt><trkpt lat="45.29406100279684" lon="9.267770590262751"><ele>83.0</ele><time>2026-04-02T12:13:25Z</time></trkpt><trkpt lat="45.29401513068943" lon="9.267570772189302"><ele>83.0</ele><time>2026-04-02T12:13:26Z</time></trkpt><trkpt lat="45.293967200324595" lon="9.267361988219074"><ele>83.0</ele><time>2026-04-02T12:13:27Z</time></trkpt><trkpt lat="45.2939256588125" lon="9.26718103400176"><ele>83.0</ele><time>2026-04-02T12:13:28Z</time></trkpt><trkpt lat="45.29388655886181" lon="9.267007432307732"><ele>83.0</ele><time>2026-04-02T12:13:29Z</time></trkpt><trkpt lat="45.293852631549626" lon="9.26687515294237"><ele>83.16666666666667</ele><time>2026-04-02T12:13:30Z</time></trkpt><trkpt lat="45.293822761366386" lon="9.266770122152813"><ele>83.33333333333334</ele><time>2026-04-02T12:13:31Z</time></trkpt><trkpt lat="45.29379361835005" lon="9.2666852352234"><ele>83.5</ele><time>2026-04-02T12:13:32Z</time></trkpt><trkpt lat="45.293744680971926" lon="9.266608954303722"><ele>83.66666666666667</ele><time>2026-04-02T12:13:33Z</time></trkpt><trkpt lat="45.29366275231933" lon="9.266560115763541"><ele>83.83333333333333</ele><time>2026-04-02T12:13:34Z</time></trkpt><trkpt lat="45.293572781598314" lon="9.266545617106765"><ele>84.0</ele><time>2026-04-02T12:13:35Z</time></trkpt><trkpt lat="45.29346755123675" lon="9.266576727675682"><ele>84.0</ele><time>2026-04-02T12:13:36.001Z</time></trkpt><trkpt lat="45.293346389177756" lon="9.266634762008339"><ele>84.0</ele><time>2026-04-02T12:13:37.001Z</time></trkpt><trkpt lat="45.293202578774626" lon="9.266705397110384"><ele>84.0</ele><time>2026-04-02T12:13:38.001Z</time></trkpt><trkpt lat="45.29304519127887" lon="9.266776074305067"><ele>84.0</ele><time>2026-04-02T12:13:39.001Z</time></trkpt><trkpt lat="45.29290743522951" lon="9.266827929333056"><ele>84.25</ele><time>2026-04-02T12:13:40.001Z</time></trkpt><trkpt lat="45.29275905339684" lon="9.266885592411821"><ele>84.5</ele><time>2026-04-02T12:13:41.001Z</time></trkpt><trkpt lat="45.292628282744225" lon="9.266931502403038"><ele>84.75</ele><time>2026-04-02T12:13:42.001Z</time></trkpt><trkpt lat="45.29250731284181" lon="9.266970117794001"><ele>85.0</ele><time>2026-04-02T12:13:43.001Z</time></trkpt><trkpt lat="45.29239596546838" lon="9.267002155109239"><ele>85.0</ele><time>2026-04-02T12:13:44.001Z</time></trkpt><trkpt lat="45.29227301920035" lon="9.266991232779896"><ele>85.0</ele><time>2026-04-02T12:13:45.001Z</time></trkpt><trkpt lat="45.29215594757138" lon="9.267022571160595"><ele>85.0</ele><time>2026-04-02T12:13:46.001Z</time></trkpt><trkpt lat="45.292033800527285" lon="9.267129234512531"><ele>85.0</ele><time>2026-04-02T12:13:47.001Z</time></trkpt><trkpt lat="45.291905754495865" lon="9.267186319651394"><ele>84.5</ele><time>2026-04-02T12:13:48.001Z</time></trkpt><trkpt lat="45.291784870487916" lon="9.267244453003231"><ele>84.0</ele><time>2026-04-02T12:13:49.001Z</time></trkpt><trkpt lat="45.29165842788615" lon="9.26731673145428"><ele>83.5</ele><time>2026-04-02T12:13:50.001Z</time></trkpt><trkpt lat="45.29153336661035" lon="9.26738545540379"><ele>83.0</ele><time>2026-04-02T12:13:51.001Z</time></trkpt><trkpt lat="45.29141512062023" lon="9.267451111101588"><ele>83.0</ele><time>2026-04-02T12:13:52.001Z</time></trkpt><trkpt lat="45.29129498000053" lon="9.267519094552306"><ele>83.0</ele><time>2026-04-02T12:13:53.001Z</time></trkpt><trkpt lat="45.29117146540053" lon="9.267586304321242"><ele>83.0</ele><time>2026-04-02T12:13:54.001Z</time></trkpt><trkpt lat="45.29103614029993" lon="9.267661374590862"><ele>83.0</ele><time>2026-04-02T12:13:55.001Z</time></trkpt><trkpt lat="45.29092274498675" lon="9.267732459878887"><ele>83.0</ele><time>2026-04-02T12:13:56.001Z</time></trkpt><trkpt lat="45.29079820603507" lon="9.267806438217008"><ele>83.0</ele><time>2026-04-02T12:13:57.001Z</time></trkpt><trkpt lat="45.29068208111414" lon="9.267884545631533"><ele>83.0</ele><time>2026-04-02T12:13:58.001Z</time></trkpt><trkpt lat="45.290564692818315" lon="9.267970461937976"><ele>83.0</ele><time>2026-04-02T12:13:59.001Z</time></trkpt><trkpt lat="45.29044850645297" lon="9.268058331862207"><ele>82.75</ele><time>2026-04-02T12:14:00.001Z</time></trkpt><trkpt lat="45.29032984154029" lon="9.268145873819357"><ele>82.5</ele><time>2026-04-02T12:14:01.001Z</time></trkpt><trkpt lat="45.29021400993641" lon="9.268229649259942"><ele>82.25</ele><time>2026-04-02T12:14:02.001Z</time></trkpt><trkpt lat="45.29010304564106" lon="9.268313631216172"><ele>82.0</ele><time>2026-04-02T12:14:03.001Z</time></trkpt><trkpt lat="45.28999491854403" lon="9.26839585830118"><ele>82.0</ele><time>2026-04-02T12:14:04.001Z</time></trkpt><trkpt lat="45.289897939568014" lon="9.268479358946893"><ele>82.0</ele><time>2026-04-02T12:14:05.001Z</time></trkpt><trkpt lat="45.28980677454539" lon="9.268554638398948"><ele>82.0</ele><time>2026-04-02T12:14:06.001Z</time></trkpt><trkpt lat="45.28970194999496" lon="9.268660811320592"><ele>82.0</ele><time>2026-04-02T12:14:07.001Z</time></trkpt><trkpt lat="45.289597024533464" lon="9.268772791948068"><ele>82.0</ele><time>2026-04-02T12:14:08.001Z</time></trkpt><trkpt lat="45.289489964232565" lon="9.268884738119176"><ele>82.0</ele><time>2026-04-02T12:14:09.001Z</time></trkpt><trkpt lat="45.28938907366631" lon="9.26900235848756"><ele>82.0</ele><time>2026-04-02T12:14:10.001Z</time></trkpt><trkpt lat="45.28929020555666" lon="9.269118763762632"><ele>82.0</ele><time>2026-04-02T12:14:11.001Z</time></trkpt><trkpt lat="45.28918651517027" lon="9.269240557969075"><ele>82.0</ele><time>2026-04-02T12:14:12.001Z</time></trkpt><trkpt lat="45.28908291630359" lon="9.269368538994412"><ele>82.0</ele><time>2026-04-02T12:14:13.001Z</time></trkpt><trkpt lat="45.28898623762793" lon="9.269486485775007"><ele>82.0</ele><time>2026-04-02T12:14:14.001Z</time></trkpt><trkpt lat="45.28889289971157" lon="9.269600064406234"><ele>82.0</ele><time>2026-04-02T12:14:15.001Z</time></trkpt><trkpt lat="45.28879197229638" lon="9.269722396723429"><ele>81.75</ele><time>2026-04-02T12:14:16.001Z</time></trkpt><trkpt lat="45.28869699281257" lon="9.269834308688807"><ele>81.5</ele><time>2026-04-02T12:14:17.001Z</time></trkpt><trkpt lat="45.2885985897075" lon="9.26995487158681"><ele>81.25</ele><time>2026-04-02T12:14:18.001Z</time></trkpt><trkpt lat="45.28848201889002" lon="9.270098415915745"><ele>81.0</ele><time>2026-04-02T12:14:19.001Z</time></trkpt><trkpt lat="45.288369896224076" lon="9.270238672328453"><ele>81.0</ele><time>2026-04-02T12:14:20.001Z</time></trkpt><trkpt lat="45.28825442605158" lon="9.270375541540991"><ele>81.0</ele><time>2026-04-02T12:14:21.001Z</time></trkpt><trkpt lat="45.28813838399536" lon="9.270525591733845"><ele>81.0</ele><time>2026-04-02T12:14:22.001Z</time></trkpt><trkpt lat="45.28803650023002" lon="9.270656161836317"><ele>81.0</ele><time>2026-04-02T12:14:23.001Z</time></trkpt><trkpt lat="45.287944208251325" lon="9.270775163374378"><ele>81.0</ele><time>2026-04-02T12:14:24.001Z</time></trkpt><trkpt lat="45.287851258023345" lon="9.270901234707617"><ele>81.0</ele><time>2026-04-02T12:14:25.001Z</time></trkpt><trkpt lat="45.287759465394025" lon="9.271027938263659"><ele>81.0</ele><time>2026-04-02T12:14:26.001Z</time></trkpt><trkpt lat="45.2876707547913" lon="9.271155386010852"><ele>81.0</ele><time>2026-04-02T12:14:27.001Z</time></trkpt><trkpt lat="45.28759468689616" lon="9.27128327442222"><ele>81.0</ele><time>2026-04-02T12:14:28.001Z</time></trkpt><trkpt lat="45.28752603482475" lon="9.271433423497273"><ele>81.0</ele><time>2026-04-02T12:14:29.001Z</time></trkpt><trkpt lat="45.287460180777856" lon="9.271596732135242"><ele>81.0</ele><time>2026-04-02T12:14:30.001Z</time></trkpt><trkpt lat="45.28738944353993" lon="9.271766746392021"><ele>81.0</ele><time>2026-04-02T12:14:31.001Z</time></trkpt><trkpt lat="45.287321808930706" lon="9.271927312321806"><ele>80.75</ele><time>2026-04-02T12:14:32.001Z</time></trkpt><trkpt lat="45.2872519085704" lon="9.27208092470646"><ele>80.5</ele><time>2026-04-02T12:14:33.001Z</time></trkpt><trkpt lat="45.287182817515614" lon="9.272241267495154"><ele>80.25</ele><time>2026-04-02T12:14:34.001Z</time></trkpt><trkpt lat="45.28711851524125" lon="9.27239925194258"><ele>80.0</ele><time>2026-04-02T12:14:35.001Z</time></trkpt><trkpt lat="45.287062279392956" lon="9.272540548519604"><ele>80.0</ele><time>2026-04-02T12:14:36.001Z</time></trkpt><trkpt lat="45.28701320737334" lon="9.272670018194873"><ele>80.0</ele><time>2026-04-02T12:14:37.001Z</time></trkpt><trkpt lat="45.28695929704224" lon="9.272791021687185"><ele>80.0</ele><time>2026-04-02T12:14:38.001Z</time></trkpt><trkpt lat="45.28690272320978" lon="9.272892863164087"><ele>80.0</ele><time>2026-04-02T12:14:39.001Z</time></trkpt><trkpt lat="45.28683952674948" lon="9.272972295539946"><ele>80.0</ele><time>2026-04-02T12:14:40.001Z</time></trkpt><trkpt lat="45.28676280751181" lon="9.273029490404378"><ele>80.0</ele><time>2026-04-02T12:14:41.001Z</time></trkpt><trkpt lat="45.28665461921844" lon="9.27303951127642"><ele>80.0</ele><time>2026-04-02T12:14:42.001Z</time></trkpt><trkpt lat="45.286522411456595" lon="9.273070098400234"><ele>80.0</ele><time>2026-04-02T12:14:43.001Z</time></trkpt><trkpt lat="45.286377218447946" lon="9.273143783469022"><ele>80.0</ele><time>2026-04-02T12:14:44.001Z</time></trkpt><trkpt lat="45.2862149505829" lon="9.273192270050334"><ele>79.5</ele><time>2026-04-02T12:14:45.001Z</time></trkpt><trkpt lat="45.28606885933747" lon="9.273262445571092"><ele>79.0</ele><time>2026-04-02T12:14:46.001Z</time></trkpt><trkpt lat="45.28592789398928" lon="9.27333779862514"><ele>78.5</ele><time>2026-04-02T12:14:47.001Z</time></trkpt><trkpt lat="45.28581610473141" lon="9.273434639169801"><ele>78.0</ele><time>2026-04-02T12:14:48.001Z</time></trkpt><trkpt lat="45.2857212822984" lon="9.273498491528537"><ele>78.0</ele><time>2026-04-02T12:14:49.001Z</time></trkpt><trkpt lat="45.285651229365456" lon="9.273560336334311"><ele>78.0</ele><time>2026-04-02T12:14:50.001Z</time></trkpt><trkpt lat="45.28559094530016" lon="9.273630631210835"><ele>78.0</ele><time>2026-04-02T12:14:51.001Z</time></trkpt><trkpt lat="45.285540968814324" lon="9.273720306439696"><ele>78.0</ele><time>2026-04-02T12:14:52.002Z</time></trkpt><trkpt lat="45.285502658836876" lon="9.273841770665882"><ele>78.0</ele><time>2026-04-02T12:14:53.002Z</time></trkpt><trkpt lat="45.28547957895535" lon="9.273979557860162"><ele>78.0</ele><time>2026-04-02T12:14:54.002Z</time></trkpt><trkpt lat="45.285471549486445" lon="9.274134218897533"><ele>78.0</ele><time>2026-04-02T12:14:55.002Z</time></trkpt><trkpt lat="45.28547238659102" lon="9.274318534347127"><ele>78.0</ele><time>2026-04-02T12:14:56.002Z</time></trkpt><trkpt lat="45.285468127086666" lon="9.274484997793483"><ele>78.0</ele><time>2026-04-02T12:14:57.002Z</time></trkpt><trkpt lat="45.2854634883536" lon="9.27465681578355"><ele>78.0</ele><time>2026-04-02T12:14:58.002Z</time></trkpt><trkpt lat="45.28545305573342" lon="9.27480994223798"><ele>78.25</ele><time>2026-04-02T12:14:59.002Z</time></trkpt><trkpt lat="45.28543222187161" lon="9.274937461849865"><ele>78.5</ele><time>2026-04-02T12:15:00.002Z</time></trkpt><trkpt lat="45.2853386705139" lon="9.275147634604266"><ele>78.75</ele><time>2026-04-02T12:15:02.002Z</time></trkpt><trkpt lat="45.28525534866676" lon="9.275253822001057"><ele>79.0</ele><time>2026-04-02T12:15:03.002Z</time></trkpt><trkpt lat="45.28514449303577" lon="9.275371282983778"><ele>79.0</ele><time>2026-04-02T12:15:04.002Z</time></trkpt><trkpt lat="45.28503348058623" lon="9.275486167398272"><ele>79.0</ele><time>2026-04-02T12:15:05Z</time></trkpt><trkpt lat="45.28492374633107" lon="9.275604344306155"><ele>79.0</ele><time>2026-04-02T12:15:06Z</time></trkpt><trkpt lat="45.28480670670606" lon="9.275727156650534"><ele>79.0</ele><time>2026-04-02T12:15:07Z</time></trkpt><trkpt lat="45.284697284424645" lon="9.275846925379415"><ele>78.25</ele><time>2026-04-02T12:15:08Z</time></trkpt><trkpt lat="45.28458899702023" lon="9.275965473155168"><ele>77.5</ele><time>2026-04-02T12:15:09Z</time></trkpt><trkpt lat="45.2844829001492" lon="9.276086981658999"><ele>76.75</ele><time>2026-04-02T12:15:10Z</time></trkpt><trkpt lat="45.28437292190005" lon="9.276206701734175"><ele>76.0</ele><time>2026-04-02T12:15:11Z</time></trkpt><trkpt lat="45.28425910852447" lon="9.276331790045642"><ele>76.25</ele><time>2026-04-02T12:15:12Z</time></trkpt><trkpt lat="45.28415370124994" lon="9.276455670509092"><ele>76.5</ele><time>2026-04-02T12:15:13Z</time></trkpt><trkpt lat="45.284047604614514" lon="9.276575248900734"><ele>76.75</ele><time>2026-04-02T12:15:14Z</time></trkpt><trkpt lat="45.28393940715691" lon="9.276689154267387"><ele>77.0</ele><time>2026-04-02T12:15:15Z</time></trkpt><trkpt lat="45.283825310710405" lon="9.276798822876982"><ele>76.5</ele><time>2026-04-02T12:15:16Z</time></trkpt><trkpt lat="45.28371222315137" lon="9.2768916975088"><ele>76.0</ele><time>2026-04-02T12:15:17Z</time></trkpt><trkpt lat="45.28359279879234" lon="9.276932318202556"><ele>75.5</ele><time>2026-04-02T12:15:18Z</time></trkpt><trkpt lat="45.283473968254384" lon="9.276980792405855"><ele>75.0</ele><time>2026-04-02T12:15:19Z</time></trkpt><trkpt lat="45.28336157752446" lon="9.277048494474707"><ele>75.0</ele><time>2026-04-02T12:15:20Z</time></trkpt><trkpt lat="45.28325048014903" lon="9.277130907814422"><ele>75.0</ele><time>2026-04-02T12:15:21Z</time></trkpt><trkpt lat="45.28315124009713" lon="9.27723359500499"><ele>75.0</ele><time>2026-04-02T12:15:22Z</time></trkpt><trkpt lat="45.28304949086225" lon="9.277306789814634"><ele>75.0</ele><time>2026-04-02T12:15:23Z</time></trkpt><trkpt lat="45.282960229261704" lon="9.27738221480961"><ele>75.6</ele><time>2026-04-02T12:15:24Z</time></trkpt><trkpt lat="45.28279720227322" lon="9.277497798155084"><ele>76.2</ele><time>2026-04-02T12:15:26Z</time></trkpt><trkpt lat="45.28271038343411" lon="9.27753642790948"><ele>76.8</ele><time>2026-04-02T12:15:27Z</time></trkpt><trkpt lat="45.2826302969341" lon="9.277552050079585"><ele>77.4</ele><time>2026-04-02T12:15:28Z</time></trkpt><trkpt lat="45.2825645467006" lon="9.277528819275776"><ele>78.0</ele><time>2026-04-02T12:15:29Z</time></trkpt><trkpt lat="45.282461206049675" lon="9.277515788216348"><ele>78.0</ele><time>2026-04-02T12:15:31Z</time></trkpt><trkpt lat="45.28237596198282" lon="9.277426391333655"><ele>78.0</ele><time>2026-04-02T12:15:34Z</time></trkpt><trkpt lat="45.28235788541569" lon="9.277339760826397"><ele>78.0</ele><time>2026-04-02T12:15:35Z</time></trkpt><trkpt lat="45.28231481052834" lon="9.277230819251798"><ele>78.0</ele><time>2026-04-02T12:15:36Z</time></trkpt><trkpt lat="45.28225371377659" lon="9.27712280874289"><ele>78.0</ele><time>2026-04-02T12:15:37Z</time></trkpt><trkpt lat="45.282200117230666" lon="9.276985034628126"><ele>78.8</ele><time>2026-04-02T12:15:38Z</time></trkpt><trkpt lat="45.28214999202061" lon="9.276855523084738"><ele>79.6</ele><time>2026-04-02T12:15:39Z</time></trkpt><trkpt lat="45.282099955803105" lon="9.276724477960654"><ele>80.39999999999999</ele><time>2026-04-02T12:15:40Z</time></trkpt><trkpt lat="45.28204024022493" lon="9.276592835327229"><ele>81.19999999999999</ele><time>2026-04-02T12:15:41Z</time></trkpt><trkpt lat="45.28194852618475" lon="9.27648259116931"><ele>82.0</ele><time>2026-04-02T12:15:42Z</time></trkpt><trkpt lat="45.28183818278404" lon="9.276381733098011"><ele>82.25</ele><time>2026-04-02T12:15:43Z</time></trkpt><trkpt lat="45.28172015898837" lon="9.276279678334143"><ele>82.5</ele><time>2026-04-02T12:15:44Z</time></trkpt><trkpt lat="45.28161375794921" lon="9.2761798179103"><ele>82.75</ele><time>2026-04-02T12:15:45Z</time></trkpt><trkpt lat="45.28152153399377" lon="9.276074980057562"><ele>83.0</ele><time>2026-04-02T12:15:46Z</time></trkpt><trkpt lat="45.28144047567755" lon="9.275983305148237"><ele>83.16666666666667</ele><time>2026-04-02T12:15:47Z</time></trkpt><trkpt lat="45.28136745296956" lon="9.275913219593647"><ele>83.33333333333334</ele><time>2026-04-02T12:15:48Z</time></trkpt><trkpt lat="45.28129278952889" lon="9.275862473856433"><ele>83.5</ele><time>2026-04-02T12:15:49.001Z</time></trkpt><trkpt lat="45.28121122656091" lon="9.2758907539022"><ele>83.66666666666667</ele><time>2026-04-02T12:15:50.001Z</time></trkpt><trkpt lat="45.28113101176818" lon="9.275946162443356"><ele>83.83333333333333</ele><time>2026-04-02T12:15:51.001Z</time></trkpt><trkpt lat="45.28104498890645" lon="9.276018738550412"><ele>84.0</ele><time>2026-04-02T12:15:52.001Z</time></trkpt><trkpt lat="45.280961182637284" lon="9.27607579385049"><ele>84.0</ele><time>2026-04-02T12:15:53.001Z</time></trkpt><trkpt lat="45.28088132157314" lon="9.276118495003427"><ele>84.0</ele><time>2026-04-02T12:15:54.001Z</time></trkpt><trkpt lat="45.28080578216293" lon="9.276157598541085"><ele>84.0</ele><time>2026-04-02T12:15:55.001Z</time></trkpt><trkpt lat="45.28073438874498" lon="9.276183291445424"><ele>84.0</ele><time>2026-04-02T12:15:56.001Z</time></trkpt><trkpt lat="45.280639897159325" lon="9.276166768727085"><ele>84.0</ele><time>2026-04-02T12:15:58.001Z</time></trkpt><trkpt lat="45.280594183308324" lon="9.276084044943415"><ele>84.0</ele><time>2026-04-02T12:15:59.001Z</time></trkpt><trkpt lat="45.28056924087205" lon="9.275899668739862"><ele>83.75</ele><time>2026-04-02T12:16:00.001Z</time></trkpt><trkpt lat="45.28053359688903" lon="9.275718707387968"><ele>83.5</ele><time>2026-04-02T12:16:01.001Z</time></trkpt><trkpt lat="45.28049820593743" lon="9.275559913640656"><ele>83.25</ele><time>2026-04-02T12:16:02.001Z</time></trkpt><trkpt lat="45.280440804964584" lon="9.27541164832773"><ele>83.0</ele><time>2026-04-02T12:16:03.001Z</time></trkpt><trkpt lat="45.280387509011334" lon="9.27524938608082"><ele>83.0</ele><time>2026-04-02T12:16:04.001Z</time></trkpt><trkpt lat="45.2803308942688" lon="9.275103857595704"><ele>83.0</ele><time>2026-04-02T12:16:05.001Z</time></trkpt><trkpt lat="45.28026823654375" lon="9.27496757328684"><ele>83.0</ele><time>2026-04-02T12:16:06.001Z</time></trkpt><trkpt lat="45.28019730626539" lon="9.274835805518746"><ele>83.0</ele><time>2026-04-02T12:16:07.001Z</time></trkpt><trkpt lat="45.28011865897641" lon="9.274718786325726"><ele>83.0</ele><time>2026-04-02T12:16:08.001Z</time></trkpt><trkpt lat="45.28004242976333" lon="9.27460305588856"><ele>83.0</ele><time>2026-04-02T12:16:09.001Z</time></trkpt><trkpt lat="45.279978724934516" lon="9.274469042718389"><ele>83.0</ele><time>2026-04-02T12:16:10.001Z</time></trkpt><trkpt lat="45.27992266933317" lon="9.27432737242794"><ele>83.0</ele><time>2026-04-02T12:16:11.001Z</time></trkpt><trkpt lat="45.2798735000608" lon="9.274199861191152"><ele>83.0</ele><time>2026-04-02T12:16:12.001Z</time></trkpt><trkpt lat="45.27982287419751" lon="9.274067693707174"><ele>83.0</ele><time>2026-04-02T12:16:13.001Z</time></trkpt><trkpt lat="45.27975286317495" lon="9.273946263265707"><ele>83.0</ele><time>2026-04-02T12:16:14.001Z</time></trkpt><trkpt lat="45.27966907048417" lon="9.273837112119876"><ele>83.0</ele><time>2026-04-02T12:16:15.001Z</time></trkpt><trkpt lat="45.27958349821492" lon="9.273727983102788"><ele>83.0</ele><time>2026-04-02T12:16:16.001Z</time></trkpt><trkpt lat="45.27950624427936" lon="9.273620357515147"><ele>83.0</ele><time>2026-04-02T12:16:17.001Z</time></trkpt><trkpt lat="45.279432505397715" lon="9.2735104833055"><ele>83.0</ele><time>2026-04-02T12:16:18.001Z</time></trkpt><trkpt lat="45.27935192081294" lon="9.273410713633615"><ele>83.0</ele><time>2026-04-02T12:16:19.001Z</time></trkpt><trkpt lat="45.279271341561696" lon="9.273303974982367"><ele>83.0</ele><time>2026-04-02T12:16:20.001Z</time></trkpt><trkpt lat="45.27918621300473" lon="9.273202569853721"><ele>83.0</ele><time>2026-04-02T12:16:21.001Z</time></trkpt><trkpt lat="45.27909301916846" lon="9.273112671427727"><ele>83.0</ele><time>2026-04-02T12:16:22.001Z</time></trkpt><trkpt lat="45.27899384613678" lon="9.273035650174181"><ele>83.2</ele><time>2026-04-02T12:16:23.001Z</time></trkpt><trkpt lat="45.27889767478984" lon="9.272974972087539"><ele>83.4</ele><time>2026-04-02T12:16:24.001Z</time></trkpt><trkpt lat="45.278797420815" lon="9.27293207535658"><ele>83.60000000000001</ele><time>2026-04-02T12:16:25.001Z</time></trkpt><trkpt lat="45.27868910711802" lon="9.272910558895214"><ele>83.80000000000001</ele><time>2026-04-02T12:16:26.001Z</time></trkpt><trkpt lat="45.27857941411259" lon="9.272900853033597"><ele>84.0</ele><time>2026-04-02T12:16:27.001Z</time></trkpt><trkpt lat="45.278468283058466" lon="9.27289120838332"><ele>84.0</ele><time>2026-04-02T12:16:28.001Z</time></trkpt><trkpt lat="45.278354718234496" lon="9.272884236740921"><ele>84.0</ele><time>2026-04-02T12:16:29.001Z</time></trkpt><trkpt lat="45.27824390773422" lon="9.27287247130059"><ele>84.0</ele><time>2026-04-02T12:16:30.001Z</time></trkpt><trkpt lat="45.27813846716962" lon="9.272858192058726"><ele>84.0</ele><time>2026-04-02T12:16:31.001Z</time></trkpt><trkpt lat="45.2780241206188" lon="9.272849863743033"><ele>84.0</ele><time>2026-04-02T12:16:32.001Z</time></trkpt><trkpt lat="45.27791293280057" lon="9.272833672735347"><ele>83.75</ele><time>2026-04-02T12:16:33.001Z</time></trkpt><trkpt lat="45.27780465357381" lon="9.272808254458928"><ele>83.5</ele><time>2026-04-02T12:16:34.001Z</time></trkpt><trkpt lat="45.277697376587014" lon="9.272766420091147"><ele>83.25</ele><time>2026-04-02T12:16:35.001Z</time></trkpt><trkpt lat="45.277594461275385" lon="9.272700539444708"><ele>83.0</ele><time>2026-04-02T12:16:36.001Z</time></trkpt><trkpt lat="45.277485015072955" lon="9.272630638655414"><ele>83.0</ele><time>2026-04-02T12:16:37.001Z</time></trkpt><trkpt lat="45.277376396856454" lon="9.272577108779146"><ele>83.0</ele><time>2026-04-02T12:16:38.001Z</time></trkpt><trkpt lat="45.277263010776984" lon="9.272541668760837"><ele>83.0</ele><time>2026-04-02T12:16:39.001Z</time></trkpt><trkpt lat="45.2771410740257" lon="9.272540500952934"><ele>83.0</ele><time>2026-04-02T12:16:40.001Z</time></trkpt><trkpt lat="45.277016646239595" lon="9.272550581686941"><ele>83.25</ele><time>2026-04-02T12:16:41.001Z</time></trkpt><trkpt lat="45.276898815554354" lon="9.272569423191268"><ele>83.5</ele><time>2026-04-02T12:16:42.001Z</time></trkpt><trkpt lat="45.27678608845247" lon="9.272578697796469"><ele>83.75</ele><time>2026-04-02T12:16:43.001Z</time></trkpt><trkpt lat="45.27666629911286" lon="9.272583011262752"><ele>84.0</ele><time>2026-04-02T12:16:44.001Z</time></trkpt><trkpt lat="45.276543562621306" lon="9.272585114568443"><ele>83.4</ele><time>2026-04-02T12:16:45.001Z</time></trkpt><trkpt lat="45.27641444883731" lon="9.272545122472463"><ele>82.80000000000001</ele><time>2026-04-02T12:16:46.001Z</time></trkpt><trkpt lat="45.276291803235786" lon="9.272546457160887"><ele>82.19999999999999</ele><time>2026-04-02T12:16:47.001Z</time></trkpt><trkpt lat="45.27619404124225" lon="9.272514659038945"><ele>81.6</ele><time>2026-04-02T12:16:48.001Z</time></trkpt><trkpt lat="45.27611389337496" lon="9.272472958904494"><ele>81.0</ele><time>2026-04-02T12:16:49.001Z</time></trkpt><trkpt lat="45.27604001765421" lon="9.272378214573"><ele>81.25</ele><time>2026-04-02T12:16:50.001Z</time></trkpt><trkpt lat="45.27597063381576" lon="9.272245610877297"><ele>81.5</ele><time>2026-04-02T12:16:51.001Z</time></trkpt><trkpt lat="45.27590185307336" lon="9.272082527908138"><ele>81.75</ele><time>2026-04-02T12:16:52.001Z</time></trkpt><trkpt lat="45.27582984000305" lon="9.271912302208614"><ele>82.0</ele><time>2026-04-02T12:16:53.001Z</time></trkpt><trkpt lat="45.27574049209805" lon="9.271747296273455"><ele>82.0</ele><time>2026-04-02T12:16:54.001Z</time></trkpt><trkpt lat="45.275658352998526" lon="9.271562189432949"><ele>82.0</ele><time>2026-04-02T12:16:55.001Z</time></trkpt><trkpt lat="45.275572283072705" lon="9.271371772020391"><ele>82.0</ele><time>2026-04-02T12:16:56.001Z</time></trkpt><trkpt lat="45.27548474063409" lon="9.271168992597246"><ele>81.66666666666666</ele><time>2026-04-02T12:16:57.001Z</time></trkpt><trkpt lat="45.27540845964273" lon="9.2709676231805"><ele>81.33333333333333</ele><time>2026-04-02T12:16:58.001Z</time></trkpt><trkpt lat="45.275335111053174" lon="9.270753912551813"><ele>81.0</ele><time>2026-04-02T12:16:59.001Z</time></trkpt><trkpt lat="45.27527163288544" lon="9.2705406399847"><ele>81.0</ele><time>2026-04-02T12:17:00.001Z</time></trkpt><trkpt lat="45.275210108858275" lon="9.270350274184327"><ele>81.0</ele><time>2026-04-02T12:17:01.001Z</time></trkpt><trkpt lat="45.275126169757364" lon="9.27019124318833"><ele>81.0</ele><time>2026-04-02T12:17:02.001Z</time></trkpt><trkpt lat="45.27500300991505" lon="9.270064656689149"><ele>81.0</ele><time>2026-04-02T12:17:03.001Z</time></trkpt><trkpt lat="45.274860107421524" lon="9.269929086948343"><ele>81.0</ele><time>2026-04-02T12:17:04.001Z</time></trkpt><trkpt lat="45.27470799416556" lon="9.269820604072422"><ele>81.0</ele><time>2026-04-02T12:17:05.001Z</time></trkpt><trkpt lat="45.27456881810267" lon="9.26970819573954"><ele>81.0</ele><time>2026-04-02T12:17:06.001Z</time></trkpt><trkpt lat="45.274443282275726" lon="9.269603854927642"><ele>81.0</ele><time>2026-04-02T12:17:07.002Z</time></trkpt><trkpt lat="45.27432420748655" lon="9.269504884122838"><ele>81.0</ele><time>2026-04-02T12:17:08.002Z</time></trkpt><trkpt lat="45.27421523533327" lon="9.269416022122938"><ele>81.0</ele><time>2026-04-02T12:17:09.002Z</time></trkpt><trkpt lat="45.274153010551636" lon="9.269276142503903"><ele>81.0</ele><time>2026-04-02T12:17:10.002Z</time></trkpt><trkpt lat="45.27409880164005" lon="9.26914337190838"><ele>81.0</ele><time>2026-04-02T12:17:11Z</time></trkpt><trkpt lat="45.27405146209466" lon="9.269014075251436"><ele>81.0</ele><time>2026-04-02T12:17:12Z</time></trkpt><trkpt lat="45.274010595587455" lon="9.268889525318343"><ele>81.0</ele><time>2026-04-02T12:17:13Z</time></trkpt><trkpt lat="45.27396926601222" lon="9.268754497943906"><ele>81.0</ele><time>2026-04-02T12:17:14Z</time></trkpt><trkpt lat="45.27391338667415" lon="9.268622180882236"><ele>81.0</ele><time>2026-04-02T12:17:15Z</time></trkpt><trkpt lat="45.27389032763974" lon="9.268488083921994"><ele>81.25</ele><time>2026-04-02T12:17:16Z</time></trkpt><trkpt lat="45.27385225409339" lon="9.268357186064524"><ele>81.5</ele><time>2026-04-02T12:17:17Z</time></trkpt><trkpt lat="45.273787366308376" lon="9.268190700708514"><ele>81.75</ele><time>2026-04-02T12:17:18Z</time></trkpt><trkpt lat="45.27374399821401" lon="9.26800218064672"><ele>82.0</ele><time>2026-04-02T12:17:19Z</time></trkpt><trkpt lat="45.273701796921756" lon="9.267834078420915"><ele>82.0</ele><time>2026-04-02T12:17:20Z</time></trkpt><trkpt lat="45.27365872532361" lon="9.267690476496599"><ele>82.0</ele><time>2026-04-02T12:17:21Z</time></trkpt><trkpt lat="45.27361625919961" lon="9.267594848633939"><ele>82.0</ele><time>2026-04-02T12:17:22Z</time></trkpt><trkpt lat="45.273561183152786" lon="9.26750367754262"><ele>82.0</ele><time>2026-04-02T12:17:23Z</time></trkpt><trkpt lat="45.27346036057502" lon="9.267497977559483"><ele>82.0</ele><time>2026-04-02T12:17:24Z</time></trkpt><trkpt lat="45.273339760115995" lon="9.267590618886283"><ele>82.0</ele><time>2026-04-02T12:17:25Z</time></trkpt><trkpt lat="45.27320599263547" lon="9.267671647190912"><ele>82.0</ele><time>2026-04-02T12:17:26Z</time></trkpt><trkpt lat="45.273047835094275" lon="9.267735179712547"><ele>82.0</ele><time>2026-04-02T12:17:27Z</time></trkpt><trkpt lat="45.272895501809224" lon="9.267837313616756"><ele>81.33333333333333</ele><time>2026-04-02T12:17:28Z</time></trkpt><trkpt lat="45.27272384679461" lon="9.26792279154809"><ele>80.66666666666667</ele><time>2026-04-02T12:17:29Z</time></trkpt><trkpt lat="45.27257599503815" lon="9.268003240688186"><ele>80.0</ele><time>2026-04-02T12:17:30Z</time></trkpt><trkpt lat="45.27244739473671" lon="9.2680835578502"><ele>80.2</ele><time>2026-04-02T12:17:31Z</time></trkpt><trkpt lat="45.27234557930577" lon="9.268162178581312"><ele>80.4</ele><time>2026-04-02T12:17:32Z</time></trkpt><trkpt lat="45.27225695253349" lon="9.26823191336354"><ele>80.6</ele><time>2026-04-02T12:17:33Z</time></trkpt><trkpt lat="45.27217072759015" lon="9.268295124675486"><ele>80.8</ele><time>2026-04-02T12:17:34Z</time></trkpt><trkpt lat="45.272080734034276" lon="9.268355479064093"><ele>81.0</ele><time>2026-04-02T12:17:35Z</time></trkpt><trkpt lat="45.27198277275446" lon="9.268417528438913"><ele>80.5</ele><time>2026-04-02T12:17:36Z</time></trkpt><trkpt lat="45.27187106165776" lon="9.268498867821291"><ele>80.0</ele><time>2026-04-02T12:17:37Z</time></trkpt><trkpt lat="45.27174651132553" lon="9.268581581953612"><ele>79.5</ele><time>2026-04-02T12:17:38Z</time></trkpt><trkpt lat="45.27162306668129" lon="9.268665954578491"><ele>79.0</ele><time>2026-04-02T12:17:39Z</time></trkpt><trkpt lat="45.27149198276911" lon="9.268760142610411"><ele>79.66666666666666</ele><time>2026-04-02T12:17:40Z</time></trkpt><trkpt lat="45.2713527078185" lon="9.268861806118172"><ele>80.33333333333333</ele><time>2026-04-02T12:17:41Z</time></trkpt><trkpt lat="45.27120249883198" lon="9.268964939381934"><ele>81.0</ele><time>2026-04-02T12:17:42Z</time></trkpt><trkpt lat="45.271057843579165" lon="9.269068390018646"><ele>81.0</ele><time>2026-04-02T12:17:43Z</time></trkpt><trkpt lat="45.270920404516104" lon="9.269166538758329"><ele>81.0</ele><time>2026-04-02T12:17:44Z</time></trkpt><trkpt lat="45.270795049241265" lon="9.269256458758237"><ele>81.0</ele><time>2026-04-02T12:17:45Z</time></trkpt><trkpt lat="45.270678179557926" lon="9.269344256613861"><ele>81.0</ele><time>2026-04-02T12:17:46Z</time></trkpt><trkpt lat="45.27056458037949" lon="9.269438200580808"><ele>81.0</ele><time>2026-04-02T12:17:47Z</time></trkpt><trkpt lat="45.27046023759686" lon="9.26956097734058"><ele>81.0</ele><time>2026-04-02T12:17:48Z</time></trkpt><trkpt lat="45.270365004668015" lon="9.269716299752565"><ele>81.0</ele><time>2026-04-02T12:17:49Z</time></trkpt><trkpt lat="45.270270306413245" lon="9.269878282509383"><ele>81.0</ele><time>2026-04-02T12:17:50Z</time></trkpt><trkpt lat="45.27017539589809" lon="9.2700424870432"><ele>80.66666666666667</ele><time>2026-04-02T12:17:51Z</time></trkpt><trkpt lat="45.27007871440649" lon="9.270210489947587"><ele>80.33333333333334</ele><time>2026-04-02T12:17:52Z</time></trkpt><trkpt lat="45.2699844010897" lon="9.270387228753084"><ele>80.0</ele><time>2026-04-02T12:17:53Z</time></trkpt><trkpt lat="45.26990368770496" lon="9.270560220244052"><ele>80.0</ele><time>2026-04-02T12:17:54Z</time></trkpt><trkpt lat="45.26982722083549" lon="9.270721348038498"><ele>80.0</ele><time>2026-04-02T12:17:55Z</time></trkpt><trkpt lat="45.269748752787486" lon="9.270856796669937"><ele>80.0</ele><time>2026-04-02T12:17:56.001Z</time></trkpt><trkpt lat="45.2696774947314" lon="9.270964215099989"><ele>80.0</ele><time>2026-04-02T12:17:57.001Z</time></trkpt><trkpt lat="45.269631705494334" lon="9.271080729661062"><ele>80.25</ele><time>2026-04-02T12:17:58.001Z</time></trkpt><trkpt lat="45.2696202145835" lon="9.271239797922618"><ele>80.5</ele><time>2026-04-02T12:17:59.001Z</time></trkpt><trkpt lat="45.269640897617464" lon="9.27143723378438"><ele>80.75</ele><time>2026-04-02T12:18:00.001Z</time></trkpt><trkpt lat="45.26965923564285" lon="9.271637415311087"><ele>81.0</ele><time>2026-04-02T12:18:01.001Z</time></trkpt><trkpt lat="45.26966416103954" lon="9.271836632150286"><ele>81.0</ele><time>2026-04-02T12:18:02.001Z</time></trkpt><trkpt lat="45.26966287723883" lon="9.27203993896057"><ele>81.0</ele><time>2026-04-02T12:18:03.001Z</time></trkpt><trkpt lat="45.269659341445546" lon="9.272210200327528"><ele>81.0</ele><time>2026-04-02T12:18:04.001Z</time></trkpt><trkpt lat="45.26965173042714" lon="9.272359207532382"><ele>81.0</ele><time>2026-04-02T12:18:05.001Z</time></trkpt><trkpt lat="45.26962303975695" lon="9.272488158042632"><ele>81.0</ele><time>2026-04-02T12:18:06.001Z</time></trkpt><trkpt lat="45.26956048547095" lon="9.272601239068097"><ele>81.0</ele><time>2026-04-02T12:18:07.001Z</time></trkpt><trkpt lat="45.26945206777927" lon="9.272658257907349"><ele>81.0</ele><time>2026-04-02T12:18:08.001Z</time></trkpt><trkpt lat="45.26933508280336" lon="9.272753493836543"><ele>81.0</ele><time>2026-04-02T12:18:09.001Z</time></trkpt><trkpt lat="45.269206095939744" lon="9.272832052238984"><ele>81.0</ele><time>2026-04-02T12:18:10.001Z</time></trkpt><trkpt lat="45.26906919010431" lon="9.2729260623171"><ele>81.0</ele><time>2026-04-02T12:18:11.001Z</time></trkpt><trkpt lat="45.26894407772517" lon="9.27302383682376"><ele>81.0</ele><time>2026-04-02T12:18:12.001Z</time></trkpt><trkpt lat="45.26883515430778" lon="9.273115126904063"><ele>81.0</ele><time>2026-04-02T12:18:13.001Z</time></trkpt><trkpt lat="45.26873306535554" lon="9.273204132966647"><ele>81.19999999999999</ele><time>2026-04-02T12:18:14.001Z</time></trkpt><trkpt lat="45.26863916265866" lon="9.27328470586859"><ele>81.39999999999999</ele><time>2026-04-02T12:18:15.001Z</time></trkpt><trkpt lat="45.268547773405956" lon="9.273353097059456"><ele>81.6</ele><time>2026-04-02T12:18:16.001Z</time></trkpt><trkpt lat="45.268463468853895" lon="9.273420064570718"><ele>81.8</ele><time>2026-04-02T12:18:17.001Z</time></trkpt><trkpt lat="45.268387020835" lon="9.273492963647001"><ele>82.0</ele><time>2026-04-02T12:18:18.001Z</time></trkpt><trkpt lat="45.26831062877555" lon="9.273565933431357"><ele>82.0</ele><time>2026-04-02T12:18:19.001Z</time></trkpt><trkpt lat="45.26824400219756" lon="9.273607537173781"><ele>82.0</ele><time>2026-04-02T12:18:20.001Z</time></trkpt><trkpt lat="45.26815653262598" lon="9.273576207770708"><ele>82.0</ele><time>2026-04-02T12:18:22.001Z</time></trkpt><trkpt lat="45.26805859382445" lon="9.273576136796475"><ele>82.0</ele><time>2026-04-02T12:18:24.001Z</time></trkpt><trkpt lat="45.2680055187602" lon="9.27370814258077"><ele>82.0</ele><time>2026-04-02T12:18:25.001Z</time></trkpt><trkpt lat="45.26793965319165" lon="9.273787383597746"><ele>82.19999999999999</ele><time>2026-04-02T12:18:26.001Z</time></trkpt><trkpt lat="45.26786327204217" lon="9.273869295121113"><ele>82.4</ele><time>2026-04-02T12:18:27.001Z</time></trkpt><trkpt lat="45.26778324454924" lon="9.273946639916668"><ele>82.6</ele><time>2026-04-02T12:18:28.001Z</time></trkpt><trkpt lat="45.26770241195247" lon="9.274014853333423"><ele>82.80000000000001</ele><time>2026-04-02T12:18:29.001Z</time></trkpt><trkpt lat="45.26761462520104" lon="9.274089710498234"><ele>83.0</ele><time>2026-04-02T12:18:30.001Z</time></trkpt><trkpt lat="45.26752696712917" lon="9.274157590501531"><ele>83.0</ele><time>2026-04-02T12:18:31.001Z</time></trkpt><trkpt lat="45.26743655022863" lon="9.274225267686406"><ele>83.0</ele><time>2026-04-02T12:18:32.001Z</time></trkpt><trkpt lat="45.26733760514081" lon="9.274282281628132"><ele>83.0</ele><time>2026-04-02T12:18:33.001Z</time></trkpt><trkpt lat="45.26723559255691" lon="9.27433383677238"><ele>83.0</ele><time>2026-04-02T12:18:34.001Z</time></trkpt><trkpt lat="45.26713130563664" lon="9.274376897060172"><ele>83.0</ele><time>2026-04-02T12:18:35.001Z</time></trkpt><trkpt lat="45.267024310109136" lon="9.274418639056288"><ele>83.0</ele><time>2026-04-02T12:18:36.001Z</time></trkpt><trkpt lat="45.266923599781904" lon="9.274465735529448"><ele>83.0</ele><time>2026-04-02T12:18:37.001Z</time></trkpt><trkpt lat="45.26683354706704" lon="9.274503654632577"><ele>83.0</ele><time>2026-04-02T12:18:38.001Z</time></trkpt><trkpt lat="45.2667503838479" lon="9.274539288275095"><ele>83.0</ele><time>2026-04-02T12:18:39.001Z</time></trkpt><trkpt lat="45.266671404781" lon="9.274577874282002"><ele>83.0</ele><time>2026-04-02T12:18:40.001Z</time></trkpt><trkpt lat="45.26660044701536" lon="9.274614868836302"><ele>83.0</ele><time>2026-04-02T12:18:41.001Z</time></trkpt><trkpt lat="45.266522800114316" lon="9.27466664544618"><ele>83.2</ele><time>2026-04-02T12:18:42.001Z</time></trkpt><trkpt lat="45.266438583335415" lon="9.274730470554205"><ele>83.4</ele><time>2026-04-02T12:18:43.001Z</time></trkpt><trkpt lat="45.266347037479505" lon="9.27480481518225"><ele>83.60000000000001</ele><time>2026-04-02T12:18:44.001Z</time></trkpt><trkpt lat="45.26626232017327" lon="9.274878671800513"><ele>83.80000000000001</ele><time>2026-04-02T12:18:45.001Z</time></trkpt><trkpt lat="45.26617480682802" lon="9.274974092903436"><ele>84.0</ele><time>2026-04-02T12:18:46.001Z</time></trkpt><trkpt lat="45.266098044572026" lon="9.275069440311878"><ele>84.0</ele><time>2026-04-02T12:18:47.001Z</time></trkpt><trkpt lat="45.266027340239866" lon="9.275157216332646"><ele>84.0</ele><time>2026-04-02T12:18:48.001Z</time></trkpt><trkpt lat="45.26595064283324" lon="9.275212892721068"><ele>84.0</ele><time>2026-04-02T12:18:49.001Z</time></trkpt><trkpt lat="45.26588395622173" lon="9.275258174625488"><ele>84.0</ele><time>2026-04-02T12:18:50.001Z</time></trkpt><trkpt lat="45.265784975513746" lon="9.27529452070614"><ele>84.0</ele><time>2026-04-02T12:18:53.001Z</time></trkpt><trkpt lat="45.26568301357482" lon="9.275169825363633"><ele>84.0</ele><time>2026-04-02T12:18:55.001Z</time></trkpt><trkpt lat="45.26560904384507" lon="9.275112304620476"><ele>84.0</ele><time>2026-04-02T12:18:56.001Z</time></trkpt><trkpt lat="45.26553587388458" lon="9.275035324891965"><ele>84.0</ele><time>2026-04-02T12:18:57.001Z</time></trkpt><trkpt lat="45.26542859005604" lon="9.274939350797773"><ele>84.0</ele><time>2026-04-02T12:18:58.001Z</time></trkpt><trkpt lat="45.26534729683513" lon="9.274831582302411"><ele>84.0</ele><time>2026-04-02T12:18:59.001Z</time></trkpt><trkpt lat="45.26525749647982" lon="9.2747442027183"><ele>84.0</ele><time>2026-04-02T12:19:00.001Z</time></trkpt><trkpt lat="45.26516117501834" lon="9.2746827278166"><ele>84.0</ele><time>2026-04-02T12:19:01.001Z</time></trkpt><trkpt lat="45.26508222333745" lon="9.274618587381894"><ele>84.0</ele><time>2026-04-02T12:19:02.001Z</time></trkpt><trkpt lat="45.265008878967016" lon="9.274559314407227"><ele>84.0</ele><time>2026-04-02T12:19:03.001Z</time></trkpt><trkpt lat="45.26491770445835" lon="9.274638784449886"><ele>84.0</ele><time>2026-04-02T12:19:04.001Z</time></trkpt><trkpt lat="45.26481255939886" lon="9.274726068498262"><ele>83.66666666666667</ele><time>2026-04-02T12:19:05.001Z</time></trkpt><trkpt lat="45.264669646471766" lon="9.274744691528609"><ele>83.33333333333334</ele><time>2026-04-02T12:19:06.001Z</time></trkpt><trkpt lat="45.26449982080428" lon="9.274781712463607"><ele>83.0</ele><time>2026-04-02T12:19:07.001Z</time></trkpt><trkpt lat="45.26430574949512" lon="9.27485297919695"><ele>83.0</ele><time>2026-04-02T12:19:08.001Z</time></trkpt><trkpt lat="45.264138577581704" lon="9.274924447971458"><ele>83.0</ele><time>2026-04-02T12:19:09.001Z</time></trkpt><trkpt lat="45.26399369960078" lon="9.274989210608137"><ele>83.0</ele><time>2026-04-02T12:19:10.001Z</time></trkpt><trkpt lat="45.26386002605695" lon="9.275078953992885"><ele>83.0</ele><time>2026-04-02T12:19:11.001Z</time></trkpt><trkpt lat="45.26371464361278" lon="9.275220954928056"><ele>83.0</ele><time>2026-04-02T12:19:12.001Z</time></trkpt><trkpt lat="45.26356153835118" lon="9.275410127232673"><ele>83.0</ele><time>2026-04-02T12:19:13.001Z</time></trkpt><trkpt lat="45.26342365437953" lon="9.275582362252976"><ele>83.0</ele><time>2026-04-02T12:19:14.001Z</time></trkpt><trkpt lat="45.26328654146182" lon="9.275714539267913"><ele>83.0</ele><time>2026-04-02T12:19:15.001Z</time></trkpt><trkpt lat="45.26316967856411" lon="9.275879060717557"><ele>83.0</ele><time>2026-04-02T12:19:16.002Z</time></trkpt><trkpt lat="45.26304285177407" lon="9.276022114318044"><ele>82.75</ele><time>2026-04-02T12:19:17Z</time></trkpt><trkpt lat="45.26291811095857" lon="9.276162124840802"><ele>82.5</ele><time>2026-04-02T12:19:18Z</time></trkpt><trkpt lat="45.26280440966746" lon="9.276279717722884"><ele>82.25</ele><time>2026-04-02T12:19:19Z</time></trkpt><trkpt lat="45.26271215303156" lon="9.276376155113821"><ele>82.0</ele><time>2026-04-02T12:19:20Z</time></trkpt><trkpt lat="45.262627508677625" lon="9.27646060338525"><ele>82.0</ele><time>2026-04-02T12:19:21Z</time></trkpt><trkpt lat="45.262569587741346" lon="9.276515734512948"><ele>82.0</ele><time>2026-04-02T12:19:22Z</time></trkpt><trkpt lat="45.26247190722771" lon="9.276557864245154"><ele>82.0</ele><time>2026-04-02T12:19:24Z</time></trkpt><trkpt lat="45.2624095353258" lon="9.276441092077087"><ele>82.0</ele><time>2026-04-02T12:19:25Z</time></trkpt><trkpt lat="45.26234217306267" lon="9.276378604804753"><ele>82.0</ele><time>2026-04-02T12:19:26Z</time></trkpt><trkpt lat="45.26227598690758" lon="9.276308201240184"><ele>82.0</ele><time>2026-04-02T12:19:27Z</time></trkpt><trkpt lat="45.26220474642673" lon="9.276229725092954"><ele>81.8</ele><time>2026-04-02T12:19:28Z</time></trkpt><trkpt lat="45.26212963863242" lon="9.276146988870364"><ele>81.6</ele><time>2026-04-02T12:19:29Z</time></trkpt><trkpt lat="45.26205019689675" lon="9.276063238919358"><ele>81.39999999999999</ele><time>2026-04-02T12:19:30Z</time></trkpt><trkpt lat="45.261970768767945" lon="9.275982856715302"><ele>81.19999999999999</ele><time>2026-04-02T12:19:31Z</time></trkpt><trkpt lat="45.26188280226035" lon="9.275898045111232"><ele>81.0</ele><time>2026-04-02T12:19:32Z</time></trkpt><trkpt lat="45.26178294521188" lon="9.275834780569795"><ele>81.0</ele><time>2026-04-02T12:19:33Z</time></trkpt><trkpt lat="45.26168888627974" lon="9.275753855936287"><ele>81.0</ele><time>2026-04-02T12:19:34Z</time></trkpt><trkpt lat="45.26160107362739" lon="9.275654320879122"><ele>81.0</ele><time>2026-04-02T12:19:35Z</time></trkpt><trkpt lat="45.2615004945903" lon="9.275590147905296"><ele>81.0</ele><time>2026-04-02T12:19:36Z</time></trkpt><trkpt lat="45.26140604473843" lon="9.275504740320544"><ele>81.0</ele><time>2026-04-02T12:19:37Z</time></trkpt><trkpt lat="45.26130664109134" lon="9.275418029904666"><ele>81.25</ele><time>2026-04-02T12:19:38Z</time></trkpt><trkpt lat="45.261202705064825" lon="9.275329479247471"><ele>81.5</ele><time>2026-04-02T12:19:39Z</time></trkpt><trkpt lat="45.261099541817146" lon="9.27523554153642"><ele>81.75</ele><time>2026-04-02T12:19:40Z</time></trkpt><trkpt lat="45.26098904943793" lon="9.275142569105016"><ele>82.0</ele><time>2026-04-02T12:19:41Z</time></trkpt><trkpt lat="45.26087860225443" lon="9.275045222810466"><ele>82.0</ele><time>2026-04-02T12:19:42Z</time></trkpt><trkpt lat="45.26076358366224" lon="9.274948925015911"><ele>82.0</ele><time>2026-04-02T12:19:43Z</time></trkpt><trkpt lat="45.26065135613045" lon="9.274851707894488"><ele>82.0</ele><time>2026-04-02T12:19:44Z</time></trkpt><trkpt lat="45.260539191004185" lon="9.274758712479386"><ele>82.0</ele><time>2026-04-02T12:19:45Z</time></trkpt><trkpt lat="45.260424817629776" lon="9.274666947222899"><ele>82.25</ele><time>2026-04-02T12:19:46Z</time></trkpt><trkpt lat="45.26030912243766" lon="9.274574909314447"><ele>82.5</ele><time>2026-04-02T12:19:47Z</time></trkpt><trkpt lat="45.260196635472695" lon="9.274481902106043"><ele>82.75</ele><time>2026-04-02T12:19:48Z</time></trkpt><trkpt lat="45.26010080026519" lon="9.274366203402222"><ele>83.0</ele><time>2026-04-02T12:19:49Z</time></trkpt><trkpt lat="45.25999441937769" lon="9.274273208273943"><ele>83.0</ele><time>2026-04-02T12:19:50Z</time></trkpt><trkpt lat="45.25988178755224" lon="9.274196986054699"><ele>83.0</ele><time>2026-04-02T12:19:51Z</time></trkpt><trkpt lat="45.2597769312884" lon="9.274107277608834"><ele>83.0</ele><time>2026-04-02T12:19:52Z</time></trkpt><trkpt lat="45.25967261056606" lon="9.274023486103154"><ele>83.0</ele><time>2026-04-02T12:19:53Z</time></trkpt><trkpt lat="45.259566780764104" lon="9.273938054576213"><ele>82.5</ele><time>2026-04-02T12:19:54Z</time></trkpt><trkpt lat="45.25946287869117" lon="9.273848683156807"><ele>82.0</ele><time>2026-04-02T12:19:55Z</time></trkpt><trkpt lat="45.25936205687742" lon="9.273754363328415"><ele>81.5</ele><time>2026-04-02T12:19:56Z</time></trkpt><trkpt lat="45.25926304097346" lon="9.273655817208327"><ele>81.0</ele><time>2026-04-02T12:19:57Z</time></trkpt><trkpt lat="45.25915844888605" lon="9.27355549772678"><ele>81.0</ele><time>2026-04-02T12:19:58Z</time></trkpt><trkpt lat="45.25904980580044" lon="9.273462815009022"><ele>81.0</ele><time>2026-04-02T12:19:59Z</time></trkpt><trkpt lat="45.25895031508128" lon="9.27337515650419"><ele>81.0</ele><time>2026-04-02T12:20:00Z</time></trkpt><trkpt lat="45.25885777051473" lon="9.27329547106184"><ele>81.0</ele><time>2026-04-02T12:20:01Z</time></trkpt><trkpt lat="45.25876739165097" lon="9.273225111707433"><ele>81.4</ele><time>2026-04-02T12:20:02Z</time></trkpt><trkpt lat="45.25867895275422" lon="9.2731645517086"><ele>81.8</ele><time>2026-04-02T12:20:03Z</time></trkpt><trkpt lat="45.2585918824637" lon="9.273107091413996"><ele>82.2</ele><time>2026-04-02T12:20:04Z</time></trkpt><trkpt lat="45.25850123339216" lon="9.273048087839017"><ele>82.60000000000001</ele><time>2026-04-02T12:20:05Z</time></trkpt><trkpt lat="45.258420245178094" lon="9.27299954065906"><ele>83.0</ele><time>2026-04-02T12:20:06Z</time></trkpt><trkpt lat="45.25834354593653" lon="9.272954430738874"><ele>83.14285714285714</ele><time>2026-04-02T12:20:07Z</time></trkpt><trkpt lat="45.2582858622684" lon="9.272885455341186"><ele>83.28571428571429</ele><time>2026-04-02T12:20:08.001Z</time></trkpt><trkpt lat="45.25823000648363" lon="9.272827919275374"><ele>83.42857142857143</ele><time>2026-04-02T12:20:09.001Z</time></trkpt><trkpt lat="45.2581758892934" lon="9.27277149130833"><ele>83.57142857142857</ele><time>2026-04-02T12:20:10.001Z</time></trkpt><trkpt lat="45.258121526897575" lon="9.27271298932644"><ele>83.71428571428572</ele><time>2026-04-02T12:20:11.001Z</time></trkpt><trkpt lat="45.25806161425028" lon="9.27264756503796"><ele>83.85714285714286</ele><time>2026-04-02T12:20:12.001Z</time></trkpt><trkpt lat="45.258009161604406" lon="9.2725902870127"><ele>84.0</ele><time>2026-04-02T12:20:13.001Z</time></trkpt><trkpt lat="45.25795346407682" lon="9.272535478825008"><ele>83.66666666666667</ele><time>2026-04-02T12:20:14.001Z</time></trkpt><trkpt lat="45.25788062900659" lon="9.272494435042766"><ele>83.33333333333333</ele><time>2026-04-02T12:20:15.001Z</time></trkpt><trkpt lat="45.257825720408036" lon="9.272438302438147"><ele>83.0</ele><time>2026-04-02T12:20:16.001Z</time></trkpt><trkpt lat="45.25777275002148" lon="9.272387473943194"><ele>82.66666666666666</ele><time>2026-04-02T12:20:17.001Z</time></trkpt><trkpt lat="45.25765425476315" lon="9.27227863673371"><ele>82.33333333333333</ele><time>2026-04-02T12:20:19.001Z</time></trkpt><trkpt lat="45.25757062111241" lon="9.272210884310349"><ele>82.0</ele><time>2026-04-02T12:20:20.001Z</time></trkpt><trkpt lat="45.257481622534776" lon="9.27213252115536"><ele>81.8</ele><time>2026-04-02T12:20:21.001Z</time></trkpt><trkpt lat="45.257393291726025" lon="9.272050701095948"><ele>81.6</ele><time>2026-04-02T12:20:22.001Z</time></trkpt><trkpt lat="45.257301899012894" lon="9.271967243308291"><ele>81.39999999999999</ele><time>2026-04-02T12:20:23.001Z</time></trkpt><trkpt lat="45.25720964128019" lon="9.271882271793354"><ele>81.19999999999999</ele><time>2026-04-02T12:20:24.001Z</time></trkpt><trkpt lat="45.25712728191848" lon="9.271807727299732"><ele>81.0</ele><time>2026-04-02T12:20:25.001Z</time></trkpt><trkpt lat="45.257039650431025" lon="9.271721873919226"><ele>80.8</ele><time>2026-04-02T12:20:26.001Z</time></trkpt><trkpt lat="45.25695781479847" lon="9.27163015321798"><ele>80.6</ele><time>2026-04-02T12:20:27.001Z</time></trkpt><trkpt lat="45.25687112646018" lon="9.2715541742299"><ele>80.4</ele><time>2026-04-02T12:20:28.001Z</time></trkpt><trkpt lat="45.25678065899561" lon="9.271475990956738"><ele>80.2</ele><time>2026-04-02T12:20:29.001Z</time></trkpt><trkpt lat="45.25669415970289" lon="9.2714012370255"><ele>80.0</ele><time>2026-04-02T12:20:30.001Z</time></trkpt><trkpt lat="45.25660220029069" lon="9.271321764337326"><ele>79.8</ele><time>2026-04-02T12:20:31.001Z</time></trkpt><trkpt lat="45.2565067938947" lon="9.271238081958394"><ele>79.6</ele><time>2026-04-02T12:20:32.001Z</time></trkpt><trkpt lat="45.25641241109445" lon="9.271155761665497"><ele>79.4</ele><time>2026-04-02T12:20:33.001Z</time></trkpt><trkpt lat="45.25631962452768" lon="9.271078244646327"><ele>79.2</ele><time>2026-04-02T12:20:34.001Z</time></trkpt><trkpt lat="45.25621754339722" lon="9.271003273865352"><ele>79.0</ele><time>2026-04-02T12:20:35.001Z</time></trkpt><trkpt lat="45.25611674481054" lon="9.27095255940989"><ele>79.25</ele><time>2026-04-02T12:20:36.001Z</time></trkpt><trkpt lat="45.25602789459986" lon="9.270864863755055"><ele>79.5</ele><time>2026-04-02T12:20:37.001Z</time></trkpt><trkpt lat="45.25594339237436" lon="9.270750215279662"><ele>79.75</ele><time>2026-04-02T12:20:38.001Z</time></trkpt><trkpt lat="45.25583406043623" lon="9.270648851278324"><ele>80.0</ele><time>2026-04-02T12:20:39.001Z</time></trkpt><trkpt lat="45.25572660095339" lon="9.27054867368696"><ele>80.33333333333334</ele><time>2026-04-02T12:20:40.001Z</time></trkpt><trkpt lat="45.25559591922925" lon="9.27045371753339"><ele>80.66666666666667</ele><time>2026-04-02T12:20:41.001Z</time></trkpt><trkpt lat="45.25546907131457" lon="9.270332147929324"><ele>81.0</ele><time>2026-04-02T12:20:42.001Z</time></trkpt><trkpt lat="45.25533908861835" lon="9.270221897565426"><ele>81.0</ele><time>2026-04-02T12:20:43.001Z</time></trkpt><trkpt lat="45.25520974298367" lon="9.2701054908557"><ele>81.0</ele><time>2026-04-02T12:20:44.001Z</time></trkpt><trkpt lat="45.25508379937101" lon="9.269981802147681"><ele>81.0</ele><time>2026-04-02T12:20:45.001Z</time></trkpt><trkpt lat="45.25494237394827" lon="9.269873661998833"><ele>81.0</ele><time>2026-04-02T12:20:46.001Z</time></trkpt><trkpt lat="45.25481807288952" lon="9.269766777513206"><ele>81.0</ele><time>2026-04-02T12:20:47.001Z</time></trkpt><trkpt lat="45.25468978322447" lon="9.2696549357217"><ele>81.0</ele><time>2026-04-02T12:20:48.001Z</time></trkpt><trkpt lat="45.25456540795627" lon="9.269545206135763"><ele>81.0</ele><time>2026-04-02T12:20:49.001Z</time></trkpt><trkpt lat="45.25443461908028" lon="9.269438858072444"><ele>81.66666666666667</ele><time>2026-04-02T12:20:50.001Z</time></trkpt><trkpt lat="45.25430222506763" lon="9.269324698139524"><ele>82.33333333333334</ele><time>2026-04-02T12:20:51.001Z</time></trkpt><trkpt lat="45.254172180168545" lon="9.269208883659468"><ele>83.0</ele><time>2026-04-02T12:20:52.001Z</time></trkpt><trkpt lat="45.2540443743878" lon="9.269099027502115"><ele>83.0</ele><time>2026-04-02T12:20:53.001Z</time></trkpt><trkpt lat="45.253924836213066" lon="9.268997842794002"><ele>83.0</ele><time>2026-04-02T12:20:54.001Z</time></trkpt><trkpt lat="45.2538076896513" lon="9.268898941666304"><ele>83.0</ele><time>2026-04-02T12:20:55.001Z</time></trkpt><trkpt lat="45.25369220216433" lon="9.268801334008867"><ele>83.0</ele><time>2026-04-02T12:20:56.001Z</time></trkpt><trkpt lat="45.253580359463754" lon="9.268700859445106"><ele>82.33333333333334</ele><time>2026-04-02T12:20:57.001Z</time></trkpt><trkpt lat="45.25345255981724" lon="9.26859226648483"><ele>81.66666666666667</ele><time>2026-04-02T12:20:58.001Z</time></trkpt><trkpt lat="45.25331300788937" lon="9.268485128297186"><ele>81.0</ele><time>2026-04-02T12:20:59.001Z</time></trkpt><trkpt lat="45.25318545211435" lon="9.268370874981793"><ele>80.75</ele><time>2026-04-02T12:21:00.001Z</time></trkpt><trkpt lat="45.25306771035427" lon="9.268270151729942"><ele>80.5</ele><time>2026-04-02T12:21:01.001Z</time></trkpt><trkpt lat="45.2529546853374" lon="9.268171426008188"><ele>80.25</ele><time>2026-04-02T12:21:02.001Z</time></trkpt><trkpt lat="45.25285042428764" lon="9.268076959717067"><ele>80.0</ele><time>2026-04-02T12:21:03.001Z</time></trkpt><trkpt lat="45.25274315598576" lon="9.267981360176245"><ele>80.0</ele><time>2026-04-02T12:21:04.001Z</time></trkpt><trkpt lat="45.2526319113231" lon="9.267887916304609"><ele>80.0</ele><time>2026-04-02T12:21:05.001Z</time></trkpt><trkpt lat="45.25251929797559" lon="9.26779195779593"><ele>80.0</ele><time>2026-04-02T12:21:06.001Z</time></trkpt><trkpt lat="45.25241154724102" lon="9.267697081265329"><ele>80.0</ele><time>2026-04-02T12:21:07.001Z</time></trkpt><trkpt lat="45.25230708180892" lon="9.26761122576521"><ele>80.2</ele><time>2026-04-02T12:21:08.001Z</time></trkpt><trkpt lat="45.25221287582952" lon="9.267525407745133"><ele>80.4</ele><time>2026-04-02T12:21:09.001Z</time></trkpt><trkpt lat="45.2521287406977" lon="9.267449816255699"><ele>80.6</ele><time>2026-04-02T12:21:10.001Z</time></trkpt><trkpt lat="45.25203440103802" lon="9.267367262933893"><ele>80.8</ele><time>2026-04-02T12:21:11.001Z</time></trkpt><trkpt lat="45.251930425934894" lon="9.267269814985298"><ele>81.0</ele><time>2026-04-02T12:21:12.001Z</time></trkpt><trkpt lat="45.251823537343704" lon="9.267173251910291"><ele>81.25</ele><time>2026-04-02T12:21:13.001Z</time></trkpt><trkpt lat="45.251722704952" lon="9.267085933838189"><ele>81.5</ele><time>2026-04-02T12:21:14.001Z</time></trkpt><trkpt lat="45.25162924198775" lon="9.26699906988056"><ele>81.75</ele><time>2026-04-02T12:21:15.001Z</time></trkpt><trkpt lat="45.25153619447697" lon="9.266920264474683"><ele>82.0</ele><time>2026-04-02T12:21:16.001Z</time></trkpt><trkpt lat="45.25144112339343" lon="9.266837560682177"><ele>82.0</ele><time>2026-04-02T12:21:17.001Z</time></trkpt><trkpt lat="45.25133870186085" lon="9.266746784887031"><ele>82.0</ele><time>2026-04-02T12:21:18.001Z</time></trkpt><trkpt lat="45.251243456855484" lon="9.266665310812757"><ele>82.0</ele><time>2026-04-02T12:21:19.001Z</time></trkpt><trkpt lat="45.251146194653295" lon="9.266583373026103"><ele>82.0</ele><time>2026-04-02T12:21:20.001Z</time></trkpt><trkpt lat="45.25105373434977" lon="9.266510313708405"><ele>82.0</ele><time>2026-04-02T12:21:21.001Z</time></trkpt><trkpt lat="45.25096859047569" lon="9.266436449979071"><ele>82.0</ele><time>2026-04-02T12:21:22.001Z</time></trkpt><trkpt lat="45.250880006624065" lon="9.266367704770136"><ele>82.0</ele><time>2026-04-02T12:21:23Z</time></trkpt><trkpt lat="45.25079186238914" lon="9.266293804500748"><ele>82.0</ele><time>2026-04-02T12:21:24Z</time></trkpt><trkpt lat="45.25071179407277" lon="9.266244282193108"><ele>82.0</ele><time>2026-04-02T12:21:25Z</time></trkpt><trkpt lat="45.25062293652737" lon="9.266192551475303"><ele>81.6</ele><time>2026-04-02T12:21:26Z</time></trkpt><trkpt lat="45.25052939832529" lon="9.26614166175378"><ele>81.19999999999999</ele><time>2026-04-02T12:21:27Z</time></trkpt><trkpt lat="45.250434070850694" lon="9.266075979325644"><ele>80.8</ele><time>2026-04-02T12:21:28Z</time></trkpt><trkpt lat="45.250357720274415" lon="9.265974407671182"><ele>80.4</ele><time>2026-04-02T12:21:29Z</time></trkpt><trkpt lat="45.25027184198546" lon="9.265918563466322"><ele>80.0</ele><time>2026-04-02T12:21:30Z</time></trkpt><trkpt lat="45.2501956393067" lon="9.265826769944251"><ele>80.0</ele><time>2026-04-02T12:21:31Z</time></trkpt><trkpt lat="45.2501087791304" lon="9.265727717059518"><ele>80.0</ele><time>2026-04-02T12:21:32Z</time></trkpt><trkpt lat="45.25001845484705" lon="9.265623198693554"><ele>80.0</ele><time>2026-04-02T12:21:33Z</time></trkpt><trkpt lat="45.24991420695286" lon="9.265521505321624"><ele>80.0</ele><time>2026-04-02T12:21:34Z</time></trkpt><trkpt lat="45.249810171120934" lon="9.265427276501313"><ele>80.25</ele><time>2026-04-02T12:21:35Z</time></trkpt><trkpt lat="45.24970674584304" lon="9.265336952757218"><ele>80.5</ele><time>2026-04-02T12:21:36Z</time></trkpt><trkpt lat="45.24960286767931" lon="9.26525621230258"><ele>80.75</ele><time>2026-04-02T12:21:37Z</time></trkpt><trkpt lat="45.2495095673175" lon="9.265177956027493"><ele>81.0</ele><time>2026-04-02T12:21:38Z</time></trkpt><trkpt lat="45.249406088368026" lon="9.265092641147866"><ele>81.0</ele><time>2026-04-02T12:21:39Z</time></trkpt><trkpt lat="45.24931541156884" lon="9.265005701679682"><ele>81.0</ele><time>2026-04-02T12:21:40Z</time></trkpt><trkpt lat="45.249235266930945" lon="9.264930868103278"><ele>81.0</ele><time>2026-04-02T12:21:41Z</time></trkpt><trkpt lat="45.24916887737621" lon="9.264877703528304"><ele>81.0</ele><time>2026-04-02T12:21:42Z</time></trkpt><trkpt lat="45.24904491550595" lon="9.264845086575518"><ele>81.0</ele><time>2026-04-02T12:21:44Z</time></trkpt><trkpt lat="45.248970118289876" lon="9.264863957929878"><ele>81.19999999999999</ele><time>2026-04-02T12:21:45Z</time></trkpt><trkpt lat="45.24887657703339" lon="9.264922012849421"><ele>81.39999999999999</ele><time>2026-04-02T12:21:46Z</time></trkpt><trkpt lat="45.248789593496525" lon="9.264978008460663"><ele>81.6</ele><time>2026-04-02T12:21:47Z</time></trkpt><trkpt lat="45.248702985749304" lon="9.265010904267205"><ele>81.8</ele><time>2026-04-02T12:21:48Z</time></trkpt><trkpt lat="45.248608222066" lon="9.265005255813152"><ele>82.0</ele><time>2026-04-02T12:21:49Z</time></trkpt><trkpt lat="45.24851055729702" lon="9.264973769415631"><ele>82.0</ele><time>2026-04-02T12:21:50Z</time></trkpt><trkpt lat="45.24840711696348" lon="9.264930213208418"><ele>82.0</ele><time>2026-04-02T12:21:51Z</time></trkpt><trkpt lat="45.24831513063907" lon="9.264917095274393"><ele>82.0</ele><time>2026-04-02T12:21:52Z</time></trkpt><trkpt lat="45.24822335213574" lon="9.264937283952444"><ele>82.0</ele><time>2026-04-02T12:21:53Z</time></trkpt><trkpt lat="45.248138236282514" lon="9.265007235154206"><ele>82.0</ele><time>2026-04-02T12:21:54Z</time></trkpt><trkpt lat="45.24804544051387" lon="9.265109082907538"><ele>81.5</ele><time>2026-04-02T12:21:55Z</time></trkpt><trkpt lat="45.24794420899604" lon="9.265229010724434"><ele>81.0</ele><time>2026-04-02T12:21:56Z</time></trkpt><trkpt lat="45.2478489671798" lon="9.265329749046264"><ele>80.5</ele><time>2026-04-02T12:21:57Z</time></trkpt><trkpt lat="45.247739534919866" lon="9.265409927472007"><ele>80.0</ele><time>2026-04-02T12:21:58Z</time></trkpt><trkpt lat="45.24759239297224" lon="9.265475099327002"><ele>80.0</ele><time>2026-04-02T12:21:59Z</time></trkpt><trkpt lat="45.24742693727102" lon="9.26554891875603"><ele>80.0</ele><time>2026-04-02T12:22:00Z</time></trkpt><trkpt lat="45.24726533799504" lon="9.265624503468175"><ele>80.0</ele><time>2026-04-02T12:22:01Z</time></trkpt><trkpt lat="45.24712090674273" lon="9.265689263728126"><ele>79.75</ele><time>2026-04-02T12:22:02Z</time></trkpt><trkpt lat="45.24698798405714" lon="9.265753685036081"><ele>79.5</ele><time>2026-04-02T12:22:03Z</time></trkpt><trkpt lat="45.24687702263388" lon="9.26580826823057"><ele>79.25</ele><time>2026-04-02T12:22:04Z</time></trkpt><trkpt lat="45.2467628083577" lon="9.265864841720461"><ele>79.0</ele><time>2026-04-02T12:22:05Z</time></trkpt><trkpt lat="45.24665110470317" lon="9.265918726174547"><ele>79.0</ele><time>2026-04-02T12:22:06Z</time></trkpt><trkpt lat="45.246542448323105" lon="9.265973999776145"><ele>79.0</ele><time>2026-04-02T12:22:07Z</time></trkpt><trkpt lat="45.246427930422584" lon="9.266031914915665"><ele>79.0</ele><time>2026-04-02T12:22:08Z</time></trkpt><trkpt lat="45.246323836276275" lon="9.266080973717873"><ele>79.0</ele><time>2026-04-02T12:22:09Z</time></trkpt><trkpt lat="45.24621464084762" lon="9.266128042080622"><ele>79.0</ele><time>2026-04-02T12:22:10Z</time></trkpt><trkpt lat="45.24610392259945" lon="9.266174232883506"><ele>79.0</ele><time>2026-04-02T12:22:11Z</time></trkpt><trkpt lat="45.24600516905667" lon="9.26622878211528"><ele>79.0</ele><time>2026-04-02T12:22:12Z</time></trkpt><trkpt lat="45.24591739727395" lon="9.266282014499026"><ele>79.0</ele><time>2026-04-02T12:22:13Z</time></trkpt><trkpt lat="45.245827644764155" lon="9.266333887062773"><ele>79.0</ele><time>2026-04-02T12:22:14.001Z</time></trkpt><trkpt lat="45.245726825996854" lon="9.266400066895377"><ele>79.2</ele><time>2026-04-02T12:22:15.001Z</time></trkpt><trkpt lat="45.24562222294902" lon="9.266449700506458"><ele>79.4</ele><time>2026-04-02T12:22:16.001Z</time></trkpt><trkpt lat="45.24552901658479" lon="9.266497617861612"><ele>79.6</ele><time>2026-04-02T12:22:17.001Z</time></trkpt><trkpt lat="45.245443216515994" lon="9.266543357432186"><ele>79.8</ele><time>2026-04-02T12:22:18.001Z</time></trkpt><trkpt lat="45.245356480511084" lon="9.26658837352265"><ele>80.0</ele><time>2026-04-02T12:22:19.001Z</time></trkpt><trkpt lat="45.24525721439604" lon="9.266642695185714"><ele>80.0</ele><time>2026-04-02T12:22:20.001Z</time></trkpt><trkpt lat="45.24515141906218" lon="9.26670348020573"><ele>80.0</ele><time>2026-04-02T12:22:21.001Z</time></trkpt><trkpt lat="45.245041827786146" lon="9.266777247749035"><ele>80.0</ele><time>2026-04-02T12:22:22.001Z</time></trkpt><trkpt lat="45.244922482142684" lon="9.266848019879689"><ele>80.0</ele><time>2026-04-02T12:22:23.001Z</time></trkpt><trkpt lat="45.24479277518899" lon="9.266914410683597"><ele>80.0</ele><time>2026-04-02T12:22:24.001Z</time></trkpt><trkpt lat="45.24466747970921" lon="9.266984091057807"><ele>80.0</ele><time>2026-04-02T12:22:25.001Z</time></trkpt><trkpt lat="45.24454342931049" lon="9.267050859584057"><ele>80.0</ele><time>2026-04-02T12:22:26.001Z</time></trkpt><trkpt lat="45.24441614589382" lon="9.26711350453436"><ele>80.0</ele><time>2026-04-02T12:22:27.001Z</time></trkpt><trkpt lat="45.24428995039633" lon="9.267181709698782"><ele>80.0</ele><time>2026-04-02T12:22:28.001Z</time></trkpt><trkpt lat="45.24416250726639" lon="9.26724860604486"><ele>80.0</ele><time>2026-04-02T12:22:29.001Z</time></trkpt><trkpt lat="45.24403602747004" lon="9.26732034911434"><ele>80.0</ele><time>2026-04-02T12:22:30.001Z</time></trkpt><trkpt lat="45.243910678115654" lon="9.267394175117271"><ele>80.0</ele><time>2026-04-02T12:22:31.001Z</time></trkpt><trkpt lat="45.243779911785126" lon="9.267469171799439"><ele>80.0</ele><time>2026-04-02T12:22:32.001Z</time></trkpt><trkpt lat="45.243652483395195" lon="9.267536366330967"><ele>80.0</ele><time>2026-04-02T12:22:33.001Z</time></trkpt><trkpt lat="45.24352881650579" lon="9.267594099533335"><ele>80.0</ele><time>2026-04-02T12:22:34.001Z</time></trkpt><trkpt lat="45.24340697030102" lon="9.267658197595754"><ele>80.0</ele><time>2026-04-02T12:22:35.001Z</time></trkpt><trkpt lat="45.243283620056815" lon="9.267726094660896"><ele>80.0</ele><time>2026-04-02T12:22:36.001Z</time></trkpt><trkpt lat="45.24315996371315" lon="9.267791830393833"><ele>80.0</ele><time>2026-04-02T12:22:37.001Z</time></trkpt><trkpt lat="45.243038000046596" lon="9.267859080505414"><ele>80.0</ele><time>2026-04-02T12:22:38.001Z</time></trkpt><trkpt lat="45.24291586845502" lon="9.267928461869582"><ele>80.0</ele><time>2026-04-02T12:22:39.001Z</time></trkpt><trkpt lat="45.24279598233176" lon="9.267999005989843"><ele>80.0</ele><time>2026-04-02T12:22:40.001Z</time></trkpt><trkpt lat="45.24268605640655" lon="9.268055209840625"><ele>80.0</ele><time>2026-04-02T12:22:41.001Z</time></trkpt><trkpt lat="45.24258884435711" lon="9.268103262210923"><ele>80.0</ele><time>2026-04-02T12:22:42.001Z</time></trkpt><trkpt lat="45.24250458191177" lon="9.268151509497478"><ele>80.0</ele><time>2026-04-02T12:22:43.001Z</time></trkpt><trkpt lat="45.24243662831487" lon="9.268189041192565"><ele>80.0</ele><time>2026-04-02T12:22:44.001Z</time></trkpt><trkpt lat="45.242373122196284" lon="9.268222337270533"><ele>80.16666666666667</ele><time>2026-04-02T12:22:45.001Z</time></trkpt><trkpt lat="45.24229052879797" lon="9.268220492805183"><ele>80.33333333333334</ele><time>2026-04-02T12:22:48.001Z</time></trkpt><trkpt lat="45.24227118741836" lon="9.268126020248227"><ele>80.5</ele><time>2026-04-02T12:22:50.001Z</time></trkpt><trkpt lat="45.242218431624195" lon="9.26797594957969"><ele>80.66666666666667</ele><time>2026-04-02T12:22:52.001Z</time></trkpt><trkpt lat="45.2421709729769" lon="9.267897404680092"><ele>80.83333333333333</ele><time>2026-04-02T12:22:53.001Z</time></trkpt><trkpt lat="45.24214804922348" lon="9.267786991348954"><ele>81.0</ele><time>2026-04-02T12:22:54.001Z</time></trkpt><trkpt lat="45.242108424956236" lon="9.267683367311607"><ele>81.16666666666667</ele><time>2026-04-02T12:22:55.001Z</time></trkpt><trkpt lat="45.242072485817296" lon="9.267590040872491"><ele>81.33333333333333</ele><time>2026-04-02T12:22:56.001Z</time></trkpt><trkpt lat="45.242038955846226" lon="9.26750356860358"><ele>81.5</ele><time>2026-04-02T12:22:57.001Z</time></trkpt><trkpt lat="45.24199500004558" lon="9.267393073312423"><ele>81.66666666666666</ele><time>2026-04-02T12:22:59.001Z</time></trkpt><trkpt lat="45.24196646290779" lon="9.267308246684006"><ele>81.83333333333333</ele><time>2026-04-02T12:23:05.001Z</time></trkpt><trkpt lat="45.242013156073064" lon="9.267449873279347"><ele>82.0</ele><time>2026-04-02T12:23:10.001Z</time></trkpt><trkpt lat="45.24205454987021" lon="9.267610635271629"><ele>82.0</ele><time>2026-04-02T12:23:11.001Z</time></trkpt><trkpt lat="45.24211971091945" lon="9.26778496675189"><ele>82.0</ele><time>2026-04-02T12:23:12.001Z</time></trkpt><trkpt lat="45.24217892537821" lon="9.267918648187349"><ele>82.0</ele><time>2026-04-02T12:23:13.001Z</time></trkpt><trkpt lat="45.24221735407122" lon="9.26802333340498"><ele>82.0</ele><time>2026-04-02T12:23:14.001Z</time></trkpt><trkpt lat="45.24227448743663" lon="9.268201102923179"><ele>81.8</ele><time>2026-04-02T12:23:16.001Z</time></trkpt><trkpt lat="45.2423055453069" lon="9.268317277801064"><ele>81.6</ele><time>2026-04-02T12:23:18.001Z</time></trkpt><trkpt lat="45.242295088994815" lon="9.268431653100878"><ele>81.39999999999999</ele><time>2026-04-02T12:23:20.001Z</time></trkpt><trkpt lat="45.242193309356324" lon="9.268538106657484"><ele>81.19999999999999</ele><time>2026-04-02T12:23:22.001Z</time></trkpt><trkpt lat="45.24212395166431" lon="9.268629987483656"><ele>81.0</ele><time>2026-04-02T12:23:23.001Z</time></trkpt><trkpt lat="45.242073256846446" lon="9.268700867744231"><ele>81.0</ele><time>2026-04-02T12:23:24.001Z</time></trkpt><trkpt lat="45.24202159837232" lon="9.268835267603171"><ele>81.0</ele><time>2026-04-02T12:23:26.001Z</time></trkpt><trkpt lat="45.2419907541707" lon="9.268968408285774"><ele>81.0</ele><time>2026-04-02T12:23:28.001Z</time></trkpt><trkpt lat="45.24197826278963" lon="9.269088279643604"><ele>81.0</ele><time>2026-04-02T12:23:30Z</time></trkpt><trkpt lat="45.24188819751303" lon="9.26918347219288"><ele>81.0</ele><time>2026-04-02T12:23:31Z</time></trkpt><trkpt lat="45.24161394417208" lon="9.269123586699939"><ele>81.0</ele><time>2026-04-02T12:23:32Z</time></trkpt><trkpt lat="45.24149576160926" lon="9.269168982456454"><ele>81.0</ele><time>2026-04-02T12:23:33Z</time></trkpt><trkpt lat="45.24137490450055" lon="9.26923108812531"><ele>81.0</ele><time>2026-04-02T12:23:34Z</time></trkpt><trkpt lat="45.24125600421955" lon="9.269296434368314"><ele>81.0</ele><time>2026-04-02T12:23:35Z</time></trkpt><trkpt lat="45.24114394997612" lon="9.26935734489489"><ele>80.75</ele><time>2026-04-02T12:23:36Z</time></trkpt><trkpt lat="45.24101810560138" lon="9.26942695984789"><ele>80.5</ele><time>2026-04-02T12:23:37Z</time></trkpt><trkpt lat="45.24090610437921" lon="9.269499895724449"><ele>80.25</ele><time>2026-04-02T12:23:38Z</time></trkpt><trkpt lat="45.24079344979047" lon="9.26955650836664"><ele>80.0</ele><time>2026-04-02T12:23:39Z</time></trkpt><trkpt lat="45.240682418869575" lon="9.269606409418602"><ele>79.75</ele><time>2026-04-02T12:23:40Z</time></trkpt><trkpt lat="45.240570063156994" lon="9.269669811734195"><ele>79.5</ele><time>2026-04-02T12:23:41Z</time></trkpt><trkpt lat="45.24046446102097" lon="9.269723449138283"><ele>79.25</ele><time>2026-04-02T12:23:42Z</time></trkpt><trkpt lat="45.240357259074024" lon="9.269783043454334"><ele>79.0</ele><time>2026-04-02T12:23:43Z</time></trkpt><trkpt lat="45.240250248964465" lon="9.26983621767834"><ele>79.0</ele><time>2026-04-02T12:23:44Z</time></trkpt><trkpt lat="45.24012898211521" lon="9.269891157858952"><ele>79.0</ele><time>2026-04-02T12:23:45Z</time></trkpt><trkpt lat="45.240040433016766" lon="9.269938741241369"><ele>79.0</ele><time>2026-04-02T12:23:46Z</time></trkpt><trkpt lat="45.23994268813365" lon="9.26997478282742"><ele>79.0</ele><time>2026-04-02T12:23:47Z</time></trkpt><trkpt lat="45.239853682993484" lon="9.270003420018078"><ele>79.0</ele><time>2026-04-02T12:23:48Z</time></trkpt><trkpt lat="45.239750653061165" lon="9.270031415289457"><ele>78.8</ele><time>2026-04-02T12:23:49Z</time></trkpt><trkpt lat="45.23963510862808" lon="9.270058918958279"><ele>78.60000000000001</ele><time>2026-04-02T12:23:50Z</time></trkpt><trkpt lat="45.23952461053204" lon="9.270091550121055"><ele>78.4</ele><time>2026-04-02T12:23:51Z</time></trkpt><trkpt lat="45.23942875840481" lon="9.270112089255719"><ele>78.2</ele><time>2026-04-02T12:23:52Z</time></trkpt><trkpt lat="45.23932934778028" lon="9.270123280181734"><ele>78.0</ele><time>2026-04-02T12:23:53Z</time></trkpt><trkpt lat="45.23924753455903" lon="9.270129977361654"><ele>78.0</ele><time>2026-04-02T12:23:54Z</time></trkpt><trkpt lat="45.23917178439929" lon="9.270139078863691"><ele>78.0</ele><time>2026-04-02T12:23:55Z</time></trkpt><trkpt lat="45.23910542603651" lon="9.2701569494996"><ele>78.0</ele><time>2026-04-02T12:23:56Z</time></trkpt><trkpt lat="45.23900697913687" lon="9.270187011134809"><ele>78.0</ele><time>2026-04-02T12:23:58Z</time></trkpt><trkpt lat="45.23891420247439" lon="9.270234284523948"><ele>78.0</ele><time>2026-04-02T12:24:00Z</time></trkpt><trkpt lat="45.2388566472336" lon="9.270292865302876"><ele>78.0</ele><time>2026-04-02T12:24:04Z</time></trkpt><trkpt lat="45.2388817101974" lon="9.270546183791609"><ele>78.33333333333333</ele><time>2026-04-02T12:24:06Z</time></trkpt><trkpt lat="45.23893275044333" lon="9.27073634506708"><ele>78.66666666666666</ele><time>2026-04-02T12:24:07Z</time></trkpt><trkpt lat="45.238983021935084" lon="9.2709792282794"><ele>79.0</ele><time>2026-04-02T12:24:08Z</time></trkpt><trkpt lat="45.239029798954114" lon="9.271264775857373"><ele>78.5</ele><time>2026-04-02T12:24:09Z</time></trkpt><trkpt lat="45.239081161615054" lon="9.271584475663715"><ele>78.0</ele><time>2026-04-02T12:24:10Z</time></trkpt><trkpt lat="45.239139569693585" lon="9.27191391530187"><ele>78.0</ele><time>2026-04-02T12:24:11Z</time></trkpt><trkpt lat="45.23918616837515" lon="9.272173783981984"><ele>78.0</ele><time>2026-04-02T12:24:12Z</time></trkpt><trkpt lat="45.23922748531327" lon="9.272403048076827"><ele>78.0</ele><time>2026-04-02T12:24:13Z</time></trkpt><trkpt lat="45.23926952085926" lon="9.272623077104418"><ele>78.0</ele><time>2026-04-02T12:24:14Z</time></trkpt><trkpt lat="45.23932287781798" lon="9.272824512794767"><ele>78.0</ele><time>2026-04-02T12:24:15Z</time></trkpt><trkpt lat="45.239393114926244" lon="9.273025522659639"><ele>78.0</ele><time>2026-04-02T12:24:16Z</time></trkpt><trkpt lat="45.239484196188606" lon="9.273219850419924"><ele>78.0</ele><time>2026-04-02T12:24:17Z</time></trkpt><trkpt lat="45.23958154385958" lon="9.27341055544349"><ele>78.0</ele><time>2026-04-02T12:24:18Z</time></trkpt><trkpt lat="45.23967422779291" lon="9.273601313267886"><ele>78.0</ele><time>2026-04-02T12:24:19Z</time></trkpt><trkpt lat="45.2397651191646" lon="9.273792396450661"><ele>78.0</ele><time>2026-04-02T12:24:20Z</time></trkpt><trkpt lat="45.239851274803236" lon="9.27398419891828"><ele>78.0</ele><time>2026-04-02T12:24:21.001Z</time></trkpt><trkpt lat="45.23993342614189" lon="9.274180784306978"><ele>78.0</ele><time>2026-04-02T12:24:22.001Z</time></trkpt><trkpt lat="45.240001455932976" lon="9.274387488283537"><ele>78.0</ele><time>2026-04-02T12:24:23.001Z</time></trkpt><trkpt lat="45.24005778125083" lon="9.274607864581167"><ele>78.0</ele><time>2026-04-02T12:24:24.001Z</time></trkpt><trkpt lat="45.24009998286374" lon="9.274832167995458"><ele>78.0</ele><time>2026-04-02T12:24:25.001Z</time></trkpt><trkpt lat="45.24013962084546" lon="9.275066735736614"><ele>78.0</ele><time>2026-04-02T12:24:26.001Z</time></trkpt><trkpt lat="45.24017330629616" lon="9.27530810047493"><ele>78.0</ele><time>2026-04-02T12:24:27.001Z</time></trkpt><trkpt lat="45.240211332525334" lon="9.275555278741086"><ele>78.0</ele><time>2026-04-02T12:24:28.001Z</time></trkpt><trkpt lat="45.240250300366256" lon="9.275807064872758"><ele>78.0</ele><time>2026-04-02T12:24:29.001Z</time></trkpt><trkpt lat="45.24028705659421" lon="9.276054905574329"><ele>78.0</ele><time>2026-04-02T12:24:30.001Z</time></trkpt><trkpt lat="45.240323420713544" lon="9.276305912525462"><ele>78.0</ele><time>2026-04-02T12:24:31.001Z</time></trkpt><trkpt lat="45.24035300246238" lon="9.276552466449893"><ele>78.0</ele><time>2026-04-02T12:24:32.001Z</time></trkpt><trkpt lat="45.240374529161414" lon="9.276798725021083"><ele>78.0</ele><time>2026-04-02T12:24:33.001Z</time></trkpt><trkpt lat="45.24039062634286" lon="9.277043742312516"><ele>78.0</ele><time>2026-04-02T12:24:34.001Z</time></trkpt><trkpt lat="45.240407830379525" lon="9.277291897039202"><ele>78.0</ele><time>2026-04-02T12:24:35.001Z</time></trkpt><trkpt lat="45.240424935332626" lon="9.277538082496262"><ele>78.0</ele><time>2026-04-02T12:24:36.001Z</time></trkpt><trkpt lat="45.24044162509562" lon="9.277778377467323"><ele>78.0</ele><time>2026-04-02T12:24:37.001Z</time></trkpt><trkpt lat="45.24046268671399" lon="9.278018706607034"><ele>78.0</ele><time>2026-04-02T12:24:38.001Z</time></trkpt><trkpt lat="45.24047802756233" lon="9.278260419977464"><ele>78.0</ele><time>2026-04-02T12:24:39.001Z</time></trkpt><trkpt lat="45.24049595963271" lon="9.278493735241284"><ele>78.0</ele><time>2026-04-02T12:24:40.001Z</time></trkpt><trkpt lat="45.24051455969813" lon="9.278725111182526"><ele>78.33333333333333</ele><time>2026-04-02T12:24:41.001Z</time></trkpt><trkpt lat="45.24053297999979" lon="9.278962155877037"><ele>78.66666666666666</ele><time>2026-04-02T12:24:42.001Z</time></trkpt><trkpt lat="45.24055296716578" lon="9.279188253514944"><ele>79.0</ele><time>2026-04-02T12:24:43.001Z</time></trkpt><trkpt lat="45.240573519931615" lon="9.279419142822118"><ele>78.5</ele><time>2026-04-02T12:24:44.001Z</time></trkpt><trkpt lat="45.24064445597517" lon="9.279874913707973"><ele>78.0</ele><time>2026-04-02T12:24:46.001Z</time></trkpt><trkpt lat="45.24069726499804" lon="9.280098373007986"><ele>78.0</ele><time>2026-04-02T12:24:47.001Z</time></trkpt><trkpt lat="45.240752186333644" lon="9.280305905962242"><ele>78.0</ele><time>2026-04-02T12:24:48.001Z</time></trkpt><trkpt lat="45.24079718155998" lon="9.280493251588721"><ele>78.0</ele><time>2026-04-02T12:24:49.001Z</time></trkpt><trkpt lat="45.24083683055037" lon="9.280664373095316"><ele>78.0</ele><time>2026-04-02T12:24:50.001Z</time></trkpt><trkpt lat="45.24088055588276" lon="9.280838937619448"><ele>78.0</ele><time>2026-04-02T12:24:51.001Z</time></trkpt><trkpt lat="45.2409258235117" lon="9.280991089919286"><ele>78.0</ele><time>2026-04-02T12:24:52.001Z</time></trkpt><trkpt lat="45.240959976112606" lon="9.28109621759518"><ele>78.0</ele><time>2026-04-02T12:24:53.001Z</time></trkpt><trkpt lat="45.24098749343176" lon="9.281180239478553"><ele>78.0</ele><time>2026-04-02T12:24:54.001Z</time></trkpt><trkpt lat="45.24103304003117" lon="9.281298469319415"><ele>78.0</ele><time>2026-04-02T12:24:56.001Z</time></trkpt><trkpt lat="45.241074717015074" lon="9.281406423484597"><ele>78.0</ele><time>2026-04-02T12:25:08.001Z</time></trkpt><trkpt lat="45.24113616613365" lon="9.281538402484461"><ele>78.2</ele><time>2026-04-02T12:25:10.001Z</time></trkpt><trkpt lat="45.241195678369564" lon="9.281685528238786"><ele>78.4</ele><time>2026-04-02T12:25:12.001Z</time></trkpt><trkpt lat="45.241242643831356" lon="9.281809216904833"><ele>78.60000000000001</ele><time>2026-04-02T12:25:14.001Z</time></trkpt><trkpt lat="45.24128840814883" lon="9.281920113500878"><ele>78.8</ele><time>2026-04-02T12:25:16.001Z</time></trkpt><trkpt lat="45.24134806744714" lon="9.282051385749366"><ele>79.0</ele><time>2026-04-02T12:25:18.001Z</time></trkpt><trkpt lat="45.241401129554184" lon="9.28216478558836"><ele>79.0</ele><time>2026-04-02T12:25:20.001Z</time></trkpt><trkpt lat="45.24140499114797" lon="9.28225930914543"><ele>79.0</ele><time>2026-04-02T12:25:24.001Z</time></trkpt><trkpt lat="45.241287486960616" lon="9.28237934386843"><ele>79.0</ele><time>2026-04-02T12:25:28.001Z</time></trkpt><trkpt lat="45.24119188256966" lon="9.282499248899425"><ele>79.0</ele><time>2026-04-02T12:25:30.001Z</time></trkpt><trkpt lat="45.24113923707052" lon="9.282568760063361"><ele>79.0</ele><time>2026-04-02T12:25:31.001Z</time></trkpt><trkpt lat="45.24108344691913" lon="9.28264016335391"><ele>79.0</ele><time>2026-04-02T12:25:32.001Z</time></trkpt><trkpt lat="45.24102484742727" lon="9.28271570840772"><ele>79.0</ele><time>2026-04-02T12:25:33.001Z</time></trkpt><trkpt lat="45.24096672001195" lon="9.282794384099347"><ele>79.0</ele><time>2026-04-02T12:25:34.001Z</time></trkpt><trkpt lat="45.240907420183206" lon="9.28287395888038"><ele>79.0</ele><time>2026-04-02T12:25:35Z</time></trkpt><trkpt lat="45.24084217949715" lon="9.282958074579918"><ele>79.0</ele><time>2026-04-02T12:25:36Z</time></trkpt><trkpt lat="45.24077912118946" lon="9.283043549363104"><ele>79.0</ele><time>2026-04-02T12:25:37Z</time></trkpt><trkpt lat="45.24070783197197" lon="9.283131740972781"><ele>79.0</ele><time>2026-04-02T12:25:38Z</time></trkpt><trkpt lat="45.24063614126952" lon="9.283219987200159"><ele>79.0</ele><time>2026-04-02T12:25:39Z</time></trkpt><trkpt lat="45.240565378168135" lon="9.28331258870604"><ele>79.0</ele><time>2026-04-02T12:25:40Z</time></trkpt><trkpt lat="45.24049540287171" lon="9.283405970356277"><ele>79.0</ele><time>2026-04-02T12:25:41Z</time></trkpt><trkpt lat="45.24042140416192" lon="9.283505071778038"><ele>79.0</ele><time>2026-04-02T12:25:42Z</time></trkpt><trkpt lat="45.24034709852439" lon="9.283604698518895"><ele>78.8</ele><time>2026-04-02T12:25:43Z</time></trkpt><trkpt lat="45.240272204112344" lon="9.283698544465883"><ele>78.60000000000001</ele><time>2026-04-02T12:25:44Z</time></trkpt><trkpt lat="45.240197325374695" lon="9.283797116055352"><ele>78.4</ele><time>2026-04-02T12:25:45Z</time></trkpt><trkpt lat="45.24012344688538" lon="9.283899385877424"><ele>78.2</ele><time>2026-04-02T12:25:46Z</time></trkpt><trkpt lat="45.24005461248586" lon="9.28399280065071"><ele>78.0</ele><time>2026-04-02T12:25:47Z</time></trkpt><trkpt lat="45.23999188865022" lon="9.284069715237543"><ele>78.0</ele><time>2026-04-02T12:25:48Z</time></trkpt><trkpt lat="45.2399395571366" lon="9.284142520263535"><ele>78.0</ele><time>2026-04-02T12:25:49Z</time></trkpt><trkpt lat="45.23988577173116" lon="9.284207886355986"><ele>78.0</ele><time>2026-04-02T12:25:50Z</time></trkpt><trkpt lat="45.2398313586865" lon="9.284276413490602"><ele>78.0</ele><time>2026-04-02T12:25:52Z</time></trkpt><trkpt lat="45.23977052110811" lon="9.284347454749252"><ele>78.0</ele><time>2026-04-02T12:26:08Z</time></trkpt><trkpt lat="45.239707308402224" lon="9.284427440628209"><ele>78.0</ele><time>2026-04-02T12:26:09Z</time></trkpt><trkpt lat="45.239652154695364" lon="9.284509343254161"><ele>78.16666666666667</ele><time>2026-04-02T12:26:10Z</time></trkpt><trkpt lat="45.239601104083526" lon="9.284593920277127"><ele>78.33333333333333</ele><time>2026-04-02T12:26:11Z</time></trkpt><trkpt lat="45.23956552115779" lon="9.284675890423996"><ele>78.5</ele><time>2026-04-02T12:26:12Z</time></trkpt><trkpt lat="45.239536114328615" lon="9.28477230657741"><ele>78.66666666666666</ele><time>2026-04-02T12:26:13Z</time></trkpt><trkpt lat="45.23949966661337" lon="9.284889558918575"><ele>78.83333333333333</ele><time>2026-04-02T12:26:14Z</time></trkpt><trkpt lat="45.23946259826431" lon="9.285014851471376"><ele>79.0</ele><time>2026-04-02T12:26:15Z</time></trkpt><trkpt lat="45.23942209033198" lon="9.285134222153232"><ele>79.2</ele><time>2026-04-02T12:26:16Z</time></trkpt><trkpt lat="45.239376033539656" lon="9.28526442817247"><ele>79.4</ele><time>2026-04-02T12:26:17Z</time></trkpt><trkpt lat="45.23933470304181" lon="9.28538223365491"><ele>79.6</ele><time>2026-04-02T12:26:18Z</time></trkpt><trkpt lat="45.23928930880596" lon="9.28549860575508"><ele>79.8</ele><time>2026-04-02T12:26:19Z</time></trkpt><trkpt lat="45.23924438039711" lon="9.28561384970287"><ele>80.0</ele><time>2026-04-02T12:26:20Z</time></trkpt><trkpt lat="45.23920046382083" lon="9.285728347034627"><ele>80.0</ele><time>2026-04-02T12:26:21Z</time></trkpt><trkpt lat="45.239160790878756" lon="9.28583504921592"><ele>80.0</ele><time>2026-04-02T12:26:22Z</time></trkpt><trkpt lat="45.23911644008198" lon="9.285923337151484"><ele>80.0</ele><time>2026-04-02T12:26:23Z</time></trkpt><trkpt lat="45.23905596426201" lon="9.285995930495787"><ele>80.0</ele><time>2026-04-02T12:26:24Z</time></trkpt><trkpt lat="45.23898423824449" lon="9.286055321133562"><ele>80.0</ele><time>2026-04-02T12:26:25Z</time></trkpt><trkpt lat="45.238906583197114" lon="9.286122809903375"><ele>80.0</ele><time>2026-04-02T12:26:26Z</time></trkpt><trkpt lat="45.23883859906813" lon="9.286191697998936"><ele>80.0</ele><time>2026-04-02T12:26:27Z</time></trkpt><trkpt lat="45.23877539804414" lon="9.286272305185781"><ele>80.0</ele><time>2026-04-02T12:26:28Z</time></trkpt><trkpt lat="45.23873090826448" lon="9.286377155704995"><ele>80.0</ele><time>2026-04-02T12:26:29.001Z</time></trkpt><trkpt lat="45.238685533982114" lon="9.286498106195914"><ele>80.0</ele><time>2026-04-02T12:26:30.001Z</time></trkpt><trkpt lat="45.23862779016629" lon="9.28662983056599"><ele>80.0</ele><time>2026-04-02T12:26:31.001Z</time></trkpt><trkpt lat="45.238558915607975" lon="9.286759946126029"><ele>79.83333333333334</ele><time>2026-04-02T12:26:32.001Z</time></trkpt><trkpt lat="45.23849765636813" lon="9.286866749559824"><ele>79.66666666666667</ele><time>2026-04-02T12:26:33.001Z</time></trkpt><trkpt lat="45.23844041603407" lon="9.286969841570173"><ele>79.5</ele><time>2026-04-02T12:26:34.001Z</time></trkpt><trkpt lat="45.23839450880917" lon="9.287060848965488"><ele>79.33333333333333</ele><time>2026-04-02T12:26:35.001Z</time></trkpt><trkpt lat="45.23835949675252" lon="9.287156743970247"><ele>79.16666666666666</ele><time>2026-04-02T12:26:36.001Z</time></trkpt><trkpt lat="45.23833475561156" lon="9.287270918641008"><ele>79.0</ele><time>2026-04-02T12:26:37.001Z</time></trkpt><trkpt lat="45.23831504843568" lon="9.287404138253411"><ele>79.0</ele><time>2026-04-02T12:26:38.001Z</time></trkpt><trkpt lat="45.23829382245708" lon="9.287530446201838"><ele>79.0</ele><time>2026-04-02T12:26:39.001Z</time></trkpt><trkpt lat="45.23826815497307" lon="9.287672329857633"><ele>79.0</ele><time>2026-04-02T12:26:40.001Z</time></trkpt><trkpt lat="45.2382363432868" lon="9.287815752260403"><ele>79.0</ele><time>2026-04-02T12:26:41.001Z</time></trkpt><trkpt lat="45.23819859541729" lon="9.287958203041962"><ele>79.0</ele><time>2026-04-02T12:26:42.001Z</time></trkpt><trkpt lat="45.23816577389312" lon="9.28809783301297"><ele>78.60000000000001</ele><time>2026-04-02T12:26:43.001Z</time></trkpt><trkpt lat="45.238133595393876" lon="9.288244121953023"><ele>78.2</ele><time>2026-04-02T12:26:44.001Z</time></trkpt><trkpt lat="45.23810237289415" lon="9.288382284460292"><ele>77.80000000000001</ele><time>2026-04-02T12:26:45.001Z</time></trkpt><trkpt lat="45.23807498774253" lon="9.288514531960509"><ele>77.4</ele><time>2026-04-02T12:26:46.001Z</time></trkpt><trkpt lat="45.2380450599694" lon="9.288652491812782"><ele>77.0</ele><time>2026-04-02T12:26:47.001Z</time></trkpt><trkpt lat="45.23801522969188" lon="9.2887904023574"><ele>77.0</ele><time>2026-04-02T12:26:48.001Z</time></trkpt><trkpt lat="45.23798743724561" lon="9.288916322007461"><ele>77.0</ele><time>2026-04-02T12:26:49.001Z</time></trkpt><trkpt lat="45.23796256904404" lon="9.289030688176899"><ele>77.0</ele><time>2026-04-02T12:26:50.001Z</time></trkpt><trkpt lat="45.23794017968302" lon="9.289134127000587"><ele>77.0</ele><time>2026-04-02T12:26:51.001Z</time></trkpt><trkpt lat="45.23792446200392" lon="9.289232099754578"><ele>77.0</ele><time>2026-04-02T12:26:52.001Z</time></trkpt><trkpt lat="45.237910550679274" lon="9.289326732462099"><ele>77.0</ele><time>2026-04-02T12:26:53.001Z</time></trkpt><trkpt lat="45.23788517428855" lon="9.289448111353737"><ele>77.0</ele><time>2026-04-02T12:26:54.001Z</time></trkpt><trkpt lat="45.237856247160025" lon="9.28957019557435"><ele>77.0</ele><time>2026-04-02T12:26:55.001Z</time></trkpt><trkpt lat="45.237828788088244" lon="9.289692731647992"><ele>77.0</ele><time>2026-04-02T12:26:56.001Z</time></trkpt><trkpt lat="45.23779904414194" lon="9.289821326978045"><ele>77.0</ele><time>2026-04-02T12:26:57.001Z</time></trkpt><trkpt lat="45.23777084248641" lon="9.289940637422225"><ele>77.0</ele><time>2026-04-02T12:26:58.001Z</time></trkpt><trkpt lat="45.237740257987014" lon="9.29005838120566"><ele>77.0</ele><time>2026-04-02T12:26:59.001Z</time></trkpt><trkpt lat="45.23770761811829" lon="9.290187935033204"><ele>77.0</ele><time>2026-04-02T12:27:00.001Z</time></trkpt><trkpt lat="45.237669229299286" lon="9.290330391494047"><ele>77.0</ele><time>2026-04-02T12:27:01.001Z</time></trkpt><trkpt lat="45.23762926859866" lon="9.290474232769078"><ele>77.0</ele><time>2026-04-02T12:27:02.001Z</time></trkpt><trkpt lat="45.23759552877525" lon="9.290602309809145"><ele>77.0</ele><time>2026-04-02T12:27:03.001Z</time></trkpt><trkpt lat="45.23756193402709" lon="9.29073320774362"><ele>77.0</ele><time>2026-04-02T12:27:04.001Z</time></trkpt><trkpt lat="45.23752912618185" lon="9.290856438385939"><ele>77.0</ele><time>2026-04-02T12:27:05.001Z</time></trkpt><trkpt lat="45.23750402905433" lon="9.290993642273007"><ele>77.0</ele><time>2026-04-02T12:27:06.001Z</time></trkpt><trkpt lat="45.23743332212569" lon="9.291229942679434"><ele>77.0</ele><time>2026-04-02T12:27:08.001Z</time></trkpt><trkpt lat="45.23737926649435" lon="9.291336706092553"><ele>77.0</ele><time>2026-04-02T12:27:09.001Z</time></trkpt><trkpt lat="45.2373146924809" lon="9.29142892644844"><ele>77.0</ele><time>2026-04-02T12:27:10.001Z</time></trkpt><trkpt lat="45.23724500472662" lon="9.29152401777315"><ele>77.0</ele><time>2026-04-02T12:27:11.001Z</time></trkpt><trkpt lat="45.237172952924205" lon="9.291621405220889"><ele>77.0</ele><time>2026-04-02T12:27:12.001Z</time></trkpt><trkpt lat="45.23709257592169" lon="9.2917316583438"><ele>77.0</ele><time>2026-04-02T12:27:13.001Z</time></trkpt><trkpt lat="45.23701621521909" lon="9.291838294068578"><ele>77.0</ele><time>2026-04-02T12:27:14.001Z</time></trkpt><trkpt lat="45.23694086631819" lon="9.291951262523055"><ele>77.0</ele><time>2026-04-02T12:27:15.001Z</time></trkpt><trkpt lat="45.236868668343526" lon="9.292060382143564"><ele>77.0</ele><time>2026-04-02T12:27:16.001Z</time></trkpt><trkpt lat="45.23680068876305" lon="9.292162835194258"><ele>77.0</ele><time>2026-04-02T12:27:17.001Z</time></trkpt><trkpt lat="45.23673933928426" lon="9.292256188127869"><ele>77.0</ele><time>2026-04-02T12:27:18.001Z</time></trkpt><trkpt lat="45.23668304091955" lon="9.29234451580107"><ele>77.0</ele><time>2026-04-02T12:27:19.001Z</time></trkpt><trkpt lat="45.236614166609" lon="9.292447432118287"><ele>77.0</ele><time>2026-04-02T12:27:20.001Z</time></trkpt><trkpt lat="45.23655477264539" lon="9.292542952578485"><ele>77.0</ele><time>2026-04-02T12:27:21.001Z</time></trkpt><trkpt lat="45.23650456108499" lon="9.29263394684948"><ele>77.0</ele><time>2026-04-02T12:27:22.001Z</time></trkpt><trkpt lat="45.23644701778327" lon="9.292715220068423"><ele>77.0</ele><time>2026-04-02T12:27:23.001Z</time></trkpt><trkpt lat="45.236390261867456" lon="9.292807593526367"><ele>77.0</ele><time>2026-04-02T12:27:24.001Z</time></trkpt><trkpt lat="45.2363396777386" lon="9.29288821103897"><ele>77.0</ele><time>2026-04-02T12:27:25.001Z</time></trkpt><trkpt lat="45.23629397095833" lon="9.292951733687831"><ele>77.0</ele><time>2026-04-02T12:27:26.001Z</time></trkpt><trkpt lat="45.23621080673621" lon="9.293076514787277"><ele>77.0</ele><time>2026-04-02T12:27:28.001Z</time></trkpt><trkpt lat="45.236145864295565" lon="9.293170045521611"><ele>77.0</ele><time>2026-04-02T12:27:30.001Z</time></trkpt><trkpt lat="45.23609637114176" lon="9.293237465845266"><ele>77.0</ele><time>2026-04-02T12:27:32.001Z</time></trkpt><trkpt lat="45.23614521567145" lon="9.293385737624696"><ele>76.85714285714286</ele><time>2026-04-02T12:27:34.001Z</time></trkpt><trkpt lat="45.236187651701506" lon="9.293472105865419"><ele>76.71428571428572</ele><time>2026-04-02T12:27:35.001Z</time></trkpt><trkpt lat="45.23622913183739" lon="9.293556118431876"><ele>76.57142857142857</ele><time>2026-04-02T12:27:36.001Z</time></trkpt><trkpt lat="45.23626676360769" lon="9.293650911795327"><ele>76.42857142857143</ele><time>2026-04-02T12:27:37.001Z</time></trkpt><trkpt lat="45.23629893811547" lon="9.293732117281676"><ele>76.28571428571429</ele><time>2026-04-02T12:27:38.001Z</time></trkpt><trkpt lat="45.2363278337779" lon="9.293817072633185"><ele>76.14285714285714</ele><time>2026-04-02T12:27:39.001Z</time></trkpt><trkpt lat="45.236367081270245" lon="9.29393553330399"><ele>76.0</ele><time>2026-04-02T12:27:41Z</time></trkpt><trkpt lat="45.23638098746983" lon="9.294031238711023"><ele>75.8</ele><time>2026-04-02T12:27:43Z</time></trkpt><trkpt lat="45.23633043391379" lon="9.29417826174608"><ele>75.6</ele><time>2026-04-02T12:27:45Z</time></trkpt><trkpt lat="45.23628178474385" lon="9.294287055418152"><ele>75.4</ele><time>2026-04-02T12:27:46Z</time></trkpt><trkpt lat="45.236230898106434" lon="9.294405803302235"><ele>75.2</ele><time>2026-04-02T12:27:47Z</time></trkpt><trkpt lat="45.236174465792054" lon="9.294513651747462"><ele>75.0</ele><time>2026-04-02T12:27:48Z</time></trkpt><trkpt lat="45.23612511418383" lon="9.29461881464205"><ele>75.0</ele><time>2026-04-02T12:27:49Z</time></trkpt><trkpt lat="45.236063091755945" lon="9.294709136302563"><ele>75.0</ele><time>2026-04-02T12:27:50Z</time></trkpt><trkpt lat="45.23598192862094" lon="9.294798583227188"><ele>75.0</ele><time>2026-04-02T12:27:51Z</time></trkpt><trkpt lat="45.2359100757917" lon="9.294884867094142"><ele>75.0</ele><time>2026-04-02T12:27:52Z</time></trkpt><trkpt lat="45.23584136036981" lon="9.294994485147486"><ele>75.0</ele><time>2026-04-02T12:27:53Z</time></trkpt><trkpt lat="45.235776364203566" lon="9.295097846566941"><ele>75.2</ele><time>2026-04-02T12:27:54Z</time></trkpt><trkpt lat="45.23570715989156" lon="9.295203649120342"><ele>75.4</ele><time>2026-04-02T12:27:55Z</time></trkpt><trkpt lat="45.23562789770082" lon="9.29531934341849"><ele>75.6</ele><time>2026-04-02T12:27:56Z</time></trkpt><trkpt lat="45.235556444009866" lon="9.295436309078514"><ele>75.8</ele><time>2026-04-02T12:27:57Z</time></trkpt><trkpt lat="45.23549247953541" lon="9.295538544748396"><ele>76.0</ele><time>2026-04-02T12:27:58Z</time></trkpt><trkpt lat="45.23542586866689" lon="9.295631693334313"><ele>76.2</ele><time>2026-04-02T12:27:59Z</time></trkpt><trkpt lat="45.23535577839882" lon="9.295735445762165"><ele>76.39999999999999</ele><time>2026-04-02T12:28:00Z</time></trkpt><trkpt lat="45.23529053301764" lon="9.295844886737383"><ele>76.6</ele><time>2026-04-02T12:28:01Z</time></trkpt><trkpt lat="45.23523039657097" lon="9.29595382668569"><ele>76.8</ele><time>2026-04-02T12:28:02Z</time></trkpt><trkpt lat="45.23516975362852" lon="9.296075170076607"><ele>77.0</ele><time>2026-04-02T12:28:03Z</time></trkpt><trkpt lat="45.235105002405895" lon="9.296196294268492"><ele>77.0</ele><time>2026-04-02T12:28:04Z</time></trkpt><trkpt lat="45.235045569925276" lon="9.296314514093389"><ele>77.0</ele><time>2026-04-02T12:28:05Z</time></trkpt><trkpt lat="45.23498513468974" lon="9.296436264048385"><ele>77.0</ele><time>2026-04-02T12:28:06Z</time></trkpt><trkpt lat="45.234923970415046" lon="9.296545786464808"><ele>77.0</ele><time>2026-04-02T12:28:07Z</time></trkpt><trkpt lat="45.23485992199637" lon="9.296667124633037"><ele>77.0</ele><time>2026-04-02T12:28:08Z</time></trkpt><trkpt lat="45.23479926987395" lon="9.296771727762705"><ele>76.83333333333334</ele><time>2026-04-02T12:28:09Z</time></trkpt><trkpt lat="45.23474305859437" lon="9.296876058986536"><ele>76.66666666666667</ele><time>2026-04-02T12:28:10Z</time></trkpt><trkpt lat="45.234693223481464" lon="9.296971748553245"><ele>76.5</ele><time>2026-04-02T12:28:11Z</time></trkpt><trkpt lat="45.23464788742481" lon="9.297063260548825"><ele>76.33333333333333</ele><time>2026-04-02T12:28:12Z</time></trkpt><trkpt lat="45.23460029909938" lon="9.297157935416923"><ele>76.16666666666666</ele><time>2026-04-02T12:28:13Z</time></trkpt><trkpt lat="45.23454630818982" lon="9.297243187924868"><ele>76.0</ele><time>2026-04-02T12:28:14Z</time></trkpt><trkpt lat="45.23447055094517" lon="9.297324938610751"><ele>76.0</ele><time>2026-04-02T12:28:15Z</time></trkpt><trkpt lat="45.23438557755139" lon="9.297390958321184"><ele>76.0</ele><time>2026-04-02T12:28:16Z</time></trkpt><trkpt lat="45.23430144339887" lon="9.29744285012578"><ele>76.0</ele><time>2026-04-02T12:28:17Z</time></trkpt><trkpt lat="45.234203221815505" lon="9.297507234740946"><ele>76.0</ele><time>2026-04-02T12:28:18Z</time></trkpt><trkpt lat="45.23410485059128" lon="9.297564027312252"><ele>76.0</ele><time>2026-04-02T12:28:19Z</time></trkpt><trkpt lat="45.23400120847268" lon="9.297613249686972"><ele>76.0</ele><time>2026-04-02T12:28:20Z</time></trkpt><trkpt lat="45.23391053513624" lon="9.297650658526745"><ele>76.0</ele><time>2026-04-02T12:28:21Z</time></trkpt><trkpt lat="45.233806119108166" lon="9.297683647465677"><ele>76.0</ele><time>2026-04-02T12:28:22Z</time></trkpt><trkpt lat="45.233701141495594" lon="9.297710162757866"><ele>76.0</ele><time>2026-04-02T12:28:23Z</time></trkpt><trkpt lat="45.233605699794296" lon="9.297730017547694"><ele>76.0</ele><time>2026-04-02T12:28:24Z</time></trkpt><trkpt lat="45.233502304820945" lon="9.297755022475014"><ele>76.0</ele><time>2026-04-02T12:28:25Z</time></trkpt><trkpt lat="45.233393502103866" lon="9.297775880623874"><ele>76.0</ele><time>2026-04-02T12:28:26Z</time></trkpt><trkpt lat="45.23328486621086" lon="9.297799002518047"><ele>76.0</ele><time>2026-04-02T12:28:27Z</time></trkpt><trkpt lat="45.23317970075263" lon="9.297819239815091"><ele>76.0</ele><time>2026-04-02T12:28:28Z</time></trkpt><trkpt lat="45.23308240018771" lon="9.297839562203157"><ele>76.0</ele><time>2026-04-02T12:28:29Z</time></trkpt><trkpt lat="45.232983335128374" lon="9.297859577490067"><ele>75.6</ele><time>2026-04-02T12:28:30Z</time></trkpt><trkpt lat="45.23288682270499" lon="9.297879382214687"><ele>75.19999999999999</ele><time>2026-04-02T12:28:31Z</time></trkpt><trkpt lat="45.232791736124916" lon="9.297897304116713"><ele>74.80000000000001</ele><time>2026-04-02T12:28:32Z</time></trkpt><trkpt lat="45.23269665505543" lon="9.297919586097429"><ele>74.4</ele><time>2026-04-02T12:28:33Z</time></trkpt><trkpt lat="45.232595535200296" lon="9.297942475733269"><ele>74.0</ele><time>2026-04-02T12:28:34Z</time></trkpt><trkpt lat="45.23250497681146" lon="9.29796151413151"><ele>74.0</ele><time>2026-04-02T12:28:35Z</time></trkpt><trkpt lat="45.23241107647815" lon="9.297975404234446"><ele>74.0</ele><time>2026-04-02T12:28:36Z</time></trkpt><trkpt lat="45.23231413175148" lon="9.297990903656936"><ele>74.0</ele><time>2026-04-02T12:28:37Z</time></trkpt><trkpt lat="45.232221069098344" lon="9.298010982073965"><ele>74.0</ele><time>2026-04-02T12:28:38Z</time></trkpt><trkpt lat="45.23212428225421" lon="9.298021246670555"><ele>74.0</ele><time>2026-04-02T12:28:39Z</time></trkpt><trkpt lat="45.232034002056984" lon="9.29803248744644"><ele>74.33333333333334</ele><time>2026-04-02T12:28:40Z</time></trkpt><trkpt lat="45.23195781331116" lon="9.298042353748187"><ele>74.66666666666667</ele><time>2026-04-02T12:28:41.001Z</time></trkpt><trkpt lat="45.23187372353905" lon="9.298043827546168"><ele>75.0</ele><time>2026-04-02T12:28:42.001Z</time></trkpt><trkpt lat="45.23178436813941" lon="9.298046307981142"><ele>75.33333333333333</ele><time>2026-04-02T12:28:43.001Z</time></trkpt><trkpt lat="45.231701710122366" lon="9.298054983562272"><ele>75.66666666666666</ele><time>2026-04-02T12:28:44.001Z</time></trkpt><trkpt lat="45.23161820608237" lon="9.298056274977439"><ele>76.0</ele><time>2026-04-02T12:28:45.001Z</time></trkpt><trkpt lat="45.23153715094269" lon="9.298059701815491"><ele>76.0</ele><time>2026-04-02T12:28:46.001Z</time></trkpt><trkpt lat="45.23144968127705" lon="9.298061238300027"><ele>76.0</ele><time>2026-04-02T12:28:47.001Z</time></trkpt><trkpt lat="45.2313654297342" lon="9.298062504457025"><ele>76.0</ele><time>2026-04-02T12:28:48.001Z</time></trkpt><trkpt lat="45.231280177984914" lon="9.298047414030583"><ele>76.0</ele><time>2026-04-02T12:28:49.001Z</time></trkpt><trkpt lat="45.231201787278096" lon="9.298022764443596"><ele>76.0</ele><time>2026-04-02T12:28:50.001Z</time></trkpt><trkpt lat="45.23112982050453" lon="9.297997558068412"><ele>76.0</ele><time>2026-04-02T12:28:51.001Z</time></trkpt><trkpt lat="45.231048931999354" lon="9.297966230872843"><ele>76.0</ele><time>2026-04-02T12:28:52.001Z</time></trkpt><trkpt lat="45.23096472519219" lon="9.297925072435822"><ele>76.0</ele><time>2026-04-02T12:28:53.001Z</time></trkpt><trkpt lat="45.23087800761343" lon="9.297894855827076"><ele>76.0</ele><time>2026-04-02T12:28:54.001Z</time></trkpt><trkpt lat="45.2307904651606" lon="9.29787369952017"><ele>76.0</ele><time>2026-04-02T12:28:55.001Z</time></trkpt><trkpt lat="45.23069950229424" lon="9.297865911940516"><ele>76.0</ele><time>2026-04-02T12:28:56.001Z</time></trkpt><trkpt lat="45.23059625040076" lon="9.297882242239183"><ele>75.8</ele><time>2026-04-02T12:28:57.001Z</time></trkpt><trkpt lat="45.23048911274685" lon="9.29790236966769"><ele>75.6</ele><time>2026-04-02T12:28:58.001Z</time></trkpt><trkpt lat="45.230385633640715" lon="9.297919056849164"><ele>75.4</ele><time>2026-04-02T12:28:59.001Z</time></trkpt><trkpt lat="45.230287722263334" lon="9.297932169916447"><ele>75.2</ele><time>2026-04-02T12:29:00.001Z</time></trkpt><trkpt lat="45.230185870967446" lon="9.297946325994914"><ele>75.0</ele><time>2026-04-02T12:29:01.001Z</time></trkpt><trkpt lat="45.23008125792359" lon="9.29795939118767"><ele>75.0</ele><time>2026-04-02T12:29:02.001Z</time></trkpt><trkpt lat="45.22997981567775" lon="9.297976797313588"><ele>75.0</ele><time>2026-04-02T12:29:03.001Z</time></trkpt><trkpt lat="45.22987625259836" lon="9.297987027552518"><ele>75.0</ele><time>2026-04-02T12:29:04.001Z</time></trkpt><trkpt lat="45.229777148610964" lon="9.298008051156842"><ele>75.0</ele><time>2026-04-02T12:29:05.001Z</time></trkpt><trkpt lat="45.22967539204229" lon="9.298024661211766"><ele>75.0</ele><time>2026-04-02T12:29:06.001Z</time></trkpt><trkpt lat="45.229579891802175" lon="9.298045066366814"><ele>75.14285714285714</ele><time>2026-04-02T12:29:07.001Z</time></trkpt><trkpt lat="45.22950031441606" lon="9.298069569153036"><ele>75.28571428571428</ele><time>2026-04-02T12:29:08.001Z</time></trkpt><trkpt lat="45.22943034381153" lon="9.298093103435303"><ele>75.42857142857142</ele><time>2026-04-02T12:29:09.001Z</time></trkpt><trkpt lat="45.22936953205146" lon="9.298127521686672"><ele>75.57142857142857</ele><time>2026-04-02T12:29:10.001Z</time></trkpt><trkpt lat="45.22930381831584" lon="9.29818076188131"><ele>75.71428571428572</ele><time>2026-04-02T12:29:11.001Z</time></trkpt><trkpt lat="45.22925483714174" lon="9.2982392221753"><ele>75.85714285714285</ele><time>2026-04-02T12:29:12.001Z</time></trkpt><trkpt lat="45.22920518418446" lon="9.2983126939035"><ele>76.0</ele><time>2026-04-02T12:29:13.001Z</time></trkpt><trkpt lat="45.229137713361034" lon="9.298398787550422"><ele>76.0</ele><time>2026-04-02T12:29:14.001Z</time></trkpt><trkpt lat="45.229065942931875" lon="9.298485419581281"><ele>76.0</ele><time>2026-04-02T12:29:15.001Z</time></trkpt><trkpt lat="45.22900318919049" lon="9.29855592101205"><ele>76.0</ele><time>2026-04-02T12:29:16.001Z</time></trkpt><trkpt lat="45.228922359422306" lon="9.29861818906368"><ele>76.0</ele><time>2026-04-02T12:29:18.001Z</time></trkpt><trkpt lat="45.228836434862735" lon="9.298555058841158"><ele>76.0</ele><time>2026-04-02T12:29:20.001Z</time></trkpt><trkpt lat="45.2288054191998" lon="9.298473364626593"><ele>76.0</ele><time>2026-04-02T12:29:21.001Z</time></trkpt><trkpt lat="45.228746364680745" lon="9.298372936482712"><ele>76.0</ele><time>2026-04-02T12:29:22.001Z</time></trkpt><trkpt lat="45.228674620405066" lon="9.298243154329949"><ele>76.0</ele><time>2026-04-02T12:29:23.001Z</time></trkpt><trkpt lat="45.228591488522895" lon="9.298092853709047"><ele>76.0</ele><time>2026-04-02T12:29:24.001Z</time></trkpt><trkpt lat="45.22849910579426" lon="9.297921778429721"><ele>76.0</ele><time>2026-04-02T12:29:25.001Z</time></trkpt><trkpt lat="45.22841891364758" lon="9.297773777694603"><ele>76.0</ele><time>2026-04-02T12:29:26.001Z</time></trkpt><trkpt lat="45.228339367463384" lon="9.297663198388049"><ele>76.0</ele><time>2026-04-02T12:29:27.001Z</time></trkpt><trkpt lat="45.22827868318865" lon="9.297547513583748"><ele>76.0</ele><time>2026-04-02T12:29:28.001Z</time></trkpt><trkpt lat="45.22821133403257" lon="9.29742623493449"><ele>76.0</ele><time>2026-04-02T12:29:29.001Z</time></trkpt><trkpt lat="45.2281479237133" lon="9.297292396950459"><ele>76.0</ele><time>2026-04-02T12:29:30.001Z</time></trkpt><trkpt lat="45.228109503402315" lon="9.297163435078387"><ele>75.66666666666666</ele><time>2026-04-02T12:29:31.001Z</time></trkpt><trkpt lat="45.22806121392025" lon="9.297063658575178"><ele>75.33333333333333</ele><time>2026-04-02T12:29:32.001Z</time></trkpt><trkpt lat="45.22801034810658" lon="9.296999798492644"><ele>75.0</ele><time>2026-04-02T12:29:33.001Z</time></trkpt><trkpt lat="45.22793096937071" lon="9.296933588634188"><ele>74.66666666666667</ele><time>2026-04-02T12:29:35.001Z</time></trkpt><trkpt lat="45.22786880405927" lon="9.296949206056535"><ele>74.33333333333334</ele><time>2026-04-02T12:29:36.001Z</time></trkpt><trkpt lat="45.22779797563359" lon="9.296994178239148"><ele>74.0</ele><time>2026-04-02T12:29:37.001Z</time></trkpt><trkpt lat="45.22771383371114" lon="9.29706374603595"><ele>74.0</ele><time>2026-04-02T12:29:38.001Z</time></trkpt><trkpt lat="45.22761727441298" lon="9.297143936769466"><ele>74.0</ele><time>2026-04-02T12:29:39.001Z</time></trkpt><trkpt lat="45.22750952172773" lon="9.297222094166509"><ele>74.0</ele><time>2026-04-02T12:29:40.001Z</time></trkpt><trkpt lat="45.22738359040737" lon="9.297312427725116"><ele>74.0</ele><time>2026-04-02T12:29:41.001Z</time></trkpt><trkpt lat="45.22726185087847" lon="9.297402872795013"><ele>74.0</ele><time>2026-04-02T12:29:42.001Z</time></trkpt><trkpt lat="45.2271605471582" lon="9.297487018122988"><ele>74.0</ele><time>2026-04-02T12:29:43.001Z</time></trkpt><trkpt lat="45.22706028595653" lon="9.297573176168243"><ele>74.0</ele><time>2026-04-02T12:29:44.001Z</time></trkpt><trkpt lat="45.2269613003591" lon="9.297657958238426"><ele>74.0</ele><time>2026-04-02T12:29:45.001Z</time></trkpt><trkpt lat="45.22687677490544" lon="9.297722289314013"><ele>74.0</ele><time>2026-04-02T12:29:46.001Z</time></trkpt><trkpt lat="45.2267814939451" lon="9.297793736437692"><ele>74.0</ele><time>2026-04-02T12:29:47Z</time></trkpt><trkpt lat="45.226679642557386" lon="9.297864173800189"><ele>74.0</ele><time>2026-04-02T12:29:48Z</time></trkpt><trkpt lat="45.226574638723804" lon="9.297927806929696"><ele>74.0</ele><time>2026-04-02T12:29:49Z</time></trkpt><trkpt lat="45.226476919514226" lon="9.297989660665415"><ele>74.0</ele><time>2026-04-02T12:29:50Z</time></trkpt><trkpt lat="45.22637911130854" lon="9.298070493987318"><ele>74.0</ele><time>2026-04-02T12:29:51Z</time></trkpt><trkpt lat="45.22627869152344" lon="9.298157926046997"><ele>74.5</ele><time>2026-04-02T12:29:52Z</time></trkpt><trkpt lat="45.22618221147444" lon="9.298255279005334"><ele>75.0</ele><time>2026-04-02T12:29:53Z</time></trkpt><trkpt lat="45.226088882865035" lon="9.298353889423494"><ele>75.5</ele><time>2026-04-02T12:29:54Z</time></trkpt><trkpt lat="45.2259831355692" lon="9.298451525449224"><ele>76.0</ele><time>2026-04-02T12:29:55Z</time></trkpt><trkpt lat="45.225864318231956" lon="9.298547582370956"><ele>76.0</ele><time>2026-04-02T12:29:56Z</time></trkpt><trkpt lat="45.2257499532091" lon="9.298648716040912"><ele>76.0</ele><time>2026-04-02T12:29:57Z</time></trkpt><trkpt lat="45.2256384958747" lon="9.298746595743914"><ele>76.0</ele><time>2026-04-02T12:29:58Z</time></trkpt><trkpt lat="45.225520122127264" lon="9.298845320580226"><ele>76.0</ele><time>2026-04-02T12:29:59Z</time></trkpt><trkpt lat="45.22540965531996" lon="9.298939890181273"><ele>76.0</ele><time>2026-04-02T12:30:00Z</time></trkpt><trkpt lat="45.22530839135766" lon="9.299024791415393"><ele>76.0</ele><time>2026-04-02T12:30:01Z</time></trkpt><trkpt lat="45.22521693496166" lon="9.299100082357647"><ele>76.0</ele><time>2026-04-02T12:30:02Z</time></trkpt><trkpt lat="45.22513122729012" lon="9.299168000206013"><ele>76.0</ele><time>2026-04-02T12:30:03Z</time></trkpt><trkpt lat="45.22504519525961" lon="9.299239372163695"><ele>76.0</ele><time>2026-04-02T12:30:04Z</time></trkpt><trkpt lat="45.22494382267385" lon="9.299321922903294"><ele>76.0</ele><time>2026-04-02T12:30:05Z</time></trkpt><trkpt lat="45.22482752593805" lon="9.299420446294487"><ele>76.0</ele><time>2026-04-02T12:30:06Z</time></trkpt><trkpt lat="45.22472850578857" lon="9.299507174133439"><ele>76.0</ele><time>2026-04-02T12:30:07Z</time></trkpt><trkpt lat="45.224642876969824" lon="9.299580461329814"><ele>76.0</ele><time>2026-04-02T12:30:08Z</time></trkpt><trkpt lat="45.22457781096712" lon="9.299642096221458"><ele>76.0</ele><time>2026-04-02T12:30:09Z</time></trkpt><trkpt lat="45.22451354981263" lon="9.299684579314933"><ele>75.83333333333333</ele><time>2026-04-02T12:30:10Z</time></trkpt><trkpt lat="45.22445069469003" lon="9.299694017246928"><ele>75.66666666666666</ele><time>2026-04-02T12:30:11Z</time></trkpt><trkpt lat="45.22439424819286" lon="9.299621442168418"><ele>75.5</ele><time>2026-04-02T12:30:12Z</time></trkpt><trkpt lat="45.224321007207664" lon="9.299556132309796"><ele>75.33333333333333</ele><time>2026-04-02T12:30:13Z</time></trkpt><trkpt lat="45.22423749106185" lon="9.29951873270298"><ele>75.16666666666667</ele><time>2026-04-02T12:30:14Z</time></trkpt><trkpt lat="45.22417360700929" lon="9.299471811286422"><ele>75.0</ele><time>2026-04-02T12:30:15Z</time></trkpt><trkpt lat="45.22409370205643" lon="9.299515517507974"><ele>75.0</ele><time>2026-04-02T12:30:16Z</time></trkpt><trkpt lat="45.22400709998553" lon="9.299571889168563"><ele>75.0</ele><time>2026-04-02T12:30:17Z</time></trkpt><trkpt lat="45.22392269968097" lon="9.299641849214519"><ele>75.0</ele><time>2026-04-02T12:30:18Z</time></trkpt><trkpt lat="45.22381929051226" lon="9.299725949820468"><ele>75.0</ele><time>2026-04-02T12:30:19Z</time></trkpt><trkpt lat="45.22370611890494" lon="9.29981249039991"><ele>75.0</ele><time>2026-04-02T12:30:20Z</time></trkpt><trkpt lat="45.22359105445635" lon="9.299904144252647"><ele>74.75</ele><time>2026-04-02T12:30:21Z</time></trkpt><trkpt lat="45.22347855525557" lon="9.299991042136792"><ele>74.5</ele><time>2026-04-02T12:30:22Z</time></trkpt><trkpt lat="45.22336552316789" lon="9.30007760172921"><ele>74.25</ele><time>2026-04-02T12:30:23Z</time></trkpt><trkpt lat="45.223252143788216" lon="9.300163823784263"><ele>74.0</ele><time>2026-04-02T12:30:24Z</time></trkpt><trkpt lat="45.223138677527714" lon="9.300250309446135"><ele>74.0</ele><time>2026-04-02T12:30:25Z</time></trkpt><trkpt lat="45.223027472435895" lon="9.300337233486962"><ele>74.0</ele><time>2026-04-02T12:30:26Z</time></trkpt><trkpt lat="45.22291837884948" lon="9.300418819851918"><ele>74.0</ele><time>2026-04-02T12:30:27Z</time></trkpt><trkpt lat="45.22280871883968" lon="9.300497544397754"><ele>74.0</ele><time>2026-04-02T12:30:28Z</time></trkpt><trkpt lat="45.22269641643251" lon="9.3005725403855"><ele>74.25</ele><time>2026-04-02T12:30:29Z</time></trkpt><trkpt lat="45.22258318415779" lon="9.300640100038736"><ele>74.5</ele><time>2026-04-02T12:30:30Z</time></trkpt><trkpt lat="45.22246694700112" lon="9.300693484139881"><ele>74.75</ele><time>2026-04-02T12:30:31Z</time></trkpt><trkpt lat="45.22234468453878" lon="9.300734764494006"><ele>75.0</ele><time>2026-04-02T12:30:32Z</time></trkpt><trkpt lat="45.22222149218764" lon="9.300761806472378"><ele>75.0</ele><time>2026-04-02T12:30:33Z</time></trkpt><trkpt lat="45.22209613440331" lon="9.30078839526948"><ele>75.0</ele><time>2026-04-02T12:30:34Z</time></trkpt><trkpt lat="45.2219726610595" lon="9.300819598686951"><ele>75.0</ele><time>2026-04-02T12:30:35Z</time></trkpt><trkpt lat="45.22184837883358" lon="9.300865487707485"><ele>75.0</ele><time>2026-04-02T12:30:36Z</time></trkpt><trkpt lat="45.221725651824535" lon="9.300933540550327"><ele>75.0</ele><time>2026-04-02T12:30:37Z</time></trkpt><trkpt lat="45.22160338994926" lon="9.301016414113965"><ele>75.0</ele><time>2026-04-02T12:30:38Z</time></trkpt><trkpt lat="45.22147876208293" lon="9.301109019071596"><ele>75.0</ele><time>2026-04-02T12:30:39Z</time></trkpt><trkpt lat="45.22135498695836" lon="9.301205963096614"><ele>75.0</ele><time>2026-04-02T12:30:40Z</time></trkpt><trkpt lat="45.22122971770577" lon="9.301309889461882"><ele>75.0</ele><time>2026-04-02T12:30:41Z</time></trkpt><trkpt lat="45.22110751361354" lon="9.301415256494945"><ele>75.0</ele><time>2026-04-02T12:30:42Z</time></trkpt><trkpt lat="45.2209852439296" lon="9.301520107552733"><ele>75.0</ele><time>2026-04-02T12:30:43Z</time></trkpt><trkpt lat="45.22086745269356" lon="9.301621080553627"><ele>75.0</ele><time>2026-04-02T12:30:44Z</time></trkpt><trkpt lat="45.22075053075018" lon="9.301722439363516"><ele>74.5</ele><time>2026-04-02T12:30:45Z</time></trkpt><trkpt lat="45.220637021651065" lon="9.30182219019538"><ele>74.0</ele><time>2026-04-02T12:30:46Z</time></trkpt><trkpt lat="45.220522009174836" lon="9.301915836306451"><ele>73.5</ele><time>2026-04-02T12:30:47Z</time></trkpt><trkpt lat="45.22040987337775" lon="9.302008636917417"><ele>73.0</ele><time>2026-04-02T12:30:48Z</time></trkpt><trkpt lat="45.22029542723255" lon="9.302099671631389"><ele>73.0</ele><time>2026-04-02T12:30:49Z</time></trkpt><trkpt lat="45.22018406916333" lon="9.302181036643995"><ele>73.0</ele><time>2026-04-02T12:30:50.001Z</time></trkpt><trkpt lat="45.2200721946162" lon="9.30225630217762"><ele>73.0</ele><time>2026-04-02T12:30:51.001Z</time></trkpt><trkpt lat="45.219970696767916" lon="9.302320435416137"><ele>73.0</ele><time>2026-04-02T12:30:52.001Z</time></trkpt><trkpt lat="45.2198766953062" lon="9.302380179429358"><ele>73.33333333333333</ele><time>2026-04-02T12:30:53.001Z</time></trkpt><trkpt lat="45.21980166987985" lon="9.302429966498844"><ele>73.66666666666666</ele><time>2026-04-02T12:30:54.001Z</time></trkpt><trkpt lat="45.219706087535954" lon="9.302506364699573"><ele>74.0</ele><time>2026-04-02T12:30:56.001Z</time></trkpt><trkpt lat="45.21962263579299" lon="9.302557666488164"><ele>74.33333333333333</ele><time>2026-04-02T12:30:58.001Z</time></trkpt><trkpt lat="45.21956044104371" lon="9.302457524430684"><ele>74.66666666666667</ele><time>2026-04-02T12:31:00.001Z</time></trkpt><trkpt lat="45.219534635264104" lon="9.302369061535776"><ele>75.0</ele><time>2026-04-02T12:31:01.001Z</time></trkpt><trkpt lat="45.21948231330879" lon="9.30225983473336"><ele>74.75</ele><time>2026-04-02T12:31:02.001Z</time></trkpt><trkpt lat="45.21941064904564" lon="9.302128890667909"><ele>74.5</ele><time>2026-04-02T12:31:03.001Z</time></trkpt><trkpt lat="45.21934482162558" lon="9.30201661614799"><ele>74.25</ele><time>2026-04-02T12:31:04.001Z</time></trkpt><trkpt lat="45.219283829368216" lon="9.301883827329815"><ele>74.0</ele><time>2026-04-02T12:31:05.001Z</time></trkpt><trkpt lat="45.21920068953459" lon="9.301724104165086"><ele>74.0</ele><time>2026-04-02T12:31:06.001Z</time></trkpt><trkpt lat="45.219109745911055" lon="9.301608277127794"><ele>74.0</ele><time>2026-04-02T12:31:07.001Z</time></trkpt><trkpt lat="45.219006561166225" lon="9.301485174271598"><ele>74.0</ele><time>2026-04-02T12:31:08.001Z</time></trkpt><trkpt lat="45.21888559231714" lon="9.301355333241277"><ele>74.0</ele><time>2026-04-02T12:31:09.001Z</time></trkpt><trkpt lat="45.21877994051415" lon="9.30123416391375"><ele>74.2</ele><time>2026-04-02T12:31:10.001Z</time></trkpt><trkpt lat="45.218687978068026" lon="9.301118117461963"><ele>74.4</ele><time>2026-04-02T12:31:11.001Z</time></trkpt><trkpt lat="45.21861071186451" lon="9.301025656307258"><ele>74.6</ele><time>2026-04-02T12:31:12.001Z</time></trkpt><trkpt lat="45.218534943534834" lon="9.300960808964524"><ele>74.8</ele><time>2026-04-02T12:31:13.001Z</time></trkpt><trkpt lat="45.2184579299072" lon="9.300914971269147"><ele>75.0</ele><time>2026-04-02T12:31:14.001Z</time></trkpt><trkpt lat="45.21838567567482" lon="9.300885563098271"><ele>75.0</ele><time>2026-04-02T12:31:15.001Z</time></trkpt><trkpt lat="45.21831896451351" lon="9.300856677035664"><ele>75.0</ele><time>2026-04-02T12:31:16.001Z</time></trkpt><trkpt lat="45.21825661168069" lon="9.300824128952657"><ele>75.0</ele><time>2026-04-02T12:31:17.001Z</time></trkpt><trkpt lat="45.218201105330444" lon="9.300780852803817"><ele>75.0</ele><time>2026-04-02T12:31:18.001Z</time></trkpt><trkpt lat="45.21812451307024" lon="9.300671343391416"><ele>75.0</ele><time>2026-04-02T12:31:20.001Z</time></trkpt><trkpt lat="45.21808060703315" lon="9.300510407878708"><ele>75.0</ele><time>2026-04-02T12:31:22.001Z</time></trkpt><trkpt lat="45.218063255302475" lon="9.300414286638556"><ele>75.2</ele><time>2026-04-02T12:31:23.001Z</time></trkpt><trkpt lat="45.218034115852184" lon="9.300318897700413"><ele>75.4</ele><time>2026-04-02T12:31:24.001Z</time></trkpt><trkpt lat="45.218004773636004" lon="9.300226878115788"><ele>75.6</ele><time>2026-04-02T12:31:25.001Z</time></trkpt><trkpt lat="45.217955447843146" lon="9.300075004588352"><ele>75.8</ele><time>2026-04-02T12:31:27.001Z</time></trkpt><trkpt lat="45.21789239754398" lon="9.299945071127995"><ele>76.0</ele><time>2026-04-02T12:31:29.001Z</time></trkpt><trkpt lat="45.217839901626505" lon="9.29980816963423"><ele>76.0</ele><time>2026-04-02T12:31:31.001Z</time></trkpt><trkpt lat="45.21779419814513" lon="9.299724756430942"><ele>76.0</ele><time>2026-04-02T12:31:33.001Z</time></trkpt><trkpt lat="45.217734704363295" lon="9.299626062955143"><ele>76.0</ele><time>2026-04-02T12:31:36.001Z</time></trkpt><trkpt lat="45.217601347767825" lon="9.29976400929294"><ele>76.0</ele><time>2026-04-02T12:31:37.001Z</time></trkpt><trkpt lat="45.21752943075389" lon="9.299804919995015"><ele>76.0</ele><time>2026-04-02T12:31:38.001Z</time></trkpt><trkpt lat="45.21745405485378" lon="9.299842535149427"><ele>76.0</ele><time>2026-04-02T12:31:39.001Z</time></trkpt><trkpt lat="45.21738269301373" lon="9.299877792716655"><ele>76.0</ele><time>2026-04-02T12:31:40.001Z</time></trkpt><trkpt lat="45.217309999862536" lon="9.299915221437695"><ele>76.0</ele><time>2026-04-02T12:31:41.001Z</time></trkpt><trkpt lat="45.2172336731725" lon="9.299953447776364"><ele>76.0</ele><time>2026-04-02T12:31:42.001Z</time></trkpt><trkpt lat="45.21715922925295" lon="9.29997859118215"><ele>76.0</ele><time>2026-04-02T12:31:43.001Z</time></trkpt><trkpt lat="45.217073479834276" lon="9.299999023006015"><ele>76.0</ele><time>2026-04-02T12:31:44.001Z</time></trkpt><trkpt lat="45.216986311048586" lon="9.300039243156249"><ele>76.0</ele><time>2026-04-02T12:31:45.001Z</time></trkpt><trkpt lat="45.216915469498325" lon="9.300084215626837"><ele>76.0</ele><time>2026-04-02T12:31:46.001Z</time></trkpt><trkpt lat="45.216855173642394" lon="9.300126656742586"><ele>76.0</ele><time>2026-04-02T12:31:47.001Z</time></trkpt><trkpt lat="45.21676043792686" lon="9.300169420651956"><ele>76.0</ele><time>2026-04-02T12:31:49.001Z</time></trkpt><trkpt lat="45.21670441221766" lon="9.300232446139589"><ele>76.0</ele><time>2026-04-02T12:32:01Z</time></trkpt><trkpt lat="45.21663477681107" lon="9.300293453229381"><ele>76.0</ele><time>2026-04-02T12:32:03Z</time></trkpt><trkpt lat="45.2165289753781" lon="9.300367978604617"><ele>75.83333333333333</ele><time>2026-04-02T12:32:05Z</time></trkpt><trkpt lat="45.21646277648928" lon="9.300414593623131"><ele>75.66666666666666</ele><time>2026-04-02T12:32:06Z</time></trkpt><trkpt lat="45.21638712879026" lon="9.300480539569666"><ele>75.5</ele><time>2026-04-02T12:32:07Z</time></trkpt><trkpt lat="45.21631538477371" lon="9.300538705825039"><ele>75.33333333333333</ele><time>2026-04-02T12:32:08Z</time></trkpt><trkpt lat="45.216229867406746" lon="9.30059551429409"><ele>75.16666666666667</ele><time>2026-04-02T12:32:09Z</time></trkpt><trkpt lat="45.21614650500313" lon="9.300630127386249"><ele>75.0</ele><time>2026-04-02T12:32:10Z</time></trkpt><trkpt lat="45.21605807102745" lon="9.30064644553868"><ele>74.8</ele><time>2026-04-02T12:32:11Z</time></trkpt><trkpt lat="45.21597073379357" lon="9.300668946870234"><ele>74.6</ele><time>2026-04-02T12:32:12Z</time></trkpt><trkpt lat="45.21588609626936" lon="9.300699565282226"><ele>74.4</ele><time>2026-04-02T12:32:13Z</time></trkpt><trkpt lat="45.21580923940697" lon="9.300751055342026"><ele>74.2</ele><time>2026-04-02T12:32:14Z</time></trkpt><trkpt lat="45.21573198200025" lon="9.300822455893616"><ele>74.0</ele><time>2026-04-02T12:32:15Z</time></trkpt><trkpt lat="45.21565362715263" lon="9.300915731642833"><ele>73.75</ele><time>2026-04-02T12:32:16Z</time></trkpt><trkpt lat="45.21557525666093" lon="9.301023178365142"><ele>73.5</ele><time>2026-04-02T12:32:17Z</time></trkpt><trkpt lat="45.215492676917734" lon="9.301144172059205"><ele>73.25</ele><time>2026-04-02T12:32:18Z</time></trkpt><trkpt lat="45.21540971651155" lon="9.301260117434502"><ele>73.0</ele><time>2026-04-02T12:32:19Z</time></trkpt><trkpt lat="45.2153216727697" lon="9.301380778860901"><ele>73.0</ele><time>2026-04-02T12:32:20Z</time></trkpt><trkpt lat="45.21522893873234" lon="9.301502768939086"><ele>73.0</ele><time>2026-04-02T12:32:21Z</time></trkpt><trkpt lat="45.215141598225564" lon="9.301614730979425"><ele>73.0</ele><time>2026-04-02T12:32:22Z</time></trkpt><trkpt lat="45.215047802618265" lon="9.301736520493606"><ele>73.0</ele><time>2026-04-02T12:32:23Z</time></trkpt><trkpt lat="45.214957085524645" lon="9.301853040893803"><ele>73.0</ele><time>2026-04-02T12:32:24Z</time></trkpt><trkpt lat="45.21486343295996" lon="9.301969505594101"><ele>73.0</ele><time>2026-04-02T12:32:25Z</time></trkpt><trkpt lat="45.21476905400798" lon="9.302086330408708"><ele>73.0</ele><time>2026-04-02T12:32:26Z</time></trkpt><trkpt lat="45.21467367595199" lon="9.302206977706588"><ele>73.0</ele><time>2026-04-02T12:32:27Z</time></trkpt><trkpt lat="45.21457864841913" lon="9.302327641755928"><ele>73.0</ele><time>2026-04-02T12:32:28Z</time></trkpt><trkpt lat="45.21448505462849" lon="9.302450506286739"><ele>73.0</ele><time>2026-04-02T12:32:29Z</time></trkpt><trkpt lat="45.21439231096225" lon="9.302578498586723"><ele>73.0</ele><time>2026-04-02T12:32:30Z</time></trkpt><trkpt lat="45.214303285382535" lon="9.302711348234876"><ele>73.0</ele><time>2026-04-02T12:32:31Z</time></trkpt><trkpt lat="45.2142197034066" lon="9.302848222799504"><ele>73.0</ele><time>2026-04-02T12:32:32Z</time></trkpt><trkpt lat="45.21413930339464" lon="9.302981791319999"><ele>73.0</ele><time>2026-04-02T12:32:33Z</time></trkpt><trkpt lat="45.214058571119885" lon="9.303106475317245"><ele>73.0</ele><time>2026-04-02T12:32:34Z</time></trkpt><trkpt lat="45.213981413185536" lon="9.303225945228837"><ele>73.0</ele><time>2026-04-02T12:32:35Z</time></trkpt><trkpt lat="45.213903412172996" lon="9.303348951064804"><ele>73.0</ele><time>2026-04-02T12:32:36Z</time></trkpt><trkpt lat="45.21382276988374" lon="9.303472502884889"><ele>73.0</ele><time>2026-04-02T12:32:37Z</time></trkpt><trkpt lat="45.21373391021607" lon="9.303574389702685"><ele>73.0</ele><time>2026-04-02T12:32:38Z</time></trkpt><trkpt lat="45.2136639923826" lon="9.30370484718406"><ele>73.0</ele><time>2026-04-02T12:32:39Z</time></trkpt><trkpt lat="45.213569958860866" lon="9.303802597330764"><ele>73.0</ele><time>2026-04-02T12:32:40Z</time></trkpt><trkpt lat="45.21348129160535" lon="9.30389861165429"><ele>73.0</ele><time>2026-04-02T12:32:41Z</time></trkpt><trkpt lat="45.213396878860195" lon="9.304000793750973"><ele>73.0</ele><time>2026-04-02T12:32:42Z</time></trkpt><trkpt lat="45.21331552103131" lon="9.304113315724635"><ele>73.0</ele><time>2026-04-02T12:32:43Z</time></trkpt><trkpt lat="45.21323435773411" lon="9.304228052960571"><ele>73.5</ele><time>2026-04-02T12:32:44Z</time></trkpt><trkpt lat="45.21315283034958" lon="9.304341157833624"><ele>74.0</ele><time>2026-04-02T12:32:45Z</time></trkpt><trkpt lat="45.21307240064286" lon="9.304453868493306"><ele>74.5</ele><time>2026-04-02T12:32:46.001Z</time></trkpt><trkpt lat="45.21299113102783" lon="9.304570424106014"><ele>75.0</ele><time>2026-04-02T12:32:47.001Z</time></trkpt><trkpt lat="45.21290990824242" lon="9.304689104775738"><ele>75.0</ele><time>2026-04-02T12:32:48.001Z</time></trkpt><trkpt lat="45.21283275950981" lon="9.304804101344104"><ele>75.0</ele><time>2026-04-02T12:32:49.001Z</time></trkpt><trkpt lat="45.21276344752883" lon="9.30492210019995"><ele>75.0</ele><time>2026-04-02T12:32:50.001Z</time></trkpt><trkpt lat="45.21269534657647" lon="9.305050341011778"><ele>75.0</ele><time>2026-04-02T12:32:51.001Z</time></trkpt><trkpt lat="45.212625629163064" lon="9.305173584170907"><ele>75.0</ele><time>2026-04-02T12:32:52.001Z</time></trkpt><trkpt lat="45.21255898956249" lon="9.305294757647502"><ele>75.0</ele><time>2026-04-02T12:32:53.001Z</time></trkpt><trkpt lat="45.21249530739744" lon="9.305411696403569"><ele>75.0</ele><time>2026-04-02T12:32:54.001Z</time></trkpt><trkpt lat="45.2124348941529" lon="9.305525549563507"><ele>75.0</ele><time>2026-04-02T12:32:55.001Z</time></trkpt><trkpt lat="45.21237381411884" lon="9.305634080567588"><ele>75.0</ele><time>2026-04-02T12:32:56.001Z</time></trkpt><trkpt lat="45.2123173361954" lon="9.305736029751802"><ele>75.0</ele><time>2026-04-02T12:32:57.001Z</time></trkpt><trkpt lat="45.21225466573726" lon="9.305841091457367"><ele>74.83333333333333</ele><time>2026-04-02T12:32:58.001Z</time></trkpt><trkpt lat="45.21219649033712" lon="9.305932011257486"><ele>74.66666666666667</ele><time>2026-04-02T12:32:59.001Z</time></trkpt><trkpt lat="45.21214181490847" lon="9.30602334163942"><ele>74.5</ele><time>2026-04-02T12:33:00.001Z</time></trkpt><trkpt lat="45.21209540012561" lon="9.306108982668858"><ele>74.33333333333334</ele><time>2026-04-02T12:33:01.001Z</time></trkpt><trkpt lat="45.21205056320191" lon="9.306193487761877"><ele>74.16666666666667</ele><time>2026-04-02T12:33:02.001Z</time></trkpt><trkpt lat="45.2119969840795" lon="9.306294358386815"><ele>74.0</ele><time>2026-04-02T12:33:03.001Z</time></trkpt><trkpt lat="45.21194307111853" lon="9.306381941761284"><ele>74.16666666666667</ele><time>2026-04-02T12:33:04.001Z</time></trkpt><trkpt lat="45.21189427770181" lon="9.306467012243228"><ele>74.33333333333334</ele><time>2026-04-02T12:33:05.001Z</time></trkpt><trkpt lat="45.21184965775141" lon="9.30654915209619"><ele>74.5</ele><time>2026-04-02T12:33:06.001Z</time></trkpt><trkpt lat="45.21180288945804" lon="9.306637153227646"><ele>74.66666666666667</ele><time>2026-04-02T12:33:07.001Z</time></trkpt><trkpt lat="45.21175646420471" lon="9.306732268320513"><ele>74.83333333333333</ele><time>2026-04-02T12:33:08.001Z</time></trkpt><trkpt lat="45.211705133636436" lon="9.306818669552143"><ele>75.0</ele><time>2026-04-02T12:33:09.001Z</time></trkpt><trkpt lat="45.211643270440526" lon="9.306899819922071"><ele>75.0</ele><time>2026-04-02T12:33:10.001Z</time></trkpt><trkpt lat="45.21157539740598" lon="9.306974009056926"><ele>75.0</ele><time>2026-04-02T12:33:11.001Z</time></trkpt><trkpt lat="45.21150414614002" lon="9.307046754320348"><ele>75.0</ele><time>2026-04-02T12:33:12.001Z</time></trkpt><trkpt lat="45.21142858317274" lon="9.307116837770527"><ele>75.0</ele><time>2026-04-02T12:33:13.001Z</time></trkpt><trkpt lat="45.21134983600993" lon="9.307182391575743"><ele>75.0</ele><time>2026-04-02T12:33:14.001Z</time></trkpt><trkpt lat="45.21127839514098" lon="9.307239401871424"><ele>75.0</ele><time>2026-04-02T12:33:15.001Z</time></trkpt><trkpt lat="45.21120547355299" lon="9.30728778878016"><ele>74.83333333333333</ele><time>2026-04-02T12:33:16.001Z</time></trkpt><trkpt lat="45.211126588260186" lon="9.307328820750284"><ele>74.66666666666667</ele><time>2026-04-02T12:33:17.001Z</time></trkpt><trkpt lat="45.21104173879272" lon="9.307367228158252"><ele>74.5</ele><time>2026-04-02T12:33:18.001Z</time></trkpt><trkpt lat="45.210959604468" lon="9.307403821101245"><ele>74.33333333333334</ele><time>2026-04-02T12:33:19.001Z</time></trkpt><trkpt lat="45.21087542385971" lon="9.30743526742262"><ele>74.16666666666667</ele><time>2026-04-02T12:33:20.001Z</time></trkpt><trkpt lat="45.210789515443885" lon="9.30745500804603"><ele>74.0</ele><time>2026-04-02T12:33:21.001Z</time></trkpt><trkpt lat="45.21069971272008" lon="9.307468693453156"><ele>73.8</ele><time>2026-04-02T12:33:22.001Z</time></trkpt><trkpt lat="45.21061078734204" lon="9.307467873551833"><ele>73.60000000000001</ele><time>2026-04-02T12:33:23.001Z</time></trkpt><trkpt lat="45.21051661525256" lon="9.307456095682522"><ele>73.4</ele><time>2026-04-02T12:33:24.001Z</time></trkpt><trkpt lat="45.21041717037683" lon="9.307445752208142"><ele>73.2</ele><time>2026-04-02T12:33:25.001Z</time></trkpt><trkpt lat="45.21030813670575" lon="9.30743674216108"><ele>73.0</ele><time>2026-04-02T12:33:26.001Z</time></trkpt><trkpt lat="45.21020138838659" lon="9.307425666548026"><ele>73.0</ele><time>2026-04-02T12:33:27.001Z</time></trkpt><trkpt lat="45.210099575391794" lon="9.307414583787946"><ele>73.0</ele><time>2026-04-02T12:33:28.001Z</time></trkpt><trkpt lat="45.2100054714546" lon="9.307403367020001"><ele>73.0</ele><time>2026-04-02T12:33:29.001Z</time></trkpt><trkpt lat="45.20991862023722" lon="9.307390116339754"><ele>73.0</ele><time>2026-04-02T12:33:30.001Z</time></trkpt><trkpt lat="45.20984231410787" lon="9.307375394835764"><ele>73.0</ele><time>2026-04-02T12:33:31.001Z</time></trkpt><trkpt lat="45.209778872544724" lon="9.307360077400737"><ele>73.0</ele><time>2026-04-02T12:33:32.001Z</time></trkpt><trkpt lat="45.20970276452271" lon="9.30734428118414"><ele>72.8</ele><time>2026-04-02T12:33:34.001Z</time></trkpt><trkpt lat="45.20959935498404" lon="9.307306675444087"><ele>72.6</ele><time>2026-04-02T12:33:40.001Z</time></trkpt><trkpt lat="45.20953912526493" lon="9.307476552188513"><ele>72.4</ele><time>2026-04-02T12:33:41.001Z</time></trkpt><trkpt lat="45.2094973099497" lon="9.307571157090626"><ele>72.2</ele><time>2026-04-02T12:33:42.001Z</time></trkpt><trkpt lat="45.20945492518559" lon="9.307666836087312"><ele>72.0</ele><time>2026-04-02T12:33:43.001Z</time></trkpt><trkpt lat="45.209410068928086" lon="9.307766503348262"><ele>72.0</ele><time>2026-04-02T12:33:44.001Z</time></trkpt><trkpt lat="45.20935206990229" lon="9.307851488730197"><ele>72.0</ele><time>2026-04-02T12:33:45.001Z</time></trkpt><trkpt lat="45.20928991189528" lon="9.307931600447805"><ele>72.0</ele><time>2026-04-02T12:33:46.001Z</time></trkpt><trkpt lat="45.20920848174311" lon="9.308009795586655"><ele>72.0</ele><time>2026-04-02T12:33:47.001Z</time></trkpt><trkpt lat="45.209121183783665" lon="9.308083060561367"><ele>72.0</ele><time>2026-04-02T12:33:48.001Z</time></trkpt><trkpt lat="45.2090353469984" lon="9.308134760821162"><ele>72.2</ele><time>2026-04-02T12:33:49.001Z</time></trkpt><trkpt lat="45.20894968009426" lon="9.308137494949994"><ele>72.4</ele><time>2026-04-02T12:33:50.001Z</time></trkpt><trkpt lat="45.20888094175279" lon="9.308157375241038"><ele>72.6</ele><time>2026-04-02T12:33:51.001Z</time></trkpt><trkpt lat="45.20878113381067" lon="9.308147792405139"><ele>72.8</ele><time>2026-04-02T12:33:53.002Z</time></trkpt><trkpt lat="45.208657123823556" lon="9.308184290051436"><ele>73.0</ele><time>2026-04-02T12:33:55.002Z</time></trkpt><trkpt lat="45.20859891305872" lon="9.308251152655165"><ele>73.0</ele><time>2026-04-02T12:33:56.002Z</time></trkpt><trkpt lat="45.208541171342056" lon="9.308338090888078"><ele>73.0</ele><time>2026-04-02T12:33:57.002Z</time></trkpt><trkpt lat="45.20848086468462" lon="9.308416487025168"><ele>73.0</ele><time>2026-04-02T12:33:58.002Z</time></trkpt><trkpt lat="45.208423835253555" lon="9.30849056975943"><ele>73.0</ele><time>2026-04-02T12:33:59Z</time></trkpt><trkpt lat="45.20837938363694" lon="9.308564757359976"><ele>73.0</ele><time>2026-04-02T12:34:00Z</time></trkpt><trkpt lat="45.20832761000829" lon="9.308629246807143"><ele>73.0</ele><time>2026-04-02T12:34:01Z</time></trkpt><trkpt lat="45.208282393901186" lon="9.30870397943371"><ele>73.0</ele><time>2026-04-02T12:34:02Z</time></trkpt><trkpt lat="45.20823356002153" lon="9.308777082877457"><ele>73.0</ele><time>2026-04-02T12:34:03Z</time></trkpt><trkpt lat="45.20815394846669" lon="9.30889388140511"><ele>73.0</ele><time>2026-04-02T12:34:05Z</time></trkpt><trkpt lat="45.20808709102423" lon="9.308947716364951"><ele>73.0</ele><time>2026-04-02T12:34:07Z</time></trkpt><trkpt lat="45.208170256964216" lon="9.30886618365935"><ele>73.0</ele><time>2026-04-02T12:34:14Z</time></trkpt><trkpt lat="45.20821835201724" lon="9.308796834311183"><ele>73.0</ele><time>2026-04-02T12:34:15Z</time></trkpt><trkpt lat="45.20828340944601" lon="9.308735810200806"><ele>73.0</ele><time>2026-04-02T12:34:16Z</time></trkpt><trkpt lat="45.208329962342205" lon="9.308661467177654"><ele>73.0</ele><time>2026-04-02T12:34:17Z</time></trkpt><trkpt lat="45.2083857317449" lon="9.30855337997771"><ele>73.0</ele><time>2026-04-02T12:34:19Z</time></trkpt><trkpt lat="45.208199177598985" lon="9.308211714145306"><ele>73.0</ele><time>2026-04-02T12:34:24Z</time></trkpt><trkpt lat="45.208021126686894" lon="9.308342515491773"><ele>73.0</ele><time>2026-04-02T12:34:25Z</time></trkpt><trkpt lat="45.20794095183622" lon="9.308333169607955"><ele>73.0</ele><time>2026-04-02T12:34:26Z</time></trkpt><trkpt lat="45.207867076830716" lon="9.308322141168588"><ele>73.0</ele><time>2026-04-02T12:34:27Z</time></trkpt><trkpt lat="45.2078010252504" lon="9.308319135146512"><ele>73.0</ele><time>2026-04-02T12:34:28Z</time></trkpt><trkpt lat="45.207735050076664" lon="9.308300705962425"><ele>73.0</ele><time>2026-04-02T12:34:29Z</time></trkpt><trkpt lat="45.20766896844614" lon="9.308276528965445"><ele>73.0</ele><time>2026-04-02T12:34:30Z</time></trkpt><trkpt lat="45.207606427198755" lon="9.308218241678091"><ele>73.0</ele><time>2026-04-02T12:34:31Z</time></trkpt><trkpt lat="45.20754471153" lon="9.308165927152851"><ele>73.0</ele><time>2026-04-02T12:34:32Z</time></trkpt><trkpt lat="45.20748814227506" lon="9.308123368489433"><ele>73.0</ele><time>2026-04-02T12:34:33Z</time></trkpt><trkpt lat="45.207431688721464" lon="9.308081018361468"><ele>73.0</ele><time>2026-04-02T12:34:34Z</time></trkpt><trkpt lat="45.207307428310116" lon="9.30799276791732"><ele>72.16666666666666</ele><time>2026-04-02T12:34:36Z</time></trkpt><trkpt lat="45.20724519609054" lon="9.307950238636376"><ele>71.33333333333333</ele><time>2026-04-02T12:34:37Z</time></trkpt><trkpt lat="45.2071776358211" lon="9.307897963650817"><ele>70.5</ele><time>2026-04-02T12:34:38Z</time></trkpt><trkpt lat="45.20711250574022" lon="9.307842561131073"><ele>69.66666666666667</ele><time>2026-04-02T12:34:39Z</time></trkpt><trkpt lat="45.20704802688324" lon="9.307779509155631"><ele>68.83333333333334</ele><time>2026-04-02T12:34:40Z</time></trkpt><trkpt lat="45.2069880629391" lon="9.307708777882228"><ele>68.0</ele><time>2026-04-02T12:34:41Z</time></trkpt><trkpt lat="45.20692982626872" lon="9.307627794220636"><ele>68.0</ele><time>2026-04-02T12:34:42Z</time></trkpt><trkpt lat="45.20687111180668" lon="9.307544054895695"><ele>68.0</ele><time>2026-04-02T12:34:43Z</time></trkpt><trkpt lat="45.20681444210351" lon="9.307458354196585"><ele>68.0</ele><time>2026-04-02T12:34:44Z</time></trkpt><trkpt lat="45.20676021413957" lon="9.307371550881514"><ele>68.0</ele><time>2026-04-02T12:34:45.001Z</time></trkpt><trkpt lat="45.20670957005076" lon="9.30728354360872"><ele>68.0</ele><time>2026-04-02T12:34:46.001Z</time></trkpt><trkpt lat="45.20666177517459" lon="9.307194526459655"><ele>68.0</ele><time>2026-04-02T12:34:47.001Z</time></trkpt><trkpt lat="45.20661558800497" lon="9.307102752300782"><ele>67.83333333333334</ele><time>2026-04-02T12:34:48.001Z</time></trkpt><trkpt lat="45.20656986888667" lon="9.307010991675968"><ele>67.66666666666667</ele><time>2026-04-02T12:34:49.001Z</time></trkpt><trkpt lat="45.20652061547679" lon="9.306926662253243"><ele>67.5</ele><time>2026-04-02T12:34:50.001Z</time></trkpt><trkpt lat="45.206451920434745" lon="9.306877469055369"><ele>67.33333333333333</ele><time>2026-04-02T12:34:51.001Z</time></trkpt><trkpt lat="45.20638552720145" lon="9.306835398954053"><ele>67.16666666666666</ele><time>2026-04-02T12:34:52.001Z</time></trkpt><trkpt lat="45.206311293563985" lon="9.306821543748617"><ele>67.0</ele><time>2026-04-02T12:34:53.001Z</time></trkpt><trkpt lat="45.206234693735404" lon="9.306851227644607"><ele>66.83333333333333</ele><time>2026-04-02T12:34:54.001Z</time></trkpt><trkpt lat="45.20615797259786" lon="9.306862082864933"><ele>66.66666666666666</ele><time>2026-04-02T12:34:55.001Z</time></trkpt><trkpt lat="45.20608704275115" lon="9.306874469715336"><ele>66.5</ele><time>2026-04-02T12:34:56.001Z</time></trkpt><trkpt lat="45.206010268831086" lon="9.306878346679925"><ele>66.33333333333333</ele><time>2026-04-02T12:34:57.001Z</time></trkpt><trkpt lat="45.205940594942824" lon="9.306866101869188"><ele>66.16666666666667</ele><time>2026-04-02T12:34:58.001Z</time></trkpt><trkpt lat="45.20587704928062" lon="9.306800788035158"><ele>66.0</ele><time>2026-04-02T12:34:59.001Z</time></trkpt><trkpt lat="45.205806506293186" lon="9.306747464296338"><ele>66.0</ele><time>2026-04-02T12:35:00.001Z</time></trkpt><trkpt lat="45.205729390232655" lon="9.306688026230887"><ele>66.0</ele><time>2026-04-02T12:35:01.001Z</time></trkpt><trkpt lat="45.205645054643774" lon="9.306623730700194"><ele>66.0</ele><time>2026-04-02T12:35:02.001Z</time></trkpt><trkpt lat="45.20555639345881" lon="9.306556992094954"><ele>66.0</ele><time>2026-04-02T12:35:03.001Z</time></trkpt><trkpt lat="45.20546793783343" lon="9.306490408301675"><ele>66.0</ele><time>2026-04-02T12:35:04.001Z</time></trkpt><trkpt lat="45.20538480882989" lon="9.306432110439657"><ele>65.83333333333333</ele><time>2026-04-02T12:35:05.001Z</time></trkpt><trkpt lat="45.205305260726206" lon="9.306399048218926"><ele>65.66666666666667</ele><time>2026-04-02T12:35:06.001Z</time></trkpt><trkpt lat="45.205243302231544" lon="9.306337638595792"><ele>65.5</ele><time>2026-04-02T12:35:07.001Z</time></trkpt><trkpt lat="45.20519812241538" lon="9.30626350675434"><ele>65.33333333333334</ele><time>2026-04-02T12:35:08.001Z</time></trkpt><trkpt lat="45.205104966301235" lon="9.306193714960951"><ele>65.16666666666667</ele><time>2026-04-02T12:35:10.001Z</time></trkpt><trkpt lat="45.20503547709171" lon="9.306211751533747"><ele>65.0</ele><time>2026-04-02T12:35:11.001Z</time></trkpt><trkpt lat="45.2049745077715" lon="9.306185853157794"><ele>65.0</ele><time>2026-04-02T12:35:12.001Z</time></trkpt><trkpt lat="45.2048844433616" lon="9.30615061787012"><ele>65.0</ele><time>2026-04-02T12:35:14.001Z</time></trkpt><trkpt lat="45.20481850578348" lon="9.305993557503978"><ele>65.0</ele><time>2026-04-02T12:35:16.001Z</time></trkpt><trkpt lat="45.20476861503498" lon="9.305883416884136"><ele>65.0</ele><time>2026-04-02T12:35:17.001Z</time></trkpt><trkpt lat="45.204710514008994" lon="9.305757596005368"><ele>65.0</ele><time>2026-04-02T12:35:18.001Z</time></trkpt><trkpt lat="45.20464056412584" lon="9.305653652878563"><ele>65.2</ele><time>2026-04-02T12:35:19.001Z</time></trkpt><trkpt lat="45.20458390180848" lon="9.30554092259013"><ele>65.4</ele><time>2026-04-02T12:35:20.001Z</time></trkpt><trkpt lat="45.204530468021844" lon="9.305420558690049"><ele>65.6</ele><time>2026-04-02T12:35:21.001Z</time></trkpt><trkpt lat="45.20446829976394" lon="9.305306620637127"><ele>65.8</ele><time>2026-04-02T12:35:22.001Z</time></trkpt><trkpt lat="45.2044119737622" lon="9.305186914828779"><ele>66.0</ele><time>2026-04-02T12:35:23.001Z</time></trkpt><trkpt lat="45.20435267344399" lon="9.305071187990844"><ele>66.0</ele><time>2026-04-02T12:35:24.001Z</time></trkpt><trkpt lat="45.204291844163" lon="9.304949903681496"><ele>66.0</ele><time>2026-04-02T12:35:25.001Z</time></trkpt><trkpt lat="45.20423048923099" lon="9.304831355584708"><ele>66.0</ele><time>2026-04-02T12:35:26.001Z</time></trkpt><trkpt lat="45.20417665011467" lon="9.304712611539383"><ele>66.0</ele><time>2026-04-02T12:35:27.001Z</time></trkpt><trkpt lat="45.20412028316675" lon="9.30460424508513"><ele>66.0</ele><time>2026-04-02T12:35:28.001Z</time></trkpt><trkpt lat="45.204065136348724" lon="9.304484189086006"><ele>66.0</ele><time>2026-04-02T12:35:29.001Z</time></trkpt><trkpt lat="45.204004242354735" lon="9.304367019900237"><ele>66.0</ele><time>2026-04-02T12:35:30.001Z</time></trkpt><trkpt lat="45.20394482587124" lon="9.304247944890582"><ele>66.0</ele><time>2026-04-02T12:35:31.001Z</time></trkpt><trkpt lat="45.203881148487625" lon="9.304133849645602"><ele>66.0</ele><time>2026-04-02T12:35:32.001Z</time></trkpt><trkpt lat="45.203826321828984" lon="9.30402129987851"><ele>66.0</ele><time>2026-04-02T12:35:33.001Z</time></trkpt><trkpt lat="45.203774749662266" lon="9.303925958867797"><ele>66.16666666666667</ele><time>2026-04-02T12:35:34.001Z</time></trkpt><trkpt lat="45.20372434749368" lon="9.303851848981417"><ele>66.33333333333333</ele><time>2026-04-02T12:35:35.001Z</time></trkpt><trkpt lat="45.20366480033582" lon="9.30379245004966"><ele>66.5</ele><time>2026-04-02T12:35:36.001Z</time></trkpt><trkpt lat="45.20357901721121" lon="9.30374218705392"><ele>66.66666666666666</ele><time>2026-04-02T12:35:37.001Z</time></trkpt><trkpt lat="45.20348086141393" lon="9.30369148660723"><ele>66.83333333333333</ele><time>2026-04-02T12:35:38.001Z</time></trkpt><trkpt lat="45.20338848115191" lon="9.30363428222563"><ele>67.0</ele><time>2026-04-02T12:35:39.001Z</time></trkpt><trkpt lat="45.20329816200523" lon="9.303586652035321"><ele>67.0</ele><time>2026-04-02T12:35:40.001Z</time></trkpt><trkpt lat="45.20321343995252" lon="9.303527866371667"><ele>67.0</ele><time>2026-04-02T12:35:41.001Z</time></trkpt><trkpt lat="45.2031321399163" lon="9.303477830503676"><ele>67.0</ele><time>2026-04-02T12:35:42.001Z</time></trkpt><trkpt lat="45.20305494384908" lon="9.303428368562706"><ele>67.0</ele><time>2026-04-02T12:35:43.001Z</time></trkpt><trkpt lat="45.202982868909054" lon="9.303375724575098"><ele>67.0</ele><time>2026-04-02T12:35:44.001Z</time></trkpt><trkpt lat="45.2029056856004" lon="9.303323708607502"><ele>67.0</ele><time>2026-04-02T12:35:45.001Z</time></trkpt><trkpt lat="45.20283063572046" lon="9.303266992275988"><ele>68.0</ele><time>2026-04-02T12:35:46.001Z</time></trkpt><trkpt lat="45.20273984050985" lon="9.303220356457487"><ele>69.0</ele><time>2026-04-02T12:35:48.001Z</time></trkpt><trkpt lat="45.20267508698213" lon="9.303289745316201"><ele>70.0</ele><time>2026-04-02T12:35:50.001Z</time></trkpt><trkpt lat="45.202663050074115" lon="9.303385724887587"><ele>71.0</ele><time>2026-04-02T12:35:51.001Z</time></trkpt><trkpt lat="45.202659058155874" lon="9.303529677922674"><ele>72.0</ele><time>2026-04-02T12:35:52.001Z</time></trkpt><trkpt lat="45.2026469234088" lon="9.303696783610672"><ele>72.0</ele><time>2026-04-02T12:35:53.001Z</time></trkpt><trkpt lat="45.20260320504827" lon="9.30383276876551"><ele>72.0</ele><time>2026-04-02T12:35:54.002Z</time></trkpt><trkpt lat="45.20257499159596" lon="9.30395033602621"><ele>72.0</ele><time>2026-04-02T12:35:55.002Z</time></trkpt><trkpt lat="45.20255006291064" lon="9.3040506388856"><ele>72.0</ele><time>2026-04-02T12:35:56.002Z</time></trkpt><trkpt lat="45.20251410033414" lon="9.304162788467305"><ele>72.0</ele><time>2026-04-02T12:35:57.002Z</time></trkpt><trkpt lat="45.202471225943135" lon="9.30427611402193"><ele>72.0</ele><time>2026-04-02T12:35:58.002Z</time></trkpt><trkpt lat="45.20244098573991" lon="9.30443251089952"><ele>71.83333333333333</ele><time>2026-04-02T12:35:59.002Z</time></trkpt><trkpt lat="45.20241902197752" lon="9.304566595152316"><ele>71.66666666666667</ele><time>2026-04-02T12:36:00.002Z</time></trkpt><trkpt lat="45.20240019854443" lon="9.304682775157744"><ele>71.5</ele><time>2026-04-02T12:36:01.002Z</time></trkpt><trkpt lat="45.20238145201227" lon="9.304801927610097"><ele>71.33333333333334</ele><time>2026-04-02T12:36:02.002Z</time></trkpt><trkpt lat="45.2023693179436" lon="9.304926835610331"><ele>71.16666666666667</ele><time>2026-04-02T12:36:03.002Z</time></trkpt><trkpt lat="45.202349161316924" lon="9.305050039084925"><ele>71.0</ele><time>2026-04-02T12:36:04.002Z</time></trkpt><trkpt lat="45.202326700264614" lon="9.305177481461257"><ele>71.0</ele><time>2026-04-02T12:36:05Z</time></trkpt><trkpt lat="45.20231013858079" lon="9.305297207777315"><ele>71.0</ele><time>2026-04-02T12:36:06Z</time></trkpt><trkpt lat="45.20229127201562" lon="9.305401864456966"><ele>71.0</ele><time>2026-04-02T12:36:07Z</time></trkpt><trkpt lat="45.202276806472" lon="9.305493751368864"><ele>71.0</ele><time>2026-04-02T12:36:08Z</time></trkpt><trkpt lat="45.20225352662678" lon="9.305603269206753"><ele>71.0</ele><time>2026-04-02T12:36:12Z</time></trkpt><trkpt lat="45.202240984909984" lon="9.305750907675042"><ele>71.0</ele><time>2026-04-02T12:36:14Z</time></trkpt><trkpt lat="45.20222956195374" lon="9.305852032288595"><ele>71.0</ele><time>2026-04-02T12:36:15Z</time></trkpt><trkpt lat="45.20222087932652" lon="9.305966779231698"><ele>71.0</ele><time>2026-04-02T12:36:16Z</time></trkpt><trkpt lat="45.2022096831741" lon="9.30607871277616"><ele>71.0</ele><time>2026-04-02T12:36:17Z</time></trkpt><trkpt lat="45.202198762146914" lon="9.306177750223663"><ele>71.0</ele><time>2026-04-02T12:36:18Z</time></trkpt><trkpt lat="45.20218000504998" lon="9.306271342381125"><ele>71.0</ele><time>2026-04-02T12:36:19Z</time></trkpt><trkpt lat="45.20217091162493" lon="9.306370006308956"><ele>71.0</ele><time>2026-04-02T12:36:20Z</time></trkpt><trkpt lat="45.20214165839245" lon="9.30645285924992"><ele>71.0</ele><time>2026-04-02T12:36:21Z</time></trkpt><trkpt lat="45.202102205605904" lon="9.306604023023999"><ele>71.2</ele><time>2026-04-02T12:36:23Z</time></trkpt><trkpt lat="45.202023176897086" lon="9.306712966453452"><ele>71.39999999999999</ele><time>2026-04-02T12:36:25Z</time></trkpt><trkpt lat="45.201893820169715" lon="9.306779799881786"><ele>71.6</ele><time>2026-04-02T12:36:27Z</time></trkpt><trkpt lat="45.20181478715658" lon="9.306806191554147"><ele>71.8</ele><time>2026-04-02T12:36:28Z</time></trkpt><trkpt lat="45.20173031416569" lon="9.306837134057794"><ele>72.0</ele><time>2026-04-02T12:36:29Z</time></trkpt><trkpt lat="45.2016371675674" lon="9.306875310256066"><ele>72.0</ele><time>2026-04-02T12:36:30Z</time></trkpt><trkpt lat="45.20154821800383" lon="9.306913982578694"><ele>72.0</ele><time>2026-04-02T12:36:31Z</time></trkpt><trkpt lat="45.20147319613573" lon="9.306939645597701"><ele>72.0</ele><time>2026-04-02T12:36:32Z</time></trkpt><trkpt lat="45.20140521835226" lon="9.306970183725905"><ele>72.0</ele><time>2026-04-02T12:36:33Z</time></trkpt><trkpt lat="45.20134397921017" lon="9.306998752577359"><ele>72.0</ele><time>2026-04-02T12:36:34Z</time></trkpt><trkpt lat="45.20127508730253" lon="9.30697894549445"><ele>72.0</ele><time>2026-04-02T12:36:35Z</time></trkpt><trkpt lat="45.2011903162016" lon="9.306970127079712"><ele>71.8</ele><time>2026-04-02T12:36:36Z</time></trkpt><trkpt lat="45.201086824436196" lon="9.307016540225735"><ele>71.6</ele><time>2026-04-02T12:36:37Z</time></trkpt><trkpt lat="45.20096883655804" lon="9.307040783874985"><ele>71.39999999999999</ele><time>2026-04-02T12:36:38Z</time></trkpt><trkpt lat="45.20086018882358" lon="9.30706710303235"><ele>71.2</ele><time>2026-04-02T12:36:39Z</time></trkpt><trkpt lat="45.20075139216831" lon="9.307091914952574"><ele>71.0</ele><time>2026-04-02T12:36:40Z</time></trkpt><trkpt lat="45.20064284037323" lon="9.307129752005196"><ele>71.0</ele><time>2026-04-02T12:36:41Z</time></trkpt><trkpt lat="45.20052972622958" lon="9.307180428973147"><ele>71.0</ele><time>2026-04-02T12:36:42Z</time></trkpt><trkpt lat="45.20041656745006" lon="9.30722525782955"><ele>71.0</ele><time>2026-04-02T12:36:43Z</time></trkpt><trkpt lat="45.20032114410033" lon="9.307262203371456"><ele>71.0</ele><time>2026-04-02T12:36:44Z</time></trkpt><trkpt lat="45.20020847734279" lon="9.307308729844312"><ele>71.0</ele><time>2026-04-02T12:36:45Z</time></trkpt><trkpt lat="45.2001081466352" lon="9.307349724121865"><ele>71.0</ele><time>2026-04-02T12:36:46Z</time></trkpt><trkpt lat="45.200010061158714" lon="9.307393634236437"><ele>71.0</ele><time>2026-04-02T12:36:47Z</time></trkpt><trkpt lat="45.19991929333866" lon="9.307426014282713"><ele>71.0</ele><time>2026-04-02T12:36:48Z</time></trkpt><trkpt lat="45.19983747511998" lon="9.307456301921292"><ele>71.0</ele><time>2026-04-02T12:36:49Z</time></trkpt><trkpt lat="45.199757588125834" lon="9.307503361646408"><ele>70.83333333333334</ele><time>2026-04-02T12:36:50Z</time></trkpt><trkpt lat="45.199682627943204" lon="9.30753681191762"><ele>70.66666666666667</ele><time>2026-04-02T12:36:51Z</time></trkpt><trkpt lat="45.19960560403831" lon="9.307565315387153"><ele>70.5</ele><time>2026-04-02T12:36:52Z</time></trkpt><trkpt lat="45.199524690585875" lon="9.307595455867501"><ele>70.33333333333333</ele><time>2026-04-02T12:36:53.001Z</time></trkpt><trkpt lat="45.199431978630884" lon="9.307630401641234"><ele>70.16666666666666</ele><time>2026-04-02T12:36:54.001Z</time></trkpt><trkpt lat="45.199332088732916" lon="9.307656983530734"><ele>70.0</ele><time>2026-04-02T12:36:55.001Z</time></trkpt><trkpt lat="45.19921924390773" lon="9.307679391958109"><ele>70.0</ele><time>2026-04-02T12:36:56.001Z</time></trkpt><trkpt lat="45.19910418465389" lon="9.307701775118868"><ele>70.0</ele><time>2026-04-02T12:36:57.001Z</time></trkpt><trkpt lat="45.19899202965308" lon="9.307727065746862"><ele>70.0</ele><time>2026-04-02T12:36:58.001Z</time></trkpt><trkpt lat="45.19889387823319" lon="9.307748632726538"><ele>70.0</ele><time>2026-04-02T12:36:59.001Z</time></trkpt><trkpt lat="45.198793760765646" lon="9.307772345713296"><ele>70.0</ele><time>2026-04-02T12:37:00.001Z</time></trkpt><trkpt lat="45.19870005132355" lon="9.307790376897266"><ele>69.83333333333333</ele><time>2026-04-02T12:37:01.001Z</time></trkpt><trkpt lat="45.19861549866886" lon="9.30780405877221"><ele>69.66666666666666</ele><time>2026-04-02T12:37:02.001Z</time></trkpt><trkpt lat="45.19854011855422" lon="9.30782168544894"><ele>69.5</ele><time>2026-04-02T12:37:03.001Z</time></trkpt><trkpt lat="45.19847152069416" lon="9.307837716902773"><ele>69.33333333333333</ele><time>2026-04-02T12:37:04.001Z</time></trkpt><trkpt lat="45.19836377772423" lon="9.307867147135894"><ele>69.16666666666667</ele><time>2026-04-02T12:37:06.001Z</time></trkpt><trkpt lat="45.19829849274097" lon="9.307892876578425"><ele>69.0</ele><time>2026-04-02T12:37:07.001Z</time></trkpt><trkpt lat="45.198214042113904" lon="9.307912244173753"><ele>69.25</ele><time>2026-04-02T12:37:08.001Z</time></trkpt><trkpt lat="45.19812848899112" lon="9.307923636345308"><ele>69.5</ele><time>2026-04-02T12:37:09.001Z</time></trkpt><trkpt lat="45.19803566505141" lon="9.30793884432764"><ele>69.75</ele><time>2026-04-02T12:37:10.001Z</time></trkpt><trkpt lat="45.197917433751634" lon="9.307967254760559"><ele>70.0</ele><time>2026-04-02T12:37:11.001Z</time></trkpt><trkpt lat="45.1977667467169" lon="9.308004488768097"><ele>70.0</ele><time>2026-04-02T12:37:12.001Z</time></trkpt><trkpt lat="45.197605659537786" lon="9.308042221981658"><ele>70.0</ele><time>2026-04-02T12:37:13.001Z</time></trkpt><trkpt lat="45.19747625095874" lon="9.308061565092325"><ele>70.0</ele><time>2026-04-02T12:37:14.001Z</time></trkpt><trkpt lat="45.19737015217141" lon="9.308089924246076"><ele>70.0</ele><time>2026-04-02T12:37:15.001Z</time></trkpt><trkpt lat="45.19727650400952" lon="9.308097956423756"><ele>70.16666666666666</ele><time>2026-04-02T12:37:16.001Z</time></trkpt><trkpt lat="45.19718529668004" lon="9.308118256992445"><ele>70.33333333333333</ele><time>2026-04-02T12:37:17.001Z</time></trkpt><trkpt lat="45.197103146987075" lon="9.308140667318227"><ele>70.5</ele><time>2026-04-02T12:37:18.001Z</time></trkpt><trkpt lat="45.19701513688352" lon="9.30815891509088"><ele>70.66666666666667</ele><time>2026-04-02T12:37:19.001Z</time></trkpt><trkpt lat="45.19693481442659" lon="9.308179518959303"><ele>70.83333333333334</ele><time>2026-04-02T12:37:20.001Z</time></trkpt><trkpt lat="45.19686427708531" lon="9.308199104198312"><ele>71.0</ele><time>2026-04-02T12:37:21.001Z</time></trkpt><trkpt lat="45.196749707688085" lon="9.308228210394786"><ele>71.0</ele><time>2026-04-02T12:37:23.001Z</time></trkpt><trkpt lat="45.19667072401902" lon="9.308249823481455"><ele>71.0</ele><time>2026-04-02T12:37:25.001Z</time></trkpt><trkpt lat="45.1966028636511" lon="9.308257070349097"><ele>71.0</ele><time>2026-04-02T12:37:28.001Z</time></trkpt><trkpt lat="45.19661013289671" lon="9.308492793148677"><ele>71.0</ele><time>2026-04-02T12:37:29.001Z</time></trkpt><trkpt lat="45.19662931638726" lon="9.30865788659025"><ele>71.0</ele><time>2026-04-02T12:37:30.001Z</time></trkpt><trkpt lat="45.19666040744864" lon="9.308893858929125"><ele>71.0</ele><time>2026-04-02T12:37:31.001Z</time></trkpt><trkpt lat="45.19668762868782" lon="9.309166200643784"><ele>71.0</ele><time>2026-04-02T12:37:32.001Z</time></trkpt><trkpt lat="45.1967155866888" lon="9.30946141464314"><ele>71.0</ele><time>2026-04-02T12:37:33.001Z</time></trkpt><trkpt lat="45.196754567256676" lon="9.309787661144124"><ele>70.5</ele><time>2026-04-02T12:37:34.001Z</time></trkpt><trkpt lat="45.196790516482345" lon="9.310128469926939"><ele>70.0</ele><time>2026-04-02T12:37:35.001Z</time></trkpt><trkpt lat="45.19681707748907" lon="9.310466059815779"><ele>69.66666666666666</ele><time>2026-04-02T12:37:36.001Z</time></trkpt><trkpt lat="45.19684264551191" lon="9.310760002164182"><ele>69.33333333333333</ele><time>2026-04-02T12:37:37.001Z</time></trkpt><trkpt lat="45.19687067014087" lon="9.311029079899189"><ele>69.0</ele><time>2026-04-02T12:37:38.001Z</time></trkpt><trkpt lat="45.19689814277502" lon="9.311279982224349"><ele>69.0</ele><time>2026-04-02T12:37:39.001Z</time></trkpt><trkpt lat="45.19692295780809" lon="9.311521597065887"><ele>69.0</ele><time>2026-04-02T12:37:40.001Z</time></trkpt><trkpt lat="45.196942633800475" lon="9.311750243516185"><ele>69.0</ele><time>2026-04-02T12:37:41.001Z</time></trkpt><trkpt lat="45.19696009476363" lon="9.311964669823372"><ele>69.0</ele><time>2026-04-02T12:37:42.001Z</time></trkpt><trkpt lat="45.196977275108495" lon="9.312172371334876"><ele>69.0</ele><time>2026-04-02T12:37:43.001Z</time></trkpt><trkpt lat="45.19698280645738" lon="9.312377733416016"><ele>69.0</ele><time>2026-04-02T12:37:44.001Z</time></trkpt><trkpt lat="45.19696892301207" lon="9.312579760822182"><ele>69.0</ele><time>2026-04-02T12:37:45.001Z</time></trkpt><trkpt lat="45.196932935585124" lon="9.312776315237553"><ele>69.0</ele><time>2026-04-02T12:37:46.001Z</time></trkpt><trkpt lat="45.19688862595641" lon="9.312976331560028"><ele>69.0</ele><time>2026-04-02T12:37:47.001Z</time></trkpt><trkpt lat="45.1968346127011" lon="9.31316688020163"><ele>69.0</ele><time>2026-04-02T12:37:48.001Z</time></trkpt><trkpt lat="45.19678142088211" lon="9.313357032073066"><ele>69.0</ele><time>2026-04-02T12:37:49.001Z</time></trkpt><trkpt lat="45.19672629647734" lon="9.313545122356171"><ele>69.0</ele><time>2026-04-02T12:37:50.001Z</time></trkpt><trkpt lat="45.19667451207238" lon="9.313723604604165"><ele>69.0</ele><time>2026-04-02T12:37:51.001Z</time></trkpt><trkpt lat="45.19662507924556" lon="9.313892115732665"><ele>69.0</ele><time>2026-04-02T12:37:52.001Z</time></trkpt><trkpt lat="45.19657650391216" lon="9.314048558912855"><ele>69.0</ele><time>2026-04-02T12:37:53.001Z</time></trkpt><trkpt lat="45.19653133888127" lon="9.314199635083568"><ele>69.0</ele><time>2026-04-02T12:37:54.001Z</time></trkpt><trkpt lat="45.196488056540915" lon="9.314345048993804"><ele>69.0</ele><time>2026-04-02T12:37:55.001Z</time></trkpt><trkpt lat="45.196425643069226" lon="9.314489274115433"><ele>69.0</ele><time>2026-04-02T12:37:56.001Z</time></trkpt><trkpt lat="45.196340733066364" lon="9.314604755774678"><ele>69.0</ele><time>2026-04-02T12:37:57.001Z</time></trkpt><trkpt lat="45.19624771872298" lon="9.314711820370121"><ele>68.25</ele><time>2026-04-02T12:37:58.001Z</time></trkpt><trkpt lat="45.19614842387665" lon="9.314804053577465"><ele>67.5</ele><time>2026-04-02T12:37:59.001Z</time></trkpt><trkpt lat="45.196037235387344" lon="9.314886585339048"><ele>66.75</ele><time>2026-04-02T12:38:00.002Z</time></trkpt><trkpt lat="45.19591618180252" lon="9.31496485525384"><ele>66.0</ele><time>2026-04-02T12:38:01.002Z</time></trkpt><trkpt lat="45.19579159723691" lon="9.315049867236775"><ele>66.25</ele><time>2026-04-02T12:38:02.002Z</time></trkpt><trkpt lat="45.19566760532956" lon="9.315139904924262"><ele>66.5</ele><time>2026-04-02T12:38:03.002Z</time></trkpt><trkpt lat="45.19554191583324" lon="9.315233289012149"><ele>66.75</ele><time>2026-04-02T12:38:04.002Z</time></trkpt><trkpt lat="45.19542347072893" lon="9.315316381497766"><ele>67.0</ele><time>2026-04-02T12:38:05.002Z</time></trkpt><trkpt lat="45.195309479645296" lon="9.315396639130851"><ele>67.0</ele><time>2026-04-02T12:38:06.002Z</time></trkpt><trkpt lat="45.195194846380986" lon="9.315494733878698"><ele>67.0</ele><time>2026-04-02T12:38:07.002Z</time></trkpt><trkpt lat="45.19508874101439" lon="9.315614754702034"><ele>67.0</ele><time>2026-04-02T12:38:08.002Z</time></trkpt><trkpt lat="45.19498754505362" lon="9.315745060387572"><ele>67.0</ele><time>2026-04-02T12:38:09.002Z</time></trkpt><trkpt lat="45.194884090694494" lon="9.315876127590002"><ele>67.25</ele><time>2026-04-02T12:38:10.002Z</time></trkpt><trkpt lat="45.19478045401984" lon="9.315991158255416"><ele>67.5</ele><time>2026-04-02T12:38:11Z</time></trkpt><trkpt lat="45.19468469253488" lon="9.316077529065883"><ele>67.75</ele><time>2026-04-02T12:38:12Z</time></trkpt><trkpt lat="45.194575737577146" lon="9.316155390045076"><ele>68.0</ele><time>2026-04-02T12:38:13Z</time></trkpt><trkpt lat="45.19445345508902" lon="9.316201954564484"><ele>68.0</ele><time>2026-04-02T12:38:14Z</time></trkpt><trkpt lat="45.194321574164796" lon="9.316231144205124"><ele>68.0</ele><time>2026-04-02T12:38:15Z</time></trkpt><trkpt lat="45.19418899063214" lon="9.316256566698014"><ele>68.0</ele><time>2026-04-02T12:38:16Z</time></trkpt><trkpt lat="45.19405487819801" lon="9.316276670487047"><ele>68.0</ele><time>2026-04-02T12:38:17Z</time></trkpt><trkpt lat="45.193935087741735" lon="9.316290785988327"><ele>68.0</ele><time>2026-04-02T12:38:18Z</time></trkpt><trkpt lat="45.19381160154711" lon="9.316313481878991"><ele>68.0</ele><time>2026-04-02T12:38:19Z</time></trkpt><trkpt lat="45.19368189844271" lon="9.316342063485267"><ele>68.0</ele><time>2026-04-02T12:38:20Z</time></trkpt><trkpt lat="45.193549298624255" lon="9.316375383286308"><ele>68.0</ele><time>2026-04-02T12:38:21Z</time></trkpt><trkpt lat="45.1934152423589" lon="9.316414925722462"><ele>68.0</ele><time>2026-04-02T12:38:22Z</time></trkpt><trkpt lat="45.19328046318906" lon="9.316460654582059"><ele>68.0</ele><time>2026-04-02T12:38:23Z</time></trkpt><trkpt lat="45.1931459064186" lon="9.316509440912412"><ele>68.0</ele><time>2026-04-02T12:38:24Z</time></trkpt><trkpt lat="45.193012282587524" lon="9.31655804052247"><ele>68.0</ele><time>2026-04-02T12:38:25Z</time></trkpt><trkpt lat="45.19288022360347" lon="9.316602985525613"><ele>68.25</ele><time>2026-04-02T12:38:26Z</time></trkpt><trkpt lat="45.19274622774449" lon="9.316650813234858"><ele>68.5</ele><time>2026-04-02T12:38:27Z</time></trkpt><trkpt lat="45.19261347541961" lon="9.316699880885398"><ele>68.75</ele><time>2026-04-02T12:38:28Z</time></trkpt><trkpt lat="45.192480798089356" lon="9.316747795285588"><ele>69.0</ele><time>2026-04-02T12:38:29Z</time></trkpt><trkpt lat="45.19234883254012" lon="9.316800077638486"><ele>69.25</ele><time>2026-04-02T12:38:30Z</time></trkpt><trkpt lat="45.19221176867551" lon="9.316854295141605"><ele>69.5</ele><time>2026-04-02T12:38:31Z</time></trkpt><trkpt lat="45.19207405662005" lon="9.316911123058203"><ele>69.75</ele><time>2026-04-02T12:38:32Z</time></trkpt><trkpt lat="45.19193707304631" lon="9.316971945746666"><ele>70.0</ele><time>2026-04-02T12:38:33Z</time></trkpt><trkpt lat="45.19180052484527" lon="9.317041809851771"><ele>70.0</ele><time>2026-04-02T12:38:34Z</time></trkpt><trkpt lat="45.191671385495454" lon="9.317133600930033"><ele>70.0</ele><time>2026-04-02T12:38:35Z</time></trkpt><trkpt lat="45.19154658232297" lon="9.317252759081725"><ele>70.0</ele><time>2026-04-02T12:38:36Z</time></trkpt><trkpt lat="45.19142917235777" lon="9.317385760618171"><ele>70.0</ele><time>2026-04-02T12:38:37Z</time></trkpt><trkpt lat="45.19131992490333" lon="9.317527575017275"><ele>69.25</ele><time>2026-04-02T12:38:38Z</time></trkpt><trkpt lat="45.19121171797228" lon="9.31767385127658"><ele>68.5</ele><time>2026-04-02T12:38:39Z</time></trkpt><trkpt lat="45.191098336877694" lon="9.317813784900078"><ele>67.75</ele><time>2026-04-02T12:38:40Z</time></trkpt><trkpt lat="45.190978699538576" lon="9.31793912087161"><ele>67.0</ele><time>2026-04-02T12:38:41Z</time></trkpt><trkpt lat="45.19085629938678" lon="9.318056286537576"><ele>66.5</ele><time>2026-04-02T12:38:42Z</time></trkpt><trkpt lat="45.190731862609056" lon="9.318164618100102"><ele>66.0</ele><time>2026-04-02T12:38:43Z</time></trkpt><trkpt lat="45.19060623055614" lon="9.318269548178256"><ele>65.5</ele><time>2026-04-02T12:38:44Z</time></trkpt><trkpt lat="45.190480488305276" lon="9.318374242020996"><ele>65.0</ele><time>2026-04-02T12:38:45Z</time></trkpt><trkpt lat="45.1903494231621" lon="9.318463959363664"><ele>65.0</ele><time>2026-04-02T12:38:46Z</time></trkpt><trkpt lat="45.190209684135695" lon="9.318532113143641"><ele>65.0</ele><time>2026-04-02T12:38:47Z</time></trkpt><trkpt lat="45.19006514437297" lon="9.318576166680899"><ele>65.0</ele><time>2026-04-02T12:38:48Z</time></trkpt><trkpt lat="45.189918212836254" lon="9.318595835515014"><ele>65.0</ele><time>2026-04-02T12:38:49Z</time></trkpt><trkpt lat="45.18977365042724" lon="9.318605943745194"><ele>65.0</ele><time>2026-04-02T12:38:50Z</time></trkpt><trkpt lat="45.18962870844659" lon="9.318604054908274"><ele>65.0</ele><time>2026-04-02T12:38:51Z</time></trkpt><trkpt lat="45.18948467899514" lon="9.31858651149948"><ele>65.0</ele><time>2026-04-02T12:38:52Z</time></trkpt><trkpt lat="45.18934030915531" lon="9.318555350161727"><ele>65.0</ele><time>2026-04-02T12:38:53Z</time></trkpt><trkpt lat="45.18919666239288" lon="9.318513628226597"><ele>65.0</ele><time>2026-04-02T12:38:54Z</time></trkpt><trkpt lat="45.18905422231683" lon="9.318459096842927"><ele>65.0</ele><time>2026-04-02T12:38:55.001Z</time></trkpt><trkpt lat="45.18891253194616" lon="9.318393763970736"><ele>65.0</ele><time>2026-04-02T12:38:56.001Z</time></trkpt><trkpt lat="45.188774754096016" lon="9.31832061393284"><ele>65.0</ele><time>2026-04-02T12:38:57.001Z</time></trkpt><trkpt lat="45.18863621953764" lon="9.318249545168612"><ele>65.75</ele><time>2026-04-02T12:38:58.001Z</time></trkpt><trkpt lat="45.188497939510754" lon="9.318178323003941"><ele>66.5</ele><time>2026-04-02T12:38:59.001Z</time></trkpt><trkpt lat="45.188358768147054" lon="9.318106725585002"><ele>67.25</ele><time>2026-04-02T12:39:00.001Z</time></trkpt><trkpt lat="45.18821957103948" lon="9.318035671648085"><ele>68.0</ele><time>2026-04-02T12:39:01.001Z</time></trkpt><trkpt lat="45.18808042728897" lon="9.317968509112665"><ele>68.0</ele><time>2026-04-02T12:39:02.001Z</time></trkpt><trkpt lat="45.18794021533894" lon="9.31789826916785"><ele>68.0</ele><time>2026-04-02T12:39:03.001Z</time></trkpt><trkpt lat="45.18780121779144" lon="9.317828196542974"><ele>68.0</ele><time>2026-04-02T12:39:04.001Z</time></trkpt><trkpt lat="45.18765818170191" lon="9.317758269793645"><ele>68.0</ele><time>2026-04-02T12:39:05.001Z</time></trkpt><trkpt lat="45.18751960269369" lon="9.317680290743368"><ele>68.0</ele><time>2026-04-02T12:39:06.001Z</time></trkpt><trkpt lat="45.18737885400693" lon="9.317604797754534"><ele>68.0</ele><time>2026-04-02T12:39:07.001Z</time></trkpt><trkpt lat="45.187237154842705" lon="9.317531625492936"><ele>68.0</ele><time>2026-04-02T12:39:08.001Z</time></trkpt><trkpt lat="45.1870929392626" lon="9.317455181671102"><ele>68.0</ele><time>2026-04-02T12:39:09.001Z</time></trkpt><trkpt lat="45.186947738389954" lon="9.31737747011147"><ele>68.0</ele><time>2026-04-02T12:39:10.001Z</time></trkpt><trkpt lat="45.186804849309006" lon="9.317295490697141"><ele>68.0</ele><time>2026-04-02T12:39:11.001Z</time></trkpt><trkpt lat="45.18666112526902" lon="9.31721393185771"><ele>68.0</ele><time>2026-04-02T12:39:12.001Z</time></trkpt><trkpt lat="45.18651769397262" lon="9.317129521489957"><ele>68.0</ele><time>2026-04-02T12:39:13.001Z</time></trkpt><trkpt lat="45.1863735382517" lon="9.317049598130142"><ele>68.0</ele><time>2026-04-02T12:39:14.001Z</time></trkpt><trkpt lat="45.18622895926199" lon="9.316972404290347"><ele>68.66666666666667</ele><time>2026-04-02T12:39:15.001Z</time></trkpt><trkpt lat="45.18608478751794" lon="9.316897884020786"><ele>69.33333333333333</ele><time>2026-04-02T12:39:16.001Z</time></trkpt><trkpt lat="45.18594232501815" lon="9.316819159403435"><ele>70.0</ele><time>2026-04-02T12:39:17.001Z</time></trkpt><trkpt lat="45.18579784090038" lon="9.316748118271459"><ele>69.66666666666666</ele><time>2026-04-02T12:39:18.001Z</time></trkpt><trkpt lat="45.185656441594304" lon="9.316671836446389"><ele>69.33333333333333</ele><time>2026-04-02T12:39:19.001Z</time></trkpt><trkpt lat="45.185515949092434" lon="9.316601498574837"><ele>69.0</ele><time>2026-04-02T12:39:20.001Z</time></trkpt><trkpt lat="45.18537473853392" lon="9.316528651243113"><ele>69.0</ele><time>2026-04-02T12:39:21.001Z</time></trkpt><trkpt lat="45.185235366054954" lon="9.316454452885102"><ele>69.0</ele><time>2026-04-02T12:39:22.001Z</time></trkpt><trkpt lat="45.18509663238916" lon="9.316380739586695"><ele>69.0</ele><time>2026-04-02T12:39:23.001Z</time></trkpt><trkpt lat="45.18495412962125" lon="9.316306865508084"><ele>69.0</ele><time>2026-04-02T12:39:24.001Z</time></trkpt><trkpt lat="45.18481342627798" lon="9.3162338508567"><ele>69.25</ele><time>2026-04-02T12:39:25.001Z</time></trkpt><trkpt lat="45.18467367818256" lon="9.31616107472035"><ele>69.5</ele><time>2026-04-02T12:39:26.001Z</time></trkpt><trkpt lat="45.18453371785373" lon="9.316086315674108"><ele>69.75</ele><time>2026-04-02T12:39:27.001Z</time></trkpt><trkpt lat="45.18439491088036" lon="9.316011079929762"><ele>70.0</ele><time>2026-04-02T12:39:28.001Z</time></trkpt><trkpt lat="45.18425706703711" lon="9.315933659178397"><ele>70.0</ele><time>2026-04-02T12:39:29.001Z</time></trkpt><trkpt lat="45.184119821232954" lon="9.315859827087037"><ele>70.0</ele><time>2026-04-02T12:39:30.001Z</time></trkpt><trkpt lat="45.18398349716683" lon="9.315788066565755"><ele>70.0</ele><time>2026-04-02T12:39:31.001Z</time></trkpt><trkpt lat="45.18384573587327" lon="9.315716322216575"><ele>70.0</ele><time>2026-04-02T12:39:32.001Z</time></trkpt><trkpt lat="45.18371047387148" lon="9.31564291150438"><ele>70.0</ele><time>2026-04-02T12:39:33.001Z</time></trkpt><trkpt lat="45.18357424745142" lon="9.315570048308514"><ele>70.0</ele><time>2026-04-02T12:39:34.001Z</time></trkpt><trkpt lat="45.18343804331971" lon="9.315493220465788"><ele>70.0</ele><time>2026-04-02T12:39:35.001Z</time></trkpt><trkpt lat="45.183299729953504" lon="9.315415452795968"><ele>70.0</ele><time>2026-04-02T12:39:36.001Z</time></trkpt><trkpt lat="45.18316078123891" lon="9.315332832360005"><ele>70.0</ele><time>2026-04-02T12:39:37.001Z</time></trkpt><trkpt lat="45.183019333294446" lon="9.315243665940518"><ele>70.0</ele><time>2026-04-02T12:39:38.001Z</time></trkpt><trkpt lat="45.18287755874171" lon="9.31514581761738"><ele>70.0</ele><time>2026-04-02T12:39:39.001Z</time></trkpt><trkpt lat="45.18273424239663" lon="9.315048094445203"><ele>70.0</ele><time>2026-04-02T12:39:40.001Z</time></trkpt><trkpt lat="45.182593200960234" lon="9.314949132898699"><ele>70.0</ele><time>2026-04-02T12:39:41.001Z</time></trkpt><trkpt lat="45.18245411560479" lon="9.314849471162109"><ele>70.0</ele><time>2026-04-02T12:39:42.001Z</time></trkpt><trkpt lat="45.18231508930083" lon="9.314749586135319"><ele>70.0</ele><time>2026-04-02T12:39:43.001Z</time></trkpt><trkpt lat="45.182177067580994" lon="9.31465392797815"><ele>70.0</ele><time>2026-04-02T12:39:44.001Z</time></trkpt><trkpt lat="45.18203742261949" lon="9.314557644438919"><ele>70.0</ele><time>2026-04-02T12:39:45.001Z</time></trkpt><trkpt lat="45.18189711383195" lon="9.314460792717792"><ele>70.0</ele><time>2026-04-02T12:39:46.001Z</time></trkpt><trkpt lat="45.181755430523445" lon="9.314362071451349"><ele>70.0</ele><time>2026-04-02T12:39:47.001Z</time></trkpt><trkpt lat="45.18161185857119" lon="9.314265566030778"><ele>70.0</ele><time>2026-04-02T12:39:48.001Z</time></trkpt><trkpt lat="45.181466060428185" lon="9.314172987013622"><ele>70.0</ele><time>2026-04-02T12:39:49.001Z</time></trkpt><trkpt lat="45.18131896769547" lon="9.314093755390488"><ele>70.0</ele><time>2026-04-02T12:39:50.001Z</time></trkpt><trkpt lat="45.18116687292682" lon="9.314025719166631"><ele>70.0</ele><time>2026-04-02T12:39:51.001Z</time></trkpt><trkpt lat="45.18100971967463" lon="9.313965191128336"><ele>70.0</ele><time>2026-04-02T12:39:52.001Z</time></trkpt><trkpt lat="45.18085219676727" lon="9.313916727084461"><ele>70.0</ele><time>2026-04-02T12:39:53.001Z</time></trkpt><trkpt lat="45.18069324668324" lon="9.313868220887128"><ele>70.0</ele><time>2026-04-02T12:39:54.001Z</time></trkpt><trkpt lat="45.180534662471956" lon="9.313815281792204"><ele>70.33333333333333</ele><time>2026-04-02T12:39:55.001Z</time></trkpt><trkpt lat="45.180377556678174" lon="9.313767164247235"><ele>70.66666666666667</ele><time>2026-04-02T12:39:56.001Z</time></trkpt><trkpt lat="45.18022376900918" lon="9.313720747050551"><ele>71.0</ele><time>2026-04-02T12:39:57.001Z</time></trkpt><trkpt lat="45.180074654112715" lon="9.313671679196206"><ele>71.0</ele><time>2026-04-02T12:39:58.001Z</time></trkpt><trkpt lat="45.179927022465996" lon="9.31361992578267"><ele>71.0</ele><time>2026-04-02T12:39:59.001Z</time></trkpt><trkpt lat="45.17978137874255" lon="9.313568024376846"><ele>71.0</ele><time>2026-04-02T12:40:00.001Z</time></trkpt><trkpt lat="45.17963853460215" lon="9.313517108478456"><ele>71.66666666666667</ele><time>2026-04-02T12:40:01.001Z</time></trkpt><trkpt lat="45.17949368219999" lon="9.31346497070524"><ele>72.33333333333333</ele><time>2026-04-02T12:40:02.001Z</time></trkpt><trkpt lat="45.17934564498049" lon="9.313417453635594"><ele>73.0</ele><time>2026-04-02T12:40:03.001Z</time></trkpt><trkpt lat="45.179193959800095" lon="9.313373000791461"><ele>73.0</ele><time>2026-04-02T12:40:04.002Z</time></trkpt><trkpt lat="45.17904166895569" lon="9.313322620163413"><ele>73.0</ele><time>2026-04-02T12:40:05.002Z</time></trkpt><trkpt lat="45.17888461299452" lon="9.313274752910242"><ele>73.0</ele><time>2026-04-02T12:40:06.002Z</time></trkpt><trkpt lat="45.178719376284334" lon="9.313222663529508"><ele>73.0</ele><time>2026-04-02T12:40:07.002Z</time></trkpt><trkpt lat="45.178562381793064" lon="9.313175421748609"><ele>73.0</ele><time>2026-04-02T12:40:08.002Z</time></trkpt><trkpt lat="45.178424615039134" lon="9.31310770243304"><ele>73.0</ele><time>2026-04-02T12:40:09.002Z</time></trkpt><trkpt lat="45.17830081963701" lon="9.313092853945662"><ele>73.0</ele><time>2026-04-02T12:40:10.002Z</time></trkpt><trkpt lat="45.17819852702522" lon="9.313066660918931"><ele>73.0</ele><time>2026-04-02T12:40:11.002Z</time></trkpt><trkpt lat="45.178107105753256" lon="9.313065480174275"><ele>73.0</ele><time>2026-04-02T12:40:12.002Z</time></trkpt><trkpt lat="45.178029230591406" lon="9.313117775330381"><ele>73.0</ele><time>2026-04-02T12:40:13.002Z</time></trkpt><trkpt lat="45.17797416142145" lon="9.313231568211517"><ele>73.0</ele><time>2026-04-02T12:40:14.002Z</time></trkpt><trkpt lat="45.17793846632214" lon="9.31337925578741"><ele>73.0</ele><time>2026-04-02T12:40:15.002Z</time></trkpt><trkpt lat="45.177909399891135" lon="9.313563901087305"><ele>73.0</ele><time>2026-04-02T12:40:16.002Z</time></trkpt><trkpt lat="45.17788233541216" lon="9.313757957651116"><ele>73.0</ele><time>2026-04-02T12:40:17Z</time></trkpt><trkpt lat="45.17784746243234" lon="9.31392062318937"><ele>73.0</ele><time>2026-04-02T12:40:18Z</time></trkpt><trkpt lat="45.17781009736443" lon="9.314089533003667"><ele>73.0</ele><time>2026-04-02T12:40:19Z</time></trkpt><trkpt lat="45.17777896982314" lon="9.314238522512857"><ele>73.2</ele><time>2026-04-02T12:40:20Z</time></trkpt><trkpt lat="45.17774867414211" lon="9.314366456111095"><ele>73.4</ele><time>2026-04-02T12:40:21Z</time></trkpt><trkpt lat="45.177723376907394" lon="9.314460918465713"><ele>73.60000000000001</ele><time>2026-04-02T12:40:22Z</time></trkpt><trkpt lat="45.17766204510472" lon="9.314568994248168"><ele>73.8</ele><time>2026-04-02T12:40:24Z</time></trkpt><trkpt lat="45.17754875238496" lon="9.314524491911929"><ele>74.0</ele><time>2026-04-02T12:40:26Z</time></trkpt><trkpt lat="45.17743985860142" lon="9.314476275669135"><ele>74.0</ele><time>2026-04-02T12:40:27Z</time></trkpt><trkpt lat="45.177331045027636" lon="9.314402658875817"><ele>74.0</ele><time>2026-04-02T12:40:28Z</time></trkpt><trkpt lat="45.177210456623364" lon="9.314316365300026"><ele>74.0</ele><time>2026-04-02T12:40:29Z</time></trkpt><trkpt lat="45.17709256746018" lon="9.314250984536903"><ele>74.0</ele><time>2026-04-02T12:40:30Z</time></trkpt><trkpt lat="45.17697956232076" lon="9.314180594175514"><ele>74.0</ele><time>2026-04-02T12:40:31Z</time></trkpt><trkpt lat="45.17689346087898" lon="9.314137968477166"><ele>74.0</ele><time>2026-04-02T12:40:32Z</time></trkpt><trkpt lat="45.17682021811614" lon="9.314110463895872"><ele>74.0</ele><time>2026-04-02T12:40:33Z</time></trkpt><trkpt lat="45.17669010695465" lon="9.314173909406051"><ele>74.0</ele><time>2026-04-02T12:40:35Z</time></trkpt><trkpt lat="45.17665065087251" lon="9.314287281664809"><ele>74.0</ele><time>2026-04-02T12:40:36Z</time></trkpt><trkpt lat="45.17662230353278" lon="9.314415385223157"><ele>74.0</ele><time>2026-04-02T12:40:37Z</time></trkpt><trkpt lat="45.17659143775687" lon="9.314555091946092"><ele>74.0</ele><time>2026-04-02T12:40:38Z</time></trkpt><trkpt lat="45.176562024344534" lon="9.314702991670506"><ele>74.0</ele><time>2026-04-02T12:40:39Z</time></trkpt><trkpt lat="45.17652954969913" lon="9.314845902594822"><ele>74.0</ele><time>2026-04-02T12:40:40Z</time></trkpt><trkpt lat="45.17649930081692" lon="9.314987116838015"><ele>74.0</ele><time>2026-04-02T12:40:41Z</time></trkpt><trkpt lat="45.17647561384722" lon="9.315136301626808"><ele>74.0</ele><time>2026-04-02T12:40:42Z</time></trkpt><trkpt lat="45.17645085796578" lon="9.315288515815261"><ele>74.0</ele><time>2026-04-02T12:40:43Z</time></trkpt><trkpt lat="45.176424873382786" lon="9.315442492365275"><ele>74.0</ele><time>2026-04-02T12:40:44Z</time></trkpt><trkpt lat="45.176399684424396" lon="9.315597695383932"><ele>74.0</ele><time>2026-04-02T12:40:45Z</time></trkpt><trkpt lat="45.17637309777621" lon="9.315751267819676"><ele>74.0</ele><time>2026-04-02T12:40:46Z</time></trkpt><trkpt lat="45.17634863376021" lon="9.315905822222101"><ele>74.0</ele><time>2026-04-02T12:40:47Z</time></trkpt><trkpt lat="45.176328524236425" lon="9.316055884561887"><ele>74.0</ele><time>2026-04-02T12:40:48Z</time></trkpt><trkpt lat="45.17631590019788" lon="9.31621199270861"><ele>74.0</ele><time>2026-04-02T12:40:49Z</time></trkpt><trkpt lat="45.17629199368886" lon="9.316369719831957"><ele>74.0</ele><time>2026-04-02T12:40:50Z</time></trkpt><trkpt lat="45.17626961827224" lon="9.316509728928049"><ele>74.0</ele><time>2026-04-02T12:40:51Z</time></trkpt><trkpt lat="45.17625091628663" lon="9.316625978307743"><ele>74.0</ele><time>2026-04-02T12:40:52Z</time></trkpt><trkpt lat="45.17622321593499" lon="9.316716331708363"><ele>74.0</ele><time>2026-04-02T12:40:53Z</time></trkpt><trkpt lat="45.17615711427165" lon="9.316833061438501"><ele>74.0</ele><time>2026-04-02T12:40:55Z</time></trkpt><trkpt lat="45.17608243623291" lon="9.316868425230483"><ele>74.0</ele><time>2026-04-02T12:40:56Z</time></trkpt><trkpt lat="45.17598809782743" lon="9.316874139826691"><ele>74.0</ele><time>2026-04-02T12:40:57Z</time></trkpt><trkpt lat="45.17589640083058" lon="9.316875396453609"><ele>74.0</ele><time>2026-04-02T12:40:58Z</time></trkpt><trkpt lat="45.17580103024155" lon="9.316869371393938"><ele>73.75</ele><time>2026-04-02T12:40:59.001Z</time></trkpt><trkpt lat="45.175661199263935" lon="9.316857869951583"><ele>73.5</ele><time>2026-04-02T12:41:00.001Z</time></trkpt><trkpt lat="45.17554154129939" lon="9.31683756865051"><ele>73.25</ele><time>2026-04-02T12:41:01.001Z</time></trkpt><trkpt lat="45.17541397494539" lon="9.316817555034865"><ele>73.0</ele><time>2026-04-02T12:41:02.001Z</time></trkpt><trkpt lat="45.175290475430266" lon="9.31679385762179"><ele>73.0</ele><time>2026-04-02T12:41:03.001Z</time></trkpt><trkpt lat="45.17517132746253" lon="9.316773192708325"><ele>73.0</ele><time>2026-04-02T12:41:04.001Z</time></trkpt><trkpt lat="45.17505756294269" lon="9.316754598905653"><ele>73.0</ele><time>2026-04-02T12:41:05.001Z</time></trkpt><trkpt lat="45.174950977999195" lon="9.316732808848922"><ele>73.0</ele><time>2026-04-02T12:41:06.001Z</time></trkpt><trkpt lat="45.17485006297603" lon="9.316720502042521"><ele>73.0</ele><time>2026-04-02T12:41:07.001Z</time></trkpt><trkpt lat="45.174765838409485" lon="9.31670697853189"><ele>72.8</ele><time>2026-04-02T12:41:08.001Z</time></trkpt><trkpt lat="45.174700511691" lon="9.316696166921426"><ele>72.6</ele><time>2026-04-02T12:41:09.001Z</time></trkpt><trkpt lat="45.17463229208031" lon="9.316688505940377"><ele>72.4</ele><time>2026-04-02T12:41:11.001Z</time></trkpt><trkpt lat="45.17454595920285" lon="9.316871865761469"><ele>72.2</ele><time>2026-04-02T12:41:16.001Z</time></trkpt><trkpt lat="45.1745258254962" lon="9.317033777168954"><ele>72.0</ele><time>2026-04-02T12:41:17.001Z</time></trkpt><trkpt lat="45.17449069679237" lon="9.317214900171653"><ele>72.25</ele><time>2026-04-02T12:41:18.001Z</time></trkpt><trkpt lat="45.17445725038383" lon="9.317370940672125"><ele>72.5</ele><time>2026-04-02T12:41:19.001Z</time></trkpt><trkpt lat="45.17441777263815" lon="9.317566634150758"><ele>72.75</ele><time>2026-04-02T12:41:20.001Z</time></trkpt><trkpt lat="45.17439039886381" lon="9.317733056437145"><ele>73.0</ele><time>2026-04-02T12:41:21.001Z</time></trkpt><trkpt lat="45.1743656004369" lon="9.31786666810227"><ele>73.0</ele><time>2026-04-02T12:41:22.001Z</time></trkpt><trkpt lat="45.1743461276004" lon="9.31797158408354"><ele>73.0</ele><time>2026-04-02T12:41:23.001Z</time></trkpt><trkpt lat="45.17432622938654" lon="9.318077264107405"><ele>73.0</ele><time>2026-04-02T12:41:24.001Z</time></trkpt><trkpt lat="45.17430613367218" lon="9.318182183519221"><ele>73.0</ele><time>2026-04-02T12:41:25.001Z</time></trkpt><trkpt lat="45.17428722709313" lon="9.318280031383779"><ele>73.0</ele><time>2026-04-02T12:41:26.001Z</time></trkpt><trkpt lat="45.17425325693836" lon="9.31845939942603"><ele>73.0</ele><time>2026-04-02T12:41:28.001Z</time></trkpt><trkpt lat="45.174234861985276" lon="9.318560690496534"><ele>72.75</ele><time>2026-04-02T12:41:29.001Z</time></trkpt><trkpt lat="45.17420313610487" lon="9.318739312589287"><ele>72.5</ele><time>2026-04-02T12:41:31.001Z</time></trkpt><trkpt lat="45.174179655028375" lon="9.318865294881899"><ele>72.25</ele><time>2026-04-02T12:41:32.001Z</time></trkpt><trkpt lat="45.17415197775635" lon="9.319020647856282"><ele>72.0</ele><time>2026-04-02T12:41:33.001Z</time></trkpt><trkpt lat="45.17412040304601" lon="9.319178866198394"><ele>71.75</ele><time>2026-04-02T12:41:34.001Z</time></trkpt><trkpt lat="45.174090861578925" lon="9.319329781055028"><ele>71.5</ele><time>2026-04-02T12:41:35.001Z</time></trkpt><trkpt lat="45.17406176078129" lon="9.31947275585569"><ele>71.25</ele><time>2026-04-02T12:41:36.001Z</time></trkpt><trkpt lat="45.17403086544613" lon="9.31962612656777"><ele>71.0</ele><time>2026-04-02T12:41:37.001Z</time></trkpt><trkpt lat="45.17399844012557" lon="9.319793124659368"><ele>71.0</ele><time>2026-04-02T12:41:38.001Z</time></trkpt><trkpt lat="45.17396826701771" lon="9.319965957612014"><ele>71.0</ele><time>2026-04-02T12:41:39.001Z</time></trkpt><trkpt lat="45.17393785040951" lon="9.320134293859795"><ele>71.0</ele><time>2026-04-02T12:41:40.001Z</time></trkpt><trkpt lat="45.173906493092815" lon="9.320307808817459"><ele>71.0</ele><time>2026-04-02T12:41:41.001Z</time></trkpt><trkpt lat="45.17387548255488" lon="9.320482687649612"><ele>70.75</ele><time>2026-04-02T12:41:42.001Z</time></trkpt><trkpt lat="45.17384273956283" lon="9.320664931089171"><ele>70.5</ele><time>2026-04-02T12:41:43.001Z</time></trkpt><trkpt lat="45.1738090744682" lon="9.320846085450203"><ele>70.25</ele><time>2026-04-02T12:41:44.001Z</time></trkpt><trkpt lat="45.1737742923584" lon="9.321037152296995"><ele>70.0</ele><time>2026-04-02T12:41:45.001Z</time></trkpt><trkpt lat="45.17372677469148" lon="9.32123048403293"><ele>70.25</ele><time>2026-04-02T12:41:46.001Z</time></trkpt><trkpt lat="45.173687890147754" lon="9.321435899095079"><ele>70.5</ele><time>2026-04-02T12:41:47.001Z</time></trkpt><trkpt lat="45.17366467598866" lon="9.321643748305906"><ele>70.75</ele><time>2026-04-02T12:41:48.001Z</time></trkpt><trkpt lat="45.17362706839864" lon="9.32184661482663"><ele>71.0</ele><time>2026-04-02T12:41:49.001Z</time></trkpt><trkpt lat="45.173575163003406" lon="9.322053381469269"><ele>71.5</ele><time>2026-04-02T12:41:50.001Z</time></trkpt><trkpt lat="45.173553519383255" lon="9.322256790398718"><ele>72.0</ele><time>2026-04-02T12:41:51.001Z</time></trkpt><trkpt lat="45.17352343565514" lon="9.322434565399927"><ele>72.5</ele><time>2026-04-02T12:41:52.001Z</time></trkpt><trkpt lat="45.173474289913415" lon="9.322610956055541"><ele>73.0</ele><time>2026-04-02T12:41:53.001Z</time></trkpt><trkpt lat="45.17343525548182" lon="9.322793247706016"><ele>73.0</ele><time>2026-04-02T12:41:54.001Z</time></trkpt><trkpt lat="45.173391821537706" lon="9.322965191734001"><ele>73.0</ele><time>2026-04-02T12:41:55.001Z</time></trkpt><trkpt lat="45.17334127197573" lon="9.323133574920746"><ele>73.0</ele><time>2026-04-02T12:41:56.001Z</time></trkpt><trkpt lat="45.17328174986201" lon="9.32331837405293"><ele>73.0</ele><time>2026-04-02T12:41:57.001Z</time></trkpt><trkpt lat="45.17323395790236" lon="9.323518441663314"><ele>72.5</ele><time>2026-04-02T12:41:58.001Z</time></trkpt><trkpt lat="45.17317323861974" lon="9.323713141733487"><ele>72.0</ele><time>2026-04-02T12:41:59.001Z</time></trkpt><trkpt lat="45.173110784701905" lon="9.323906512575292"><ele>71.5</ele><time>2026-04-02T12:42:00.001Z</time></trkpt><trkpt lat="45.17305336924408" lon="9.324084311222219"><ele>71.0</ele><time>2026-04-02T12:42:01.001Z</time></trkpt><trkpt lat="45.17300199702109" lon="9.324248670476504"><ele>71.0</ele><time>2026-04-02T12:42:02.001Z</time></trkpt><trkpt lat="45.1729513639399" lon="9.32441769580042"><ele>71.0</ele><time>2026-04-02T12:42:03.001Z</time></trkpt><trkpt lat="45.17289567161" lon="9.324590505816143"><ele>71.0</ele><time>2026-04-02T12:42:04.001Z</time></trkpt><trkpt lat="45.172844907733236" lon="9.324756851335604"><ele>71.0</ele><time>2026-04-02T12:42:05.001Z</time></trkpt><trkpt lat="45.17279193048158" lon="9.32491754061968"><ele>71.0</ele><time>2026-04-02T12:42:06.001Z</time></trkpt><trkpt lat="45.172742023994225" lon="9.325089895125366"><ele>71.0</ele><time>2026-04-02T12:42:07.001Z</time></trkpt><trkpt lat="45.17268812269812" lon="9.325258527796999"><ele>71.0</ele><time>2026-04-02T12:42:08.001Z</time></trkpt><trkpt lat="45.17263594838394" lon="9.325437030655399"><ele>71.0</ele><time>2026-04-02T12:42:09.001Z</time></trkpt><trkpt lat="45.17258873060696" lon="9.325626681319575"><ele>71.0</ele><time>2026-04-02T12:42:10.001Z</time></trkpt><trkpt lat="45.172541874348916" lon="9.32582444270901"><ele>71.0</ele><time>2026-04-02T12:42:11.002Z</time></trkpt><trkpt lat="45.17249305355272" lon="9.326022478016858"><ele>71.0</ele><time>2026-04-02T12:42:12.002Z</time></trkpt><trkpt lat="45.17244641698319" lon="9.326215492342966"><ele>71.0</ele><time>2026-04-02T12:42:13.002Z</time></trkpt><trkpt lat="45.17240231305707" lon="9.326398076290662"><ele>71.0</ele><time>2026-04-02T12:42:14.002Z</time></trkpt><trkpt lat="45.172357940084034" lon="9.32657544189963"><ele>71.0</ele><time>2026-04-02T12:42:15.002Z</time></trkpt><trkpt lat="45.17231647955196" lon="9.326750758018266"><ele>71.0</ele><time>2026-04-02T12:42:16.002Z</time></trkpt><trkpt lat="45.17228063065042" lon="9.32692433145569"><ele>71.0</ele><time>2026-04-02T12:42:17.002Z</time></trkpt><trkpt lat="45.1722371463294" lon="9.327094776507723"><ele>70.75</ele><time>2026-04-02T12:42:18.002Z</time></trkpt><trkpt lat="45.17219185853608" lon="9.32726852227946"><ele>70.5</ele><time>2026-04-02T12:42:19.002Z</time></trkpt><trkpt lat="45.172149378703224" lon="9.32744116518385"><ele>70.25</ele><time>2026-04-02T12:42:20.002Z</time></trkpt><trkpt lat="45.17210219394734" lon="9.327623737719268"><ele>70.0</ele><time>2026-04-02T12:42:21.002Z</time></trkpt><trkpt lat="45.172062730011994" lon="9.327793436379443"><ele>70.0</ele><time>2026-04-02T12:42:22.002Z</time></trkpt><trkpt lat="45.17201886001132" lon="9.327964023652747"><ele>70.0</ele><time>2026-04-02T12:42:23Z</time></trkpt><trkpt lat="45.171979745381115" lon="9.328130425940595"><ele>70.0</ele><time>2026-04-02T12:42:24Z</time></trkpt><trkpt lat="45.17193628356176" lon="9.328299404320202"><ele>70.0</ele><time>2026-04-02T12:42:25Z</time></trkpt><trkpt lat="45.17187276453736" lon="9.328443994585458"><ele>70.0</ele><time>2026-04-02T12:42:26Z</time></trkpt><trkpt lat="45.171814384300525" lon="9.328595609361631"><ele>70.0</ele><time>2026-04-02T12:42:27Z</time></trkpt><trkpt lat="45.1717430889182" lon="9.32874063579525"><ele>70.0</ele><time>2026-04-02T12:42:28Z</time></trkpt><trkpt lat="45.171655231441505" lon="9.328887379216516"><ele>70.0</ele><time>2026-04-02T12:42:29Z</time></trkpt><trkpt lat="45.17156478693051" lon="9.329040596998432"><ele>70.0</ele><time>2026-04-02T12:42:30Z</time></trkpt><trkpt lat="45.171483708399236" lon="9.32920317117458"><ele>70.0</ele><time>2026-04-02T12:42:31Z</time></trkpt><trkpt lat="45.17140103177184" lon="9.329351918232705"><ele>70.0</ele><time>2026-04-02T12:42:32Z</time></trkpt><trkpt lat="45.17131394778332" lon="9.329500397601985"><ele>70.0</ele><time>2026-04-02T12:42:33Z</time></trkpt><trkpt lat="45.17122441024906" lon="9.329651766358209"><ele>70.0</ele><time>2026-04-02T12:42:34Z</time></trkpt><trkpt lat="45.171135716738796" lon="9.329805612039765"><ele>70.0</ele><time>2026-04-02T12:42:35Z</time></trkpt><trkpt lat="45.17103260486292" lon="9.329946201351612"><ele>70.0</ele><time>2026-04-02T12:42:36Z</time></trkpt><trkpt lat="45.17095508280622" lon="9.330112907378297"><ele>70.0</ele><time>2026-04-02T12:42:37Z</time></trkpt><trkpt lat="45.170872875476654" lon="9.330249965239059"><ele>70.0</ele><time>2026-04-02T12:42:38Z</time></trkpt><trkpt lat="45.17079085315903" lon="9.33039126234695"><ele>70.0</ele><time>2026-04-02T12:42:39Z</time></trkpt><trkpt lat="45.17070648544064" lon="9.330537025223974"><ele>70.0</ele><time>2026-04-02T12:42:40Z</time></trkpt><trkpt lat="45.1706192195236" lon="9.33068497606182"><ele>70.0</ele><time>2026-04-02T12:42:41Z</time></trkpt><trkpt lat="45.17052912784917" lon="9.330832412618356"><ele>69.75</ele><time>2026-04-02T12:42:42Z</time></trkpt><trkpt lat="45.17044207656257" lon="9.330979819464101"><ele>69.5</ele><time>2026-04-02T12:42:43Z</time></trkpt><trkpt lat="45.170360817259734" lon="9.331132373773517"><ele>69.25</ele><time>2026-04-02T12:42:44Z</time></trkpt><trkpt lat="45.17028539988821" lon="9.331258133136469"><ele>69.0</ele><time>2026-04-02T12:42:45Z</time></trkpt><trkpt lat="45.17021935193558" lon="9.33137173850359"><ele>69.0</ele><time>2026-04-02T12:42:46Z</time></trkpt><trkpt lat="45.17015941381566" lon="9.331479008575842"><ele>69.0</ele><time>2026-04-02T12:42:47Z</time></trkpt><trkpt lat="45.17010985016775" lon="9.33156567410915"><ele>69.0</ele><time>2026-04-02T12:42:48Z</time></trkpt><trkpt lat="45.17006339143067" lon="9.331649762112878"><ele>69.0</ele><time>2026-04-02T12:42:49Z</time></trkpt><trkpt lat="45.17000976475473" lon="9.331715965344525"><ele>69.0</ele><time>2026-04-02T12:42:50Z</time></trkpt><trkpt lat="45.16996705688656" lon="9.33179137310971"><ele>69.0</ele><time>2026-04-02T12:42:51Z</time></trkpt><trkpt lat="45.16992433937024" lon="9.33186679719585"><ele>69.0</ele><time>2026-04-02T12:42:52Z</time></trkpt><trkpt lat="45.16988174125993" lon="9.331942010811066"><ele>69.0</ele><time>2026-04-02T12:42:53Z</time></trkpt><trkpt lat="45.169842170481374" lon="9.33201187931005"><ele>69.0</ele><time>2026-04-02T12:42:54Z</time></trkpt><trkpt lat="45.16976813903337" lon="9.332140425382436"><ele>69.0</ele><time>2026-04-02T12:42:56Z</time></trkpt><trkpt lat="45.16969859003209" lon="9.332261102572499"><ele>69.0</ele><time>2026-04-02T12:42:58Z</time></trkpt><trkpt lat="45.169644661709555" lon="9.332378320914701"><ele>69.5</ele><time>2026-04-02T12:43:00Z</time></trkpt><trkpt lat="45.16959170020285" lon="9.332473525521612"><ele>70.0</ele><time>2026-04-02T12:43:02Z</time></trkpt><trkpt lat="45.16954159667314" lon="9.332553989510266"><ele>70.5</ele><time>2026-04-02T12:43:04Z</time></trkpt><trkpt lat="45.169455221090686" lon="9.33250518937665"><ele>71.0</ele><time>2026-04-02T12:43:07Z</time></trkpt><trkpt lat="45.169417419822786" lon="9.33241428261872"><ele>71.5</ele><time>2026-04-02T12:43:09Z</time></trkpt><trkpt lat="45.169377778327195" lon="9.33234013590249"><ele>72.0</ele><time>2026-04-02T12:43:11.001Z</time></trkpt><trkpt lat="45.16932926889966" lon="9.33223721046421"><ele>71.6</ele><time>2026-04-02T12:43:14.001Z</time></trkpt><trkpt lat="45.16928521481808" lon="9.332145733268813"><ele>71.2</ele><time>2026-04-02T12:43:16.001Z</time></trkpt><trkpt lat="45.169228013738895" lon="9.332039851625458"><ele>70.8</ele><time>2026-04-02T12:43:17.001Z</time></trkpt><trkpt lat="45.169158363932624" lon="9.331902516484961"><ele>70.4</ele><time>2026-04-02T12:43:18.001Z</time></trkpt><trkpt lat="45.16907327564704" lon="9.331740696991051"><ele>70.0</ele><time>2026-04-02T12:43:19.001Z</time></trkpt><trkpt lat="45.16899466309156" lon="9.331589446649136"><ele>70.0</ele><time>2026-04-02T12:43:20.001Z</time></trkpt><trkpt lat="45.16891877426061" lon="9.331445744723275"><ele>70.0</ele><time>2026-04-02T12:43:21.001Z</time></trkpt><trkpt lat="45.16884018308782" lon="9.331301407908139"><ele>70.0</ele><time>2026-04-02T12:43:22.001Z</time></trkpt><trkpt lat="45.16876289605428" lon="9.331155904684243"><ele>70.0</ele><time>2026-04-02T12:43:23.001Z</time></trkpt><trkpt lat="45.168690410312855" lon="9.331016118536668"><ele>70.0</ele><time>2026-04-02T12:43:24.001Z</time></trkpt><trkpt lat="45.168619852293524" lon="9.330881990210312"><ele>70.0</ele><time>2026-04-02T12:43:25.001Z</time></trkpt><trkpt lat="45.16855672033565" lon="9.330766075835486"><ele>70.0</ele><time>2026-04-02T12:43:26.001Z</time></trkpt><trkpt lat="45.168488486167305" lon="9.330642986180893"><ele>70.0</ele><time>2026-04-02T12:43:27.001Z</time></trkpt><trkpt lat="45.16843602064377" lon="9.330544975256844"><ele>70.0</ele><time>2026-04-02T12:43:28.001Z</time></trkpt><trkpt lat="45.168383548582966" lon="9.330446429265475"><ele>70.0</ele><time>2026-04-02T12:43:29.001Z</time></trkpt><trkpt lat="45.168330882434844" lon="9.330338853597222"><ele>70.0</ele><time>2026-04-02T12:43:30.001Z</time></trkpt><trkpt lat="45.168265869702246" lon="9.33022756271302"><ele>70.0</ele><time>2026-04-02T12:43:31.001Z</time></trkpt><trkpt lat="45.1682088243847" lon="9.33012293230752"><ele>70.0</ele><time>2026-04-02T12:43:32.001Z</time></trkpt><trkpt lat="45.16815134536998" lon="9.330018578971286"><ele>70.0</ele><time>2026-04-02T12:43:33.001Z</time></trkpt><trkpt lat="45.16810048489548" lon="9.32992673671049"><ele>70.0</ele><time>2026-04-02T12:43:34.001Z</time></trkpt><trkpt lat="45.16804563489302" lon="9.329828782540803"><ele>70.0</ele><time>2026-04-02T12:43:35.001Z</time></trkpt><trkpt lat="45.167993467661084" lon="9.329718036366787"><ele>70.0</ele><time>2026-04-02T12:43:36.001Z</time></trkpt><trkpt lat="45.16794380192533" lon="9.329610453286115"><ele>70.0</ele><time>2026-04-02T12:43:37.001Z</time></trkpt><trkpt lat="45.16788894958787" lon="9.329506413106838"><ele>70.0</ele><time>2026-04-02T12:43:38.001Z</time></trkpt><trkpt lat="45.16783280929392" lon="9.329401284972885"><ele>70.0</ele><time>2026-04-02T12:43:39.001Z</time></trkpt><trkpt lat="45.16777921245891" lon="9.329306617904006"><ele>70.0</ele><time>2026-04-02T12:43:40.001Z</time></trkpt><trkpt lat="45.167728712093265" lon="9.329207639186262"><ele>70.0</ele><time>2026-04-02T12:43:41.001Z</time></trkpt><trkpt lat="45.167679400530346" lon="9.329113669907482"><ele>70.0</ele><time>2026-04-02T12:43:42.001Z</time></trkpt><trkpt lat="45.16763199448398" lon="9.329021307906666"><ele>70.0</ele><time>2026-04-02T12:43:43.001Z</time></trkpt><trkpt lat="45.1675810964994" lon="9.32893040511251"><ele>70.0</ele><time>2026-04-02T12:43:44.001Z</time></trkpt><trkpt lat="45.16753544974152" lon="9.32884071503039"><ele>70.0</ele><time>2026-04-02T12:43:45.001Z</time></trkpt><trkpt lat="45.1674937469338" lon="9.328759095187827"><ele>70.0</ele><time>2026-04-02T12:43:46.001Z</time></trkpt><trkpt lat="45.16746823420307" lon="9.328589503808862"><ele>70.0</ele><time>2026-04-02T12:43:48.001Z</time></trkpt><trkpt lat="45.16739433633288" lon="9.328424357007432"><ele>70.0</ele><time>2026-04-02T12:43:50.001Z</time></trkpt><trkpt lat="45.16733545126491" lon="9.32832450505786"><ele>70.0</ele><time>2026-04-02T12:43:51.001Z</time></trkpt><trkpt lat="45.16726416153287" lon="9.328207790634663"><ele>69.0</ele><time>2026-04-02T12:43:52.001Z</time></trkpt><trkpt lat="45.167190880974836" lon="9.328052054025422"><ele>68.0</ele><time>2026-04-02T12:43:53.001Z</time></trkpt><trkpt lat="45.16709715514364" lon="9.32787515340891"><ele>67.0</ele><time>2026-04-02T12:43:54.001Z</time></trkpt><trkpt lat="45.16697693053126" lon="9.327675285501382"><ele>67.0</ele><time>2026-04-02T12:43:55.001Z</time></trkpt><trkpt lat="45.166865740743525" lon="9.32747329541526"><ele>67.0</ele><time>2026-04-02T12:43:56.001Z</time></trkpt><trkpt lat="45.16677317126707" lon="9.327291273166695"><ele>67.0</ele><time>2026-04-02T12:43:57.001Z</time></trkpt><trkpt lat="45.166672475526454" lon="9.327098898884074"><ele>67.33333333333333</ele><time>2026-04-02T12:43:58.001Z</time></trkpt><trkpt lat="45.16658007994431" lon="9.326887426268623"><ele>67.66666666666667</ele><time>2026-04-02T12:43:59.001Z</time></trkpt><trkpt lat="45.1664819225715" lon="9.3266964297367"><ele>68.0</ele><time>2026-04-02T12:44:00.001Z</time></trkpt><trkpt lat="45.166387389438945" lon="9.32651210045794"><ele>69.33333333333334</ele><time>2026-04-02T12:44:01.001Z</time></trkpt><trkpt lat="45.16630186568291" lon="9.326345338411292"><ele>70.66666666666667</ele><time>2026-04-02T12:44:02.001Z</time></trkpt><trkpt lat="45.16620266018435" lon="9.326151898710112"><ele>72.0</ele><time>2026-04-02T12:44:03.001Z</time></trkpt><trkpt lat="45.16611029834226" lon="9.325972338364744"><ele>72.0</ele><time>2026-04-02T12:44:04.001Z</time></trkpt><trkpt lat="45.166027462760304" lon="9.32581133769754"><ele>72.0</ele><time>2026-04-02T12:44:05.001Z</time></trkpt><trkpt lat="45.16595416610631" lon="9.325669461004068"><ele>72.0</ele><time>2026-04-02T12:44:06.001Z</time></trkpt><trkpt lat="45.16588717900786" lon="9.325540725091535"><ele>72.0</ele><time>2026-04-02T12:44:07.001Z</time></trkpt><trkpt lat="45.16581307021868" lon="9.325428955653724"><ele>72.0</ele><time>2026-04-02T12:44:08.001Z</time></trkpt><trkpt lat="45.165765621867756" lon="9.325307115674786"><ele>72.0</ele><time>2026-04-02T12:44:09.001Z</time></trkpt><trkpt lat="45.16570912302907" lon="9.325198535980519"><ele>72.0</ele><time>2026-04-02T12:44:10.001Z</time></trkpt><trkpt lat="45.165649425178536" lon="9.325083808356569"><ele>72.0</ele><time>2026-04-02T12:44:11.001Z</time></trkpt><trkpt lat="45.16557431850034" lon="9.32497896612874"><ele>72.0</ele><time>2026-04-02T12:44:12.001Z</time></trkpt><trkpt lat="45.16552884552512" lon="9.324853965356203"><ele>72.0</ele><time>2026-04-02T12:44:13.001Z</time></trkpt><trkpt lat="45.165483176221784" lon="9.324767413012408"><ele>72.0</ele><time>2026-04-02T12:44:14.001Z</time></trkpt><trkpt lat="45.165407298923455" lon="9.324623610744391"><ele>72.0</ele><time>2026-04-02T12:44:16.001Z</time></trkpt><trkpt lat="45.16535950178357" lon="9.324533025769751"><ele>72.0</ele><time>2026-04-02T12:44:17.001Z</time></trkpt><trkpt lat="45.1653000793383" lon="9.324446369511982"><ele>72.0</ele><time>2026-04-02T12:44:18.001Z</time></trkpt><trkpt lat="45.16525537509241" lon="9.324335685243431"><ele>72.4</ele><time>2026-04-02T12:44:19.001Z</time></trkpt><trkpt lat="45.165197761853804" lon="9.324226497285595"><ele>72.80000000000001</ele><time>2026-04-02T12:44:20.001Z</time></trkpt><trkpt lat="45.16512529159436" lon="9.324127610693989"><ele>73.2</ele><time>2026-04-02T12:44:21.001Z</time></trkpt><trkpt lat="45.165062592654195" lon="9.32400495396527"><ele>73.60000000000001</ele><time>2026-04-02T12:44:22.001Z</time></trkpt><trkpt lat="45.164993466587404" lon="9.323883073552075"><ele>74.0</ele><time>2026-04-02T12:44:23.001Z</time></trkpt><trkpt lat="45.16492715408258" lon="9.323765519264178"><ele>73.4</ele><time>2026-04-02T12:44:24.002Z</time></trkpt><trkpt lat="45.164860705085005" lon="9.32364675538358"><ele>72.80000000000001</ele><time>2026-04-02T12:44:25.002Z</time></trkpt><trkpt lat="45.16479091335958" lon="9.323530670853128"><ele>72.19999999999999</ele><time>2026-04-02T12:44:26.002Z</time></trkpt><trkpt lat="45.164737890638456" lon="9.323410845527272"><ele>71.6</ele><time>2026-04-02T12:44:27.002Z</time></trkpt><trkpt lat="45.16467855202158" lon="9.323309929739667"><ele>71.0</ele><time>2026-04-02T12:44:28.002Z</time></trkpt><trkpt lat="45.16461331878869" lon="9.32322868335135"><ele>71.0</ele><time>2026-04-02T12:44:29Z</time></trkpt><trkpt lat="45.16456624784939" lon="9.323124964347386"><ele>71.0</ele><time>2026-04-02T12:44:30Z</time></trkpt><trkpt lat="45.16451019316699" lon="9.323022168547627"><ele>71.0</ele><time>2026-04-02T12:44:31Z</time></trkpt><trkpt lat="45.16444726316531" lon="9.322909164983644"><ele>71.0</ele><time>2026-04-02T12:44:32Z</time></trkpt><trkpt lat="45.164385451469016" lon="9.322792886982883"><ele>71.0</ele><time>2026-04-02T12:44:33Z</time></trkpt><trkpt lat="45.16432725940597" lon="9.322671538558206"><ele>71.16666666666667</ele><time>2026-04-02T12:44:34Z</time></trkpt><trkpt lat="45.164288270011824" lon="9.322552040416324"><ele>71.33333333333334</ele><time>2026-04-02T12:44:35Z</time></trkpt><trkpt lat="45.16426110272464" lon="9.322439108230661"><ele>71.5</ele><time>2026-04-02T12:44:36Z</time></trkpt><trkpt lat="45.16425918752487" lon="9.322338083494571"><ele>71.66666666666667</ele><time>2026-04-02T12:44:37Z</time></trkpt><trkpt lat="45.16422877971138" lon="9.322242298019628"><ele>71.83333333333333</ele><time>2026-04-02T12:44:38Z</time></trkpt><trkpt lat="45.16421131100895" lon="9.322073649523077"><ele>72.0</ele><time>2026-04-02T12:44:40Z</time></trkpt><trkpt lat="45.16417683479267" lon="9.321932890989297"><ele>71.6</ele><time>2026-04-02T12:44:42Z</time></trkpt><trkpt lat="45.16414562561438" lon="9.32180608807652"><ele>71.2</ele><time>2026-04-02T12:44:44Z</time></trkpt><trkpt lat="45.1640792974855" lon="9.32172201194761"><ele>70.8</ele><time>2026-04-02T12:44:47Z</time></trkpt><trkpt lat="45.163976493973976" lon="9.32161230768142"><ele>70.4</ele><time>2026-04-02T12:44:49Z</time></trkpt><trkpt lat="45.1639033256973" lon="9.321566550999206"><ele>70.0</ele><time>2026-04-02T12:44:50Z</time></trkpt><trkpt lat="45.163847834918684" lon="9.321520922590446"><ele>70.0</ele><time>2026-04-02T12:44:51Z</time></trkpt><trkpt lat="45.16377487049398" lon="9.321472427323586"><ele>70.0</ele><time>2026-04-02T12:44:52Z</time></trkpt><trkpt lat="45.16370556348567" lon="9.321384172394625"><ele>70.0</ele><time>2026-04-02T12:44:53Z</time></trkpt><trkpt lat="45.16360975656473" lon="9.321320502513297"><ele>70.0</ele><time>2026-04-02T12:44:54Z</time></trkpt><trkpt lat="45.163567680963006" lon="9.321218290486451"><ele>70.0</ele><time>2026-04-02T12:44:55Z</time></trkpt><trkpt lat="45.16351963928935" lon="9.321123610190895"><ele>70.0</ele><time>2026-04-02T12:44:56Z</time></trkpt><trkpt lat="45.163468585803855" lon="9.321020746558293"><ele>70.4</ele><time>2026-04-02T12:44:57Z</time></trkpt><trkpt lat="45.16341212878784" lon="9.320912159665411"><ele>70.8</ele><time>2026-04-02T12:44:58Z</time></trkpt><trkpt lat="45.163350340277105" lon="9.320800185039358"><ele>71.2</ele><time>2026-04-02T12:44:59Z</time></trkpt><trkpt lat="45.16327580350117" lon="9.32069926090241"><ele>71.6</ele><time>2026-04-02T12:45:00Z</time></trkpt><trkpt lat="45.1632210289109" lon="9.320582881291523"><ele>72.0</ele><time>2026-04-02T12:45:01Z</time></trkpt><trkpt lat="45.163162417966696" lon="9.320473269759505"><ele>72.0</ele><time>2026-04-02T12:45:02Z</time></trkpt><trkpt lat="45.16310897087856" lon="9.32036450712917"><ele>72.0</ele><time>2026-04-02T12:45:03Z</time></trkpt><trkpt lat="45.16305170688695" lon="9.32025581617705"><ele>72.0</ele><time>2026-04-02T12:45:04Z</time></trkpt><trkpt lat="45.16299429918918" lon="9.320146477753806"><ele>72.0</ele><time>2026-04-02T12:45:05Z</time></trkpt><trkpt lat="45.16293753627359" lon="9.320037559936711"><ele>72.0</ele><time>2026-04-02T12:45:06Z</time></trkpt><trkpt lat="45.162880194675196" lon="9.319930649555614"><ele>72.0</ele><time>2026-04-02T12:45:07Z</time></trkpt><trkpt lat="45.16282310525683" lon="9.319821180941327"><ele>72.0</ele><time>2026-04-02T12:45:08Z</time></trkpt><trkpt lat="45.162766028978055" lon="9.319712076051555"><ele>72.0</ele><time>2026-04-02T12:45:09Z</time></trkpt><trkpt lat="45.162709459257236" lon="9.319608418342073"><ele>72.0</ele><time>2026-04-02T12:45:10Z</time></trkpt><trkpt lat="45.16258954163456" lon="9.319403129712512"><ele>72.0</ele><time>2026-04-02T12:45:12Z</time></trkpt><trkpt lat="45.16254363163923" lon="9.319283165817286"><ele>72.0</ele><time>2026-04-02T12:45:13Z</time></trkpt><trkpt lat="45.1624789723651" lon="9.319184565418702"><ele>72.0</ele><time>2026-04-02T12:45:14Z</time></trkpt><trkpt lat="45.162427054392275" lon="9.319088713257042"><ele>72.0</ele><time>2026-04-02T12:45:15Z</time></trkpt><trkpt lat="45.16237690525552" lon="9.318996843257656"><ele>72.0</ele><time>2026-04-02T12:45:16Z</time></trkpt><trkpt lat="45.16232848711832" lon="9.318908188206962"><ele>72.0</ele><time>2026-04-02T12:45:17Z</time></trkpt><trkpt lat="45.162275856837304" lon="9.318811236633847"><ele>72.4</ele><time>2026-04-02T12:45:18Z</time></trkpt><trkpt lat="45.16222249422125" lon="9.318709855362469"><ele>72.80000000000001</ele><time>2026-04-02T12:45:19Z</time></trkpt><trkpt lat="45.16216698543996" lon="9.318608163826834"><ele>73.2</ele><time>2026-04-02T12:45:20.001Z</time></trkpt><trkpt lat="45.16211499086241" lon="9.318503984367316"><ele>73.60000000000001</ele><time>2026-04-02T12:45:21.001Z</time></trkpt><trkpt lat="45.162062417886595" lon="9.318400689161459"><ele>74.0</ele><time>2026-04-02T12:45:22.001Z</time></trkpt><trkpt lat="45.162009815001156" lon="9.318295715416046"><ele>74.0</ele><time>2026-04-02T12:45:23.001Z</time></trkpt><trkpt lat="45.16195508515693" lon="9.318194225537018"><ele>74.0</ele><time>2026-04-02T12:45:24.001Z</time></trkpt><trkpt lat="45.1619012403979" lon="9.318095154390564"><ele>74.0</ele><time>2026-04-02T12:45:25.001Z</time></trkpt><trkpt lat="45.16185292478553" lon="9.317991134454546"><ele>74.0</ele><time>2026-04-02T12:45:26.001Z</time></trkpt><trkpt lat="45.161802701626314" lon="9.317905057974881"><ele>74.0</ele><time>2026-04-02T12:45:27.001Z</time></trkpt><trkpt lat="45.16176961717156" lon="9.317800602018298"><ele>74.0</ele><time>2026-04-02T12:45:28.001Z</time></trkpt><trkpt lat="45.16170481551102" lon="9.317712827178987"><ele>74.16666666666667</ele><time>2026-04-02T12:45:29.001Z</time></trkpt><trkpt lat="45.16165846336951" lon="9.317618383232242"><ele>74.33333333333334</ele><time>2026-04-02T12:45:30.001Z</time></trkpt><trkpt lat="45.16160944280472" lon="9.317527500221853"><ele>74.5</ele><time>2026-04-02T12:45:31.001Z</time></trkpt><trkpt lat="45.16157037832515" lon="9.317431044701559"><ele>74.66666666666667</ele><time>2026-04-02T12:45:32.001Z</time></trkpt><trkpt lat="45.161524213709406" lon="9.317335761803143"><ele>74.83333333333333</ele><time>2026-04-02T12:45:33.001Z</time></trkpt><trkpt lat="45.16146931975467" lon="9.317235947528216"><ele>75.0</ele><time>2026-04-02T12:45:34.001Z</time></trkpt><trkpt lat="45.16140912095001" lon="9.317129216592047"><ele>74.6</ele><time>2026-04-02T12:45:35.001Z</time></trkpt><trkpt lat="45.16133431868803" lon="9.317009940458513"><ele>74.2</ele><time>2026-04-02T12:45:36.001Z</time></trkpt><trkpt lat="45.161262801177195" lon="9.31687374860988"><ele>73.8</ele><time>2026-04-02T12:45:37.001Z</time></trkpt><trkpt lat="45.16119112905928" lon="9.316748540349664"><ele>73.4</ele><time>2026-04-02T12:45:38.001Z</time></trkpt><trkpt lat="45.16112762790913" lon="9.316635554343737"><ele>73.0</ele><time>2026-04-02T12:45:39.001Z</time></trkpt><trkpt lat="45.16106427451494" lon="9.316546822464037"><ele>73.0</ele><time>2026-04-02T12:45:40.001Z</time></trkpt><trkpt lat="45.16102333998174" lon="9.316454902628342"><ele>73.0</ele><time>2026-04-02T12:45:41.001Z</time></trkpt><trkpt lat="45.16099535665637" lon="9.316365933754671"><ele>73.0</ele><time>2026-04-02T12:45:42.001Z</time></trkpt><trkpt lat="45.16097396052574" lon="9.316277943727245"><ele>73.0</ele><time>2026-04-02T12:45:43.001Z</time></trkpt><trkpt lat="45.16097262739673" lon="9.316177300069898"><ele>73.0</ele><time>2026-04-02T12:45:44.001Z</time></trkpt><trkpt lat="45.160989289998426" lon="9.316066592591827"><ele>73.0</ele><time>2026-04-02T12:45:45.001Z</time></trkpt><trkpt lat="45.16100795677749" lon="9.315954495965737"><ele>73.0</ele><time>2026-04-02T12:45:46.001Z</time></trkpt><trkpt lat="45.16103515248894" lon="9.31584905086593"><ele>73.28571428571428</ele><time>2026-04-02T12:45:47.001Z</time></trkpt><trkpt lat="45.161060828020695" lon="9.315734753066415"><ele>73.57142857142857</ele><time>2026-04-02T12:45:48.001Z</time></trkpt><trkpt lat="45.16108889251864" lon="9.31563493456922"><ele>73.85714285714286</ele><time>2026-04-02T12:45:49.001Z</time></trkpt><trkpt lat="45.16111414034359" lon="9.31554849233057"><ele>74.14285714285714</ele><time>2026-04-02T12:45:50.001Z</time></trkpt><trkpt lat="45.16113871495649" lon="9.315463660425243"><ele>74.42857142857143</ele><time>2026-04-02T12:45:51.001Z</time></trkpt><trkpt lat="45.161153589600275" lon="9.315373636278315"><ele>74.71428571428571</ele><time>2026-04-02T12:45:52.001Z</time></trkpt><trkpt lat="45.16116470382542" lon="9.315280070391848"><ele>75.0</ele><time>2026-04-02T12:45:53.001Z</time></trkpt><trkpt lat="45.1611794432685" lon="9.31518823597183"><ele>75.16666666666667</ele><time>2026-04-02T12:45:54.001Z</time></trkpt><trkpt lat="45.16119470189593" lon="9.315095102589012"><ele>75.33333333333333</ele><time>2026-04-02T12:45:55.001Z</time></trkpt><trkpt lat="45.16121190266337" lon="9.314945381601976"><ele>75.5</ele><time>2026-04-02T12:45:57.001Z</time></trkpt><trkpt lat="45.16122457547146" lon="9.31480702893637"><ele>75.66666666666666</ele><time>2026-04-02T12:45:59.001Z</time></trkpt><trkpt lat="45.16124184869277" lon="9.31469944548393"><ele>75.83333333333333</ele><time>2026-04-02T12:46:01.001Z</time></trkpt><trkpt lat="45.16125004772941" lon="9.314599286230692"><ele>76.0</ele><time>2026-04-02T12:46:04.001Z</time></trkpt><trkpt lat="45.161254488143406" lon="9.314508941012697"><ele>76.0</ele><time>2026-04-02T12:46:07.001Z</time></trkpt><trkpt lat="45.1612494157726" lon="9.314418271678568"><ele>76.0</ele><time>2026-04-02T12:46:10.001Z</time></trkpt><trkpt lat="45.16122435979541" lon="9.31432209153496"><ele>76.0</ele><time>2026-04-02T12:46:20.001Z</time></trkpt><trkpt lat="45.161093003314384" lon="9.314271920231771"><ele>76.0</ele><time>2026-04-02T12:46:22.001Z</time></trkpt><trkpt lat="45.16099311065738" lon="9.314268005813629"><ele>76.0</ele><time>2026-04-02T12:46:23.001Z</time></trkpt><trkpt lat="45.160864673758816" lon="9.314259584110813"><ele>76.0</ele><time>2026-04-02T12:46:24.001Z</time></trkpt><trkpt lat="45.16073478097258" lon="9.314241971745437"><ele>76.0</ele><time>2026-04-02T12:46:25.001Z</time></trkpt><trkpt lat="45.160628477490995" lon="9.314229193807062"><ele>76.0</ele><time>2026-04-02T12:46:26.001Z</time></trkpt><trkpt lat="45.16053781961584" lon="9.314202737461452"><ele>76.0</ele><time>2026-04-02T12:46:27.001Z</time></trkpt><trkpt lat="45.160459442321205" lon="9.31418614601688"><ele>76.0</ele><time>2026-04-02T12:46:28.001Z</time></trkpt><trkpt lat="45.16038026184162" lon="9.314155838608574"><ele>75.0</ele><time>2026-04-02T12:46:30.001Z</time></trkpt><trkpt lat="45.16035939398807" lon="9.314344695830645"><ele>75.0</ele><time>2026-04-02T12:46:32.002Z</time></trkpt><trkpt lat="45.16034950987483" lon="9.31448903584915"><ele>75.0</ele><time>2026-04-02T12:46:34.002Z</time></trkpt><trkpt lat="45.16033531729553" lon="9.314590087130169"><ele>75.0</ele><time>2026-04-02T12:46:36Z</time></trkpt></trkseg><trkseg><trkpt lat="45.16040198437165" lon="9.31467447625879"><ele>75.0</ele><time>2026-04-02T12:56:36.003Z</time></trkpt><trkpt lat="45.160328924669166" lon="9.314619858092264"><ele>75.0</ele><time>2026-04-02T12:57:14.001Z</time></trkpt><trkpt lat="45.16031419232839" lon="9.314727131072733"><ele>75.0</ele><time>2026-04-02T12:58:46Z</time></trkpt><trkpt lat="45.16028607990873" lon="9.31482411484479"><ele>75.0</ele><time>2026-04-02T12:58:47Z</time></trkpt><trkpt lat="45.160286039315075" lon="9.314979959152389"><ele>75.0</ele><time>2026-04-02T12:58:48Z</time></trkpt><trkpt lat="45.1602643607477" lon="9.315147169764971"><ele>75.0</ele><time>2026-04-02T12:58:49Z</time></trkpt><trkpt lat="45.16024363404844" lon="9.315323742585665"><ele>75.0</ele><time>2026-04-02T12:58:50Z</time></trkpt><trkpt lat="45.16021533557725" lon="9.315549271475811"><ele>75.0</ele><time>2026-04-02T12:58:51Z</time></trkpt><trkpt lat="45.16018997125121" lon="9.315739801947831"><ele>75.0</ele><time>2026-04-02T12:58:52Z</time></trkpt><trkpt lat="45.160169774320146" lon="9.31589151624238"><ele>75.0</ele><time>2026-04-02T12:58:53Z</time></trkpt><trkpt lat="45.160151893015026" lon="9.316025836132079"><ele>75.0</ele><time>2026-04-02T12:58:54Z</time></trkpt><trkpt lat="45.16013503288715" lon="9.316158264724526"><ele>75.0</ele><time>2026-04-02T12:58:55Z</time></trkpt><trkpt lat="45.16011860432185" lon="9.316288004252772"><ele>75.0</ele><time>2026-04-02T12:58:56Z</time></trkpt><trkpt lat="45.16010293811114" lon="9.316416433195458"><ele>75.0</ele><time>2026-04-02T12:58:57Z</time></trkpt><trkpt lat="45.16010366494231" lon="9.316554434898743"><ele>74.6</ele><time>2026-04-02T12:58:58Z</time></trkpt><trkpt lat="45.160077055493254" lon="9.316714920207946"><ele>74.2</ele><time>2026-04-02T12:58:59Z</time></trkpt><trkpt lat="45.16005810782221" lon="9.316874256212403"><ele>73.8</ele><time>2026-04-02T12:59:00Z</time></trkpt><trkpt lat="45.160036359942104" lon="9.317022177318314"><ele>73.4</ele><time>2026-04-02T12:59:01Z</time></trkpt><trkpt lat="45.16002100921632" lon="9.317157885815393"><ele>73.0</ele><time>2026-04-02T12:59:02Z</time></trkpt><trkpt lat="45.16000212606523" lon="9.317299633832627"><ele>73.0</ele><time>2026-04-02T12:59:03Z</time></trkpt><trkpt lat="45.15998536905478" lon="9.317435754604855"><ele>73.0</ele><time>2026-04-02T12:59:04Z</time></trkpt><trkpt lat="45.15996554618923" lon="9.317576107204616"><ele>73.0</ele><time>2026-04-02T12:59:05Z</time></trkpt><trkpt lat="45.159951337726056" lon="9.317720601789892"><ele>73.0</ele><time>2026-04-02T12:59:06Z</time></trkpt><trkpt lat="45.1599398186199" lon="9.317868555094792"><ele>73.0</ele><time>2026-04-02T12:59:07Z</time></trkpt><trkpt lat="45.15990620654932" lon="9.318006815909941"><ele>73.2</ele><time>2026-04-02T12:59:08Z</time></trkpt><trkpt lat="45.1598963640215" lon="9.318150441824491"><ele>73.4</ele><time>2026-04-02T12:59:09Z</time></trkpt><trkpt lat="45.15988474501692" lon="9.318265572639714"><ele>73.60000000000001</ele><time>2026-04-02T12:59:10Z</time></trkpt><trkpt lat="45.159850064770126" lon="9.318424733668529"><ele>73.8</ele><time>2026-04-02T12:59:12Z</time></trkpt><trkpt lat="45.15984738589452" lon="9.318552469675593"><ele>74.0</ele><time>2026-04-02T12:59:13Z</time></trkpt><trkpt lat="45.159824439416326" lon="9.31870538215162"><ele>74.2</ele><time>2026-04-02T12:59:14Z</time></trkpt><trkpt lat="45.15980711077724" lon="9.31885401225104"><ele>74.4</ele><time>2026-04-02T12:59:15Z</time></trkpt><trkpt lat="45.15978872315414" lon="9.31900853628865"><ele>74.6</ele><time>2026-04-02T12:59:16Z</time></trkpt><trkpt lat="45.15976830313302" lon="9.319157660355334"><ele>74.8</ele><time>2026-04-02T12:59:17Z</time></trkpt><trkpt lat="45.15974638528798" lon="9.319305315002689"><ele>75.0</ele><time>2026-04-02T12:59:18Z</time></trkpt><trkpt lat="45.15972391764432" lon="9.319458120427935"><ele>74.8</ele><time>2026-04-02T12:59:19Z</time></trkpt><trkpt lat="45.15970712427403" lon="9.319611341568583"><ele>74.6</ele><time>2026-04-02T12:59:20Z</time></trkpt><trkpt lat="45.159684559796844" lon="9.319767331343215"><ele>74.4</ele><time>2026-04-02T12:59:21Z</time></trkpt><trkpt lat="45.15967244280977" lon="9.319911150544215"><ele>74.2</ele><time>2026-04-02T12:59:22Z</time></trkpt><trkpt lat="45.15965278732583" lon="9.32004381434476"><ele>74.0</ele><time>2026-04-02T12:59:23Z</time></trkpt><trkpt lat="45.1596410292164" lon="9.320165415813763"><ele>74.0</ele><time>2026-04-02T12:59:24Z</time></trkpt><trkpt lat="45.159628357802085" lon="9.320263400850758"><ele>74.0</ele><time>2026-04-02T12:59:25Z</time></trkpt><trkpt lat="45.15960800083117" lon="9.32036471496421"><ele>74.0</ele><time>2026-04-02T12:59:27Z</time></trkpt><trkpt lat="45.159592806497606" lon="9.320458596940533"><ele>74.0</ele><time>2026-04-02T12:59:32Z</time></trkpt><trkpt lat="45.159713733463875" lon="9.320487930998958"><ele>74.0</ele><time>2026-04-02T12:59:33Z</time></trkpt><trkpt lat="45.15979148481973" lon="9.320493451090966"><ele>74.0</ele><time>2026-04-02T12:59:34Z</time></trkpt><trkpt lat="45.15987607855237" lon="9.32051241540121"><ele>74.0</ele><time>2026-04-02T12:59:35Z</time></trkpt><trkpt lat="45.15996325090334" lon="9.320531139230113"><ele>74.0</ele><time>2026-04-02T12:59:36Z</time></trkpt><trkpt lat="45.16005813792012" lon="9.320556954257722"><ele>74.0</ele><time>2026-04-02T12:59:37Z</time></trkpt><trkpt lat="45.160151961250655" lon="9.320583840222707"><ele>74.0</ele><time>2026-04-02T12:59:38Z</time></trkpt><trkpt lat="45.160253173038114" lon="9.320604998053332"><ele>74.0</ele><time>2026-04-02T12:59:39Z</time></trkpt><trkpt lat="45.160352296744236" lon="9.3206310613128"><ele>74.0</ele><time>2026-04-02T12:59:40Z</time></trkpt><trkpt lat="45.16044701714349" lon="9.320652078521556"><ele>74.0</ele><time>2026-04-02T12:59:41Z</time></trkpt><trkpt lat="45.16053924815113" lon="9.320673455099783"><ele>74.0</ele><time>2026-04-02T12:59:42Z</time></trkpt><trkpt lat="45.16063204972343" lon="9.320703240897407"><ele>74.0</ele><time>2026-04-02T12:59:43Z</time></trkpt><trkpt lat="45.16072537736764" lon="9.32072549089344"><ele>74.0</ele><time>2026-04-02T12:59:44Z</time></trkpt><trkpt lat="45.16081566946685" lon="9.320742653159893"><ele>73.75</ele><time>2026-04-02T12:59:45Z</time></trkpt><trkpt lat="45.16091532368411" lon="9.320773098201114"><ele>73.5</ele><time>2026-04-02T12:59:46Z</time></trkpt><trkpt lat="45.161025127271174" lon="9.320776271509764"><ele>73.25</ele><time>2026-04-02T12:59:47Z</time></trkpt><trkpt lat="45.161148635151065" lon="9.32078024629144"><ele>73.0</ele><time>2026-04-02T12:59:48Z</time></trkpt><trkpt lat="45.16126987574521" lon="9.320799154552642"><ele>73.0</ele><time>2026-04-02T12:59:49Z</time></trkpt><trkpt lat="45.16139097161617" lon="9.320824096439514"><ele>73.0</ele><time>2026-04-02T12:59:50Z</time></trkpt><trkpt lat="45.16151595794672" lon="9.320858957816917"><ele>73.0</ele><time>2026-04-02T12:59:51Z</time></trkpt><trkpt lat="45.16164373353972" lon="9.320900222573362"><ele>73.0</ele><time>2026-04-02T12:59:52Z</time></trkpt><trkpt lat="45.1617740578732" lon="9.32094211725747"><ele>72.75</ele><time>2026-04-02T12:59:53Z</time></trkpt><trkpt lat="45.16190077534095" lon="9.320979074730728"><ele>72.5</ele><time>2026-04-02T12:59:54Z</time></trkpt><trkpt lat="45.162034931743456" lon="9.321016516101892"><ele>72.25</ele><time>2026-04-02T12:59:55Z</time></trkpt><trkpt lat="45.16218006442187" lon="9.321049217932806"><ele>72.0</ele><time>2026-04-02T12:59:56Z</time></trkpt><trkpt lat="45.16232795554961" lon="9.32108105436053"><ele>72.0</ele><time>2026-04-02T12:59:57Z</time></trkpt><trkpt lat="45.16246927185555" lon="9.321123698146078"><ele>72.0</ele><time>2026-04-02T12:59:58Z</time></trkpt><trkpt lat="45.16260959068973" lon="9.321155838075459"><ele>72.0</ele><time>2026-04-02T12:59:59Z</time></trkpt><trkpt lat="45.16274523666002" lon="9.321188575817112"><ele>72.0</ele><time>2026-04-02T13:00:00Z</time></trkpt><trkpt lat="45.162869117673225" lon="9.321221783807227"><ele>72.0</ele><time>2026-04-02T13:00:01Z</time></trkpt><trkpt lat="45.16298028740367" lon="9.321249975347905"><ele>72.0</ele><time>2026-04-02T13:00:02Z</time></trkpt><trkpt lat="45.163080147818924" lon="9.321275244699198"><ele>72.0</ele><time>2026-04-02T13:00:03Z</time></trkpt><trkpt lat="45.16317600478422" lon="9.321301984263059"><ele>72.0</ele><time>2026-04-02T13:00:04Z</time></trkpt><trkpt lat="45.163273681635786" lon="9.32132538357329"><ele>72.0</ele><time>2026-04-02T13:00:05Z</time></trkpt><trkpt lat="45.163373156450255" lon="9.321351718014805"><ele>72.0</ele><time>2026-04-02T13:00:06Z</time></trkpt><trkpt lat="45.163458978997056" lon="9.321370915425915"><ele>72.0</ele><time>2026-04-02T13:00:07Z</time></trkpt><trkpt lat="45.16352835815225" lon="9.321386979443783"><ele>72.0</ele><time>2026-04-02T13:00:08Z</time></trkpt><trkpt lat="45.16363589780725" lon="9.321355969566463"><ele>72.0</ele><time>2026-04-02T13:00:10Z</time></trkpt><trkpt lat="45.16370425752147" lon="9.321462203645593"><ele>72.0</ele><time>2026-04-02T13:00:11Z</time></trkpt><trkpt lat="45.1637583933758" lon="9.321510680844405"><ele>72.0</ele><time>2026-04-02T13:00:12Z</time></trkpt><trkpt lat="45.16381547459238" lon="9.3215642440644"><ele>71.6</ele><time>2026-04-02T13:00:13Z</time></trkpt><trkpt lat="45.16387853059323" lon="9.321616715445641"><ele>71.2</ele><time>2026-04-02T13:00:14Z</time></trkpt><trkpt lat="45.16394453481731" lon="9.321663164841004"><ele>70.8</ele><time>2026-04-02T13:00:15Z</time></trkpt><trkpt lat="45.164008345568455" lon="9.321710320667977"><ele>70.4</ele><time>2026-04-02T13:00:16Z</time></trkpt><trkpt lat="45.1640987109295" lon="9.321820854478633"><ele>70.0</ele><time>2026-04-02T13:00:18Z</time></trkpt><trkpt lat="45.16413998327863" lon="9.321998368316722"><ele>70.0</ele><time>2026-04-02T13:00:20Z</time></trkpt><trkpt lat="45.16415097124682" lon="9.322099147602874"><ele>70.0</ele><time>2026-04-02T13:00:21Z</time></trkpt><trkpt lat="45.16418483786248" lon="9.322191673412624"><ele>70.0</ele><time>2026-04-02T13:00:22Z</time></trkpt><trkpt lat="45.164192305726004" lon="9.322304292133126"><ele>70.0</ele><time>2026-04-02T13:00:23Z</time></trkpt><trkpt lat="45.16421757969753" lon="9.32241398354895"><ele>70.0</ele><time>2026-04-02T13:00:24Z</time></trkpt><trkpt lat="45.16424839476607" lon="9.3225322347894"><ele>70.0</ele><time>2026-04-02T13:00:25Z</time></trkpt><trkpt lat="45.164284386470115" lon="9.32263822126712"><ele>70.2</ele><time>2026-04-02T13:00:26Z</time></trkpt><trkpt lat="45.16432853427088" lon="9.322757982425076"><ele>70.4</ele><time>2026-04-02T13:00:27Z</time></trkpt><trkpt lat="45.16437172042368" lon="9.322864165492184"><ele>70.6</ele><time>2026-04-02T13:00:28Z</time></trkpt><trkpt lat="45.16444132116212" lon="9.322958500791056"><ele>70.8</ele><time>2026-04-02T13:00:29Z</time></trkpt><trkpt lat="45.16450986247111" lon="9.323069303174824"><ele>71.0</ele><time>2026-04-02T13:00:30Z</time></trkpt><trkpt lat="45.16458000020155" lon="9.323191939183067"><ele>71.0</ele><time>2026-04-02T13:00:31Z</time></trkpt><trkpt lat="45.1646504214819" lon="9.323317369590198"><ele>71.0</ele><time>2026-04-02T13:00:32Z</time></trkpt><trkpt lat="45.16472396033874" lon="9.323437099601913"><ele>71.0</ele><time>2026-04-02T13:00:33Z</time></trkpt><trkpt lat="45.164798915293524" lon="9.323563645976115"><ele>71.0</ele><time>2026-04-02T13:00:34Z</time></trkpt><trkpt lat="45.16487843610664" lon="9.32369662668699"><ele>71.75</ele><time>2026-04-02T13:00:35Z</time></trkpt><trkpt lat="45.164953883576096" lon="9.323826477822367"><ele>72.5</ele><time>2026-04-02T13:00:36Z</time></trkpt><trkpt lat="45.165029937986304" lon="9.323961849894674"><ele>73.25</ele><time>2026-04-02T13:00:37Z</time></trkpt><trkpt lat="45.16510529601058" lon="9.324102302893865"><ele>74.0</ele><time>2026-04-02T13:00:38Z</time></trkpt><trkpt lat="45.16517823803039" lon="9.324234641492552"><ele>74.0</ele><time>2026-04-02T13:00:38.999Z</time></trkpt><trkpt lat="45.16524220494594" lon="9.324359774765371"><ele>74.0</ele><time>2026-04-02T13:00:39.999Z</time></trkpt><trkpt lat="45.165295479031464" lon="9.32446359547939"><ele>74.0</ele><time>2026-04-02T13:00:40.999Z</time></trkpt><trkpt lat="45.16534245867468" lon="9.324551472195148"><ele>74.0</ele><time>2026-04-02T13:00:41.999Z</time></trkpt><trkpt lat="45.16537562508759" lon="9.324642297184583"><ele>74.0</ele><time>2026-04-02T13:00:42.999Z</time></trkpt><trkpt lat="45.16541350738818" lon="9.324714091233641"><ele>74.0</ele><time>2026-04-02T13:00:43.999Z</time></trkpt><trkpt lat="45.16546408827624" lon="9.32477121197427"><ele>74.0</ele><time>2026-04-02T13:00:44.999Z</time></trkpt><trkpt lat="45.165519967311624" lon="9.324885279959803"><ele>74.0</ele><time>2026-04-02T13:00:46.999Z</time></trkpt><trkpt lat="45.16560122731083" lon="9.325042419121575"><ele>74.0</ele><time>2026-04-02T13:00:48.999Z</time></trkpt><trkpt lat="45.165657367928794" lon="9.325150308276568"><ele>74.0</ele><time>2026-04-02T13:00:49.999Z</time></trkpt><trkpt lat="45.165724225919625" lon="9.325278354231706"><ele>74.0</ele><time>2026-04-02T13:00:50.999Z</time></trkpt><trkpt lat="45.16579563043701" lon="9.32541556044597"><ele>74.0</ele><time>2026-04-02T13:00:51.999Z</time></trkpt><trkpt lat="45.165860459744934" lon="9.3255409640155"><ele>74.0</ele><time>2026-04-02T13:00:52.999Z</time></trkpt><trkpt lat="45.16592519911904" lon="9.325664075073487"><ele>74.0</ele><time>2026-04-02T13:00:53.999Z</time></trkpt><trkpt lat="45.165975812107675" lon="9.32579096127499"><ele>74.0</ele><time>2026-04-02T13:00:54.999Z</time></trkpt><trkpt lat="45.16604955569549" lon="9.32590724448811"><ele>74.0</ele><time>2026-04-02T13:00:55.999Z</time></trkpt><trkpt lat="45.16611227651895" lon="9.32602672615295"><ele>73.5</ele><time>2026-04-02T13:00:56.999Z</time></trkpt><trkpt lat="45.166178123252884" lon="9.326152474878995"><ele>73.0</ele><time>2026-04-02T13:00:57.999Z</time></trkpt><trkpt lat="45.16624364412295" lon="9.32628733228327"><ele>72.5</ele><time>2026-04-02T13:00:58.999Z</time></trkpt><trkpt lat="45.16631326751344" lon="9.326419301066963"><ele>72.0</ele><time>2026-04-02T13:00:59.999Z</time></trkpt><trkpt lat="45.16637485166325" lon="9.326567834785369"><ele>71.5</ele><time>2026-04-02T13:01:00.999Z</time></trkpt><trkpt lat="45.16645584374785" lon="9.326694650610555"><ele>71.0</ele><time>2026-04-02T13:01:01.999Z</time></trkpt><trkpt lat="45.16653059133957" lon="9.326846568080756"><ele>70.5</ele><time>2026-04-02T13:01:03Z</time></trkpt><trkpt lat="45.16659786856251" lon="9.32697210667632"><ele>70.0</ele><time>2026-04-02T13:01:04Z</time></trkpt><trkpt lat="45.166669541075386" lon="9.327110384676004"><ele>69.25</ele><time>2026-04-02T13:01:05Z</time></trkpt><trkpt lat="45.166742832135654" lon="9.32725015691213"><ele>68.5</ele><time>2026-04-02T13:01:06Z</time></trkpt><trkpt lat="45.16681667324382" lon="9.327392415279832"><ele>67.75</ele><time>2026-04-02T13:01:07Z</time></trkpt><trkpt lat="45.16689651502409" lon="9.327545559042553"><ele>67.0</ele><time>2026-04-02T13:01:08Z</time></trkpt><trkpt lat="45.16698102134776" lon="9.327705120875706"><ele>67.0</ele><time>2026-04-02T13:01:09Z</time></trkpt><trkpt lat="45.167067773742325" lon="9.327870057979181"><ele>67.0</ele><time>2026-04-02T13:01:10Z</time></trkpt><trkpt lat="45.167152704375304" lon="9.328020482639653"><ele>67.0</ele><time>2026-04-02T13:01:11Z</time></trkpt><trkpt lat="45.16722705945113" lon="9.328166556083097"><ele>67.0</ele><time>2026-04-02T13:01:12Z</time></trkpt><trkpt lat="45.167290575389735" lon="9.328291767408142"><ele>67.33333333333333</ele><time>2026-04-02T13:01:13Z</time></trkpt><trkpt lat="45.16734171687021" lon="9.32838944672767"><ele>67.66666666666666</ele><time>2026-04-02T13:01:14Z</time></trkpt><trkpt lat="45.167386848206505" lon="9.328476226610958"><ele>68.0</ele><time>2026-04-02T13:01:15Z</time></trkpt><trkpt lat="45.167426344482415" lon="9.32858253559562"><ele>68.33333333333333</ele><time>2026-04-02T13:01:16Z</time></trkpt><trkpt lat="45.16743477166461" lon="9.328705932707882"><ele>68.66666666666667</ele><time>2026-04-02T13:01:17Z</time></trkpt><trkpt lat="45.16746012083407" lon="9.328815023109017"><ele>69.0</ele><time>2026-04-02T13:01:18Z</time></trkpt><trkpt lat="45.16757861693341" lon="9.328908644817451"><ele>69.5</ele><time>2026-04-02T13:01:19Z</time></trkpt><trkpt lat="45.16765494752157" lon="9.329058384944863"><ele>70.0</ele><time>2026-04-02T13:01:20Z</time></trkpt><trkpt lat="45.16773318079113" lon="9.329203024709122"><ele>70.5</ele><time>2026-04-02T13:01:21Z</time></trkpt><trkpt lat="45.16780601018669" lon="9.329342496711089"><ele>71.0</ele><time>2026-04-02T13:01:22Z</time></trkpt><trkpt lat="45.16786455105889" lon="9.329451488808905"><ele>71.0</ele><time>2026-04-02T13:01:23Z</time></trkpt><trkpt lat="45.167924855564415" lon="9.329566581978796"><ele>71.0</ele><time>2026-04-02T13:01:24Z</time></trkpt><trkpt lat="45.167987743560516" lon="9.329683784038394"><ele>71.0</ele><time>2026-04-02T13:01:25Z</time></trkpt><trkpt lat="45.16804814848042" lon="9.32981229175168"><ele>71.0</ele><time>2026-04-02T13:01:26Z</time></trkpt><trkpt lat="45.168097347918945" lon="9.329922432187704"><ele>71.0</ele><time>2026-04-02T13:01:27Z</time></trkpt><trkpt lat="45.16814454987953" lon="9.33002402598809"><ele>71.0</ele><time>2026-04-02T13:01:28Z</time></trkpt><trkpt lat="45.16819121636856" lon="9.330108891731312"><ele>71.0</ele><time>2026-04-02T13:01:29Z</time></trkpt><trkpt lat="45.16823858864754" lon="9.330191819401387"><ele>71.0</ele><time>2026-04-02T13:01:30Z</time></trkpt><trkpt lat="45.16828901546868" lon="9.330277496047799"><ele>71.0</ele><time>2026-04-02T13:01:31Z</time></trkpt><trkpt lat="45.168332788484555" lon="9.330357247702477"><ele>71.0</ele><time>2026-04-02T13:01:32Z</time></trkpt><trkpt lat="45.16837135856542" lon="9.330430906063285"><ele>71.0</ele><time>2026-04-02T13:01:33Z</time></trkpt><trkpt lat="45.1684194291302" lon="9.330517610618049"><ele>71.0</ele><time>2026-04-02T13:01:34Z</time></trkpt><trkpt lat="45.16846923266292" lon="9.330615209528114"><ele>70.83333333333334</ele><time>2026-04-02T13:01:35Z</time></trkpt><trkpt lat="45.16852367502916" lon="9.330717532219342"><ele>70.66666666666667</ele><time>2026-04-02T13:01:36Z</time></trkpt><trkpt lat="45.16857605658224" lon="9.330813719042675"><ele>70.5</ele><time>2026-04-02T13:01:37Z</time></trkpt><trkpt lat="45.16862546410034" lon="9.330905542770012"><ele>70.33333333333333</ele><time>2026-04-02T13:01:38Z</time></trkpt><trkpt lat="45.168676601365206" lon="9.33100462297684"><ele>70.16666666666666</ele><time>2026-04-02T13:01:39Z</time></trkpt><trkpt lat="45.16872951365437" lon="9.331101305990508"><ele>70.0</ele><time>2026-04-02T13:01:40Z</time></trkpt><trkpt lat="45.16877918533202" lon="9.331197357163559"><ele>70.0</ele><time>2026-04-02T13:01:41Z</time></trkpt><trkpt lat="45.16883107664473" lon="9.331295978255625"><ele>70.0</ele><time>2026-04-02T13:01:42Z</time></trkpt><trkpt lat="45.16888937762509" lon="9.33140245797522"><ele>70.0</ele><time>2026-04-02T13:01:43Z</time></trkpt><trkpt lat="45.16894246807502" lon="9.33150344842156"><ele>70.0</ele><time>2026-04-02T13:01:44Z</time></trkpt><trkpt lat="45.168994921011254" lon="9.331604574830513"><ele>70.0</ele><time>2026-04-02T13:01:45Z</time></trkpt><trkpt lat="45.16904448733452" lon="9.33169975558957"><ele>70.0</ele><time>2026-04-02T13:01:46Z</time></trkpt><trkpt lat="45.16909590607822" lon="9.331799884865237"><ele>70.0</ele><time>2026-04-02T13:01:47Z</time></trkpt><trkpt lat="45.169148764131634" lon="9.331901659325398"><ele>70.0</ele><time>2026-04-02T13:01:48Z</time></trkpt><trkpt lat="45.16919917239329" lon="9.331999753479566"><ele>70.0</ele><time>2026-04-02T13:01:49Z</time></trkpt><trkpt lat="45.16924894913981" lon="9.332096737392813"><ele>70.0</ele><time>2026-04-02T13:01:50Z</time></trkpt><trkpt lat="45.16929827184564" lon="9.332190623791877"><ele>70.0</ele><time>2026-04-02T13:01:51Z</time></trkpt><trkpt lat="45.169348223791744" lon="9.33228809633183"><ele>70.0</ele><time>2026-04-02T13:01:52Z</time></trkpt><trkpt lat="45.16939548748143" lon="9.332385419290883"><ele>70.33333333333333</ele><time>2026-04-02T13:01:53Z</time></trkpt><trkpt lat="45.16943623436302" lon="9.332471072871288"><ele>70.66666666666666</ele><time>2026-04-02T13:01:54Z</time></trkpt><trkpt lat="45.16948994376654" lon="9.332568042576177"><ele>71.0</ele><time>2026-04-02T13:01:56Z</time></trkpt><trkpt lat="45.16957318781275" lon="9.332546869067357"><ele>71.33333333333333</ele><time>2026-04-02T13:01:59Z</time></trkpt><trkpt lat="45.16965125990279" lon="9.332399663516458"><ele>71.66666666666667</ele><time>2026-04-02T13:02:01Z</time></trkpt><trkpt lat="45.16969602472474" lon="9.332317711465263"><ele>72.0</ele><time>2026-04-02T13:02:02Z</time></trkpt><trkpt lat="45.1697388911242" lon="9.332242985645678"><ele>71.6</ele><time>2026-04-02T13:02:03Z</time></trkpt><trkpt lat="45.1697844444082" lon="9.332163066210013"><ele>71.2</ele><time>2026-04-02T13:02:04Z</time></trkpt><trkpt lat="45.16984003431985" lon="9.332062753671387"><ele>70.8</ele><time>2026-04-02T13:02:05Z</time></trkpt><trkpt lat="45.16990443990727" lon="9.331946444801732"><ele>70.4</ele><time>2026-04-02T13:02:06Z</time></trkpt><trkpt lat="45.16997185525939" lon="9.33182542370999"><ele>70.0</ele><time>2026-04-02T13:02:07Z</time></trkpt><trkpt lat="45.17003023120726" lon="9.331729193448863"><ele>69.83333333333333</ele><time>2026-04-02T13:02:08Z</time></trkpt><trkpt lat="45.170078700613196" lon="9.331642711643154"><ele>69.66666666666666</ele><time>2026-04-02T13:02:09Z</time></trkpt><trkpt lat="45.17012274186906" lon="9.33156456064037"><ele>69.5</ele><time>2026-04-02T13:02:10Z</time></trkpt><trkpt lat="45.170186591367155" lon="9.331449344626431"><ele>69.33333333333333</ele><time>2026-04-02T13:02:12Z</time></trkpt><trkpt lat="45.17023140011602" lon="9.331372381551448"><ele>69.16666666666667</ele><time>2026-04-02T13:02:14Z</time></trkpt><trkpt lat="45.17030109229907" lon="9.331277544555077"><ele>69.0</ele><time>2026-04-02T13:02:17Z</time></trkpt><trkpt lat="45.170352266679735" lon="9.331187430929402"><ele>69.0</ele><time>2026-04-02T13:02:19Z</time></trkpt><trkpt lat="45.170403347060805" lon="9.33109748283083"><ele>69.0</ele><time>2026-04-02T13:02:21Z</time></trkpt><trkpt lat="45.17044856756538" lon="9.33099454908363"><ele>69.0</ele><time>2026-04-02T13:02:23Z</time></trkpt><trkpt lat="45.17051485303188" lon="9.33087980054981"><ele>69.0</ele><time>2026-04-02T13:02:25Z</time></trkpt><trkpt lat="45.170597611648276" lon="9.330738986145528"><ele>69.0</ele><time>2026-04-02T13:02:27Z</time></trkpt><trkpt lat="45.17065768388601" lon="9.330635875458919"><ele>69.33333333333333</ele><time>2026-04-02T13:02:28Z</time></trkpt><trkpt lat="45.17074335294444" lon="9.3304884829856"><ele>69.66666666666666</ele><time>2026-04-02T13:02:29Z</time></trkpt><trkpt lat="45.17084969821863" lon="9.330306931044959"><ele>70.0</ele><time>2026-04-02T13:02:30Z</time></trkpt><trkpt lat="45.17096598506458" lon="9.330107041278662"><ele>70.0</ele><time>2026-04-02T13:02:31Z</time></trkpt><trkpt lat="45.17107483020493" lon="9.329921006751512"><ele>70.0</ele><time>2026-04-02T13:02:32Z</time></trkpt><trkpt lat="45.171181098445196" lon="9.32973949231733"><ele>70.0</ele><time>2026-04-02T13:02:33Z</time></trkpt><trkpt lat="45.17128415409049" lon="9.329590481689664"><ele>70.0</ele><time>2026-04-02T13:02:34Z</time></trkpt><trkpt lat="45.171366223269025" lon="9.329420728280308"><ele>70.0</ele><time>2026-04-02T13:02:35Z</time></trkpt><trkpt lat="45.171471700590615" lon="9.329241038083852"><ele>70.0</ele><time>2026-04-02T13:02:36Z</time></trkpt><trkpt lat="45.17156124976784" lon="9.329085023868315"><ele>70.0</ele><time>2026-04-02T13:02:37Z</time></trkpt><trkpt lat="45.17164794852704" lon="9.328941689489612"><ele>70.0</ele><time>2026-04-02T13:02:38Z</time></trkpt><trkpt lat="45.171727904250645" lon="9.328809228176027"><ele>70.0</ele><time>2026-04-02T13:02:39Z</time></trkpt><trkpt lat="45.17180303073079" lon="9.328676690654575"><ele>70.0</ele><time>2026-04-02T13:02:40Z</time></trkpt><trkpt lat="45.17187449948965" lon="9.328521503430146"><ele>70.0</ele><time>2026-04-02T13:02:41Z</time></trkpt><trkpt lat="45.17193321448655" lon="9.328344339409927"><ele>70.0</ele><time>2026-04-02T13:02:42Z</time></trkpt><trkpt lat="45.171999568152245" lon="9.328130879689944"><ele>70.0</ele><time>2026-04-02T13:02:43Z</time></trkpt><trkpt lat="45.172046927794796" lon="9.327893225351604"><ele>70.0</ele><time>2026-04-02T13:02:44Z</time></trkpt><trkpt lat="45.17209920027412" lon="9.3276627721444"><ele>70.0</ele><time>2026-04-02T13:02:44.999Z</time></trkpt><trkpt lat="45.17215384338384" lon="9.327445267630923"><ele>70.0</ele><time>2026-04-02T13:02:45.999Z</time></trkpt><trkpt lat="45.17220807802296" lon="9.327224855702804"><ele>70.0</ele><time>2026-04-02T13:02:46.999Z</time></trkpt><trkpt lat="45.172281985417484" lon="9.327001065018472"><ele>70.0</ele><time>2026-04-02T13:02:47.999Z</time></trkpt><trkpt lat="45.17232215396865" lon="9.326769441474156"><ele>70.0</ele><time>2026-04-02T13:02:48.999Z</time></trkpt><trkpt lat="45.17237709908789" lon="9.32654891964325"><ele>70.33333333333333</ele><time>2026-04-02T13:02:49.999Z</time></trkpt><trkpt lat="45.172430284538976" lon="9.326323565718779"><ele>70.66666666666667</ele><time>2026-04-02T13:02:50.999Z</time></trkpt><trkpt lat="45.17248406737464" lon="9.326107093522083"><ele>71.0</ele><time>2026-04-02T13:02:51.999Z</time></trkpt><trkpt lat="45.17253213936578" lon="9.325902378928438"><ele>71.0</ele><time>2026-04-02T13:02:52.999Z</time></trkpt><trkpt lat="45.172570581970184" lon="9.325740311660057"><ele>71.0</ele><time>2026-04-02T13:02:53.999Z</time></trkpt><trkpt lat="45.172598786494724" lon="9.325624398850872"><ele>71.0</ele><time>2026-04-02T13:02:54.999Z</time></trkpt><trkpt lat="45.17262220662985" lon="9.325539254770689"><ele>71.0</ele><time>2026-04-02T13:02:55.999Z</time></trkpt><trkpt lat="45.172654865226015" lon="9.325405508663952"><ele>71.0</ele><time>2026-04-02T13:02:57.999Z</time></trkpt><trkpt lat="45.1726846238575" lon="9.32530578772756"><ele>71.0</ele><time>2026-04-02T13:02:59.999Z</time></trkpt><trkpt lat="45.172718496832324" lon="9.325190993059136"><ele>71.0</ele><time>2026-04-02T13:03:02.999Z</time></trkpt><trkpt lat="45.172740297266955" lon="9.325104060949194"><ele>71.0</ele><time>2026-04-02T13:03:04.999Z</time></trkpt><trkpt lat="45.172773545972305" lon="9.325003296628713"><ele>71.0</ele><time>2026-04-02T13:03:06.999Z</time></trkpt><trkpt lat="45.17281122547942" lon="9.324898767154417"><ele>71.0</ele><time>2026-04-02T13:03:08.999Z</time></trkpt><trkpt lat="45.17284028680643" lon="9.324805226402605"><ele>71.0</ele><time>2026-04-02T13:03:09.999Z</time></trkpt><trkpt lat="45.17287768568419" lon="9.324666411292327"><ele>71.0</ele><time>2026-04-02T13:03:10.999Z</time></trkpt><trkpt lat="45.17292973137055" lon="9.324502058964848"><ele>71.0</ele><time>2026-04-02T13:03:12Z</time></trkpt><trkpt lat="45.17300051604795" lon="9.32432489269588"><ele>71.0</ele><time>2026-04-02T13:03:13Z</time></trkpt><trkpt lat="45.17306837354864" lon="9.324109502937594"><ele>71.0</ele><time>2026-04-02T13:03:14Z</time></trkpt><trkpt lat="45.17314139804789" lon="9.323877712374879"><ele>71.0</ele><time>2026-04-02T13:03:15Z</time></trkpt><trkpt lat="45.173202973312065" lon="9.32368226334547"><ele>71.0</ele><time>2026-04-02T13:03:16Z</time></trkpt><trkpt lat="45.17325230656246" lon="9.323525672308374"><ele>71.0</ele><time>2026-04-02T13:03:17Z</time></trkpt><trkpt lat="45.17330355149465" lon="9.323364261103052"><ele>71.0</ele><time>2026-04-02T13:03:18Z</time></trkpt><trkpt lat="45.173353272793754" lon="9.323209891002824"><ele>71.5</ele><time>2026-04-02T13:03:19Z</time></trkpt><trkpt lat="45.17339443741731" lon="9.323040920283983"><ele>72.0</ele><time>2026-04-02T13:03:20Z</time></trkpt><trkpt lat="45.17344133868738" lon="9.322868372476375"><ele>72.5</ele><time>2026-04-02T13:03:21Z</time></trkpt><trkpt lat="45.173487852061115" lon="9.322648724901713"><ele>73.0</ele><time>2026-04-02T13:03:22Z</time></trkpt><trkpt lat="45.173528565574976" lon="9.32243424306406"><ele>72.33333333333333</ele><time>2026-04-02T13:03:23Z</time></trkpt><trkpt lat="45.17357950643007" lon="9.322206029688171"><ele>71.66666666666667</ele><time>2026-04-02T13:03:24Z</time></trkpt><trkpt lat="45.17362779819753" lon="9.321985225468245"><ele>71.0</ele><time>2026-04-02T13:03:25Z</time></trkpt><trkpt lat="45.173672276985876" lon="9.32173383931812"><ele>71.0</ele><time>2026-04-02T13:03:26Z</time></trkpt><trkpt lat="45.173705046475796" lon="9.321491044464334"><ele>71.0</ele><time>2026-04-02T13:03:27Z</time></trkpt><trkpt lat="45.173738013406336" lon="9.321266218203089"><ele>71.0</ele><time>2026-04-02T13:03:28Z</time></trkpt><trkpt lat="45.173781463114395" lon="9.321060945829364"><ele>71.0</ele><time>2026-04-02T13:03:29Z</time></trkpt><trkpt lat="45.17382013049813" lon="9.3208546053133"><ele>71.0</ele><time>2026-04-02T13:03:30Z</time></trkpt><trkpt lat="45.173858201785876" lon="9.320641624713142"><ele>71.0</ele><time>2026-04-02T13:03:31Z</time></trkpt><trkpt lat="45.173895713502915" lon="9.320428295322968"><ele>71.0</ele><time>2026-04-02T13:03:32Z</time></trkpt><trkpt lat="45.17393698957055" lon="9.320189773463609"><ele>71.0</ele><time>2026-04-02T13:03:33Z</time></trkpt><trkpt lat="45.173982958941394" lon="9.319927434064725"><ele>71.0</ele><time>2026-04-02T13:03:34Z</time></trkpt><trkpt lat="45.17403052346382" lon="9.319678013043239"><ele>70.66666666666667</ele><time>2026-04-02T13:03:35Z</time></trkpt><trkpt lat="45.174073415886355" lon="9.319450873941403"><ele>70.33333333333333</ele><time>2026-04-02T13:03:36Z</time></trkpt><trkpt lat="45.17411052901441" lon="9.319244476519588"><ele>70.0</ele><time>2026-04-02T13:03:37Z</time></trkpt><trkpt lat="45.174145901290125" lon="9.319055198788412"><ele>70.5</ele><time>2026-04-02T13:03:38Z</time></trkpt><trkpt lat="45.174193973820174" lon="9.318891202145357"><ele>71.0</ele><time>2026-04-02T13:03:39Z</time></trkpt><trkpt lat="45.174230284912134" lon="9.318700748284105"><ele>71.5</ele><time>2026-04-02T13:03:40Z</time></trkpt><trkpt lat="45.174265182417976" lon="9.318517708537671"><ele>72.0</ele><time>2026-04-02T13:03:41Z</time></trkpt><trkpt lat="45.17430627441252" lon="9.318302178521968"><ele>72.0</ele><time>2026-04-02T13:03:42Z</time></trkpt><trkpt lat="45.17434259804978" lon="9.318110987156572"><ele>72.0</ele><time>2026-04-02T13:03:43Z</time></trkpt><trkpt lat="45.17437358177162" lon="9.31794786379635"><ele>72.0</ele><time>2026-04-02T13:03:44Z</time></trkpt><trkpt lat="45.17438570050223" lon="9.317807474268214"><ele>72.0</ele><time>2026-04-02T13:03:45Z</time></trkpt><trkpt lat="45.174422458498285" lon="9.317690537297256"><ele>72.0</ele><time>2026-04-02T13:03:46Z</time></trkpt><trkpt lat="45.174447074860886" lon="9.31756631949614"><ele>72.0</ele><time>2026-04-02T13:03:47Z</time></trkpt><trkpt lat="45.17447425040511" lon="9.317434187855648"><ele>72.0</ele><time>2026-04-02T13:03:48Z</time></trkpt><trkpt lat="45.17450327943084" lon="9.31729611967706"><ele>72.0</ele><time>2026-04-02T13:03:49Z</time></trkpt><trkpt lat="45.174528332418305" lon="9.317179525748964"><ele>72.0</ele><time>2026-04-02T13:03:50Z</time></trkpt><trkpt lat="45.174553592000755" lon="9.317053948961474"><ele>72.0</ele><time>2026-04-02T13:03:51Z</time></trkpt><trkpt lat="45.17455776396066" lon="9.316944677064779"><ele>72.0</ele><time>2026-04-02T13:03:52Z</time></trkpt><trkpt lat="45.17459035194391" lon="9.316851540484176"><ele>72.0</ele><time>2026-04-02T13:03:53Z</time></trkpt><trkpt lat="45.17459257652985" lon="9.316740911978254"><ele>72.0</ele><time>2026-04-02T13:03:55Z</time></trkpt><trkpt lat="45.17474911248404" lon="9.316751682586146"><ele>72.0</ele><time>2026-04-02T13:04:01Z</time></trkpt><trkpt lat="45.17489044558504" lon="9.316776606131832"><ele>72.25</ele><time>2026-04-02T13:04:02Z</time></trkpt><trkpt lat="45.17505706791841" lon="9.316790923691084"><ele>72.5</ele><time>2026-04-02T13:04:03Z</time></trkpt><trkpt lat="45.17517733356853" lon="9.316817885969723"><ele>72.75</ele><time>2026-04-02T13:04:04Z</time></trkpt><trkpt lat="45.17528316897738" lon="9.316835706550602"><ele>73.0</ele><time>2026-04-02T13:04:05Z</time></trkpt><trkpt lat="45.17538197489741" lon="9.316844026850134"><ele>73.0</ele><time>2026-04-02T13:04:06Z</time></trkpt><trkpt lat="45.17546571877391" lon="9.31685340757329"><ele>73.0</ele><time>2026-04-02T13:04:07Z</time></trkpt><trkpt lat="45.17555501710185" lon="9.316867248651318"><ele>73.0</ele><time>2026-04-02T13:04:08Z</time></trkpt><trkpt lat="45.17564504604408" lon="9.316893522942657"><ele>73.0</ele><time>2026-04-02T13:04:09Z</time></trkpt><trkpt lat="45.1757351023568" lon="9.316910745403712"><ele>73.0</ele><time>2026-04-02T13:04:10Z</time></trkpt><trkpt lat="45.17582986454344" lon="9.31692330848788"><ele>73.16666666666666</ele><time>2026-04-02T13:04:11Z</time></trkpt><trkpt lat="45.175923355289875" lon="9.316928040423711"><ele>73.33333333333333</ele><time>2026-04-02T13:04:12Z</time></trkpt><trkpt lat="45.17600680624315" lon="9.316924993108689"><ele>73.5</ele><time>2026-04-02T13:04:13Z</time></trkpt><trkpt lat="45.17608541234205" lon="9.316899638120349"><ele>73.66666666666667</ele><time>2026-04-02T13:04:14Z</time></trkpt><trkpt lat="45.17614576033851" lon="9.316872279068722"><ele>73.83333333333334</ele><time>2026-04-02T13:04:15Z</time></trkpt><trkpt lat="45.17621325078302" lon="9.316827635466225"><ele>74.0</ele><time>2026-04-02T13:04:16Z</time></trkpt><trkpt lat="45.17626128218187" lon="9.316661579855868"><ele>74.0</ele><time>2026-04-02T13:04:18Z</time></trkpt><trkpt lat="45.1762805720306" lon="9.316574603806767"><ele>74.0</ele><time>2026-04-02T13:04:19Z</time></trkpt><trkpt lat="45.17629825730651" lon="9.316476467069348"><ele>74.0</ele><time>2026-04-02T13:04:20Z</time></trkpt><trkpt lat="45.176314467126964" lon="9.316371175332247"><ele>74.0</ele><time>2026-04-02T13:04:21Z</time></trkpt><trkpt lat="45.17632972282979" lon="9.316267688779082"><ele>74.0</ele><time>2026-04-02T13:04:22Z</time></trkpt><trkpt lat="45.17634711467085" lon="9.316149711841655"><ele>74.0</ele><time>2026-04-02T13:04:23Z</time></trkpt><trkpt lat="45.17634954146331" lon="9.316018197390376"><ele>74.0</ele><time>2026-04-02T13:04:24Z</time></trkpt><trkpt lat="45.17636994167408" lon="9.315885192889946"><ele>74.0</ele><time>2026-04-02T13:04:25Z</time></trkpt><trkpt lat="45.17639632338105" lon="9.315754306040972"><ele>74.0</ele><time>2026-04-02T13:04:26Z</time></trkpt><trkpt lat="45.176419056885635" lon="9.315628082581888"><ele>74.0</ele><time>2026-04-02T13:04:27Z</time></trkpt><trkpt lat="45.17644030951207" lon="9.315506758472152"><ele>74.0</ele><time>2026-04-02T13:04:28Z</time></trkpt><trkpt lat="45.17646170256776" lon="9.315387504543594"><ele>74.0</ele><time>2026-04-02T13:04:29Z</time></trkpt><trkpt lat="45.1764847436635" lon="9.315275566428268"><ele>74.0</ele><time>2026-04-02T13:04:30Z</time></trkpt><trkpt lat="45.17651038372992" lon="9.315167551549152"><ele>74.0</ele><time>2026-04-02T13:04:31Z</time></trkpt><trkpt lat="45.17653149159021" lon="9.315060002302523"><ele>74.0</ele><time>2026-04-02T13:04:32Z</time></trkpt><trkpt lat="45.176549775457765" lon="9.314951560850286"><ele>74.0</ele><time>2026-04-02T13:04:33Z</time></trkpt><trkpt lat="45.17656754709115" lon="9.31485067699325"><ele>74.0</ele><time>2026-04-02T13:04:34Z</time></trkpt><trkpt lat="45.17658790834228" lon="9.31476384457435"><ele>74.0</ele><time>2026-04-02T13:04:35Z</time></trkpt><trkpt lat="45.17662014567462" lon="9.314618580370553"><ele>74.0</ele><time>2026-04-02T13:04:37Z</time></trkpt><trkpt lat="45.17664476242781" lon="9.314478423486806"><ele>74.0</ele><time>2026-04-02T13:04:39Z</time></trkpt><trkpt lat="45.1766705027297" lon="9.314351263127715"><ele>74.0</ele><time>2026-04-02T13:04:41Z</time></trkpt><trkpt lat="45.17672150570549" lon="9.31422932577171"><ele>74.0</ele><time>2026-04-02T13:04:43Z</time></trkpt><trkpt lat="45.176810552713086" lon="9.3141602973802"><ele>74.0</ele><time>2026-04-02T13:04:45Z</time></trkpt><trkpt lat="45.17691574653349" lon="9.31419745152235"><ele>74.0</ele><time>2026-04-02T13:04:47Z</time></trkpt><trkpt lat="45.17701314753531" lon="9.314257394910877"><ele>74.0</ele><time>2026-04-02T13:04:49Z</time></trkpt><trkpt lat="45.17710924930855" lon="9.314315085399972"><ele>74.0</ele><time>2026-04-02T13:04:50.999Z</time></trkpt><trkpt lat="45.1772007522266" lon="9.31436879866928"><ele>74.0</ele><time>2026-04-02T13:04:52.999Z</time></trkpt><trkpt lat="45.177286550286276" lon="9.314415954543989"><ele>74.0</ele><time>2026-04-02T13:04:54.999Z</time></trkpt><trkpt lat="45.177348131554524" lon="9.314444459219395"><ele>74.0</ele><time>2026-04-02T13:04:56.999Z</time></trkpt><trkpt lat="45.17740938416716" lon="9.31448955703783"><ele>74.0</ele><time>2026-04-02T13:04:58.999Z</time></trkpt><trkpt lat="45.17748461817655" lon="9.314534954102143"><ele>74.0</ele><time>2026-04-02T13:05:00.999Z</time></trkpt><trkpt lat="45.17758882609915" lon="9.314582820796561"><ele>74.0</ele><time>2026-04-02T13:05:02.999Z</time></trkpt><trkpt lat="45.17768693444212" lon="9.314593166626649"><ele>74.0</ele><time>2026-04-02T13:05:04.999Z</time></trkpt><trkpt lat="45.17773781496258" lon="9.314538442762322"><ele>74.0</ele><time>2026-04-02T13:05:05.999Z</time></trkpt><trkpt lat="45.17776756541348" lon="9.314436765372333"><ele>74.0</ele><time>2026-04-02T13:05:06.999Z</time></trkpt><trkpt lat="45.17779664824977" lon="9.314333247126406"><ele>74.0</ele><time>2026-04-02T13:05:07.999Z</time></trkpt><trkpt lat="45.17782198590513" lon="9.314223158577542"><ele>74.0</ele><time>2026-04-02T13:05:08.999Z</time></trkpt><trkpt lat="45.177851257095725" lon="9.314112165555985"><ele>74.0</ele><time>2026-04-02T13:05:09.999Z</time></trkpt><trkpt lat="45.17787445915826" lon="9.313995530812674"><ele>74.0</ele><time>2026-04-02T13:05:11Z</time></trkpt><trkpt lat="45.17789801944423" lon="9.313878324499457"><ele>73.83333333333334</ele><time>2026-04-02T13:05:12Z</time></trkpt><trkpt lat="45.177915886666604" lon="9.313769978184874"><ele>73.66666666666667</ele><time>2026-04-02T13:05:13Z</time></trkpt><trkpt lat="45.17793245481666" lon="9.313673687763853"><ele>73.5</ele><time>2026-04-02T13:05:14Z</time></trkpt><trkpt lat="45.177964767203264" lon="9.313510384319052"><ele>73.33333333333333</ele><time>2026-04-02T13:05:16Z</time></trkpt><trkpt lat="45.177999070561235" lon="9.31335420697073"><ele>73.16666666666666</ele><time>2026-04-02T13:05:18Z</time></trkpt><trkpt lat="45.178021662369275" lon="9.313268151265364"><ele>73.0</ele><time>2026-04-02T13:05:19Z</time></trkpt><trkpt lat="45.178053794259746" lon="9.313186727403611"><ele>73.0</ele><time>2026-04-02T13:05:20Z</time></trkpt><trkpt lat="45.17811103723531" lon="9.313129582387077"><ele>73.0</ele><time>2026-04-02T13:05:21Z</time></trkpt><trkpt lat="45.17819841508997" lon="9.313110885571085"><ele>73.0</ele><time>2026-04-02T13:05:22Z</time></trkpt><trkpt lat="45.17832636569566" lon="9.313111272063999"><ele>73.0</ele><time>2026-04-02T13:05:23Z</time></trkpt><trkpt lat="45.17848778730025" lon="9.313175645511865"><ele>73.0</ele><time>2026-04-02T13:05:24Z</time></trkpt><trkpt lat="45.178677028843104" lon="9.313239562691583"><ele>73.0</ele><time>2026-04-02T13:05:25Z</time></trkpt><trkpt lat="45.17887425868078" lon="9.31328919413451"><ele>73.0</ele><time>2026-04-02T13:05:26Z</time></trkpt><trkpt lat="45.179084599051436" lon="9.31336781087924"><ele>73.0</ele><time>2026-04-02T13:05:27Z</time></trkpt><trkpt lat="45.17932352779102" lon="9.313419444190682"><ele>73.0</ele><time>2026-04-02T13:05:28Z</time></trkpt><trkpt lat="45.179573050107344" lon="9.31352416372023"><ele>73.0</ele><time>2026-04-02T13:05:29Z</time></trkpt><trkpt lat="45.17983260375965" lon="9.313625120048606"><ele>73.0</ele><time>2026-04-02T13:05:30Z</time></trkpt><trkpt lat="45.18010067895813" lon="9.313717936906501"><ele>72.0</ele><time>2026-04-02T13:05:31Z</time></trkpt><trkpt lat="45.18035195213381" lon="9.313803218199126"><ele>71.0</ele><time>2026-04-02T13:05:32Z</time></trkpt><trkpt lat="45.180574344827086" lon="9.313873128785444"><ele>70.66666666666667</ele><time>2026-04-02T13:05:33Z</time></trkpt><trkpt lat="45.18078088880235" lon="9.313937871123603"><ele>70.33333333333333</ele><time>2026-04-02T13:05:34Z</time></trkpt><trkpt lat="45.18097398479353" lon="9.314000695414085"><ele>70.0</ele><time>2026-04-02T13:05:35Z</time></trkpt><trkpt lat="45.181153782911906" lon="9.314065573128557"><ele>70.0</ele><time>2026-04-02T13:05:36Z</time></trkpt><trkpt lat="45.18132670314678" lon="9.314137354473626"><ele>70.0</ele><time>2026-04-02T13:05:37Z</time></trkpt><trkpt lat="45.18150499014226" lon="9.314235620823514"><ele>70.0</ele><time>2026-04-02T13:05:38Z</time></trkpt><trkpt lat="45.181691511241354" lon="9.314363957105774"><ele>70.0</ele><time>2026-04-02T13:05:39Z</time></trkpt><trkpt lat="45.18188128060366" lon="9.314497488883418"><ele>70.0</ele><time>2026-04-02T13:05:40Z</time></trkpt><trkpt lat="45.18205485785482" lon="9.314623587593356"><ele>70.0</ele><time>2026-04-02T13:05:41Z</time></trkpt><trkpt lat="45.1822220334863" lon="9.314744765508426"><ele>70.0</ele><time>2026-04-02T13:05:42Z</time></trkpt><trkpt lat="45.182388438229715" lon="9.314861921277412"><ele>70.0</ele><time>2026-04-02T13:05:43Z</time></trkpt><trkpt lat="45.18255319220755" lon="9.314977610837055"><ele>70.0</ele><time>2026-04-02T13:05:44Z</time></trkpt><trkpt lat="45.18271616863592" lon="9.315090003191884"><ele>70.0</ele><time>2026-04-02T13:05:45Z</time></trkpt><trkpt lat="45.18287976540641" lon="9.31519694808761"><ele>70.0</ele><time>2026-04-02T13:05:46Z</time></trkpt><trkpt lat="45.18304646088862" lon="9.3153039386396"><ele>70.0</ele><time>2026-04-02T13:05:47Z</time></trkpt><trkpt lat="45.18321961505208" lon="9.315416683035968"><ele>70.0</ele><time>2026-04-02T13:05:48Z</time></trkpt><trkpt lat="45.18339082627422" lon="9.315524421430622"><ele>70.0</ele><time>2026-04-02T13:05:49Z</time></trkpt><trkpt lat="45.183566543196946" lon="9.315623579675508"><ele>70.0</ele><time>2026-04-02T13:05:50Z</time></trkpt><trkpt lat="45.183743539243004" lon="9.315718138996651"><ele>70.0</ele><time>2026-04-02T13:05:51Z</time></trkpt><trkpt lat="45.18392573444617" lon="9.315815330541627"><ele>70.0</ele><time>2026-04-02T13:05:52Z</time></trkpt><trkpt lat="45.18411035703048" lon="9.31591519630458"><ele>70.0</ele><time>2026-04-02T13:05:53Z</time></trkpt><trkpt lat="45.18429721874701" lon="9.316013348327306"><ele>70.0</ele><time>2026-04-02T13:05:54Z</time></trkpt><trkpt lat="45.18448417433098" lon="9.316113257295713"><ele>70.0</ele><time>2026-04-02T13:05:55Z</time></trkpt><trkpt lat="45.18467264312295" lon="9.31621362215171"><ele>70.0</ele><time>2026-04-02T13:05:56Z</time></trkpt><trkpt lat="45.18485793295101" lon="9.316310526643282"><ele>69.66666666666666</ele><time>2026-04-02T13:05:57Z</time></trkpt><trkpt lat="45.18504262917534" lon="9.31640612024296"><ele>69.33333333333333</ele><time>2026-04-02T13:05:58Z</time></trkpt><trkpt lat="45.185224120914555" lon="9.316502173222593"><ele>69.0</ele><time>2026-04-02T13:05:59Z</time></trkpt><trkpt lat="45.18540157648453" lon="9.316595112221483"><ele>69.0</ele><time>2026-04-02T13:06:00Z</time></trkpt><trkpt lat="45.18558281159028" lon="9.316684107292293"><ele>69.0</ele><time>2026-04-02T13:06:01Z</time></trkpt><trkpt lat="45.18576007327112" lon="9.316775182788076"><ele>69.0</ele><time>2026-04-02T13:06:02Z</time></trkpt><trkpt lat="45.18593519407519" lon="9.316866423179576"><ele>69.33333333333333</ele><time>2026-04-02T13:06:03Z</time></trkpt><trkpt lat="45.18610732310039" lon="9.316958076679958"><ele>69.66666666666666</ele><time>2026-04-02T13:06:04Z</time></trkpt><trkpt lat="45.186280028017755" lon="9.31705188789043"><ele>70.0</ele><time>2026-04-02T13:06:05Z</time></trkpt><trkpt lat="45.18644923028503" lon="9.317146724246545"><ele>69.33333333333333</ele><time>2026-04-02T13:06:06Z</time></trkpt><trkpt lat="45.186617113338116" lon="9.31724346703908"><ele>68.66666666666667</ele><time>2026-04-02T13:06:07Z</time></trkpt><trkpt lat="45.186779805390465" lon="9.317339518346813"><ele>68.0</ele><time>2026-04-02T13:06:08Z</time></trkpt><trkpt lat="45.1869434005307" lon="9.317433097955643"><ele>68.0</ele><time>2026-04-02T13:06:09Z</time></trkpt><trkpt lat="45.18710932667719" lon="9.317514251299034"><ele>68.0</ele><time>2026-04-02T13:06:10Z</time></trkpt><trkpt lat="45.18727316321" lon="9.31759747016889"><ele>68.0</ele><time>2026-04-02T13:06:11Z</time></trkpt><trkpt lat="45.18743451692661" lon="9.31768346184828"><ele>68.0</ele><time>2026-04-02T13:06:12Z</time></trkpt><trkpt lat="45.187596785731316" lon="9.317769247139312"><ele>68.0</ele><time>2026-04-02T13:06:13Z</time></trkpt><trkpt lat="45.187758201542074" lon="9.317852588376272"><ele>68.0</ele><time>2026-04-02T13:06:14Z</time></trkpt><trkpt lat="45.187919698252955" lon="9.317935069444385"><ele>68.0</ele><time>2026-04-02T13:06:15Z</time></trkpt><trkpt lat="45.1880804776619" lon="9.318016023694057"><ele>68.0</ele><time>2026-04-02T13:06:16Z</time></trkpt><trkpt lat="45.18824162174637" lon="9.318093252313433"><ele>68.0</ele><time>2026-04-02T13:06:17Z</time></trkpt><trkpt lat="45.18840110683945" lon="9.31817340629691"><ele>68.66666666666667</ele><time>2026-04-02T13:06:18Z</time></trkpt><trkpt lat="45.18855758195941" lon="9.31825791211958"><ele>69.33333333333333</ele><time>2026-04-02T13:06:19Z</time></trkpt><trkpt lat="45.188717090066916" lon="9.318347259054988"><ele>70.0</ele><time>2026-04-02T13:06:20Z</time></trkpt><trkpt lat="45.18887900914094" lon="9.318432244612701"><ele>68.33333333333333</ele><time>2026-04-02T13:06:21Z</time></trkpt><trkpt lat="45.189040004459045" lon="9.318510161652126"><ele>66.66666666666667</ele><time>2026-04-02T13:06:22Z</time></trkpt><trkpt lat="45.18919814606974" lon="9.318577035155778"><ele>65.0</ele><time>2026-04-02T13:06:23Z</time></trkpt><trkpt lat="45.18937139034993" lon="9.318616604147612"><ele>65.0</ele><time>2026-04-02T13:06:24Z</time></trkpt><trkpt lat="45.18954394921375" lon="9.318643545873238"><ele>65.0</ele><time>2026-04-02T13:06:25Z</time></trkpt><trkpt lat="45.18971604077337" lon="9.318654904229444"><ele>65.0</ele><time>2026-04-02T13:06:26.001Z</time></trkpt><trkpt lat="45.18988940860792" lon="9.318646396534538"><ele>65.0</ele><time>2026-04-02T13:06:27.001Z</time></trkpt><trkpt lat="45.19005810259913" lon="9.318615464444663"><ele>65.0</ele><time>2026-04-02T13:06:28.001Z</time></trkpt><trkpt lat="45.19022459178349" lon="9.318567304533884"><ele>65.0</ele><time>2026-04-02T13:06:29.001Z</time></trkpt><trkpt lat="45.19038400341197" lon="9.318490569630764"><ele>65.0</ele><time>2026-04-02T13:06:30.001Z</time></trkpt><trkpt lat="45.19053831054049" lon="9.318389414300404"><ele>65.0</ele><time>2026-04-02T13:06:31.001Z</time></trkpt><trkpt lat="45.19069631408668" lon="9.318248931436862"><ele>65.0</ele><time>2026-04-02T13:06:32.001Z</time></trkpt><trkpt lat="45.19085452447102" lon="9.318106874689258"><ele>65.66666666666667</ele><time>2026-04-02T13:06:33.001Z</time></trkpt><trkpt lat="45.19101024533772" lon="9.317966266371174"><ele>66.33333333333333</ele><time>2026-04-02T13:06:34.001Z</time></trkpt><trkpt lat="45.19115824927011" lon="9.317807156905934"><ele>67.0</ele><time>2026-04-02T13:06:35.001Z</time></trkpt><trkpt lat="45.19129761625836" lon="9.317621977777542"><ele>67.0</ele><time>2026-04-02T13:06:36.001Z</time></trkpt><trkpt lat="45.19143626193894" lon="9.317433147499628"><ele>67.0</ele><time>2026-04-02T13:06:37.001Z</time></trkpt><trkpt lat="45.19158784621125" lon="9.317256393887845"><ele>67.0</ele><time>2026-04-02T13:06:38.001Z</time></trkpt><trkpt lat="45.19175867314324" lon="9.31710347899072"><ele>67.66666666666666</ele><time>2026-04-02T13:06:39.001Z</time></trkpt><trkpt lat="45.19195371527612" lon="9.317015069366118"><ele>68.33333333333333</ele><time>2026-04-02T13:06:40.001Z</time></trkpt><trkpt lat="45.19215453364548" lon="9.316931762854745"><ele>69.0</ele><time>2026-04-02T13:06:41.001Z</time></trkpt><trkpt lat="45.19235667605049" lon="9.316834728260487"><ele>69.0</ele><time>2026-04-02T13:06:42.001Z</time></trkpt><trkpt lat="45.19256078318929" lon="9.316772071081433"><ele>69.0</ele><time>2026-04-02T13:06:43.001Z</time></trkpt><trkpt lat="45.19275823644057" lon="9.316698721585833"><ele>69.0</ele><time>2026-04-02T13:06:44.001Z</time></trkpt><trkpt lat="45.1929581378748" lon="9.31662488988505"><ele>69.0</ele><time>2026-04-02T13:06:45.001Z</time></trkpt><trkpt lat="45.1931591374632" lon="9.31655359365927"><ele>69.0</ele><time>2026-04-02T13:06:46.001Z</time></trkpt><trkpt lat="45.19335423676938" lon="9.316483606716748"><ele>69.0</ele><time>2026-04-02T13:06:47.001Z</time></trkpt><trkpt lat="45.1935477328994" lon="9.316416870938225"><ele>69.33333333333333</ele><time>2026-04-02T13:06:48.001Z</time></trkpt><trkpt lat="45.19374173191766" lon="9.316364908643452"><ele>69.66666666666666</ele><time>2026-04-02T13:06:49.001Z</time></trkpt><trkpt lat="45.1939217593846" lon="9.316331063648802"><ele>70.0</ele><time>2026-04-02T13:06:50.001Z</time></trkpt><trkpt lat="45.19408885073258" lon="9.316306914516227"><ele>69.5</ele><time>2026-04-02T13:06:51.001Z</time></trkpt><trkpt lat="45.1942504135067" lon="9.31628536726397"><ele>69.0</ele><time>2026-04-02T13:06:52.001Z</time></trkpt><trkpt lat="45.19439293266369" lon="9.316258185996116"><ele>68.5</ele><time>2026-04-02T13:06:53.001Z</time></trkpt><trkpt lat="45.19452232718239" lon="9.316223739527523"><ele>68.0</ele><time>2026-04-02T13:06:54.001Z</time></trkpt><trkpt lat="45.1946382792773" lon="9.316169001752165"><ele>68.0</ele><time>2026-04-02T13:06:55.001Z</time></trkpt><trkpt lat="45.19474474883415" lon="9.316091443559866"><ele>68.0</ele><time>2026-04-02T13:06:56.001Z</time></trkpt><trkpt lat="45.19485567159041" lon="9.315969710461033"><ele>68.0</ele><time>2026-04-02T13:06:56.999Z</time></trkpt><trkpt lat="45.19497471450404" lon="9.315804915620962"><ele>68.0</ele><time>2026-04-02T13:06:57.999Z</time></trkpt><trkpt lat="45.19509351598694" lon="9.315635226828284"><ele>67.75</ele><time>2026-04-02T13:06:58.999Z</time></trkpt><trkpt lat="45.19521201445729" lon="9.31550431076589"><ele>67.5</ele><time>2026-04-02T13:06:59.999Z</time></trkpt><trkpt lat="45.19533598005568" lon="9.31540230152205"><ele>67.25</ele><time>2026-04-02T13:07:00.999Z</time></trkpt><trkpt lat="45.195463902034064" lon="9.315311515077218"><ele>67.0</ele><time>2026-04-02T13:07:01.999Z</time></trkpt><trkpt lat="45.19559068730861" lon="9.315228775400392"><ele>66.75</ele><time>2026-04-02T13:07:02.999Z</time></trkpt><trkpt lat="45.19571360744319" lon="9.315140785416858"><ele>66.5</ele><time>2026-04-02T13:07:03.999Z</time></trkpt><trkpt lat="45.195820210003696" lon="9.31506157491163"><ele>66.25</ele><time>2026-04-02T13:07:04.999Z</time></trkpt><trkpt lat="45.195916407406635" lon="9.31499142089719"><ele>66.0</ele><time>2026-04-02T13:07:05.999Z</time></trkpt><trkpt lat="45.19600159626001" lon="9.314946762238154"><ele>66.0</ele><time>2026-04-02T13:07:06.999Z</time></trkpt><trkpt lat="45.19608426945447" lon="9.314934764883553"><ele>66.0</ele><time>2026-04-02T13:07:07.999Z</time></trkpt><trkpt lat="45.19615605220033" lon="9.314952990992806"><ele>66.0</ele><time>2026-04-02T13:07:08.999Z</time></trkpt><trkpt lat="45.196243265511036" lon="9.314997140026199"><ele>66.0</ele><time>2026-04-02T13:07:11Z</time></trkpt><trkpt lat="45.19633063460227" lon="9.314976896675757"><ele>66.0</ele><time>2026-04-02T13:07:22Z</time></trkpt><trkpt lat="45.19643401869149" lon="9.314810045501982"><ele>66.75</ele><time>2026-04-02T13:07:24Z</time></trkpt><trkpt lat="45.196479149691434" lon="9.314668329446942"><ele>67.5</ele><time>2026-04-02T13:07:25Z</time></trkpt><trkpt lat="45.19651634236191" lon="9.314521010061389"><ele>68.25</ele><time>2026-04-02T13:07:26Z</time></trkpt><trkpt lat="45.196554175594486" lon="9.314360674392425"><ele>69.0</ele><time>2026-04-02T13:07:27Z</time></trkpt><trkpt lat="45.196596467185444" lon="9.314193319304822"><ele>69.0</ele><time>2026-04-02T13:07:28Z</time></trkpt><trkpt lat="45.196647175890966" lon="9.314009293324606"><ele>69.0</ele><time>2026-04-02T13:07:29Z</time></trkpt><trkpt lat="45.196697482164126" lon="9.313830309562407"><ele>69.0</ele><time>2026-04-02T13:07:30Z</time></trkpt><trkpt lat="45.196748175351736" lon="9.313640803145242"><ele>69.0</ele><time>2026-04-02T13:07:31Z</time></trkpt><trkpt lat="45.19680079612279" lon="9.313440096767097"><ele>69.0</ele><time>2026-04-02T13:07:32Z</time></trkpt><trkpt lat="45.19686205391381" lon="9.313231090447806"><ele>69.0</ele><time>2026-04-02T13:07:33Z</time></trkpt><trkpt lat="45.19690799477519" lon="9.31303469912053"><ele>69.0</ele><time>2026-04-02T13:07:34Z</time></trkpt><trkpt lat="45.196954429515635" lon="9.312850492460637"><ele>69.0</ele><time>2026-04-02T13:07:35Z</time></trkpt><trkpt lat="45.19699438799448" lon="9.312662253661829"><ele>69.0</ele><time>2026-04-02T13:07:36Z</time></trkpt><trkpt lat="45.19701252500338" lon="9.312468702958013"><ele>69.0</ele><time>2026-04-02T13:07:37Z</time></trkpt><trkpt lat="45.1970147517576" lon="9.312268480228603"><ele>69.0</ele><time>2026-04-02T13:07:38Z</time></trkpt><trkpt lat="45.19700785198569" lon="9.312068693080183"><ele>69.0</ele><time>2026-04-02T13:07:39Z</time></trkpt><trkpt lat="45.19699350375311" lon="9.31186867998782"><ele>69.0</ele><time>2026-04-02T13:07:40Z</time></trkpt><trkpt lat="45.19697190745117" lon="9.311668784998922"><ele>69.0</ele><time>2026-04-02T13:07:41Z</time></trkpt><trkpt lat="45.196950965546385" lon="9.311455026225744"><ele>69.0</ele><time>2026-04-02T13:07:42Z</time></trkpt><trkpt lat="45.19692917843971" lon="9.311223922831509"><ele>69.0</ele><time>2026-04-02T13:07:43Z</time></trkpt><trkpt lat="45.196905978059625" lon="9.31099022788694"><ele>69.0</ele><time>2026-04-02T13:07:44Z</time></trkpt><trkpt lat="45.19688103628066" lon="9.31075867216803"><ele>69.0</ele><time>2026-04-02T13:07:45Z</time></trkpt><trkpt lat="45.196859289570604" lon="9.310526446543587"><ele>69.5</ele><time>2026-04-02T13:07:46Z</time></trkpt><trkpt lat="45.196811192112655" lon="9.31005933843094"><ele>70.0</ele><time>2026-04-02T13:07:48Z</time></trkpt><trkpt lat="45.19678716673742" lon="9.309822922776082"><ele>70.33333333333333</ele><time>2026-04-02T13:07:49Z</time></trkpt><trkpt lat="45.19676441226362" lon="9.30959527831559"><ele>70.66666666666667</ele><time>2026-04-02T13:07:50Z</time></trkpt><trkpt lat="45.196739430642495" lon="9.309366884647252"><ele>71.0</ele><time>2026-04-02T13:07:51Z</time></trkpt><trkpt lat="45.19671483656069" lon="9.309144991411232"><ele>71.0</ele><time>2026-04-02T13:07:52Z</time></trkpt><trkpt lat="45.19669522768339" lon="9.308943238832232"><ele>71.0</ele><time>2026-04-02T13:07:53Z</time></trkpt><trkpt lat="45.19667739236886" lon="9.308761121943062"><ele>71.0</ele><time>2026-04-02T13:07:54Z</time></trkpt><trkpt lat="45.19666111566074" lon="9.308609270333632"><ele>71.0</ele><time>2026-04-02T13:07:55Z</time></trkpt><trkpt lat="45.196648034424236" lon="9.30849765342565"><ele>71.0</ele><time>2026-04-02T13:07:56Z</time></trkpt><trkpt lat="45.19663819698689" lon="9.308364610980176"><ele>71.0</ele><time>2026-04-02T13:07:58Z</time></trkpt><trkpt lat="45.19669071103768" lon="9.308289678442621"><ele>71.0</ele><time>2026-04-02T13:08:02Z</time></trkpt><trkpt lat="45.19678531123553" lon="9.308257186362116"><ele>71.0</ele><time>2026-04-02T13:08:04Z</time></trkpt><trkpt lat="45.1968488215983" lon="9.308251150641093"><ele>71.0</ele><time>2026-04-02T13:08:05Z</time></trkpt><trkpt lat="45.1969210630028" lon="9.308232171586456"><ele>71.0</ele><time>2026-04-02T13:08:06Z</time></trkpt><trkpt lat="45.197003715470906" lon="9.3082083757551"><ele>71.0</ele><time>2026-04-02T13:08:07Z</time></trkpt><trkpt lat="45.197139716854736" lon="9.308175558870397"><ele>71.0</ele><time>2026-04-02T13:08:09Z</time></trkpt><trkpt lat="45.19722226517967" lon="9.30815388674147"><ele>71.0</ele><time>2026-04-02T13:08:10.001Z</time></trkpt><trkpt lat="45.19730464311368" lon="9.308134852955371"><ele>71.0</ele><time>2026-04-02T13:08:11.001Z</time></trkpt><trkpt lat="45.197382357833625" lon="9.308118210548747"><ele>71.0</ele><time>2026-04-02T13:08:12.001Z</time></trkpt><trkpt lat="45.19746660783479" lon="9.308099875144649"><ele>70.75</ele><time>2026-04-02T13:08:13.001Z</time></trkpt><trkpt lat="45.19757321458555" lon="9.308078970043855"><ele>70.5</ele><time>2026-04-02T13:08:14.001Z</time></trkpt><trkpt lat="45.197689772490314" lon="9.308052344862334"><ele>70.25</ele><time>2026-04-02T13:08:15.001Z</time></trkpt><trkpt lat="45.1978078728802" lon="9.308024242496202"><ele>70.0</ele><time>2026-04-02T13:08:16.001Z</time></trkpt><trkpt lat="45.19791723993085" lon="9.3079986161786"><ele>70.0</ele><time>2026-04-02T13:08:17.001Z</time></trkpt><trkpt lat="45.19801317127634" lon="9.3079765427367"><ele>70.0</ele><time>2026-04-02T13:08:18.001Z</time></trkpt><trkpt lat="45.198106061171835" lon="9.307958456524721"><ele>70.0</ele><time>2026-04-02T13:08:19.001Z</time></trkpt><trkpt lat="45.19819734213631" lon="9.3079380383305"><ele>70.0</ele><time>2026-04-02T13:08:20.001Z</time></trkpt><trkpt lat="45.1982915578565" lon="9.307927513728528"><ele>70.0</ele><time>2026-04-02T13:08:21.001Z</time></trkpt><trkpt lat="45.19838062239052" lon="9.307913470948378"><ele>69.83333333333333</ele><time>2026-04-02T13:08:22.001Z</time></trkpt><trkpt lat="45.19847060497131" lon="9.307884511262381"><ele>69.66666666666666</ele><time>2026-04-02T13:08:23.001Z</time></trkpt><trkpt lat="45.198548572914575" lon="9.30786665618477"><ele>69.5</ele><time>2026-04-02T13:08:24.001Z</time></trkpt><trkpt lat="45.19861857943044" lon="9.307847748204974"><ele>69.33333333333333</ele><time>2026-04-02T13:08:25.001Z</time></trkpt><trkpt lat="45.198688951577566" lon="9.307835500096267"><ele>69.16666666666667</ele><time>2026-04-02T13:08:26.001Z</time></trkpt><trkpt lat="45.19876581581335" lon="9.30781090520815"><ele>69.0</ele><time>2026-04-02T13:08:27.001Z</time></trkpt><trkpt lat="45.198853957146376" lon="9.307786086024983"><ele>69.0</ele><time>2026-04-02T13:08:28.001Z</time></trkpt><trkpt lat="45.1989454510817" lon="9.307766963510465"><ele>69.0</ele><time>2026-04-02T13:08:29.001Z</time></trkpt><trkpt lat="45.199048138528326" lon="9.307744596030426"><ele>69.0</ele><time>2026-04-02T13:08:30.001Z</time></trkpt><trkpt lat="45.19914981728534" lon="9.307722043357586"><ele>69.0</ele><time>2026-04-02T13:08:31.001Z</time></trkpt><trkpt lat="45.19923505124139" lon="9.307707722331461"><ele>69.0</ele><time>2026-04-02T13:08:32.001Z</time></trkpt><trkpt lat="45.199324879549735" lon="9.307687684451988"><ele>69.14285714285714</ele><time>2026-04-02T13:08:33.001Z</time></trkpt><trkpt lat="45.19940122008841" lon="9.307671939585981"><ele>69.28571428571429</ele><time>2026-04-02T13:08:34.001Z</time></trkpt><trkpt lat="45.19947672109202" lon="9.307654226570406"><ele>69.42857142857143</ele><time>2026-04-02T13:08:35.001Z</time></trkpt><trkpt lat="45.19955186403439" lon="9.3076295428582"><ele>69.57142857142857</ele><time>2026-04-02T13:08:36.001Z</time></trkpt><trkpt lat="45.199617648666404" lon="9.307593176065767"><ele>69.71428571428572</ele><time>2026-04-02T13:08:37.001Z</time></trkpt><trkpt lat="45.199678712075816" lon="9.307560870231203"><ele>69.85714285714286</ele><time>2026-04-02T13:08:38.001Z</time></trkpt><trkpt lat="45.19974429993932" lon="9.307529793366145"><ele>70.0</ele><time>2026-04-02T13:08:39.001Z</time></trkpt><trkpt lat="45.19981273465458" lon="9.307500088854793"><ele>70.14285714285714</ele><time>2026-04-02T13:08:40.001Z</time></trkpt><trkpt lat="45.19988409140588" lon="9.307469025125028"><ele>70.28571428571428</ele><time>2026-04-02T13:08:41.001Z</time></trkpt><trkpt lat="45.19994847193454" lon="9.307437143867386"><ele>70.42857142857143</ele><time>2026-04-02T13:08:42.001Z</time></trkpt><trkpt lat="45.20002037101703" lon="9.307432930314514"><ele>70.57142857142857</ele><time>2026-04-02T13:08:43.001Z</time></trkpt><trkpt lat="45.20008584839572" lon="9.307407719181558"><ele>70.71428571428571</ele><time>2026-04-02T13:08:44.001Z</time></trkpt><trkpt lat="45.200154634385626" lon="9.3073812341138"><ele>70.85714285714286</ele><time>2026-04-02T13:08:45.001Z</time></trkpt><trkpt lat="45.200226508863736" lon="9.307353559930249"><ele>71.0</ele><time>2026-04-02T13:08:46.001Z</time></trkpt><trkpt lat="45.20029845743353" lon="9.307317255871798"><ele>71.0</ele><time>2026-04-02T13:08:47.001Z</time></trkpt><trkpt lat="45.20037191948847" lon="9.307293616400464"><ele>71.0</ele><time>2026-04-02T13:08:48.001Z</time></trkpt><trkpt lat="45.2004452152782" lon="9.307266409426466"><ele>71.0</ele><time>2026-04-02T13:08:49.001Z</time></trkpt><trkpt lat="45.200518591834616" lon="9.30723569638459"><ele>71.0</ele><time>2026-04-02T13:08:50.001Z</time></trkpt><trkpt lat="45.200585953662376" lon="9.30720904615606"><ele>71.0</ele><time>2026-04-02T13:08:51.001Z</time></trkpt><trkpt lat="45.200661390360885" lon="9.307187661672462"><ele>71.0</ele><time>2026-04-02T13:08:52.001Z</time></trkpt><trkpt lat="45.20074021478313" lon="9.307166565651544"><ele>71.0</ele><time>2026-04-02T13:08:53.001Z</time></trkpt><trkpt lat="45.20081374164131" lon="9.307137463804024"><ele>71.0</ele><time>2026-04-02T13:08:54.001Z</time></trkpt><trkpt lat="45.20089062617269" lon="9.307105624186015"><ele>71.0</ele><time>2026-04-02T13:08:55.001Z</time></trkpt><trkpt lat="45.20096875905681" lon="9.307077199045883"><ele>71.0</ele><time>2026-04-02T13:08:56.001Z</time></trkpt><trkpt lat="45.201048213549896" lon="9.307052294448566"><ele>71.0</ele><time>2026-04-02T13:08:57.001Z</time></trkpt><trkpt lat="45.20112397045354" lon="9.307040595623853"><ele>71.0</ele><time>2026-04-02T13:08:58.001Z</time></trkpt><trkpt lat="45.20120280399273" lon="9.307027690625686"><ele>71.0</ele><time>2026-04-02T13:08:59.001Z</time></trkpt><trkpt lat="45.201321712860874" lon="9.307032938390314"><ele>71.0</ele><time>2026-04-02T13:09:01.001Z</time></trkpt><trkpt lat="45.20138745746796" lon="9.307035396813532"><ele>71.0</ele><time>2026-04-02T13:09:02.001Z</time></trkpt><trkpt lat="45.20145159792606" lon="9.307009408170542"><ele>71.0</ele><time>2026-04-02T13:09:02.999Z</time></trkpt><trkpt lat="45.20151760210338" lon="9.30696711088917"><ele>71.0</ele><time>2026-04-02T13:09:03.999Z</time></trkpt><trkpt lat="45.20159699831752" lon="9.306932147739861"><ele>71.0</ele><time>2026-04-02T13:09:04.999Z</time></trkpt><trkpt lat="45.20167332700997" lon="9.306900376149779"><ele>71.2</ele><time>2026-04-02T13:09:05.999Z</time></trkpt><trkpt lat="45.20175685500594" lon="9.306862005044762"><ele>71.39999999999999</ele><time>2026-04-02T13:09:06.999Z</time></trkpt><trkpt lat="45.20184165203154" lon="9.306830386771962"><ele>71.6</ele><time>2026-04-02T13:09:07.999Z</time></trkpt><trkpt lat="45.20191022924984" lon="9.306805854834716"><ele>71.8</ele><time>2026-04-02T13:09:08.999Z</time></trkpt><trkpt lat="45.20202056491977" lon="9.30675089899285"><ele>72.0</ele><time>2026-04-02T13:09:10.999Z</time></trkpt><trkpt lat="45.20211282869389" lon="9.306681810156093"><ele>72.0</ele><time>2026-04-02T13:09:12.999Z</time></trkpt><trkpt lat="45.20217846985901" lon="9.306525553183775"><ele>72.0</ele><time>2026-04-02T13:09:14.999Z</time></trkpt><trkpt lat="45.20220136463761" lon="9.30641107998819"><ele>72.0</ele><time>2026-04-02T13:09:16Z</time></trkpt><trkpt lat="45.20219339178181" lon="9.306252500798644"><ele>72.0</ele><time>2026-04-02T13:09:17Z</time></trkpt><trkpt lat="45.20220902519441" lon="9.306101104412923"><ele>72.0</ele><time>2026-04-02T13:09:18Z</time></trkpt><trkpt lat="45.20222872404921" lon="9.30597628979774"><ele>71.83333333333333</ele><time>2026-04-02T13:09:19Z</time></trkpt><trkpt lat="45.20223573152858" lon="9.305868390515887"><ele>71.66666666666667</ele><time>2026-04-02T13:09:20Z</time></trkpt><trkpt lat="45.20224406685067" lon="9.305762427382655"><ele>71.5</ele><time>2026-04-02T13:09:21Z</time></trkpt><trkpt lat="45.20225702968268" lon="9.305652412776077"><ele>71.33333333333334</ele><time>2026-04-02T13:09:22Z</time></trkpt><trkpt lat="45.2022729063801" lon="9.30552624961589"><ele>71.16666666666667</ele><time>2026-04-02T13:09:23Z</time></trkpt><trkpt lat="45.20229222386855" lon="9.305390730234409"><ele>71.0</ele><time>2026-04-02T13:09:24Z</time></trkpt><trkpt lat="45.202341559157745" lon="9.305260125210795"><ele>71.0</ele><time>2026-04-02T13:09:25Z</time></trkpt><trkpt lat="45.20235813340547" lon="9.305134185326759"><ele>71.0</ele><time>2026-04-02T13:09:26Z</time></trkpt><trkpt lat="45.20237587934202" lon="9.30500617373938"><ele>71.0</ele><time>2026-04-02T13:09:27Z</time></trkpt><trkpt lat="45.20239336365721" lon="9.304887217864007"><ele>71.0</ele><time>2026-04-02T13:09:28Z</time></trkpt><trkpt lat="45.202399599618715" lon="9.304783087931089"><ele>71.0</ele><time>2026-04-02T13:09:29Z</time></trkpt><trkpt lat="45.20241476764804" lon="9.304690037712987"><ele>71.0</ele><time>2026-04-02T13:09:30Z</time></trkpt><trkpt lat="45.20244540833136" lon="9.304603554799812"><ele>71.0</ele><time>2026-04-02T13:09:31Z</time></trkpt><trkpt lat="45.20247003856592" lon="9.304500854174421"><ele>71.0</ele><time>2026-04-02T13:09:32Z</time></trkpt><trkpt lat="45.202496749849516" lon="9.304396695333182"><ele>71.0</ele><time>2026-04-02T13:09:33Z</time></trkpt><trkpt lat="45.20252343965659" lon="9.304296867097088"><ele>71.0</ele><time>2026-04-02T13:09:34Z</time></trkpt><trkpt lat="45.20254622686604" lon="9.304206313572665"><ele>71.0</ele><time>2026-04-02T13:09:35Z</time></trkpt><trkpt lat="45.20256807355919" lon="9.304119497241407"><ele>71.0</ele><time>2026-04-02T13:09:36Z</time></trkpt><trkpt lat="45.20262014408329" lon="9.30394959125287"><ele>71.2</ele><time>2026-04-02T13:09:38Z</time></trkpt><trkpt lat="45.202645768984944" lon="9.303847109782852"><ele>71.39999999999999</ele><time>2026-04-02T13:09:39Z</time></trkpt><trkpt lat="45.20266639232001" lon="9.303708789818527"><ele>71.6</ele><time>2026-04-02T13:09:40Z</time></trkpt><trkpt lat="45.20268282101603" lon="9.303537639045201"><ele>71.8</ele><time>2026-04-02T13:09:41Z</time></trkpt><trkpt lat="45.202691738493854" lon="9.303400285581104"><ele>72.0</ele><time>2026-04-02T13:09:42Z</time></trkpt><trkpt lat="45.20273117967191" lon="9.303281708023304"><ele>72.0</ele><time>2026-04-02T13:09:44Z</time></trkpt><trkpt lat="45.202814613412144" lon="9.303280116641956"><ele>72.0</ele><time>2026-04-02T13:09:47Z</time></trkpt><trkpt lat="45.20293270759164" lon="9.3033747930302"><ele>72.0</ele><time>2026-04-02T13:09:49Z</time></trkpt><trkpt lat="45.20302198290447" lon="9.303440839087584"><ele>72.0</ele><time>2026-04-02T13:09:50Z</time></trkpt><trkpt lat="45.203136943893746" lon="9.30351192143127"><ele>72.0</ele><time>2026-04-02T13:09:51Z</time></trkpt><trkpt lat="45.203260940503846" lon="9.30359127034379"><ele>71.0</ele><time>2026-04-02T13:09:52Z</time></trkpt><trkpt lat="45.20338266314414" lon="9.303666451000769"><ele>70.0</ele><time>2026-04-02T13:09:53Z</time></trkpt><trkpt lat="45.203499002731206" lon="9.303734484645677"><ele>69.0</ele><time>2026-04-02T13:09:54Z</time></trkpt><trkpt lat="45.203577272781764" lon="9.303787477513001"><ele>68.0</ele><time>2026-04-02T13:09:55Z</time></trkpt><trkpt lat="45.20365295506974" lon="9.303840203819378"><ele>67.0</ele><time>2026-04-02T13:09:56Z</time></trkpt><trkpt lat="45.20371346825332" lon="9.303893997010283"><ele>67.0</ele><time>2026-04-02T13:09:57Z</time></trkpt><trkpt lat="45.203769617074876" lon="9.303971736426037"><ele>67.0</ele><time>2026-04-02T13:09:58Z</time></trkpt><trkpt lat="45.20382716199678" lon="9.304075563767851"><ele>67.0</ele><time>2026-04-02T13:09:59Z</time></trkpt><trkpt lat="45.20388672934266" lon="9.304190678354951"><ele>67.0</ele><time>2026-04-02T13:10:00Z</time></trkpt><trkpt lat="45.20395125929628" lon="9.304328918506553"><ele>67.0</ele><time>2026-04-02T13:10:01Z</time></trkpt><trkpt lat="45.20402755434393" lon="9.304489036207636"><ele>66.75</ele><time>2026-04-02T13:10:02Z</time></trkpt><trkpt lat="45.204112765278424" lon="9.304657115089183"><ele>66.5</ele><time>2026-04-02T13:10:03Z</time></trkpt><trkpt lat="45.204194265360265" lon="9.304820746237214"><ele>66.25</ele><time>2026-04-02T13:10:04Z</time></trkpt><trkpt lat="45.204275834821495" lon="9.304987426236217"><ele>66.0</ele><time>2026-04-02T13:10:05Z</time></trkpt><trkpt lat="45.204353718910355" lon="9.30514260273069"><ele>66.0</ele><time>2026-04-02T13:10:06Z</time></trkpt><trkpt lat="45.20443221525726" lon="9.305298280304942"><ele>66.0</ele><time>2026-04-02T13:10:07Z</time></trkpt><trkpt lat="45.204503653131674" lon="9.305447975013625"><ele>66.0</ele><time>2026-04-02T13:10:08Z</time></trkpt><trkpt lat="45.20458070809502" lon="9.305601996316382"><ele>66.0</ele><time>2026-04-02T13:10:09Z</time></trkpt><trkpt lat="45.20465236313363" lon="9.305752582471461"><ele>66.0</ele><time>2026-04-02T13:10:10Z</time></trkpt><trkpt lat="45.20471316922941" lon="9.305882096205314"><ele>66.0</ele><time>2026-04-02T13:10:11.001Z</time></trkpt><trkpt lat="45.204767147673735" lon="9.305992698911862"><ele>66.0</ele><time>2026-04-02T13:10:12.001Z</time></trkpt><trkpt lat="45.20481506246745" lon="9.306091666546555"><ele>66.0</ele><time>2026-04-02T13:10:13.001Z</time></trkpt><trkpt lat="45.20485754584374" lon="9.30617508014517"><ele>66.0</ele><time>2026-04-02T13:10:14.001Z</time></trkpt><trkpt lat="45.20493738810199" lon="9.306267584454014"><ele>66.0</ele><time>2026-04-02T13:10:16.001Z</time></trkpt><trkpt lat="45.20505506898509" lon="9.30626087368258"><ele>66.0</ele><time>2026-04-02T13:10:18.001Z</time></trkpt><trkpt lat="45.2051659018099" lon="9.306308300949755"><ele>66.0</ele><time>2026-04-02T13:10:20.001Z</time></trkpt><trkpt lat="45.20523907699754" lon="9.306387214791593"><ele>66.0</ele><time>2026-04-02T13:10:21.001Z</time></trkpt><trkpt lat="45.20532684301275" lon="9.306465611927882"><ele>66.0</ele><time>2026-04-02T13:10:22.001Z</time></trkpt><trkpt lat="45.205433752846055" lon="9.306543917648872"><ele>66.0</ele><time>2026-04-02T13:10:23.001Z</time></trkpt><trkpt lat="45.20555147347685" lon="9.306627615246963"><ele>66.0</ele><time>2026-04-02T13:10:24.001Z</time></trkpt><trkpt lat="45.20566521431946" lon="9.306716408741122"><ele>66.0</ele><time>2026-04-02T13:10:25.001Z</time></trkpt><trkpt lat="45.205763742955305" lon="9.306780511693464"><ele>66.0</ele><time>2026-04-02T13:10:26.001Z</time></trkpt><trkpt lat="45.20584445591219" lon="9.306836947905358"><ele>66.0</ele><time>2026-04-02T13:10:27.001Z</time></trkpt><trkpt lat="45.20591026402578" lon="9.306881856842725"><ele>66.0</ele><time>2026-04-02T13:10:28.001Z</time></trkpt><trkpt lat="45.20597392235476" lon="9.306902984179015"><ele>66.0</ele><time>2026-04-02T13:10:29.001Z</time></trkpt><trkpt lat="45.20604166597904" lon="9.306909447819258"><ele>66.0</ele><time>2026-04-02T13:10:30.001Z</time></trkpt><trkpt lat="45.206107863843165" lon="9.306896467959294"><ele>66.0</ele><time>2026-04-02T13:10:31.001Z</time></trkpt><trkpt lat="45.20618576505187" lon="9.30687314810357"><ele>66.0</ele><time>2026-04-02T13:10:32.001Z</time></trkpt><trkpt lat="45.20625989649815" lon="9.306855597699487"><ele>66.0</ele><time>2026-04-02T13:10:33.001Z</time></trkpt><trkpt lat="45.20632668119214" lon="9.306849881624467"><ele>66.0</ele><time>2026-04-02T13:10:34.001Z</time></trkpt><trkpt lat="45.20646294026885" lon="9.306900667900697"><ele>66.0</ele><time>2026-04-02T13:10:36.001Z</time></trkpt><trkpt lat="45.20652804919237" lon="9.306982248546973"><ele>66.0</ele><time>2026-04-02T13:10:37.001Z</time></trkpt><trkpt lat="45.20658230372617" lon="9.307097433129838"><ele>66.0</ele><time>2026-04-02T13:10:38.001Z</time></trkpt><trkpt lat="45.20663878072537" lon="9.307231135335767"><ele>66.0</ele><time>2026-04-02T13:10:39.001Z</time></trkpt><trkpt lat="45.206707719468106" lon="9.30736577167099"><ele>66.39999999999999</ele><time>2026-04-02T13:10:40.001Z</time></trkpt><trkpt lat="45.2067774677017" lon="9.307491961666944"><ele>66.8</ele><time>2026-04-02T13:10:41.001Z</time></trkpt><trkpt lat="45.20684728505112" lon="9.307598896906711"><ele>67.19999999999999</ele><time>2026-04-02T13:10:42.001Z</time></trkpt><trkpt lat="45.2069195625382" lon="9.307685337967467"><ele>67.6</ele><time>2026-04-02T13:10:43.001Z</time></trkpt><trkpt lat="45.20699215034411" lon="9.307779911982985"><ele>68.0</ele><time>2026-04-02T13:10:44.001Z</time></trkpt><trkpt lat="45.2070712643287" lon="9.307870192565588"><ele>68.0</ele><time>2026-04-02T13:10:45.001Z</time></trkpt><trkpt lat="45.20715471944058" lon="9.307944522687674"><ele>68.0</ele><time>2026-04-02T13:10:46.001Z</time></trkpt><trkpt lat="45.207237743326694" lon="9.307998574367751"><ele>68.0</ele><time>2026-04-02T13:10:47.001Z</time></trkpt><trkpt lat="45.20731718771162" lon="9.308044972164765"><ele>68.0</ele><time>2026-04-02T13:10:48.001Z</time></trkpt><trkpt lat="45.2073916186916" lon="9.3080975479305"><ele>68.0</ele><time>2026-04-02T13:10:49.001Z</time></trkpt><trkpt lat="45.20747327456013" lon="9.308148789980798"><ele>68.0</ele><time>2026-04-02T13:10:50.001Z</time></trkpt><trkpt lat="45.20755300094076" lon="9.308215368232037"><ele>68.83333333333334</ele><time>2026-04-02T13:10:51.001Z</time></trkpt><trkpt lat="45.20762502354254" lon="9.308260009117491"><ele>69.66666666666667</ele><time>2026-04-02T13:10:52.001Z</time></trkpt><trkpt lat="45.20768663131806" lon="9.308304058673617"><ele>70.5</ele><time>2026-04-02T13:10:53.001Z</time></trkpt><trkpt lat="45.20774499359452" lon="9.30834409953424"><ele>71.33333333333333</ele><time>2026-04-02T13:10:54.001Z</time></trkpt><trkpt lat="45.20783957227579" lon="9.30834766231865"><ele>72.16666666666666</ele><time>2026-04-02T13:10:55.001Z</time></trkpt><trkpt lat="45.207930335976066" lon="9.308346771623185"><ele>73.0</ele><time>2026-04-02T13:10:56.001Z</time></trkpt><trkpt lat="45.208018044917075" lon="9.308371553679407"><ele>73.0</ele><time>2026-04-02T13:10:57.001Z</time></trkpt><trkpt lat="45.20809540649199" lon="9.308374361034932"><ele>73.0</ele><time>2026-04-02T13:10:58.001Z</time></trkpt><trkpt lat="45.208166635708665" lon="9.308359563133575"><ele>73.0</ele><time>2026-04-02T13:10:59.001Z</time></trkpt><trkpt lat="45.20827853700351" lon="9.308360564455823"><ele>73.0</ele><time>2026-04-02T13:11:01.001Z</time></trkpt><trkpt lat="45.20835386115552" lon="9.308470336256613"><ele>73.0</ele><time>2026-04-02T13:11:03.001Z</time></trkpt><trkpt lat="45.20839259484601" lon="9.308557383551335"><ele>73.0</ele><time>2026-04-02T13:11:06.001Z</time></trkpt><trkpt lat="45.20854304057963" lon="9.308374743695284"><ele>73.0</ele><time>2026-04-02T13:11:08.001Z</time></trkpt><trkpt lat="45.20859747804715" lon="9.308299808014898"><ele>73.0</ele><time>2026-04-02T13:11:09Z</time></trkpt><trkpt lat="45.20865441421236" lon="9.308237113485982"><ele>73.0</ele><time>2026-04-02T13:11:10Z</time></trkpt><trkpt lat="45.208781216980505" lon="9.308178924336746"><ele>73.0</ele><time>2026-04-02T13:11:12Z</time></trkpt><trkpt lat="45.208879749472565" lon="9.308189170149962"><ele>73.0</ele><time>2026-04-02T13:11:13Z</time></trkpt><trkpt lat="45.20898351963517" lon="9.30817566680607"><ele>72.8</ele><time>2026-04-02T13:11:14Z</time></trkpt><trkpt lat="45.209078294763295" lon="9.308131521168614"><ele>72.6</ele><time>2026-04-02T13:11:15Z</time></trkpt><trkpt lat="45.20915857962429" lon="9.308079621789139"><ele>72.4</ele><time>2026-04-02T13:11:16Z</time></trkpt><trkpt lat="45.209243570109415" lon="9.308018990787831"><ele>72.2</ele><time>2026-04-02T13:11:17Z</time></trkpt><trkpt lat="45.209315555562526" lon="9.307939079217098"><ele>72.0</ele><time>2026-04-02T13:11:18Z</time></trkpt><trkpt lat="45.20938193921304" lon="9.30785108586938"><ele>72.0</ele><time>2026-04-02T13:11:19Z</time></trkpt><trkpt lat="45.209440486374724" lon="9.307772262624836"><ele>72.0</ele><time>2026-04-02T13:11:20Z</time></trkpt><trkpt lat="45.20948187005889" lon="9.307666095934946"><ele>72.0</ele><time>2026-04-02T13:11:21Z</time></trkpt><trkpt lat="45.209542383722415" lon="9.307557106609472"><ele>72.0</ele><time>2026-04-02T13:11:22Z</time></trkpt><trkpt lat="45.20957716399363" lon="9.30745127089107"><ele>72.0</ele><time>2026-04-02T13:11:23Z</time></trkpt><trkpt lat="45.20963690075293" lon="9.30738485334892"><ele>72.0</ele><time>2026-04-02T13:11:24Z</time></trkpt><trkpt lat="45.20970076993185" lon="9.30735136771022"><ele>72.25</ele><time>2026-04-02T13:11:25Z</time></trkpt><trkpt lat="45.20984951910596" lon="9.30741227684967"><ele>72.5</ele><time>2026-04-02T13:11:27Z</time></trkpt><trkpt lat="45.20994345044152" lon="9.307428894276724"><ele>72.75</ele><time>2026-04-02T13:11:28Z</time></trkpt><trkpt lat="45.21005685641234" lon="9.307448601951975"><ele>73.0</ele><time>2026-04-02T13:11:29Z</time></trkpt><trkpt lat="45.210179170532086" lon="9.307439050734"><ele>73.0</ele><time>2026-04-02T13:11:30Z</time></trkpt><trkpt lat="45.21031481386135" lon="9.307475521575354"><ele>73.0</ele><time>2026-04-02T13:11:31Z</time></trkpt><trkpt lat="45.21045706535807" lon="9.307489194563862"><ele>73.0</ele><time>2026-04-02T13:11:32Z</time></trkpt><trkpt lat="45.21057963781385" lon="9.307492369573925"><ele>73.0</ele><time>2026-04-02T13:11:33Z</time></trkpt><trkpt lat="45.21068641258854" lon="9.307491043472453"><ele>73.2</ele><time>2026-04-02T13:11:34Z</time></trkpt><trkpt lat="45.21079396682707" lon="9.307495392919314"><ele>73.4</ele><time>2026-04-02T13:11:35Z</time></trkpt><trkpt lat="45.21090156657348" lon="9.307473600186661"><ele>73.60000000000001</ele><time>2026-04-02T13:11:36Z</time></trkpt><trkpt lat="45.210995355214074" lon="9.307434432999267"><ele>73.8</ele><time>2026-04-02T13:11:37Z</time></trkpt><trkpt lat="45.21109289866275" lon="9.307387031678036"><ele>74.0</ele><time>2026-04-02T13:11:38Z</time></trkpt><trkpt lat="45.21119114704966" lon="9.307340782059127"><ele>74.0</ele><time>2026-04-02T13:11:39Z</time></trkpt><trkpt lat="45.211284374698664" lon="9.307276526121203"><ele>74.0</ele><time>2026-04-02T13:11:40Z</time></trkpt><trkpt lat="45.21138404746042" lon="9.30722841815138"><ele>74.0</ele><time>2026-04-02T13:11:41Z</time></trkpt><trkpt lat="45.211471070333054" lon="9.307153315352318"><ele>74.0</ele><time>2026-04-02T13:11:42Z</time></trkpt><trkpt lat="45.21154574602755" lon="9.307082651607923"><ele>74.0</ele><time>2026-04-02T13:11:43Z</time></trkpt><trkpt lat="45.21161725389451" lon="9.307007757062308"><ele>74.25</ele><time>2026-04-02T13:11:44Z</time></trkpt><trkpt lat="45.21168732048045" lon="9.306894879595568"><ele>74.5</ele><time>2026-04-02T13:11:45Z</time></trkpt><trkpt lat="45.21176917625559" lon="9.306790168590704"><ele>74.75</ele><time>2026-04-02T13:11:46Z</time></trkpt><trkpt lat="45.21184600451664" lon="9.306648928780945"><ele>75.0</ele><time>2026-04-02T13:11:47Z</time></trkpt><trkpt lat="45.21193773811251" lon="9.306502533762105"><ele>74.75</ele><time>2026-04-02T13:11:48Z</time></trkpt><trkpt lat="45.21202693489321" lon="9.306335308020422"><ele>74.5</ele><time>2026-04-02T13:11:49Z</time></trkpt><trkpt lat="45.212112412995715" lon="9.306185113247324"><ele>74.25</ele><time>2026-04-02T13:11:50Z</time></trkpt><trkpt lat="45.21219467134252" lon="9.306040633625479"><ele>74.0</ele><time>2026-04-02T13:11:51Z</time></trkpt><trkpt lat="45.21227971527227" lon="9.305890564065256"><ele>74.25</ele><time>2026-04-02T13:11:52Z</time></trkpt><trkpt lat="45.21236467552298" lon="9.305737681677751"><ele>74.5</ele><time>2026-04-02T13:11:53Z</time></trkpt><trkpt lat="45.21245285095253" lon="9.305576756777288"><ele>74.75</ele><time>2026-04-02T13:11:54Z</time></trkpt><trkpt lat="45.212530508991335" lon="9.305397460542055"><ele>75.0</ele><time>2026-04-02T13:11:55Z</time></trkpt><trkpt lat="45.21263522711227" lon="9.305248411151593"><ele>75.0</ele><time>2026-04-02T13:11:56Z</time></trkpt><trkpt lat="45.212727116291845" lon="9.305086102855862"><ele>75.0</ele><time>2026-04-02T13:11:57Z</time></trkpt><trkpt lat="45.21281108557766" lon="9.304914258030687"><ele>75.0</ele><time>2026-04-02T13:11:58Z</time></trkpt><trkpt lat="45.21290794243851" lon="9.304757353370125"><ele>75.0</ele><time>2026-04-02T13:11:59Z</time></trkpt><trkpt lat="45.2130162241479" lon="9.3046010758159"><ele>75.0</ele><time>2026-04-02T13:12:00Z</time></trkpt><trkpt lat="45.213133115861886" lon="9.304442799322581"><ele>75.0</ele><time>2026-04-02T13:12:01Z</time></trkpt><trkpt lat="45.213249755011844" lon="9.30428071072842"><ele>75.0</ele><time>2026-04-02T13:12:02Z</time></trkpt><trkpt lat="45.21336118316463" lon="9.304134608081212"><ele>75.0</ele><time>2026-04-02T13:12:03Z</time></trkpt><trkpt lat="45.21347016425329" lon="9.303988711946879"><ele>75.0</ele><time>2026-04-02T13:12:04.001Z</time></trkpt><trkpt lat="45.21357906194758" lon="9.303839755560535"><ele>75.0</ele><time>2026-04-02T13:12:05.001Z</time></trkpt><trkpt lat="45.2136886543523" lon="9.303689261697038"><ele>74.5</ele><time>2026-04-02T13:12:06.001Z</time></trkpt><trkpt lat="45.21379278012109" lon="9.303541956935435"><ele>74.0</ele><time>2026-04-02T13:12:07.001Z</time></trkpt><trkpt lat="45.21389184157265" lon="9.30340051928091"><ele>73.5</ele><time>2026-04-02T13:12:08.001Z</time></trkpt><trkpt lat="45.21398920547093" lon="9.303252142301037"><ele>73.0</ele><time>2026-04-02T13:12:09.001Z</time></trkpt><trkpt lat="45.21408392142122" lon="9.30310062100087"><ele>73.0</ele><time>2026-04-02T13:12:10.001Z</time></trkpt><trkpt lat="45.21416599554179" lon="9.302959771175074"><ele>73.0</ele><time>2026-04-02T13:12:11.001Z</time></trkpt><trkpt lat="45.21424068189374" lon="9.302829178483982"><ele>73.0</ele><time>2026-04-02T13:12:12.001Z</time></trkpt><trkpt lat="45.21432877617447" lon="9.30272426464741"><ele>73.0</ele><time>2026-04-02T13:12:13.001Z</time></trkpt><trkpt lat="45.21441495354734" lon="9.302604402844741"><ele>73.0</ele><time>2026-04-02T13:12:14.001Z</time></trkpt><trkpt lat="45.21451159240526" lon="9.302475608308614"><ele>73.0</ele><time>2026-04-02T13:12:15.001Z</time></trkpt><trkpt lat="45.21461665245353" lon="9.30234052300077"><ele>73.0</ele><time>2026-04-02T13:12:16.001Z</time></trkpt><trkpt lat="45.21472216314005" lon="9.302206674130012"><ele>73.0</ele><time>2026-04-02T13:12:17.001Z</time></trkpt><trkpt lat="45.21482477990185" lon="9.30207649643561"><ele>73.0</ele><time>2026-04-02T13:12:18.001Z</time></trkpt><trkpt lat="45.2149250879137" lon="9.301949246925659"><ele>73.0</ele><time>2026-04-02T13:12:19.001Z</time></trkpt><trkpt lat="45.21502036414818" lon="9.301813944384019"><ele>73.0</ele><time>2026-04-02T13:12:20.001Z</time></trkpt><trkpt lat="45.21511596089198" lon="9.301680455466194"><ele>73.0</ele><time>2026-04-02T13:12:21.001Z</time></trkpt><trkpt lat="45.215214413841615" lon="9.301558244552533"><ele>73.0</ele><time>2026-04-02T13:12:22.001Z</time></trkpt><trkpt lat="45.21530864553849" lon="9.301437140050716"><ele>73.0</ele><time>2026-04-02T13:12:23.001Z</time></trkpt><trkpt lat="45.215400022430764" lon="9.301316832874996"><ele>73.0</ele><time>2026-04-02T13:12:24.001Z</time></trkpt><trkpt lat="45.21548883657791" lon="9.301199371026868"><ele>73.0</ele><time>2026-04-02T13:12:25.001Z</time></trkpt><trkpt lat="45.21557428241396" lon="9.301077424978768"><ele>73.2</ele><time>2026-04-02T13:12:26.001Z</time></trkpt><trkpt lat="45.215658718001514" lon="9.30096754939488"><ele>73.4</ele><time>2026-04-02T13:12:27.001Z</time></trkpt><trkpt lat="45.215744853429946" lon="9.300869144044398"><ele>73.60000000000001</ele><time>2026-04-02T13:12:28.001Z</time></trkpt><trkpt lat="45.21582905096072" lon="9.30078674344855"><ele>73.8</ele><time>2026-04-02T13:12:29.001Z</time></trkpt><trkpt lat="45.215912664405735" lon="9.300720804358024"><ele>74.0</ele><time>2026-04-02T13:12:30.001Z</time></trkpt><trkpt lat="45.21600048280911" lon="9.300681240016612"><ele>74.0</ele><time>2026-04-02T13:12:31.001Z</time></trkpt><trkpt lat="45.21610000152807" lon="9.300656831546295"><ele>74.0</ele><time>2026-04-02T13:12:32.001Z</time></trkpt><trkpt lat="45.21621823663975" lon="9.300628864202844"><ele>74.0</ele><time>2026-04-02T13:12:33.001Z</time></trkpt><trkpt lat="45.21633933212175" lon="9.300571605949347"><ele>74.0</ele><time>2026-04-02T13:12:34.001Z</time></trkpt><trkpt lat="45.216441874915894" lon="9.300483508714155"><ele>74.5</ele><time>2026-04-02T13:12:35.001Z</time></trkpt><trkpt lat="45.21653234680512" lon="9.300396137051038"><ele>75.0</ele><time>2026-04-02T13:12:36.001Z</time></trkpt><trkpt lat="45.21663604425916" lon="9.300325674566054"><ele>75.5</ele><time>2026-04-02T13:12:37.001Z</time></trkpt><trkpt lat="45.216756513757325" lon="9.30025512188184"><ele>76.0</ele><time>2026-04-02T13:12:38.001Z</time></trkpt><trkpt lat="45.21686989258937" lon="9.300179396066774"><ele>76.0</ele><time>2026-04-02T13:12:39.001Z</time></trkpt><trkpt lat="45.216964652419435" lon="9.300108425787291"><ele>76.0</ele><time>2026-04-02T13:12:40.001Z</time></trkpt><trkpt lat="45.2170691167355" lon="9.300050062693272"><ele>76.0</ele><time>2026-04-02T13:12:41.001Z</time></trkpt><trkpt lat="45.217167871169465" lon="9.299999113981013"><ele>76.0</ele><time>2026-04-02T13:12:42.001Z</time></trkpt><trkpt lat="45.217261173528385" lon="9.299975759534366"><ele>76.0</ele><time>2026-04-02T13:12:43.001Z</time></trkpt><trkpt lat="45.217350324038165" lon="9.299936565968999"><ele>76.0</ele><time>2026-04-02T13:12:44.001Z</time></trkpt><trkpt lat="45.217436513463575" lon="9.299891934934818"><ele>76.0</ele><time>2026-04-02T13:12:45.001Z</time></trkpt><trkpt lat="45.21750742678315" lon="9.299832652482161"><ele>76.0</ele><time>2026-04-02T13:12:46.001Z</time></trkpt><trkpt lat="45.2175866849918" lon="9.299806022247317"><ele>76.0</ele><time>2026-04-02T13:12:47.001Z</time></trkpt><trkpt lat="45.217658488549105" lon="9.299783048822697"><ele>76.0</ele><time>2026-04-02T13:12:48.001Z</time></trkpt><trkpt lat="45.21776131272829" lon="9.299746964738734"><ele>76.0</ele><time>2026-04-02T13:12:50.001Z</time></trkpt><trkpt lat="45.21787836641025" lon="9.299912461824224"><ele>76.0</ele><time>2026-04-02T13:12:53.001Z</time></trkpt><trkpt lat="45.21790727130507" lon="9.300015378393923"><ele>76.0</ele><time>2026-04-02T13:12:54.001Z</time></trkpt><trkpt lat="45.21794309324866" lon="9.300154378120673"><ele>76.0</ele><time>2026-04-02T13:12:55.001Z</time></trkpt><trkpt lat="45.21799086046251" lon="9.300310039067778"><ele>76.0</ele><time>2026-04-02T13:12:56.001Z</time></trkpt><trkpt lat="45.2180314339754" lon="9.30044637025611"><ele>76.0</ele><time>2026-04-02T13:12:57.001Z</time></trkpt><trkpt lat="45.21806677843024" lon="9.300565077383558"><ele>76.0</ele><time>2026-04-02T13:12:58.001Z</time></trkpt><trkpt lat="45.21809413227861" lon="9.300664677898476"><ele>76.0</ele><time>2026-04-02T13:12:59.001Z</time></trkpt><trkpt lat="45.218133280622155" lon="9.300748430335291"><ele>76.0</ele><time>2026-04-02T13:13:00.001Z</time></trkpt><trkpt lat="45.21818984693271" lon="9.300814680078448"><ele>76.0</ele><time>2026-04-02T13:13:01.001Z</time></trkpt><trkpt lat="45.218264413976044" lon="9.30086931002268"><ele>76.0</ele><time>2026-04-02T13:13:02.001Z</time></trkpt><trkpt lat="45.21835192655954" lon="9.3009222791876"><ele>76.0</ele><time>2026-04-02T13:13:03.001Z</time></trkpt><trkpt lat="45.218451111122526" lon="9.300977383850398"><ele>75.75</ele><time>2026-04-02T13:13:04.001Z</time></trkpt><trkpt lat="45.218547561870786" lon="9.301045815004617"><ele>75.5</ele><time>2026-04-02T13:13:05.001Z</time></trkpt><trkpt lat="45.21864215459713" lon="9.301129460084136"><ele>75.25</ele><time>2026-04-02T13:13:06.001Z</time></trkpt><trkpt lat="45.21874493138418" lon="9.301247117566009"><ele>75.0</ele><time>2026-04-02T13:13:07.001Z</time></trkpt><trkpt lat="45.21886763949914" lon="9.301397537495678"><ele>74.75</ele><time>2026-04-02T13:13:08.001Z</time></trkpt><trkpt lat="45.218989169826244" lon="9.301554592359762"><ele>74.5</ele><time>2026-04-02T13:13:09.001Z</time></trkpt><trkpt lat="45.21908931115957" lon="9.301677903089368"><ele>74.25</ele><time>2026-04-02T13:13:10.001Z</time></trkpt><trkpt lat="45.219171579251785" lon="9.30179850009188"><ele>74.0</ele><time>2026-04-02T13:13:11.001Z</time></trkpt><trkpt lat="45.21924977664178" lon="9.301941027567809"><ele>74.0</ele><time>2026-04-02T13:13:12.002Z</time></trkpt><trkpt lat="45.219335844286576" lon="9.302116863176416"><ele>74.0</ele><time>2026-04-02T13:13:13.002Z</time></trkpt><trkpt lat="45.21943013595283" lon="9.302298073927021"><ele>74.0</ele><time>2026-04-02T13:13:14.002Z</time></trkpt><trkpt lat="45.219501360433675" lon="9.302438610470698"><ele>74.0</ele><time>2026-04-02T13:13:15Z</time></trkpt><trkpt lat="45.219564356231174" lon="9.302556990020213"><ele>74.0</ele><time>2026-04-02T13:13:16Z</time></trkpt><trkpt lat="45.21963839071888" lon="9.302667576976093"><ele>74.0</ele><time>2026-04-02T13:13:17Z</time></trkpt><trkpt lat="45.21974480025596" lon="9.302754849323124"><ele>74.0</ele><time>2026-04-02T13:13:18Z</time></trkpt><trkpt lat="45.21983632078306" lon="9.302888073422837"><ele>74.0</ele><time>2026-04-02T13:13:19Z</time></trkpt><trkpt lat="45.21995575284429" lon="9.30301886184476"><ele>74.33333333333334</ele><time>2026-04-02T13:13:20Z</time></trkpt><trkpt lat="45.220074185128645" lon="9.303149798342378"><ele>74.66666666666667</ele><time>2026-04-02T13:13:21Z</time></trkpt><trkpt lat="45.22019592674688" lon="9.303284559430848"><ele>75.0</ele><time>2026-04-02T13:13:22Z</time></trkpt><trkpt lat="45.220310481845836" lon="9.303414617588361"><ele>75.0</ele><time>2026-04-02T13:13:23Z</time></trkpt><trkpt lat="45.22041121138596" lon="9.303528757580759"><ele>75.0</ele><time>2026-04-02T13:13:24Z</time></trkpt><trkpt lat="45.22050209748469" lon="9.303635906567852"><ele>75.0</ele><time>2026-04-02T13:13:25Z</time></trkpt><trkpt lat="45.22059651580827" lon="9.303714242869628"><ele>75.0</ele><time>2026-04-02T13:13:26Z</time></trkpt><trkpt lat="45.22067351127786" lon="9.303801123722913"><ele>74.66666666666667</ele><time>2026-04-02T13:13:27Z</time></trkpt><trkpt lat="45.22074534444373" lon="9.303885932092127"><ele>74.33333333333333</ele><time>2026-04-02T13:13:28Z</time></trkpt><trkpt lat="45.22080628532908" lon="9.303966001424035"><ele>74.0</ele><time>2026-04-02T13:13:29Z</time></trkpt><trkpt lat="45.22086090837796" lon="9.304042568930782"><ele>73.66666666666666</ele><time>2026-04-02T13:13:30Z</time></trkpt><trkpt lat="45.22091525257067" lon="9.304119738644209"><ele>73.33333333333333</ele><time>2026-04-02T13:13:31Z</time></trkpt><trkpt lat="45.22096705489864" lon="9.304194534350664"><ele>73.0</ele><time>2026-04-02T13:13:32Z</time></trkpt><trkpt lat="45.22102179551074" lon="9.304274722908994"><ele>73.0</ele><time>2026-04-02T13:13:33Z</time></trkpt><trkpt lat="45.22107263738288" lon="9.304354732903679"><ele>73.0</ele><time>2026-04-02T13:13:34Z</time></trkpt><trkpt lat="45.22111734275546" lon="9.304430096730158"><ele>73.0</ele><time>2026-04-02T13:13:35Z</time></trkpt><trkpt lat="45.221160556655654" lon="9.304506929539947"><ele>73.0</ele><time>2026-04-02T13:13:36Z</time></trkpt><trkpt lat="45.22120163419802" lon="9.304583887409924"><ele>73.0</ele><time>2026-04-02T13:13:37Z</time></trkpt><trkpt lat="45.22124142257683" lon="9.304658430099622"><ele>73.0</ele><time>2026-04-02T13:13:38Z</time></trkpt><trkpt lat="45.22128084450836" lon="9.304734511505016"><ele>73.0</ele><time>2026-04-02T13:13:39Z</time></trkpt><trkpt lat="45.221345101476295" lon="9.304860969070722"><ele>73.0</ele><time>2026-04-02T13:13:41Z</time></trkpt><trkpt lat="45.22139674648781" lon="9.30496260625932"><ele>73.0</ele><time>2026-04-02T13:13:43Z</time></trkpt><trkpt lat="45.22144815454623" lon="9.305063777074444"><ele>73.0</ele><time>2026-04-02T13:13:45Z</time></trkpt><trkpt lat="45.22151193706009" lon="9.305181126398974"><ele>73.0</ele><time>2026-04-02T13:13:47Z</time></trkpt><trkpt lat="45.22157935663043" lon="9.305296425988576"><ele>73.0</ele><time>2026-04-02T13:13:49Z</time></trkpt><trkpt lat="45.22164603297309" lon="9.305410480216871"><ele>73.4</ele><time>2026-04-02T13:13:51Z</time></trkpt><trkpt lat="45.22172570165386" lon="9.305550238228342"><ele>73.8</ele><time>2026-04-02T13:13:53Z</time></trkpt><trkpt lat="45.2217756535465" lon="9.305641580528157"><ele>74.2</ele><time>2026-04-02T13:13:54Z</time></trkpt><trkpt lat="45.221835907978274" lon="9.305752501469678"><ele>74.6</ele><time>2026-04-02T13:13:55Z</time></trkpt><trkpt lat="45.221894358237" lon="9.305859024977872"><ele>75.0</ele><time>2026-04-02T13:13:56Z</time></trkpt><trkpt lat="45.22194718640409" lon="9.305953866167137"><ele>75.0</ele><time>2026-04-02T13:13:57Z</time></trkpt><trkpt lat="45.2220003476846" lon="9.306048107797505"><ele>75.0</ele><time>2026-04-02T13:13:58Z</time></trkpt><trkpt lat="45.222055147195974" lon="9.306137433306876"><ele>75.0</ele><time>2026-04-02T13:13:59Z</time></trkpt><trkpt lat="45.222125875920824" lon="9.306237422081349"><ele>75.0</ele><time>2026-04-02T13:14:00Z</time></trkpt><trkpt lat="45.222211455049006" lon="9.306351474299516"><ele>75.0</ele><time>2026-04-02T13:14:01Z</time></trkpt><trkpt lat="45.22229167610072" lon="9.306456366105563"><ele>74.83333333333333</ele><time>2026-04-02T13:14:02Z</time></trkpt><trkpt lat="45.222358674813925" lon="9.306543969589834"><ele>74.66666666666667</ele><time>2026-04-02T13:14:03Z</time></trkpt><trkpt lat="45.22241834810314" lon="9.306621994459928"><ele>74.5</ele><time>2026-04-02T13:14:04Z</time></trkpt><trkpt lat="45.22247238758238" lon="9.306692408422567"><ele>74.33333333333334</ele><time>2026-04-02T13:14:05Z</time></trkpt><trkpt lat="45.22252599777103" lon="9.3067613306816"><ele>74.16666666666667</ele><time>2026-04-02T13:14:06.001Z</time></trkpt><trkpt lat="45.22257960044463" lon="9.306830243328186"><ele>74.0</ele><time>2026-04-02T13:14:07.001Z</time></trkpt><trkpt lat="45.22262842151581" lon="9.30689259999435"><ele>74.0</ele><time>2026-04-02T13:14:08.001Z</time></trkpt><trkpt lat="45.22272013679859" lon="9.307008300547265"><ele>74.0</ele><time>2026-04-02T13:14:10.001Z</time></trkpt><trkpt lat="45.22278555196319" lon="9.307090535245534"><ele>74.0</ele><time>2026-04-02T13:14:12.001Z</time></trkpt><trkpt lat="45.222720790414186" lon="9.30702292137431"><ele>74.0</ele><time>2026-04-02T13:15:06.001Z</time></trkpt><trkpt lat="45.222660303666935" lon="9.306939436590014"><ele>74.0</ele><time>2026-04-02T13:15:07.001Z</time></trkpt><trkpt lat="45.222607388458016" lon="9.306874518948417"><ele>74.0</ele><time>2026-04-02T13:15:08.001Z</time></trkpt><trkpt lat="45.2225633798028" lon="9.306806981314061"><ele>74.0</ele><time>2026-04-02T13:15:09.001Z</time></trkpt><trkpt lat="45.22246825389669" lon="9.306688842774173"><ele>74.0</ele><time>2026-04-02T13:15:11.001Z</time></trkpt><trkpt lat="45.222414829787944" lon="9.306621182462687"><ele>74.0</ele><time>2026-04-02T13:15:12.002Z</time></trkpt><trkpt lat="45.222355717930476" lon="9.306549196643726"><ele>74.0</ele><time>2026-04-02T13:15:13.002Z</time></trkpt><trkpt lat="45.22230523134428" lon="9.306481283884471"><ele>74.0</ele><time>2026-04-02T13:15:14.002Z</time></trkpt><trkpt lat="45.222258197026726" lon="9.306412721873212"><ele>74.0</ele><time>2026-04-02T13:15:15.002Z</time></trkpt><trkpt lat="45.22223220466928" lon="9.306314464676698"><ele>74.16666666666667</ele><time>2026-04-02T13:15:16.002Z</time></trkpt><trkpt lat="45.222185882335424" lon="9.306253928923715"><ele>74.33333333333334</ele><time>2026-04-02T13:15:17.002Z</time></trkpt><trkpt lat="45.22212816601776" lon="9.306199737591962"><ele>74.5</ele><time>2026-04-02T13:15:18.002Z</time></trkpt><trkpt lat="45.222089057171914" lon="9.306119383870474"><ele>74.66666666666667</ele><time>2026-04-02T13:15:19.002Z</time></trkpt><trkpt lat="45.22204345414562" lon="9.306052207704456"><ele>74.83333333333333</ele><time>2026-04-02T13:15:20.002Z</time></trkpt><trkpt lat="45.22196847009856" lon="9.30591597561809"><ele>75.0</ele><time>2026-04-02T13:15:22Z</time></trkpt><trkpt lat="45.22189505820892" lon="9.305784180978698"><ele>75.0</ele><time>2026-04-02T13:15:24Z</time></trkpt><trkpt lat="45.22182662797416" lon="9.305658119264713"><ele>75.0</ele><time>2026-04-02T13:15:26Z</time></trkpt><trkpt lat="45.221750995977416" lon="9.305555475575275"><ele>75.0</ele><time>2026-04-02T13:15:28Z</time></trkpt><trkpt lat="45.22170563500509" lon="9.305439496406107"><ele>75.0</ele><time>2026-04-02T13:15:30Z</time></trkpt><trkpt lat="45.221647203739785" lon="9.30533874409412"><ele>75.0</ele><time>2026-04-02T13:15:32Z</time></trkpt><trkpt lat="45.22158500295829" lon="9.30523210341765"><ele>75.0</ele><time>2026-04-02T13:15:34Z</time></trkpt><trkpt lat="45.221510506686336" lon="9.305126301311178"><ele>75.0</ele><time>2026-04-02T13:15:36Z</time></trkpt><trkpt lat="45.22145328611015" lon="9.305025332253619"><ele>75.0</ele><time>2026-04-02T13:15:38Z</time></trkpt><trkpt lat="45.221379851903535" lon="9.304880142768432"><ele>75.0</ele><time>2026-04-02T13:15:40Z</time></trkpt><trkpt lat="45.22133337721822" lon="9.304794584734926"><ele>75.0</ele><time>2026-04-02T13:15:41Z</time></trkpt><trkpt lat="45.22128916058427" lon="9.30470468454563"><ele>74.6</ele><time>2026-04-02T13:15:42Z</time></trkpt><trkpt lat="45.22124129746255" lon="9.304608007910272"><ele>74.2</ele><time>2026-04-02T13:15:43Z</time></trkpt><trkpt lat="45.221192624350614" lon="9.304513654742074"><ele>73.8</ele><time>2026-04-02T13:15:44Z</time></trkpt><trkpt lat="45.221133599496994" lon="9.304410598587214"><ele>73.4</ele><time>2026-04-02T13:15:45Z</time></trkpt><trkpt lat="45.22106477589695" lon="9.30430184306766"><ele>73.0</ele><time>2026-04-02T13:15:46Z</time></trkpt><trkpt lat="45.22098605776682" lon="9.304181086505494"><ele>73.0</ele><time>2026-04-02T13:15:47Z</time></trkpt><trkpt lat="45.22090693778851" lon="9.30404119297094"><ele>73.0</ele><time>2026-04-02T13:15:48Z</time></trkpt><trkpt lat="45.22079470558743" lon="9.30390585803374"><ele>73.0</ele><time>2026-04-02T13:15:49Z</time></trkpt><trkpt lat="45.22070346109878" lon="9.30379066873234"><ele>73.0</ele><time>2026-04-02T13:15:50Z</time></trkpt><trkpt lat="45.22061167508182" lon="9.303671160573355"><ele>73.5</ele><time>2026-04-02T13:15:51Z</time></trkpt><trkpt lat="45.220496063996556" lon="9.30356910324422"><ele>74.0</ele><time>2026-04-02T13:15:52Z</time></trkpt><trkpt lat="45.2203850617937" lon="9.303443573971897"><ele>74.5</ele><time>2026-04-02T13:15:53Z</time></trkpt><trkpt lat="45.220263039563754" lon="9.303307949006147"><ele>75.0</ele><time>2026-04-02T13:15:54Z</time></trkpt><trkpt lat="45.22015090172168" lon="9.303183424779428"><ele>75.0</ele><time>2026-04-02T13:15:55Z</time></trkpt><trkpt lat="45.22005322427728" lon="9.303073911359316"><ele>75.0</ele><time>2026-04-02T13:15:56Z</time></trkpt><trkpt lat="45.219960637214484" lon="9.302970604736016"><ele>75.0</ele><time>2026-04-02T13:15:57Z</time></trkpt><trkpt lat="45.21988743404142" lon="9.302859787640296"><ele>75.0</ele><time>2026-04-02T13:15:58Z</time></trkpt><trkpt lat="45.2198146887243" lon="9.302776057740035"><ele>75.0</ele><time>2026-04-02T13:15:59Z</time></trkpt><trkpt lat="45.21975982280086" lon="9.302711227756657"><ele>75.0</ele><time>2026-04-02T13:16:00Z</time></trkpt><trkpt lat="45.21968750623824" lon="9.302624522621283"><ele>75.0</ele><time>2026-04-02T13:16:02.001Z</time></trkpt><trkpt lat="45.21974150930815" lon="9.302539328544073"><ele>75.0</ele><time>2026-04-02T13:16:07.001Z</time></trkpt><trkpt lat="45.219804298491425" lon="9.302467168906125"><ele>75.0</ele><time>2026-04-02T13:16:08.001Z</time></trkpt><trkpt lat="45.219881259445366" lon="9.302419293674959"><ele>75.0</ele><time>2026-04-02T13:16:09.001Z</time></trkpt><trkpt lat="45.21998524616728" lon="9.302378603718978"><ele>75.0</ele><time>2026-04-02T13:16:10.001Z</time></trkpt><trkpt lat="45.22008439307268" lon="9.302284147584796"><ele>74.5</ele><time>2026-04-02T13:16:11.001Z</time></trkpt><trkpt lat="45.22018704123957" lon="9.302224679898998"><ele>74.0</ele><time>2026-04-02T13:16:12.001Z</time></trkpt><trkpt lat="45.22028393689937" lon="9.302147858191724"><ele>73.5</ele><time>2026-04-02T13:16:13.001Z</time></trkpt><trkpt lat="45.220391475794486" lon="9.30206645339876"><ele>73.0</ele><time>2026-04-02T13:16:14.001Z</time></trkpt><trkpt lat="45.22049729213521" lon="9.301982669664971"><ele>73.0</ele><time>2026-04-02T13:16:15.001Z</time></trkpt><trkpt lat="45.220602756281906" lon="9.301892318832374"><ele>73.0</ele><time>2026-04-02T13:16:16.001Z</time></trkpt><trkpt lat="45.22070325772885" lon="9.301808986224088"><ele>73.0</ele><time>2026-04-02T13:16:17.001Z</time></trkpt><trkpt lat="45.22079507856703" lon="9.301732232675779"><ele>73.0</ele><time>2026-04-02T13:16:18.001Z</time></trkpt><trkpt lat="45.220886149425674" lon="9.301651096443345"><ele>73.25</ele><time>2026-04-02T13:16:19.001Z</time></trkpt><trkpt lat="45.22097987311401" lon="9.3015729788095"><ele>73.5</ele><time>2026-04-02T13:16:20.001Z</time></trkpt><trkpt lat="45.22107377546047" lon="9.301503031275415"><ele>73.75</ele><time>2026-04-02T13:16:21.001Z</time></trkpt><trkpt lat="45.22117389537984" lon="9.301423916669735"><ele>74.0</ele><time>2026-04-02T13:16:22.001Z</time></trkpt><trkpt lat="45.22128721006184" lon="9.301327366241134"><ele>74.25</ele><time>2026-04-02T13:16:23.001Z</time></trkpt><trkpt lat="45.22139536148302" lon="9.30123882162615"><ele>74.5</ele><time>2026-04-02T13:16:24.001Z</time></trkpt><trkpt lat="45.22149934603445" lon="9.301157666859115"><ele>74.75</ele><time>2026-04-02T13:16:25.001Z</time></trkpt><trkpt lat="45.221609553115194" lon="9.301078783547414"><ele>75.0</ele><time>2026-04-02T13:16:26.001Z</time></trkpt><trkpt lat="45.22172818218711" lon="9.300999429726849"><ele>75.0</ele><time>2026-04-02T13:16:27.001Z</time></trkpt><trkpt lat="45.22184021976943" lon="9.300932672921313"><ele>75.0</ele><time>2026-04-02T13:16:28.001Z</time></trkpt><trkpt lat="45.221953373459435" lon="9.30087783186658"><ele>75.0</ele><time>2026-04-02T13:16:29.001Z</time></trkpt><trkpt lat="45.22207011768124" lon="9.300837490072594"><ele>75.0</ele><time>2026-04-02T13:16:30.001Z</time></trkpt><trkpt lat="45.22219018860438" lon="9.300808901896355"><ele>75.0</ele><time>2026-04-02T13:16:31.001Z</time></trkpt><trkpt lat="45.222309765036435" lon="9.300786126600737"><ele>75.0</ele><time>2026-04-02T13:16:32.001Z</time></trkpt><trkpt lat="45.22242792849601" lon="9.300752274527374"><ele>75.0</ele><time>2026-04-02T13:16:33.001Z</time></trkpt><trkpt lat="45.22254533224445" lon="9.30070844664828"><ele>75.0</ele><time>2026-04-02T13:16:34.001Z</time></trkpt><trkpt lat="45.22265960312034" lon="9.300654249688192"><ele>75.0</ele><time>2026-04-02T13:16:35.001Z</time></trkpt><trkpt lat="45.22277279693605" lon="9.30058611334377"><ele>75.0</ele><time>2026-04-02T13:16:36.001Z</time></trkpt><trkpt lat="45.22288677954565" lon="9.300504314689958"><ele>75.0</ele><time>2026-04-02T13:16:37.001Z</time></trkpt><trkpt lat="45.22300899876514" lon="9.300412846527417"><ele>75.0</ele><time>2026-04-02T13:16:38.001Z</time></trkpt><trkpt lat="45.223143461853766" lon="9.30030916960541"><ele>74.5</ele><time>2026-04-02T13:16:39.001Z</time></trkpt><trkpt lat="45.223277293769264" lon="9.300203750896683"><ele>74.0</ele><time>2026-04-02T13:16:40.001Z</time></trkpt><trkpt lat="45.223410577895436" lon="9.300103629151543"><ele>73.5</ele><time>2026-04-02T13:16:41.001Z</time></trkpt><trkpt lat="45.223528265160624" lon="9.300013850344628"><ele>73.0</ele><time>2026-04-02T13:16:42.001Z</time></trkpt><trkpt lat="45.22365071449197" lon="9.299921509797606"><ele>73.0</ele><time>2026-04-02T13:16:43.001Z</time></trkpt><trkpt lat="45.223771733103575" lon="9.29983021288777"><ele>73.0</ele><time>2026-04-02T13:16:44.001Z</time></trkpt><trkpt lat="45.223881599144974" lon="9.299742134187976"><ele>73.0</ele><time>2026-04-02T13:16:45.001Z</time></trkpt><trkpt lat="45.223981930999784" lon="9.299666470290905"><ele>73.0</ele><time>2026-04-02T13:16:46.001Z</time></trkpt><trkpt lat="45.22406734818162" lon="9.299602984574944"><ele>73.33333333333333</ele><time>2026-04-02T13:16:47.001Z</time></trkpt><trkpt lat="45.22413605581621" lon="9.299556835363429"><ele>73.66666666666666</ele><time>2026-04-02T13:16:48.001Z</time></trkpt><trkpt lat="45.22425155649436" lon="9.29954888119483"><ele>74.0</ele><time>2026-04-02T13:16:50.001Z</time></trkpt><trkpt lat="45.22431861151951" lon="9.299597043970843"><ele>74.33333333333333</ele><time>2026-04-02T13:16:51.001Z</time></trkpt><trkpt lat="45.22438673520815" lon="9.299661066884807"><ele>74.66666666666667</ele><time>2026-04-02T13:16:52.001Z</time></trkpt><trkpt lat="45.224448530374914" lon="9.29971490750991"><ele>75.0</ele><time>2026-04-02T13:16:53.001Z</time></trkpt><trkpt lat="45.22451511895713" lon="9.299733419172663"><ele>75.0</ele><time>2026-04-02T13:16:54.001Z</time></trkpt><trkpt lat="45.22458357781414" lon="9.299711987721402"><ele>75.0</ele><time>2026-04-02T13:16:55.001Z</time></trkpt><trkpt lat="45.22465612962969" lon="9.29965527608143"><ele>75.0</ele><time>2026-04-02T13:16:56.001Z</time></trkpt><trkpt lat="45.22473555436986" lon="9.299566440595987"><ele>75.0</ele><time>2026-04-02T13:16:57.001Z</time></trkpt><trkpt lat="45.22484201207995" lon="9.299465239721384"><ele>75.0</ele><time>2026-04-02T13:16:58.001Z</time></trkpt><trkpt lat="45.22497751277803" lon="9.299349937264573"><ele>75.33333333333333</ele><time>2026-04-02T13:16:59.001Z</time></trkpt><trkpt lat="45.2251309596331" lon="9.299222555503361"><ele>75.66666666666666</ele><time>2026-04-02T13:17:00.001Z</time></trkpt><trkpt lat="45.225283733824114" lon="9.299090826087143"><ele>76.0</ele><time>2026-04-02T13:17:01.001Z</time></trkpt><trkpt lat="45.22541685436404" lon="9.298975579223123"><ele>76.0</ele><time>2026-04-02T13:17:02.001Z</time></trkpt><trkpt lat="45.225525562738206" lon="9.298881030257569"><ele>76.0</ele><time>2026-04-02T13:17:03.001Z</time></trkpt><trkpt lat="45.225633832498005" lon="9.298789115863709"><ele>76.0</ele><time>2026-04-02T13:17:04.001Z</time></trkpt><trkpt lat="45.22574174874143" lon="9.298700012121268"><ele>76.0</ele><time>2026-04-02T13:17:05.001Z</time></trkpt><trkpt lat="45.22586605361349" lon="9.298593169018874"><ele>76.0</ele><time>2026-04-02T13:17:06.001Z</time></trkpt><trkpt lat="45.22598660234108" lon="9.298487323620883"><ele>76.0</ele><time>2026-04-02T13:17:07.001Z</time></trkpt><trkpt lat="45.22610000356622" lon="9.29838626533325"><ele>76.0</ele><time>2026-04-02T13:17:08.001Z</time></trkpt><trkpt lat="45.22621224956353" lon="9.298288951997375"><ele>76.0</ele><time>2026-04-02T13:17:09.001Z</time></trkpt><trkpt lat="45.22632036188112" lon="9.298192596522078"><ele>76.0</ele><time>2026-04-02T13:17:10.002Z</time></trkpt><trkpt lat="45.22642016174863" lon="9.29809766289459"><ele>76.0</ele><time>2026-04-02T13:17:11.002Z</time></trkpt><trkpt lat="45.22652458927472" lon="9.298011921617238"><ele>76.0</ele><time>2026-04-02T13:17:12.002Z</time></trkpt><trkpt lat="45.226632353977756" lon="9.297935902836569"><ele>76.0</ele><time>2026-04-02T13:17:13.002Z</time></trkpt><trkpt lat="45.22674567175047" lon="9.297867161035414"><ele>75.5</ele><time>2026-04-02T13:17:14.002Z</time></trkpt><trkpt lat="45.226863219977716" lon="9.297794015232402"><ele>75.0</ele><time>2026-04-02T13:17:15.002Z</time></trkpt><trkpt lat="45.22698873598762" lon="9.297695914446795"><ele>74.5</ele><time>2026-04-02T13:17:16.002Z</time></trkpt><trkpt lat="45.22712057987341" lon="9.297586190083415"><ele>74.0</ele><time>2026-04-02T13:17:17.002Z</time></trkpt><trkpt lat="45.22724540510396" lon="9.29748092116364"><ele>74.0</ele><time>2026-04-02T13:17:18.002Z</time></trkpt><trkpt lat="45.227364077171046" lon="9.297389767938359"><ele>74.0</ele><time>2026-04-02T13:17:19.002Z</time></trkpt><trkpt lat="45.22749203909932" lon="9.297298070603377"><ele>74.0</ele><time>2026-04-02T13:17:20.002Z</time></trkpt><trkpt lat="45.22761767933338" lon="9.297204554052621"><ele>74.0</ele><time>2026-04-02T13:17:21.002Z</time></trkpt><trkpt lat="45.227722516966324" lon="9.297134719598324"><ele>74.0</ele><time>2026-04-02T13:17:22.002Z</time></trkpt><trkpt lat="45.227798152682354" lon="9.29708015881192"><ele>74.0</ele><time>2026-04-02T13:17:23.002Z</time></trkpt><trkpt lat="45.22785453223615" lon="9.29703663496047"><ele>74.0</ele><time>2026-04-02T13:17:24.002Z</time></trkpt><trkpt lat="45.227949296843995" lon="9.29701609977193"><ele>74.0</ele><time>2026-04-02T13:17:26.002Z</time></trkpt><trkpt lat="45.228038697064946" lon="9.297095744131404"><ele>74.0</ele><time>2026-04-02T13:17:28Z</time></trkpt><trkpt lat="45.22807769512185" lon="9.297169327521292"><ele>74.0</ele><time>2026-04-02T13:17:29Z</time></trkpt><trkpt lat="45.2281177876332" lon="9.297272526656114"><ele>74.5</ele><time>2026-04-02T13:17:30Z</time></trkpt><trkpt lat="45.22817121918383" lon="9.29740659510968"><ele>75.0</ele><time>2026-04-02T13:17:31Z</time></trkpt><trkpt lat="45.22824260271367" lon="9.297545617448728"><ele>75.5</ele><time>2026-04-02T13:17:32Z</time></trkpt><trkpt lat="45.22833154414612" lon="9.297699146651597"><ele>76.0</ele><time>2026-04-02T13:17:33Z</time></trkpt><trkpt lat="45.22841922829907" lon="9.297857876765123"><ele>76.0</ele><time>2026-04-02T13:17:34Z</time></trkpt><trkpt lat="45.22851195781508" lon="9.298033116581772"><ele>76.0</ele><time>2026-04-02T13:17:35Z</time></trkpt><trkpt lat="45.22859571062733" lon="9.298189535506753"><ele>76.0</ele><time>2026-04-02T13:17:36Z</time></trkpt><trkpt lat="45.228661002911664" lon="9.298312515648412"><ele>76.0</ele><time>2026-04-02T13:17:37Z</time></trkpt><trkpt lat="45.22871950009519" lon="9.298419907303638"><ele>76.0</ele><time>2026-04-02T13:17:38Z</time></trkpt><trkpt lat="45.22876815916239" lon="9.298503316757738"><ele>76.0</ele><time>2026-04-02T13:17:39Z</time></trkpt><trkpt lat="45.22881584655516" lon="9.29857370845896"><ele>76.0</ele><time>2026-04-02T13:17:40Z</time></trkpt><trkpt lat="45.228864149593456" lon="9.298632882947812"><ele>76.0</ele><time>2026-04-02T13:17:41Z</time></trkpt><trkpt lat="45.22896421563609" lon="9.298667824221248"><ele>76.0</ele><time>2026-04-02T13:17:43Z</time></trkpt><trkpt lat="45.22905538253605" lon="9.298561757901007"><ele>76.0</ele><time>2026-04-02T13:17:45Z</time></trkpt><trkpt lat="45.22912240218904" lon="9.298470827317605"><ele>76.0</ele><time>2026-04-02T13:17:46Z</time></trkpt><trkpt lat="45.22919636094329" lon="9.298374805863107"><ele>76.0</ele><time>2026-04-02T13:17:47Z</time></trkpt><trkpt lat="45.22927458123418" lon="9.298279481381936"><ele>76.0</ele><time>2026-04-02T13:17:48Z</time></trkpt><trkpt lat="45.229344231852586" lon="9.298200146734459"><ele>76.0</ele><time>2026-04-02T13:17:49Z</time></trkpt><trkpt lat="45.22940790830919" lon="9.298138529683849"><ele>76.0</ele><time>2026-04-02T13:17:50Z</time></trkpt><trkpt lat="45.22954527575701" lon="9.298093685238449"><ele>76.0</ele><time>2026-04-02T13:17:52Z</time></trkpt><trkpt lat="45.229640537515955" lon="9.29807876879754"><ele>76.0</ele><time>2026-04-02T13:17:53Z</time></trkpt><trkpt lat="45.22974924502033" lon="9.29806339542226"><ele>76.0</ele><time>2026-04-02T13:17:54Z</time></trkpt><trkpt lat="45.22986974648246" lon="9.298045244479498"><ele>76.0</ele><time>2026-04-02T13:17:55Z</time></trkpt><trkpt lat="45.22999723138765" lon="9.298030292383173"><ele>75.75</ele><time>2026-04-02T13:17:56Z</time></trkpt><trkpt lat="45.230129563375314" lon="9.298015414631195"><ele>75.5</ele><time>2026-04-02T13:17:57Z</time></trkpt><trkpt lat="45.23025975476278" lon="9.297998540980963"><ele>75.25</ele><time>2026-04-02T13:17:58Z</time></trkpt><trkpt lat="45.23038626144753" lon="9.297978674094615"><ele>75.0</ele><time>2026-04-02T13:17:59Z</time></trkpt><trkpt lat="45.2305067476977" lon="9.297962728286766"><ele>75.0</ele><time>2026-04-02T13:18:00Z</time></trkpt><trkpt lat="45.23062018139378" lon="9.297946069853072"><ele>75.0</ele><time>2026-04-02T13:18:01Z</time></trkpt><trkpt lat="45.23072065087587" lon="9.297938210305054"><ele>75.0</ele><time>2026-04-02T13:18:02Z</time></trkpt><trkpt lat="45.230817364566526" lon="9.297940046555558"><ele>75.0</ele><time>2026-04-02T13:18:03Z</time></trkpt><trkpt lat="45.230913731437994" lon="9.297957473397899"><ele>75.0</ele><time>2026-04-02T13:18:04Z</time></trkpt><trkpt lat="45.23101205566118" lon="9.297990415112897"><ele>75.2</ele><time>2026-04-02T13:18:05Z</time></trkpt><trkpt lat="45.231101586479326" lon="9.298033374961305"><ele>75.4</ele><time>2026-04-02T13:18:06Z</time></trkpt><trkpt lat="45.23118718525239" lon="9.298074483709232"><ele>75.6</ele><time>2026-04-02T13:18:07Z</time></trkpt><trkpt lat="45.2312784877805" lon="9.298106935625032"><ele>75.8</ele><time>2026-04-02T13:18:08Z</time></trkpt><trkpt lat="45.23137336875497" lon="9.298121180191684"><ele>76.0</ele><time>2026-04-02T13:18:09.001Z</time></trkpt><trkpt lat="45.231473531523186" lon="9.298124359239937"><ele>76.0</ele><time>2026-04-02T13:18:10.001Z</time></trkpt><trkpt lat="45.23157093190894" lon="9.298113804870102"><ele>76.0</ele><time>2026-04-02T13:18:11.001Z</time></trkpt><trkpt lat="45.23166484469169" lon="9.298096011189937"><ele>76.0</ele><time>2026-04-02T13:18:12.001Z</time></trkpt><trkpt lat="45.23174787649568" lon="9.298085383628806"><ele>76.0</ele><time>2026-04-02T13:18:13.001Z</time></trkpt><trkpt lat="45.23183797665552" lon="9.298082807401638"><ele>76.0</ele><time>2026-04-02T13:18:14.001Z</time></trkpt><trkpt lat="45.231933637230654" lon="9.298079263993756"><ele>76.0</ele><time>2026-04-02T13:18:15.001Z</time></trkpt><trkpt lat="45.232023625374076" lon="9.298076773784318"><ele>76.0</ele><time>2026-04-02T13:18:16.001Z</time></trkpt><trkpt lat="45.232124536653366" lon="9.298066807216468"><ele>76.0</ele><time>2026-04-02T13:18:17.001Z</time></trkpt><trkpt lat="45.23222189837976" lon="9.298062014981976"><ele>76.0</ele><time>2026-04-02T13:18:18.001Z</time></trkpt><trkpt lat="45.232324126177026" lon="9.298049980120444"><ele>76.0</ele><time>2026-04-02T13:18:19.001Z</time></trkpt><trkpt lat="45.232419826267574" lon="9.29803605528729"><ele>75.6</ele><time>2026-04-02T13:18:20.001Z</time></trkpt><trkpt lat="45.23251760620159" lon="9.298022021201641"><ele>75.19999999999999</ele><time>2026-04-02T13:18:21.001Z</time></trkpt><trkpt lat="45.23261701258442" lon="9.298003796432752"><ele>74.80000000000001</ele><time>2026-04-02T13:18:22.001Z</time></trkpt><trkpt lat="45.23272067648003" lon="9.29797896511536"><ele>74.4</ele><time>2026-04-02T13:18:23.001Z</time></trkpt><trkpt lat="45.23282350339408" lon="9.29795769772402"><ele>74.0</ele><time>2026-04-02T13:18:24.001Z</time></trkpt><trkpt lat="45.23291693779415" lon="9.297939157205848"><ele>74.0</ele><time>2026-04-02T13:18:25.001Z</time></trkpt><trkpt lat="45.233009570487795" lon="9.29792026505483"><ele>74.0</ele><time>2026-04-02T13:18:26.001Z</time></trkpt><trkpt lat="45.23311402607545" lon="9.29789551126993"><ele>74.0</ele><time>2026-04-02T13:18:27.001Z</time></trkpt><trkpt lat="45.23320884606701" lon="9.29787140304389"><ele>74.0</ele><time>2026-04-02T13:18:28.001Z</time></trkpt><trkpt lat="45.23330092362748" lon="9.297849579969183"><ele>74.0</ele><time>2026-04-02T13:18:29.001Z</time></trkpt><trkpt lat="45.233393501139545" lon="9.297829402178122"><ele>74.4</ele><time>2026-04-02T13:18:30.001Z</time></trkpt><trkpt lat="45.23350098015198" lon="9.297808699465325"><ele>74.80000000000001</ele><time>2026-04-02T13:18:31.001Z</time></trkpt><trkpt lat="45.23360028729092" lon="9.297788137176115"><ele>75.19999999999999</ele><time>2026-04-02T13:18:32.001Z</time></trkpt><trkpt lat="45.23369066193532" lon="9.297765986597623"><ele>75.6</ele><time>2026-04-02T13:18:33.001Z</time></trkpt><trkpt lat="45.233781652649796" lon="9.29774505498324"><ele>76.0</ele><time>2026-04-02T13:18:34.001Z</time></trkpt><trkpt lat="45.23385823523826" lon="9.297724510249052"><ele>76.0</ele><time>2026-04-02T13:18:35.001Z</time></trkpt><trkpt lat="45.233933079407805" lon="9.297692026154708"><ele>76.0</ele><time>2026-04-02T13:18:36.001Z</time></trkpt><trkpt lat="45.23402205102067" lon="9.297657033747523"><ele>76.0</ele><time>2026-04-02T13:18:37.001Z</time></trkpt><trkpt lat="45.234121244113375" lon="9.297614562087386"><ele>76.0</ele><time>2026-04-02T13:18:38.001Z</time></trkpt><trkpt lat="45.23420789373688" lon="9.297563176920413"><ele>76.0</ele><time>2026-04-02T13:18:39.001Z</time></trkpt><trkpt lat="45.234288233903186" lon="9.297512307796218"><ele>76.0</ele><time>2026-04-02T13:18:40.001Z</time></trkpt><trkpt lat="45.23436607886471" lon="9.297458384855654"><ele>76.0</ele><time>2026-04-02T13:18:41.001Z</time></trkpt><trkpt lat="45.23445120677454" lon="9.297394342842255"><ele>76.0</ele><time>2026-04-02T13:18:42.001Z</time></trkpt><trkpt lat="45.23453051446899" lon="9.297323121701776"><ele>76.0</ele><time>2026-04-02T13:18:43.001Z</time></trkpt><trkpt lat="45.23460065380517" lon="9.297246200994309"><ele>76.0</ele><time>2026-04-02T13:18:44.001Z</time></trkpt><trkpt lat="45.23466018673655" lon="9.297141272768357"><ele>76.0</ele><time>2026-04-02T13:18:45.001Z</time></trkpt><trkpt lat="45.23473507550526" lon="9.297022232748619"><ele>76.0</ele><time>2026-04-02T13:18:46.001Z</time></trkpt><trkpt lat="45.23479588862738" lon="9.296893332878653"><ele>76.0</ele><time>2026-04-02T13:18:47.001Z</time></trkpt><trkpt lat="45.23485902174848" lon="9.296770716311208"><ele>76.0</ele><time>2026-04-02T13:18:48.001Z</time></trkpt><trkpt lat="45.234923340682286" lon="9.296648252262706"><ele>76.0</ele><time>2026-04-02T13:18:49.001Z</time></trkpt><trkpt lat="45.23500481693922" lon="9.296492918388472"><ele>76.25</ele><time>2026-04-02T13:18:50.001Z</time></trkpt><trkpt lat="45.23507721258999" lon="9.296319861246701"><ele>76.5</ele><time>2026-04-02T13:18:51.001Z</time></trkpt><trkpt lat="45.23515910172346" lon="9.296167265093118"><ele>76.75</ele><time>2026-04-02T13:18:52.001Z</time></trkpt><trkpt lat="45.23523909573306" lon="9.296016506813869"><ele>77.0</ele><time>2026-04-02T13:18:53.001Z</time></trkpt><trkpt lat="45.235312370517725" lon="9.295890123510265"><ele>77.0</ele><time>2026-04-02T13:18:54.001Z</time></trkpt><trkpt lat="45.23538279863027" lon="9.295770288407184"><ele>77.0</ele><time>2026-04-02T13:18:55.001Z</time></trkpt><trkpt lat="45.2354591133881" lon="9.295658074812858"><ele>77.0</ele><time>2026-04-02T13:18:56.001Z</time></trkpt><trkpt lat="45.23553848595561" lon="9.295532255315184"><ele>77.0</ele><time>2026-04-02T13:18:57.001Z</time></trkpt><trkpt lat="45.235617467985406" lon="9.295416634427095"><ele>77.0</ele><time>2026-04-02T13:18:58.001Z</time></trkpt><trkpt lat="45.23569531900191" lon="9.295304622964093"><ele>77.0</ele><time>2026-04-02T13:18:59.001Z</time></trkpt><trkpt lat="45.23576385572411" lon="9.295195270793789"><ele>77.0</ele><time>2026-04-02T13:19:00.001Z</time></trkpt><trkpt lat="45.23583338795951" lon="9.295073041845004"><ele>77.0</ele><time>2026-04-02T13:19:01.001Z</time></trkpt><trkpt lat="45.23590985208263" lon="9.294959853920055"><ele>77.0</ele><time>2026-04-02T13:19:02.001Z</time></trkpt><trkpt lat="45.2359793054058" lon="9.294853824270453"><ele>76.6</ele><time>2026-04-02T13:19:03.001Z</time></trkpt><trkpt lat="45.236051541951106" lon="9.29475279572123"><ele>76.2</ele><time>2026-04-02T13:19:04.001Z</time></trkpt><trkpt lat="45.23612493498745" lon="9.29465242588192"><ele>75.8</ele><time>2026-04-02T13:19:05.001Z</time></trkpt><trkpt lat="45.23619178106691" lon="9.29455208218898"><ele>75.4</ele><time>2026-04-02T13:19:06.001Z</time></trkpt><trkpt lat="45.2362409401302" lon="9.294455246705194"><ele>75.0</ele><time>2026-04-02T13:19:07.001Z</time></trkpt><trkpt lat="45.23629503159068" lon="9.294370425349193"><ele>75.0</ele><time>2026-04-02T13:19:08.001Z</time></trkpt><trkpt lat="45.236326302742846" lon="9.294276473214213"><ele>75.0</ele><time>2026-04-02T13:19:09.001Z</time></trkpt><trkpt lat="45.2363695860899" lon="9.294135950713562"><ele>75.0</ele><time>2026-04-02T13:19:11.001Z</time></trkpt><trkpt lat="45.2364056942303" lon="9.294046367276437"><ele>75.0</ele><time>2026-04-02T13:19:13.001Z</time></trkpt><trkpt lat="45.23638478889652" lon="9.293866093758934"><ele>75.0</ele><time>2026-04-02T13:19:15.001Z</time></trkpt><trkpt lat="45.236354689887904" lon="9.293771728298672"><ele>75.2</ele><time>2026-04-02T13:19:16.001Z</time></trkpt><trkpt lat="45.23630478769655" lon="9.293627264973178"><ele>75.4</ele><time>2026-04-02T13:19:17.001Z</time></trkpt><trkpt lat="45.23624187499344" lon="9.293469961160188"><ele>75.6</ele><time>2026-04-02T13:19:18.001Z</time></trkpt><trkpt lat="45.236196234804744" lon="9.293366228866091"><ele>75.8</ele><time>2026-04-02T13:19:19.001Z</time></trkpt><trkpt lat="45.23615946413322" lon="9.293291173340963"><ele>76.0</ele><time>2026-04-02T13:19:20.001Z</time></trkpt><trkpt lat="45.23612631257896" lon="9.293201448918712"><ele>76.25</ele><time>2026-04-02T13:19:22.002Z</time></trkpt><trkpt lat="45.23623314039857" lon="9.293086820883138"><ele>76.5</ele><time>2026-04-02T13:19:24.002Z</time></trkpt><trkpt lat="45.236300672606276" lon="9.292972186146763"><ele>76.75</ele><time>2026-04-02T13:19:25.002Z</time></trkpt><trkpt lat="45.236393813381824" lon="9.292826579837072"><ele>77.0</ele><time>2026-04-02T13:19:26.002Z</time></trkpt><trkpt lat="45.23649639721235" lon="9.2926631476443"><ele>77.0</ele><time>2026-04-02T13:19:27.002Z</time></trkpt><trkpt lat="45.236607871356284" lon="9.292533561445124"><ele>77.0</ele><time>2026-04-02T13:19:28.002Z</time></trkpt><trkpt lat="45.23666632337013" lon="9.292416046487816"><ele>77.0</ele><time>2026-04-02T13:19:29.002Z</time></trkpt><trkpt lat="45.23674267006317" lon="9.292316749460854"><ele>77.0</ele><time>2026-04-02T13:19:30.002Z</time></trkpt><trkpt lat="45.23681108254235" lon="9.292211168946231"><ele>77.0</ele><time>2026-04-02T13:19:31.002Z</time></trkpt><trkpt lat="45.236841112884576" lon="9.292070986417942"><ele>77.0</ele><time>2026-04-02T13:19:32.002Z</time></trkpt><trkpt lat="45.23688496747222" lon="9.291940683177963"><ele>77.0</ele><time>2026-04-02T13:19:33Z</time></trkpt><trkpt lat="45.236931891040506" lon="9.291801261022531"><ele>77.0</ele><time>2026-04-02T13:19:34Z</time></trkpt><trkpt lat="45.23712014189275" lon="9.291757032001602"><ele>77.0</ele><time>2026-04-02T13:19:35Z</time></trkpt><trkpt lat="45.23720033956479" lon="9.29164654954035"><ele>77.0</ele><time>2026-04-02T13:19:36Z</time></trkpt><trkpt lat="45.23726896360805" lon="9.291548143385418"><ele>77.0</ele><time>2026-04-02T13:19:37Z</time></trkpt><trkpt lat="45.23733999124833" lon="9.29144750442618"><ele>77.0</ele><time>2026-04-02T13:19:38Z</time></trkpt><trkpt lat="45.237410367767886" lon="9.291338004317232"><ele>77.0</ele><time>2026-04-02T13:19:39Z</time></trkpt><trkpt lat="45.23746617528382" lon="9.291234882843069"><ele>77.0</ele><time>2026-04-02T13:19:40Z</time></trkpt><trkpt lat="45.23750969674966" lon="9.291111790587077"><ele>77.0</ele><time>2026-04-02T13:19:41Z</time></trkpt><trkpt lat="45.237536996172054" lon="9.290986728500409"><ele>77.0</ele><time>2026-04-02T13:19:42Z</time></trkpt><trkpt lat="45.237558236908356" lon="9.290849125049892"><ele>77.0</ele><time>2026-04-02T13:19:43Z</time></trkpt><trkpt lat="45.23759235264013" lon="9.290695045290235"><ele>77.0</ele><time>2026-04-02T13:19:44Z</time></trkpt><trkpt lat="45.23763219805418" lon="9.2905510625482"><ele>77.0</ele><time>2026-04-02T13:19:45Z</time></trkpt><trkpt lat="45.23767374866526" lon="9.290403559929315"><ele>77.0</ele><time>2026-04-02T13:19:46Z</time></trkpt><trkpt lat="45.23771020936008" lon="9.290262574190146"><ele>77.0</ele><time>2026-04-02T13:19:47Z</time></trkpt><trkpt lat="45.23774753824944" lon="9.290116058391437"><ele>77.0</ele><time>2026-04-02T13:19:48Z</time></trkpt><trkpt lat="45.23778843214344" lon="9.289961377655072"><ele>77.0</ele><time>2026-04-02T13:19:49Z</time></trkpt><trkpt lat="45.23782623453468" lon="9.289810986491766"><ele>76.8</ele><time>2026-04-02T13:19:50Z</time></trkpt><trkpt lat="45.23785927007952" lon="9.2896613834505"><ele>76.6</ele><time>2026-04-02T13:19:51Z</time></trkpt><trkpt lat="45.2378919565008" lon="9.289507450166711"><ele>76.39999999999999</ele><time>2026-04-02T13:19:52Z</time></trkpt><trkpt lat="45.23792593309184" lon="9.289359091328025"><ele>76.2</ele><time>2026-04-02T13:19:53Z</time></trkpt><trkpt lat="45.23795644260151" lon="9.289207167174142"><ele>76.0</ele><time>2026-04-02T13:19:54Z</time></trkpt><trkpt lat="45.23798680055405" lon="9.289063888719326"><ele>76.2</ele><time>2026-04-02T13:19:55Z</time></trkpt><trkpt lat="45.23801692368473" lon="9.288925843813207"><ele>76.39999999999999</ele><time>2026-04-02T13:19:56Z</time></trkpt><trkpt lat="45.238044425708765" lon="9.288795562429579"><ele>76.6</ele><time>2026-04-02T13:19:57Z</time></trkpt><trkpt lat="45.238073199602105" lon="9.28866191831145"><ele>76.8</ele><time>2026-04-02T13:19:58Z</time></trkpt><trkpt lat="45.23810097136397" lon="9.288530147798426"><ele>77.0</ele><time>2026-04-02T13:19:59Z</time></trkpt><trkpt lat="45.238131344565154" lon="9.288394090986548"><ele>77.0</ele><time>2026-04-02T13:20:00Z</time></trkpt><trkpt lat="45.238161508994864" lon="9.288255847037203"><ele>77.0</ele><time>2026-04-02T13:20:01Z</time></trkpt><trkpt lat="45.23819363494283" lon="9.288108597768357"><ele>77.0</ele><time>2026-04-02T13:20:02Z</time></trkpt><trkpt lat="45.2382270079497" lon="9.287968352657375"><ele>77.0</ele><time>2026-04-02T13:20:03Z</time></trkpt><trkpt lat="45.23826046935009" lon="9.287824451694917"><ele>77.0</ele><time>2026-04-02T13:20:04Z</time></trkpt><trkpt lat="45.238293278028294" lon="9.28768280619381"><ele>77.2</ele><time>2026-04-02T13:20:05Z</time></trkpt><trkpt lat="45.238323911677206" lon="9.287546540485419"><ele>77.4</ele><time>2026-04-02T13:20:06Z</time></trkpt><trkpt lat="45.2383405806262" lon="9.287418643405832"><ele>77.6</ele><time>2026-04-02T13:20:07Z</time></trkpt><trkpt lat="45.23836227107726" lon="9.287293445328663"><ele>77.8</ele><time>2026-04-02T13:20:08Z</time></trkpt><trkpt lat="45.238389582426976" lon="9.287175190373109"><ele>78.0</ele><time>2026-04-02T13:20:09Z</time></trkpt><trkpt lat="45.238423356380196" lon="9.287062145844523"><ele>78.0</ele><time>2026-04-02T13:20:10Z</time></trkpt><trkpt lat="45.23847392322907" lon="9.286961491407295"><ele>78.0</ele><time>2026-04-02T13:20:11Z</time></trkpt><trkpt lat="45.238534137328195" lon="9.286863791289425"><ele>78.0</ele><time>2026-04-02T13:20:12Z</time></trkpt><trkpt lat="45.23859895128785" lon="9.286753357752941"><ele>78.0</ele><time>2026-04-02T13:20:13Z</time></trkpt><trkpt lat="45.23866040899551" lon="9.286640644831502"><ele>78.0</ele><time>2026-04-02T13:20:14Z</time></trkpt><trkpt lat="45.23872131812365" lon="9.286518741193335"><ele>78.0</ele><time>2026-04-02T13:20:15Z</time></trkpt><trkpt lat="45.23877619495796" lon="9.286399794701701"><ele>78.0</ele><time>2026-04-02T13:20:16Z</time></trkpt><trkpt lat="45.23882064425471" lon="9.286297910529287"><ele>78.0</ele><time>2026-04-02T13:20:17Z</time></trkpt><trkpt lat="45.238871532851796" lon="9.286208454085381"><ele>78.0</ele><time>2026-04-02T13:20:18Z</time></trkpt><trkpt lat="45.238944701183044" lon="9.286134881000775"><ele>78.0</ele><time>2026-04-02T13:20:19Z</time></trkpt><trkpt lat="45.239029888959664" lon="9.286065090236743"><ele>78.0</ele><time>2026-04-02T13:20:20Z</time></trkpt><trkpt lat="45.2391162787724" lon="9.285987187670331"><ele>78.0</ele><time>2026-04-02T13:20:21Z</time></trkpt><trkpt lat="45.239182920102394" lon="9.285900749980568"><ele>78.0</ele><time>2026-04-02T13:20:22Z</time></trkpt><trkpt lat="45.23922919098635" lon="9.285786401077841"><ele>78.0</ele><time>2026-04-02T13:20:23.001Z</time></trkpt><trkpt lat="45.239270169393784" lon="9.285657394444618"><ele>78.0</ele><time>2026-04-02T13:20:24.001Z</time></trkpt><trkpt lat="45.23932055054702" lon="9.285507353259089"><ele>78.5</ele><time>2026-04-02T13:20:25.001Z</time></trkpt><trkpt lat="45.239374994815776" lon="9.28535085635078"><ele>79.0</ele><time>2026-04-02T13:20:26.001Z</time></trkpt><trkpt lat="45.23943484355624" lon="9.285188280612292"><ele>79.5</ele><time>2026-04-02T13:20:27.001Z</time></trkpt><trkpt lat="45.23948589805197" lon="9.28503786739826"><ele>80.0</ele><time>2026-04-02T13:20:28.001Z</time></trkpt><trkpt lat="45.23953515526925" lon="9.284882848402885"><ele>79.8</ele><time>2026-04-02T13:20:29.001Z</time></trkpt><trkpt lat="45.23957944012522" lon="9.284741832669665"><ele>79.6</ele><time>2026-04-02T13:20:30.001Z</time></trkpt><trkpt lat="45.23962131025468" lon="9.284615751917787"><ele>79.4</ele><time>2026-04-02T13:20:31.001Z</time></trkpt><trkpt lat="45.23967352367636" lon="9.284512276219965"><ele>79.2</ele><time>2026-04-02T13:20:32.001Z</time></trkpt><trkpt lat="45.239748744970505" lon="9.284423461513201"><ele>79.0</ele><time>2026-04-02T13:20:33.001Z</time></trkpt><trkpt lat="45.239841207373864" lon="9.284326812044311"><ele>78.75</ele><time>2026-04-02T13:20:34.001Z</time></trkpt><trkpt lat="45.23993644382947" lon="9.284212200598077"><ele>78.5</ele><time>2026-04-02T13:20:35.001Z</time></trkpt><trkpt lat="45.24002898043217" lon="9.28409067237618"><ele>78.25</ele><time>2026-04-02T13:20:36.001Z</time></trkpt><trkpt lat="45.240128716554395" lon="9.283964516759452"><ele>78.0</ele><time>2026-04-02T13:20:37.001Z</time></trkpt><trkpt lat="45.24023915309309" lon="9.283816988049818"><ele>78.0</ele><time>2026-04-02T13:20:38.001Z</time></trkpt><trkpt lat="45.240345201650186" lon="9.283678819788436"><ele>78.0</ele><time>2026-04-02T13:20:39.001Z</time></trkpt><trkpt lat="45.240442978383555" lon="9.283549311477277"><ele>78.0</ele><time>2026-04-02T13:20:40.001Z</time></trkpt><trkpt lat="45.24053763830183" lon="9.283424172204292"><ele>78.0</ele><time>2026-04-02T13:20:41.001Z</time></trkpt><trkpt lat="45.24063551689698" lon="9.283299280922936"><ele>78.2</ele><time>2026-04-02T13:20:42.001Z</time></trkpt><trkpt lat="45.24072399625329" lon="9.28318207959845"><ele>78.4</ele><time>2026-04-02T13:20:43.001Z</time></trkpt><trkpt lat="45.24080631558155" lon="9.283079086258113"><ele>78.60000000000001</ele><time>2026-04-02T13:20:44.001Z</time></trkpt><trkpt lat="45.240879174952745" lon="9.282985682575775"><ele>78.8</ele><time>2026-04-02T13:20:45.001Z</time></trkpt><trkpt lat="45.24094281910076" lon="9.282899680219439"><ele>79.0</ele><time>2026-04-02T13:20:46.001Z</time></trkpt><trkpt lat="45.24099826700409" lon="9.282826192232786"><ele>79.0</ele><time>2026-04-02T13:20:47.001Z</time></trkpt><trkpt lat="45.24105150744877" lon="9.282751816094292"><ele>79.0</ele><time>2026-04-02T13:20:48.001Z</time></trkpt><trkpt lat="45.241116684129175" lon="9.28267138704404"><ele>79.0</ele><time>2026-04-02T13:20:49.001Z</time></trkpt><trkpt lat="45.2411826779867" lon="9.282584527721038"><ele>79.0</ele><time>2026-04-02T13:20:50.001Z</time></trkpt><trkpt lat="45.2412381424232" lon="9.282511490613434"><ele>79.0</ele><time>2026-04-02T13:20:51.001Z</time></trkpt><trkpt lat="45.241290908322185" lon="9.282444095494595"><ele>79.0</ele><time>2026-04-02T13:20:52.001Z</time></trkpt><trkpt lat="45.24137386855757" lon="9.282336878202848"><ele>79.0</ele><time>2026-04-02T13:20:54.001Z</time></trkpt><trkpt lat="45.2414258810289" lon="9.28226080141813"><ele>79.0</ele><time>2026-04-02T13:20:57.001Z</time></trkpt><trkpt lat="45.241415026364194" lon="9.282130584015688"><ele>79.0</ele><time>2026-04-02T13:20:59.001Z</time></trkpt><trkpt lat="45.24138103835677" lon="9.28199448934571"><ele>79.0</ele><time>2026-04-02T13:21:00.001Z</time></trkpt><trkpt lat="45.24132953311053" lon="9.28186905203018"><ele>79.0</ele><time>2026-04-02T13:21:01.001Z</time></trkpt><trkpt lat="45.24127332120399" lon="9.281732156179547"><ele>78.5</ele><time>2026-04-02T13:21:02.001Z</time></trkpt><trkpt lat="45.24112172824211" lon="9.281356045984706"><ele>78.0</ele><time>2026-04-02T13:21:04.001Z</time></trkpt><trkpt lat="45.24102609364971" lon="9.281115302198407"><ele>78.0</ele><time>2026-04-02T13:21:05.001Z</time></trkpt><trkpt lat="45.24093060734811" lon="9.28083496945345"><ele>78.0</ele><time>2026-04-02T13:21:06.001Z</time></trkpt><trkpt lat="45.24085216423346" lon="9.280519788358566"><ele>78.0</ele><time>2026-04-02T13:21:07.001Z</time></trkpt><trkpt lat="45.24077373667202" lon="9.28018216885074"><ele>78.0</ele><time>2026-04-02T13:21:08.001Z</time></trkpt><trkpt lat="45.240704842830674" lon="9.279877188288053"><ele>77.5</ele><time>2026-04-02T13:21:09.001Z</time></trkpt><trkpt lat="45.24064444101754" lon="9.279568732714132"><ele>77.0</ele><time>2026-04-02T13:21:10.001Z</time></trkpt><trkpt lat="45.24058366590634" lon="9.27893484941949"><ele>77.33333333333334</ele><time>2026-04-02T13:21:12.001Z</time></trkpt><trkpt lat="45.24055967061587" lon="9.278613658401508"><ele>77.66666666666667</ele><time>2026-04-02T13:21:13.001Z</time></trkpt><trkpt lat="45.24053655905753" lon="9.278304298114668"><ele>78.0</ele><time>2026-04-02T13:21:14.001Z</time></trkpt><trkpt lat="45.24051418249865" lon="9.278004775386627"><ele>78.0</ele><time>2026-04-02T13:21:15.001Z</time></trkpt><trkpt lat="45.24049224421059" lon="9.277716699131984"><ele>78.0</ele><time>2026-04-02T13:21:16.001Z</time></trkpt><trkpt lat="45.24047061021853" lon="9.277434900508268"><ele>78.0</ele><time>2026-04-02T13:21:17.001Z</time></trkpt><trkpt lat="45.240449878973926" lon="9.277164862071844"><ele>78.0</ele><time>2026-04-02T13:21:18.001Z</time></trkpt><trkpt lat="45.24042979570385" lon="9.276903262068695"><ele>78.0</ele><time>2026-04-02T13:21:19.001Z</time></trkpt><trkpt lat="45.24041009650932" lon="9.276646665573404"><ele>78.0</ele><time>2026-04-02T13:21:20.001Z</time></trkpt><trkpt lat="45.24038819731367" lon="9.276397760143514"><ele>78.0</ele><time>2026-04-02T13:21:21.001Z</time></trkpt><trkpt lat="45.240356239359684" lon="9.276143406453823"><ele>78.0</ele><time>2026-04-02T13:21:22.001Z</time></trkpt><trkpt lat="45.24031919674484" lon="9.275895635217864"><ele>78.0</ele><time>2026-04-02T13:21:23.001Z</time></trkpt><trkpt lat="45.24028060181893" lon="9.275640780931191"><ele>78.0</ele><time>2026-04-02T13:21:24.001Z</time></trkpt><trkpt lat="45.24023974953954" lon="9.275378019127704"><ele>78.0</ele><time>2026-04-02T13:21:25.001Z</time></trkpt><trkpt lat="45.24019684834064" lon="9.275109252232399"><ele>78.0</ele><time>2026-04-02T13:21:26.001Z</time></trkpt><trkpt lat="45.24015210645046" lon="9.274845813137743"><ele>78.0</ele><time>2026-04-02T13:21:27.001Z</time></trkpt><trkpt lat="45.24010329864804" lon="9.27459402203328"><ele>78.0</ele><time>2026-04-02T13:21:28.001Z</time></trkpt><trkpt lat="45.24004089866795" lon="9.274352575711047"><ele>78.0</ele><time>2026-04-02T13:21:29.001Z</time></trkpt><trkpt lat="45.2399648035217" lon="9.274127541192083"><ele>78.0</ele><time>2026-04-02T13:21:30.001Z</time></trkpt><trkpt lat="45.23988068671161" lon="9.273918469999591"><ele>78.0</ele><time>2026-04-02T13:21:31.001Z</time></trkpt><trkpt lat="45.23978143488498" lon="9.273707916752333"><ele>78.0</ele><time>2026-04-02T13:21:32.002Z</time></trkpt><trkpt lat="45.239684370933375" lon="9.273506359230238"><ele>78.0</ele><time>2026-04-02T13:21:33.002Z</time></trkpt><trkpt lat="45.23958678699779" lon="9.273303721624158"><ele>78.0</ele><time>2026-04-02T13:21:34.002Z</time></trkpt><trkpt lat="45.23949117049323" lon="9.273105168976288"><ele>78.0</ele><time>2026-04-02T13:21:35.002Z</time></trkpt><trkpt lat="45.239403068057115" lon="9.272900202452243"><ele>78.0</ele><time>2026-04-02T13:21:36.002Z</time></trkpt><trkpt lat="45.23933744343567" lon="9.272688243779998"><ele>78.0</ele><time>2026-04-02T13:21:37.002Z</time></trkpt><trkpt lat="45.2392926268025" lon="9.272464141530458"><ele>78.0</ele><time>2026-04-02T13:21:38.002Z</time></trkpt><trkpt lat="45.23925423801878" lon="9.272238315177757"><ele>78.0</ele><time>2026-04-02T13:21:39Z</time></trkpt><trkpt lat="45.23921335654497" lon="9.272007714248383"><ele>78.0</ele><time>2026-04-02T13:21:40Z</time></trkpt><trkpt lat="45.23917164064502" lon="9.271779698391121"><ele>78.0</ele><time>2026-04-02T13:21:41Z</time></trkpt><trkpt lat="45.239130015511826" lon="9.2715506153715"><ele>78.25</ele><time>2026-04-02T13:21:42Z</time></trkpt><trkpt lat="45.23908984864451" lon="9.271328634728908"><ele>78.5</ele><time>2026-04-02T13:21:43Z</time></trkpt><trkpt lat="45.239053833519115" lon="9.27112959726036"><ele>78.75</ele><time>2026-04-02T13:21:44Z</time></trkpt><trkpt lat="45.239020362263695" lon="9.270944619327757"><ele>79.0</ele><time>2026-04-02T13:21:45Z</time></trkpt><trkpt lat="45.23898951983852" lon="9.270774247727733"><ele>79.0</ele><time>2026-04-02T13:21:46Z</time></trkpt><trkpt lat="45.23896228329122" lon="9.270624792600799"><ele>79.0</ele><time>2026-04-02T13:21:47Z</time></trkpt><trkpt lat="45.2389385004405" lon="9.270494287916831"><ele>79.0</ele><time>2026-04-02T13:21:48Z</time></trkpt><trkpt lat="45.238919686568615" lon="9.270391050786847"><ele>79.0</ele><time>2026-04-02T13:21:49Z</time></trkpt><trkpt lat="45.23890922539026" lon="9.270296127915511"><ele>79.0</ele><time>2026-04-02T13:21:51Z</time></trkpt><trkpt lat="45.23912861561007" lon="9.270193114050237"><ele>78.8</ele><time>2026-04-02T13:21:55Z</time></trkpt><trkpt lat="45.23920795415853" lon="9.270178273178843"><ele>78.60000000000001</ele><time>2026-04-02T13:21:56Z</time></trkpt><trkpt lat="45.23930142833846" lon="9.270166309764768"><ele>78.4</ele><time>2026-04-02T13:21:57Z</time></trkpt><trkpt lat="45.23940123554618" lon="9.27015672266257"><ele>78.2</ele><time>2026-04-02T13:21:58Z</time></trkpt><trkpt lat="45.23949198276715" lon="9.270147989782522"><ele>78.0</ele><time>2026-04-02T13:21:59Z</time></trkpt><trkpt lat="45.239590569098276" lon="9.270130562838846"><ele>78.0</ele><time>2026-04-02T13:22:00Z</time></trkpt><trkpt lat="45.239690730628475" lon="9.270105561315708"><ele>78.0</ele><time>2026-04-02T13:22:01Z</time></trkpt><trkpt lat="45.239791279072136" lon="9.270074704150113"><ele>78.0</ele><time>2026-04-02T13:22:02Z</time></trkpt><trkpt lat="45.23989097662215" lon="9.270042775470337"><ele>78.0</ele><time>2026-04-02T13:22:03Z</time></trkpt><trkpt lat="45.239995858288154" lon="9.270010835018859"><ele>78.0</ele><time>2026-04-02T13:22:04Z</time></trkpt><trkpt lat="45.240099368075036" lon="9.269973964375183"><ele>78.2</ele><time>2026-04-02T13:22:05Z</time></trkpt><trkpt lat="45.24019235106655" lon="9.269929083678011"><ele>78.4</ele><time>2026-04-02T13:22:06Z</time></trkpt><trkpt lat="45.240280923445404" lon="9.269872917217224"><ele>78.60000000000001</ele><time>2026-04-02T13:22:07Z</time></trkpt><trkpt lat="45.24038174834314" lon="9.26981393058125"><ele>78.8</ele><time>2026-04-02T13:22:08Z</time></trkpt><trkpt lat="45.24048835755158" lon="9.269759949418537"><ele>79.0</ele><time>2026-04-02T13:22:09Z</time></trkpt><trkpt lat="45.24059524371255" lon="9.269707525478537"><ele>79.2</ele><time>2026-04-02T13:22:10Z</time></trkpt><trkpt lat="45.240694054003086" lon="9.2696557690222"><ele>79.4</ele><time>2026-04-02T13:22:11Z</time></trkpt><trkpt lat="45.240797282177645" lon="9.269604335902702"><ele>79.6</ele><time>2026-04-02T13:22:12Z</time></trkpt><trkpt lat="45.240897680489404" lon="9.269555921537812"><ele>79.8</ele><time>2026-04-02T13:22:13Z</time></trkpt><trkpt lat="45.241003698909104" lon="9.269497262639613"><ele>80.0</ele><time>2026-04-02T13:22:14Z</time></trkpt><trkpt lat="45.2410986187141" lon="9.269440080035453"><ele>80.0</ele><time>2026-04-02T13:22:15Z</time></trkpt><trkpt lat="45.241189422373246" lon="9.269386708820553"><ele>80.0</ele><time>2026-04-02T13:22:16Z</time></trkpt><trkpt lat="45.24128421511648" lon="9.269334886512167"><ele>80.0</ele><time>2026-04-02T13:22:17Z</time></trkpt><trkpt lat="45.24138229110551" lon="9.269285228203865"><ele>80.0</ele><time>2026-04-02T13:22:18Z</time></trkpt><trkpt lat="45.24148088812603" lon="9.269234141577346"><ele>80.0</ele><time>2026-04-02T13:22:19Z</time></trkpt><trkpt lat="45.24157650267479" lon="9.269187709074336"><ele>80.16666666666667</ele><time>2026-04-02T13:22:20Z</time></trkpt><trkpt lat="45.241663973784114" lon="9.269145511757118"><ele>80.33333333333334</ele><time>2026-04-02T13:22:21Z</time></trkpt><trkpt lat="45.24174271905543" lon="9.269112514345105"><ele>80.5</ele><time>2026-04-02T13:22:22Z</time></trkpt><trkpt lat="45.24181428334504" lon="9.26908299553203"><ele>80.66666666666667</ele><time>2026-04-02T13:22:23Z</time></trkpt><trkpt lat="45.2418807620425" lon="9.2690550389434"><ele>80.83333333333333</ele><time>2026-04-02T13:22:24Z</time></trkpt><trkpt lat="45.24193881316334" lon="9.26901435608047"><ele>81.0</ele><time>2026-04-02T13:22:25Z</time></trkpt><trkpt lat="45.24201674942573" lon="9.268909563193766"><ele>81.0</ele><time>2026-04-02T13:22:27Z</time></trkpt><trkpt lat="45.242046006547106" lon="9.268820658342914"><ele>81.0</ele><time>2026-04-02T13:22:28Z</time></trkpt><trkpt lat="45.242076657932934" lon="9.26873522822978"><ele>81.0</ele><time>2026-04-02T13:22:29.001Z</time></trkpt><trkpt lat="45.242120905581366" lon="9.2686545142926"><ele>81.0</ele><time>2026-04-02T13:22:30.001Z</time></trkpt><trkpt lat="45.242172493161824" lon="9.268594851663478"><ele>81.0</ele><time>2026-04-02T13:22:31.001Z</time></trkpt><trkpt lat="45.242266349695235" lon="9.268509896662488"><ele>81.0</ele><time>2026-04-02T13:22:33.001Z</time></trkpt><trkpt lat="45.24234728556061" lon="9.268407449988807"><ele>80.75</ele><time>2026-04-02T13:22:35.001Z</time></trkpt><trkpt lat="45.24236860512553" lon="9.268286518299472"><ele>80.5</ele><time>2026-04-02T13:22:37.001Z</time></trkpt><trkpt lat="45.242340577384894" lon="9.268204454678257"><ele>80.25</ele><time>2026-04-02T13:22:39.001Z</time></trkpt><trkpt lat="45.242563056837284" lon="9.268153402505561"><ele>80.0</ele><time>2026-04-02T13:22:40.001Z</time></trkpt><trkpt lat="45.24267287724754" lon="9.268094247883969"><ele>80.0</ele><time>2026-04-02T13:22:41.001Z</time></trkpt><trkpt lat="45.24279540336885" lon="9.26802987488315"><ele>80.0</ele><time>2026-04-02T13:22:42.001Z</time></trkpt><trkpt lat="45.242945754619214" lon="9.267953407892632"><ele>80.0</ele><time>2026-04-02T13:22:43.001Z</time></trkpt><trkpt lat="45.24308031627207" lon="9.267879511051552"><ele>80.0</ele><time>2026-04-02T13:22:44.001Z</time></trkpt><trkpt lat="45.24322184603297" lon="9.26780203047368"><ele>80.0</ele><time>2026-04-02T13:22:45.001Z</time></trkpt><trkpt lat="45.243355562662174" lon="9.267728300388725"><ele>80.0</ele><time>2026-04-02T13:22:46.001Z</time></trkpt><trkpt lat="45.24349312270762" lon="9.267657158113222"><ele>80.0</ele><time>2026-04-02T13:22:47.001Z</time></trkpt><trkpt lat="45.2436252310998" lon="9.267586023319984"><ele>80.0</ele><time>2026-04-02T13:22:48.001Z</time></trkpt><trkpt lat="45.24375490181711" lon="9.267515920011897"><ele>80.0</ele><time>2026-04-02T13:22:49.001Z</time></trkpt><trkpt lat="45.243885019841805" lon="9.267446396607786"><ele>80.0</ele><time>2026-04-02T13:22:50.001Z</time></trkpt><trkpt lat="45.24401111778379" lon="9.26737449213435"><ele>80.0</ele><time>2026-04-02T13:22:51.001Z</time></trkpt><trkpt lat="45.244139122983896" lon="9.267301004994016"><ele>80.0</ele><time>2026-04-02T13:22:52.001Z</time></trkpt><trkpt lat="45.244269162693016" lon="9.267231094138758"><ele>80.0</ele><time>2026-04-02T13:22:53.001Z</time></trkpt><trkpt lat="45.2443980712293" lon="9.267156118163031"><ele>80.0</ele><time>2026-04-02T13:22:54.001Z</time></trkpt><trkpt lat="45.24452641696282" lon="9.267085427997772"><ele>80.0</ele><time>2026-04-02T13:22:55.001Z</time></trkpt><trkpt lat="45.244650009089995" lon="9.267018252753868"><ele>80.0</ele><time>2026-04-02T13:22:56.001Z</time></trkpt><trkpt lat="45.24476900257777" lon="9.266957895230874"><ele>80.0</ele><time>2026-04-02T13:22:57.001Z</time></trkpt><trkpt lat="45.244886261039646" lon="9.266888996693892"><ele>80.0</ele><time>2026-04-02T13:22:58.001Z</time></trkpt><trkpt lat="45.245003295619064" lon="9.266824513164321"><ele>80.0</ele><time>2026-04-02T13:22:59.001Z</time></trkpt><trkpt lat="45.245119124244695" lon="9.266758045806595"><ele>80.0</ele><time>2026-04-02T13:23:00.001Z</time></trkpt><trkpt lat="45.24521876546936" lon="9.266697828924721"><ele>80.0</ele><time>2026-04-02T13:23:01.001Z</time></trkpt><trkpt lat="45.24531354491504" lon="9.266637722934272"><ele>80.0</ele><time>2026-04-02T13:23:02.001Z</time></trkpt><trkpt lat="45.2454007118723" lon="9.266589364739861"><ele>80.0</ele><time>2026-04-02T13:23:03.001Z</time></trkpt><trkpt lat="45.24549987544537" lon="9.266545891532854"><ele>80.0</ele><time>2026-04-02T13:23:04.001Z</time></trkpt><trkpt lat="45.24560381613691" lon="9.266500606728913"><ele>80.0</ele><time>2026-04-02T13:23:05.001Z</time></trkpt><trkpt lat="45.24570839973768" lon="9.266446290833592"><ele>79.8</ele><time>2026-04-02T13:23:06.001Z</time></trkpt><trkpt lat="45.2458184568632" lon="9.266386972911576"><ele>79.6</ele><time>2026-04-02T13:23:07.001Z</time></trkpt><trkpt lat="45.245925740675155" lon="9.266324406367085"><ele>79.4</ele><time>2026-04-02T13:23:08.001Z</time></trkpt><trkpt lat="45.24602500179936" lon="9.266265365273224"><ele>79.2</ele><time>2026-04-02T13:23:09.001Z</time></trkpt><trkpt lat="45.24612504817432" lon="9.266213518738311"><ele>79.0</ele><time>2026-04-02T13:23:10.001Z</time></trkpt><trkpt lat="45.24622180025233" lon="9.266164746842234"><ele>79.0</ele><time>2026-04-02T13:23:11.001Z</time></trkpt><trkpt lat="45.24632323697967" lon="9.266124448630007"><ele>79.0</ele><time>2026-04-02T13:23:12.001Z</time></trkpt><trkpt lat="45.2464216830657" lon="9.266085229290553"><ele>79.0</ele><time>2026-04-02T13:23:13.001Z</time></trkpt><trkpt lat="45.24651416349602" lon="9.266043537851361"><ele>79.0</ele><time>2026-04-02T13:23:14.001Z</time></trkpt><trkpt lat="45.24660563176284" lon="9.266000663127507"><ele>79.0</ele><time>2026-04-02T13:23:15.001Z</time></trkpt><trkpt lat="45.24670114956399" lon="9.265949827343512"><ele>79.0</ele><time>2026-04-02T13:23:16.001Z</time></trkpt><trkpt lat="45.246798277558696" lon="9.265900823555949"><ele>79.0</ele><time>2026-04-02T13:23:17.001Z</time></trkpt><trkpt lat="45.24689937876368" lon="9.265848591782381"><ele>79.0</ele><time>2026-04-02T13:23:18.001Z</time></trkpt><trkpt lat="45.246998872900605" lon="9.265796849575409"><ele>79.0</ele><time>2026-04-02T13:23:19.001Z</time></trkpt><trkpt lat="45.24709343671467" lon="9.2657505234962"><ele>79.0</ele><time>2026-04-02T13:23:20.001Z</time></trkpt><trkpt lat="45.24719826732581" lon="9.265700558205541"><ele>79.0</ele><time>2026-04-02T13:23:21.001Z</time></trkpt><trkpt lat="45.247315840377674" lon="9.265645135175733"><ele>79.0</ele><time>2026-04-02T13:23:22.001Z</time></trkpt><trkpt lat="45.24745025869874" lon="9.265575993147687"><ele>79.0</ele><time>2026-04-02T13:23:23.001Z</time></trkpt><trkpt lat="45.247569836454005" lon="9.26552154470528"><ele>79.0</ele><time>2026-04-02T13:23:24.001Z</time></trkpt><trkpt lat="45.247674608096396" lon="9.265479453560852"><ele>79.2</ele><time>2026-04-02T13:23:25.001Z</time></trkpt><trkpt lat="45.24776880919329" lon="9.265427658782826"><ele>79.4</ele><time>2026-04-02T13:23:26.001Z</time></trkpt><trkpt lat="45.247863348359026" lon="9.265380110117809"><ele>79.6</ele><time>2026-04-02T13:23:27.001Z</time></trkpt><trkpt lat="45.247962752020044" lon="9.26529017535913"><ele>79.8</ele><time>2026-04-02T13:23:28.001Z</time></trkpt><trkpt lat="45.248063190143505" lon="9.265175470840042"><ele>80.0</ele><time>2026-04-02T13:23:29.001Z</time></trkpt><trkpt lat="45.24814651717067" lon="9.265081068903717"><ele>80.4</ele><time>2026-04-02T13:23:30.001Z</time></trkpt><trkpt lat="45.248224480048705" lon="9.26503925282458"><ele>80.8</ele><time>2026-04-02T13:23:31.001Z</time></trkpt><trkpt lat="45.24829107310625" lon="9.264977472932554"><ele>81.19999999999999</ele><time>2026-04-02T13:23:32.001Z</time></trkpt><trkpt lat="45.248383556583164" lon="9.264965176998688"><ele>81.6</ele><time>2026-04-02T13:23:33.001Z</time></trkpt><trkpt lat="45.24847831206871" lon="9.26498783565609"><ele>82.0</ele><time>2026-04-02T13:23:34.001Z</time></trkpt><trkpt lat="45.24858644893595" lon="9.26503513970335"><ele>82.0</ele><time>2026-04-02T13:23:35.001Z</time></trkpt><trkpt lat="45.24869119444675" lon="9.265068355860427"><ele>82.0</ele><time>2026-04-02T13:23:36.002Z</time></trkpt><trkpt lat="45.248778682094425" lon="9.265064713540806"><ele>82.0</ele><time>2026-04-02T13:23:37.002Z</time></trkpt><trkpt lat="45.248869681589916" lon="9.265018687363986"><ele>82.0</ele><time>2026-04-02T13:23:38.002Z</time></trkpt><trkpt lat="45.24896205677512" lon="9.264954060154325"><ele>82.0</ele><time>2026-04-02T13:23:39.002Z</time></trkpt><trkpt lat="45.24904081471452" lon="9.264905135725739"><ele>81.8</ele><time>2026-04-02T13:23:40.002Z</time></trkpt><trkpt lat="45.24911285347437" lon="9.264896544457825"><ele>81.6</ele><time>2026-04-02T13:23:41.002Z</time></trkpt><trkpt lat="45.24917695077" lon="9.264926234038887"><ele>81.39999999999999</ele><time>2026-04-02T13:23:42.002Z</time></trkpt><trkpt lat="45.24925795446744" lon="9.26498560464015"><ele>81.19999999999999</ele><time>2026-04-02T13:23:43.002Z</time></trkpt><trkpt lat="45.24935325031662" lon="9.26507378604549"><ele>81.0</ele><time>2026-04-02T13:23:44.002Z</time></trkpt><trkpt lat="45.2494732789688" lon="9.265184134000323"><ele>81.0</ele><time>2026-04-02T13:23:45Z</time></trkpt><trkpt lat="45.249579957521355" lon="9.26528493191035"><ele>81.0</ele><time>2026-04-02T13:23:46Z</time></trkpt><trkpt lat="45.24969133183403" lon="9.265375891709132"><ele>81.0</ele><time>2026-04-02T13:23:47Z</time></trkpt><trkpt lat="45.24980365054877" lon="9.265465021812883"><ele>81.0</ele><time>2026-04-02T13:23:48Z</time></trkpt><trkpt lat="45.24990507719087" lon="9.265557646071796"><ele>80.75</ele><time>2026-04-02T13:23:49Z</time></trkpt><trkpt lat="45.250006325961316" lon="9.265666884005473"><ele>80.5</ele><time>2026-04-02T13:23:50Z</time></trkpt><trkpt lat="45.25009938477642" lon="9.265774369315627"><ele>80.25</ele><time>2026-04-02T13:23:51Z</time></trkpt><trkpt lat="45.2501909789561" lon="9.265883473730982"><ele>80.0</ele><time>2026-04-02T13:23:52Z</time></trkpt><trkpt lat="45.250284661833724" lon="9.265983902024777"><ele>80.0</ele><time>2026-04-02T13:23:53Z</time></trkpt><trkpt lat="45.25038069750638" lon="9.266074351099489"><ele>80.0</ele><time>2026-04-02T13:23:54Z</time></trkpt><trkpt lat="45.250489508072995" lon="9.266161740936814"><ele>80.0</ele><time>2026-04-02T13:23:55Z</time></trkpt><trkpt lat="45.25060085758368" lon="9.266241233775862"><ele>80.0</ele><time>2026-04-02T13:23:56Z</time></trkpt><trkpt lat="45.25071807177689" lon="9.266310363274846"><ele>80.5</ele><time>2026-04-02T13:23:57Z</time></trkpt><trkpt lat="45.25082701202492" lon="9.266390837359015"><ele>81.0</ele><time>2026-04-02T13:23:58Z</time></trkpt><trkpt lat="45.25094415222086" lon="9.266483920995707"><ele>81.5</ele><time>2026-04-02T13:23:59Z</time></trkpt><trkpt lat="45.2510534856443" lon="9.266577302084889"><ele>82.0</ele><time>2026-04-02T13:24:00Z</time></trkpt><trkpt lat="45.25116213970405" lon="9.266669446390853"><ele>82.0</ele><time>2026-04-02T13:24:01Z</time></trkpt><trkpt lat="45.251273850806506" lon="9.266769542782578"><ele>82.0</ele><time>2026-04-02T13:24:02Z</time></trkpt><trkpt lat="45.251381355169286" lon="9.26686215121654"><ele>82.0</ele><time>2026-04-02T13:24:03Z</time></trkpt><trkpt lat="45.25148946462843" lon="9.266955848546134"><ele>82.0</ele><time>2026-04-02T13:24:04Z</time></trkpt><trkpt lat="45.25159524797849" lon="9.267048516855212"><ele>82.0</ele><time>2026-04-02T13:24:05Z</time></trkpt><trkpt lat="45.25170810449059" lon="9.267148049736758"><ele>82.0</ele><time>2026-04-02T13:24:06Z</time></trkpt><trkpt lat="45.25181655141827" lon="9.267242828687555"><ele>82.0</ele><time>2026-04-02T13:24:07Z</time></trkpt><trkpt lat="45.251920036508636" lon="9.267336607010455"><ele>82.0</ele><time>2026-04-02T13:24:08Z</time></trkpt><trkpt lat="45.25202788477321" lon="9.267437375290147"><ele>81.75</ele><time>2026-04-02T13:24:09Z</time></trkpt><trkpt lat="45.252122466955264" lon="9.267529859218602"><ele>81.5</ele><time>2026-04-02T13:24:10Z</time></trkpt><trkpt lat="45.252212083692406" lon="9.267606929832505"><ele>81.25</ele><time>2026-04-02T13:24:11Z</time></trkpt><trkpt lat="45.252306591572435" lon="9.267685749033062"><ele>81.0</ele><time>2026-04-02T13:24:12Z</time></trkpt><trkpt lat="45.25240953938067" lon="9.267776156969193"><ele>80.75</ele><time>2026-04-02T13:24:13Z</time></trkpt><trkpt lat="45.25251460584575" lon="9.26786446371218"><ele>80.5</ele><time>2026-04-02T13:24:14Z</time></trkpt><trkpt lat="45.25262058176721" lon="9.267957274050561"><ele>80.25</ele><time>2026-04-02T13:24:15Z</time></trkpt><trkpt lat="45.252727727021224" lon="9.268051666064444"><ele>80.0</ele><time>2026-04-02T13:24:16Z</time></trkpt><trkpt lat="45.25283595168994" lon="9.26814227120836"><ele>80.0</ele><time>2026-04-02T13:24:17Z</time></trkpt><trkpt lat="45.25294349567541" lon="9.268234401585168"><ele>80.0</ele><time>2026-04-02T13:24:18Z</time></trkpt><trkpt lat="45.25304787346648" lon="9.268324337161749"><ele>80.0</ele><time>2026-04-02T13:24:19Z</time></trkpt><trkpt lat="45.25315195482409" lon="9.268412135713321"><ele>80.0</ele><time>2026-04-02T13:24:20Z</time></trkpt><trkpt lat="45.25324416258963" lon="9.268490564293256"><ele>80.2</ele><time>2026-04-02T13:24:21Z</time></trkpt><trkpt lat="45.25332983078347" lon="9.268563769278154"><ele>80.4</ele><time>2026-04-02T13:24:22Z</time></trkpt><trkpt lat="45.2534080507692" lon="9.268630111030642"><ele>80.6</ele><time>2026-04-02T13:24:23Z</time></trkpt><trkpt lat="45.25349594356642" lon="9.268705468609234"><ele>80.8</ele><time>2026-04-02T13:24:24Z</time></trkpt><trkpt lat="45.2535993043129" lon="9.268795578205433"><ele>81.0</ele><time>2026-04-02T13:24:25Z</time></trkpt><trkpt lat="45.253709723284736" lon="9.268893040278586"><ele>81.5</ele><time>2026-04-02T13:24:26Z</time></trkpt><trkpt lat="45.25382245407114" lon="9.268991995620118"><ele>82.0</ele><time>2026-04-02T13:24:27Z</time></trkpt><trkpt lat="45.25393901748386" lon="9.269093344007935"><ele>82.5</ele><time>2026-04-02T13:24:28Z</time></trkpt><trkpt lat="45.2540537132409" lon="9.269192713300056"><ele>83.0</ele><time>2026-04-02T13:24:29Z</time></trkpt><trkpt lat="45.254167603090536" lon="9.269292392105598"><ele>83.0</ele><time>2026-04-02T13:24:30Z</time></trkpt><trkpt lat="45.25427758619087" lon="9.269386108163"><ele>83.0</ele><time>2026-04-02T13:24:31Z</time></trkpt><trkpt lat="45.254390007521785" lon="9.269480200810083"><ele>83.0</ele><time>2026-04-02T13:24:32.001Z</time></trkpt><trkpt lat="45.25449954611285" lon="9.269573797481414"><ele>83.0</ele><time>2026-04-02T13:24:33.001Z</time></trkpt><trkpt lat="45.254605781391724" lon="9.269666583977427"><ele>83.0</ele><time>2026-04-02T13:24:34.001Z</time></trkpt><trkpt lat="45.2547077239457" lon="9.269754367460918"><ele>83.0</ele><time>2026-04-02T13:24:35.001Z</time></trkpt><trkpt lat="45.25481628856883" lon="9.269847491006765"><ele>83.0</ele><time>2026-04-02T13:24:36.001Z</time></trkpt><trkpt lat="45.25491799091122" lon="9.269935835692753"><ele>83.0</ele><time>2026-04-02T13:24:37.001Z</time></trkpt><trkpt lat="45.2550148883388" lon="9.270018178149837"><ele>82.5</ele><time>2026-04-02T13:24:38.001Z</time></trkpt><trkpt lat="45.25511361225325" lon="9.27010163403939"><ele>82.0</ele><time>2026-04-02T13:24:39.001Z</time></trkpt><trkpt lat="45.255214947878585" lon="9.270185654879329"><ele>81.5</ele><time>2026-04-02T13:24:40.001Z</time></trkpt><trkpt lat="45.25531719230555" lon="9.270273774765633"><ele>81.0</ele><time>2026-04-02T13:24:41.001Z</time></trkpt><trkpt lat="45.25541272986183" lon="9.270357049798015"><ele>81.0</ele><time>2026-04-02T13:24:42.001Z</time></trkpt><trkpt lat="45.255511930277905" lon="9.270449128221841"><ele>81.0</ele><time>2026-04-02T13:24:43.001Z</time></trkpt><trkpt lat="45.25561071195545" lon="9.270536232099403"><ele>81.0</ele><time>2026-04-02T13:24:44.001Z</time></trkpt><trkpt lat="45.255711564305464" lon="9.27062527161988"><ele>81.0</ele><time>2026-04-02T13:24:45.001Z</time></trkpt><trkpt lat="45.25580895965639" lon="9.27071373067427"><ele>81.0</ele><time>2026-04-02T13:24:46.001Z</time></trkpt><trkpt lat="45.25590010596036" lon="9.27080363691186"><ele>81.0</ele><time>2026-04-02T13:24:47.001Z</time></trkpt><trkpt lat="45.25599034374033" lon="9.270894423304089"><ele>81.0</ele><time>2026-04-02T13:24:48.001Z</time></trkpt><trkpt lat="45.25608681166849" lon="9.270983031115883"><ele>81.0</ele><time>2026-04-02T13:24:49.001Z</time></trkpt><trkpt lat="45.25618184591562" lon="9.271064963037595"><ele>81.0</ele><time>2026-04-02T13:24:50.001Z</time></trkpt><trkpt lat="45.25628035248566" lon="9.271142405540798"><ele>81.0</ele><time>2026-04-02T13:24:51.001Z</time></trkpt><trkpt lat="45.25637364845644" lon="9.271219231132989"><ele>81.0</ele><time>2026-04-02T13:24:52.001Z</time></trkpt><trkpt lat="45.2564708242426" lon="9.271301813057034"><ele>81.0</ele><time>2026-04-02T13:24:53.001Z</time></trkpt><trkpt lat="45.256568946563725" lon="9.271387602515798"><ele>81.0</ele><time>2026-04-02T13:24:54.001Z</time></trkpt><trkpt lat="45.256662249635596" lon="9.271469070045377"><ele>81.0</ele><time>2026-04-02T13:24:55.001Z</time></trkpt><trkpt lat="45.25675077711198" lon="9.271553055964244"><ele>80.8</ele><time>2026-04-02T13:24:56.001Z</time></trkpt><trkpt lat="45.256836916296734" lon="9.271628379132475"><ele>80.6</ele><time>2026-04-02T13:24:57.001Z</time></trkpt><trkpt lat="45.25692351303908" lon="9.271699654391451"><ele>80.4</ele><time>2026-04-02T13:24:58.001Z</time></trkpt><trkpt lat="45.257012194355546" lon="9.271778125646092"><ele>80.2</ele><time>2026-04-02T13:24:59.001Z</time></trkpt><trkpt lat="45.257098085189476" lon="9.271848123489539"><ele>80.0</ele><time>2026-04-02T13:25:00.001Z</time></trkpt><trkpt lat="45.257183035667175" lon="9.271924232856271"><ele>80.0</ele><time>2026-04-02T13:25:01.001Z</time></trkpt><trkpt lat="45.25726493819773" lon="9.271998704995154"><ele>80.0</ele><time>2026-04-02T13:25:02.001Z</time></trkpt><trkpt lat="45.25736006733523" lon="9.272086841694806"><ele>80.0</ele><time>2026-04-02T13:25:03.001Z</time></trkpt><trkpt lat="45.2574479234863" lon="9.272164797184429"><ele>80.0</ele><time>2026-04-02T13:25:04.001Z</time></trkpt><trkpt lat="45.25754086607029" lon="9.272247636829372"><ele>80.0</ele><time>2026-04-02T13:25:05.001Z</time></trkpt><trkpt lat="45.25763498443526" lon="9.272334292197115"><ele>80.5</ele><time>2026-04-02T13:25:06.001Z</time></trkpt><trkpt lat="45.257736645507926" lon="9.272432993512576"><ele>81.0</ele><time>2026-04-02T13:25:07.001Z</time></trkpt><trkpt lat="45.257848482009635" lon="9.272544240355593"><ele>81.5</ele><time>2026-04-02T13:25:08.001Z</time></trkpt><trkpt lat="45.25795577165528" lon="9.272644194096424"><ele>82.0</ele><time>2026-04-02T13:25:09.001Z</time></trkpt><trkpt lat="45.25805090265023" lon="9.272741665796008"><ele>82.5</ele><time>2026-04-02T13:25:10.001Z</time></trkpt><trkpt lat="45.25813983794466" lon="9.272842824788691"><ele>83.0</ele><time>2026-04-02T13:25:11.001Z</time></trkpt><trkpt lat="45.25823646396278" lon="9.272938443985788"><ele>83.5</ele><time>2026-04-02T13:25:12.001Z</time></trkpt><trkpt lat="45.25835176194606" lon="9.273031784398672"><ele>84.0</ele><time>2026-04-02T13:25:13.001Z</time></trkpt><trkpt lat="45.25845912053494" lon="9.27309880377846"><ele>83.80000000000001</ele><time>2026-04-02T13:25:14.001Z</time></trkpt><trkpt lat="45.25854783392754" lon="9.27314718745949"><ele>83.60000000000001</ele><time>2026-04-02T13:25:15.001Z</time></trkpt><trkpt lat="45.25863555034422" lon="9.273203783202124"><ele>83.4</ele><time>2026-04-02T13:25:16.001Z</time></trkpt><trkpt lat="45.25873336056713" lon="9.273276787124352"><ele>83.2</ele><time>2026-04-02T13:25:17.001Z</time></trkpt><trkpt lat="45.25883721415272" lon="9.273351803392313"><ele>83.0</ele><time>2026-04-02T13:25:18.001Z</time></trkpt><trkpt lat="45.2589499163006" lon="9.273441799221162"><ele>82.5</ele><time>2026-04-02T13:25:19.001Z</time></trkpt><trkpt lat="45.25907364914405" lon="9.273548727989596"><ele>82.0</ele><time>2026-04-02T13:25:20.001Z</time></trkpt><trkpt lat="45.259197692809686" lon="9.273661933909455"><ele>81.5</ele><time>2026-04-02T13:25:21.001Z</time></trkpt><trkpt lat="45.25932130599898" lon="9.2737821930558"><ele>81.0</ele><time>2026-04-02T13:25:22.001Z</time></trkpt><trkpt lat="45.25944816240526" lon="9.27389978197357"><ele>81.33333333333333</ele><time>2026-04-02T13:25:23.001Z</time></trkpt><trkpt lat="45.25958070116618" lon="9.274014965909346"><ele>81.66666666666666</ele><time>2026-04-02T13:25:24.001Z</time></trkpt><trkpt lat="45.259720861696614" lon="9.274117185235003"><ele>82.0</ele><time>2026-04-02T13:25:25.001Z</time></trkpt><trkpt lat="45.25986108738791" lon="9.27422609077948"><ele>82.33333333333333</ele><time>2026-04-02T13:25:26.001Z</time></trkpt><trkpt lat="45.26000401553095" lon="9.274343967559473"><ele>82.66666666666667</ele><time>2026-04-02T13:25:27.001Z</time></trkpt><trkpt lat="45.260140406143044" lon="9.274476354845083"><ele>83.0</ele><time>2026-04-02T13:25:28.001Z</time></trkpt><trkpt lat="45.26027624071978" lon="9.274604552453342"><ele>83.0</ele><time>2026-04-02T13:25:29.001Z</time></trkpt><trkpt lat="45.26041104984399" lon="9.274721342182591"><ele>83.0</ele><time>2026-04-02T13:25:30.001Z</time></trkpt><trkpt lat="45.260549302254674" lon="9.274828126276555"><ele>83.0</ele><time>2026-04-02T13:25:31.001Z</time></trkpt><trkpt lat="45.26068719496744" lon="9.274940943835514"><ele>82.66666666666667</ele><time>2026-04-02T13:25:32.001Z</time></trkpt><trkpt lat="45.26082421764832" lon="9.275056299515631"><ele>82.33333333333333</ele><time>2026-04-02T13:25:33.001Z</time></trkpt><trkpt lat="45.260958815391845" lon="9.275171364876163"><ele>82.0</ele><time>2026-04-02T13:25:34.001Z</time></trkpt><trkpt lat="45.26109262769468" lon="9.275289072588507"><ele>82.0</ele><time>2026-04-02T13:25:35.001Z</time></trkpt><trkpt lat="45.261217890690936" lon="9.275402185107852"><ele>82.0</ele><time>2026-04-02T13:25:36.001Z</time></trkpt><trkpt lat="45.26134291557832" lon="9.275514601125785"><ele>82.0</ele><time>2026-04-02T13:25:37.001Z</time></trkpt><trkpt lat="45.26147136576886" lon="9.275625919279051"><ele>82.0</ele><time>2026-04-02T13:25:38.001Z</time></trkpt><trkpt lat="45.261603276171975" lon="9.275737588616435"><ele>81.66666666666666</ele><time>2026-04-02T13:25:39.002Z</time></trkpt><trkpt lat="45.26174147980918" lon="9.275854288819538"><ele>81.33333333333333</ele><time>2026-04-02T13:25:40.002Z</time></trkpt><trkpt lat="45.26187647706221" lon="9.275973634682943"><ele>81.0</ele><time>2026-04-02T13:25:41.002Z</time></trkpt><trkpt lat="45.262010819575856" lon="9.276107933075554"><ele>81.0</ele><time>2026-04-02T13:25:42.002Z</time></trkpt><trkpt lat="45.26212313255587" lon="9.276234077294312"><ele>81.0</ele><time>2026-04-02T13:25:43.002Z</time></trkpt><trkpt lat="45.26221729216209" lon="9.276338896925534"><ele>81.0</ele><time>2026-04-02T13:25:44.002Z</time></trkpt><trkpt lat="45.26230216056854" lon="9.276427467258094"><ele>81.0</ele><time>2026-04-02T13:25:45.002Z</time></trkpt><trkpt lat="45.26237287086846" lon="9.276499033095458"><ele>81.0</ele><time>2026-04-02T13:25:46.002Z</time></trkpt><trkpt lat="45.262427767100604" lon="9.276548833265155"><ele>81.0</ele><time>2026-04-02T13:25:47.002Z</time></trkpt><trkpt lat="45.26254397246079" lon="9.276600901350642"><ele>81.0</ele><time>2026-04-02T13:25:49.002Z</time></trkpt><trkpt lat="45.26267043973476" lon="9.27644811852322"><ele>81.0</ele><time>2026-04-02T13:25:50.002Z</time></trkpt><trkpt lat="45.26278754855084" lon="9.276320903274943"><ele>81.0</ele><time>2026-04-02T13:25:51Z</time></trkpt><trkpt lat="45.26291578650737" lon="9.276202639755693"><ele>81.0</ele><time>2026-04-02T13:25:52Z</time></trkpt><trkpt lat="45.26304721030004" lon="9.276054250596918"><ele>81.0</ele><time>2026-04-02T13:25:53Z</time></trkpt><trkpt lat="45.26317744245344" lon="9.275903185310263"><ele>81.66666666666667</ele><time>2026-04-02T13:25:54Z</time></trkpt><trkpt lat="45.26330453738514" lon="9.275754660345934"><ele>82.33333333333334</ele><time>2026-04-02T13:25:55Z</time></trkpt><trkpt lat="45.26342487088928" lon="9.275583886146025"><ele>83.0</ele><time>2026-04-02T13:25:56Z</time></trkpt><trkpt lat="45.26355736461255" lon="9.275429398624583"><ele>83.0</ele><time>2026-04-02T13:25:57Z</time></trkpt><trkpt lat="45.263676878304594" lon="9.275292334887435"><ele>83.0</ele><time>2026-04-02T13:25:58Z</time></trkpt><trkpt lat="45.26378924566759" lon="9.275173712732762"><ele>83.0</ele><time>2026-04-02T13:25:59Z</time></trkpt><trkpt lat="45.26389852336999" lon="9.275064704320252"><ele>83.0</ele><time>2026-04-02T13:26:00Z</time></trkpt><trkpt lat="45.26400651260079" lon="9.274978499496935"><ele>83.0</ele><time>2026-04-02T13:26:01Z</time></trkpt><trkpt lat="45.26411420599584" lon="9.27493008031698"><ele>83.0</ele><time>2026-04-02T13:26:02Z</time></trkpt><trkpt lat="45.264217507208876" lon="9.274899851257556"><ele>83.0</ele><time>2026-04-02T13:26:03Z</time></trkpt><trkpt lat="45.264309239224005" lon="9.274867109923676"><ele>83.0</ele><time>2026-04-02T13:26:04Z</time></trkpt><trkpt lat="45.26439900638535" lon="9.274829523891556"><ele>83.0</ele><time>2026-04-02T13:26:05Z</time></trkpt><trkpt lat="45.26448152197463" lon="9.27479260702214"><ele>83.0</ele><time>2026-04-02T13:26:06Z</time></trkpt><trkpt lat="45.26457038733887" lon="9.274767424792437"><ele>83.0</ele><time>2026-04-02T13:26:07Z</time></trkpt><trkpt lat="45.26464830898167" lon="9.274751315051464"><ele>83.0</ele><time>2026-04-02T13:26:08Z</time></trkpt><trkpt lat="45.26473006199153" lon="9.274754016898592"><ele>83.0</ele><time>2026-04-02T13:26:09Z</time></trkpt><trkpt lat="45.264800512863395" lon="9.274751469546649"><ele>83.0</ele><time>2026-04-02T13:26:10Z</time></trkpt><trkpt lat="45.264914275226225" lon="9.274709787981367"><ele>83.0</ele><time>2026-04-02T13:26:12Z</time></trkpt><trkpt lat="45.26497231192337" lon="9.274659483112695"><ele>83.25</ele><time>2026-04-02T13:26:13Z</time></trkpt><trkpt lat="45.26509570118509" lon="9.274652298209261"><ele>83.5</ele><time>2026-04-02T13:26:15Z</time></trkpt><trkpt lat="45.26517106333179" lon="9.274709880214214"><ele>83.75</ele><time>2026-04-02T13:26:16Z</time></trkpt><trkpt lat="45.265262704220056" lon="9.274799383830741"><ele>84.0</ele><time>2026-04-02T13:26:17Z</time></trkpt><trkpt lat="45.26536771310565" lon="9.27491981737471"><ele>84.0</ele><time>2026-04-02T13:26:18Z</time></trkpt><trkpt lat="45.26547181196189" lon="9.27502413113799"><ele>84.0</ele><time>2026-04-02T13:26:19Z</time></trkpt><trkpt lat="45.26555756332739" lon="9.275114423552404"><ele>84.0</ele><time>2026-04-02T13:26:20Z</time></trkpt><trkpt lat="45.26563274233707" lon="9.275195276862663"><ele>84.0</ele><time>2026-04-02T13:26:21Z</time></trkpt><trkpt lat="45.26570299198394" lon="9.275277012422784"><ele>84.0</ele><time>2026-04-02T13:26:22Z</time></trkpt><trkpt lat="45.26575828918424" lon="9.275334605830766"><ele>84.0</ele><time>2026-04-02T13:26:23Z</time></trkpt><trkpt lat="45.26587385669833" lon="9.275308889254436"><ele>84.0</ele><time>2026-04-02T13:26:25Z</time></trkpt><trkpt lat="45.265959291901645" lon="9.275236828144312"><ele>84.0</ele><time>2026-04-02T13:26:26Z</time></trkpt><trkpt lat="45.26607195047088" lon="9.275142871677973"><ele>84.0</ele><time>2026-04-02T13:26:27Z</time></trkpt><trkpt lat="45.26616815873251" lon="9.27502981974969"><ele>84.0</ele><time>2026-04-02T13:26:28Z</time></trkpt><trkpt lat="45.26625306656393" lon="9.274916524287454"><ele>84.0</ele><time>2026-04-02T13:26:29Z</time></trkpt><trkpt lat="45.266343588254095" lon="9.27482934243501"><ele>84.0</ele><time>2026-04-02T13:26:30Z</time></trkpt><trkpt lat="45.26643360292882" lon="9.274762527569772"><ele>84.0</ele><time>2026-04-02T13:26:31.001Z</time></trkpt><trkpt lat="45.266522119017026" lon="9.274694541107124"><ele>84.0</ele><time>2026-04-02T13:26:32.001Z</time></trkpt><trkpt lat="45.26662033924014" lon="9.274632148777687"><ele>83.80000000000001</ele><time>2026-04-02T13:26:33.001Z</time></trkpt><trkpt lat="45.26671991556913" lon="9.27458064900896"><ele>83.60000000000001</ele><time>2026-04-02T13:26:34.001Z</time></trkpt><trkpt lat="45.26681444944043" lon="9.274540709542215"><ele>83.4</ele><time>2026-04-02T13:26:35.001Z</time></trkpt><trkpt lat="45.26691284510304" lon="9.274503084783346"><ele>83.2</ele><time>2026-04-02T13:26:36.001Z</time></trkpt><trkpt lat="45.267010230589946" lon="9.27446400674924"><ele>83.0</ele><time>2026-04-02T13:26:37.001Z</time></trkpt><trkpt lat="45.267106406826976" lon="9.27442391088437"><ele>83.0</ele><time>2026-04-02T13:26:38.001Z</time></trkpt><trkpt lat="45.267205579785156" lon="9.274380194976203"><ele>83.0</ele><time>2026-04-02T13:26:39.001Z</time></trkpt><trkpt lat="45.267305085283304" lon="9.274332397057627"><ele>83.0</ele><time>2026-04-02T13:26:40.001Z</time></trkpt><trkpt lat="45.267406567799" lon="9.274281463506487"><ele>83.0</ele><time>2026-04-02T13:26:41.001Z</time></trkpt><trkpt lat="45.267501546140956" lon="9.274222596498403"><ele>83.0</ele><time>2026-04-02T13:26:42.001Z</time></trkpt><trkpt lat="45.26759438588942" lon="9.274150421381322"><ele>83.0</ele><time>2026-04-02T13:26:43.001Z</time></trkpt><trkpt lat="45.26768919974016" lon="9.274072770123945"><ele>83.0</ele><time>2026-04-02T13:26:44.001Z</time></trkpt><trkpt lat="45.26778393166681" lon="9.27398910083642"><ele>83.0</ele><time>2026-04-02T13:26:45.001Z</time></trkpt><trkpt lat="45.2678731932406" lon="9.273904959869888"><ele>83.0</ele><time>2026-04-02T13:26:46.001Z</time></trkpt><trkpt lat="45.26794626745091" lon="9.273828215072161"><ele>83.0</ele><time>2026-04-02T13:26:47.001Z</time></trkpt><trkpt lat="45.268006621831525" lon="9.273759507956534"><ele>83.0</ele><time>2026-04-02T13:26:48.001Z</time></trkpt><trkpt lat="45.268054396743615" lon="9.273698816754607"><ele>83.0</ele><time>2026-04-02T13:26:49.001Z</time></trkpt><trkpt lat="45.268146885688104" lon="9.273627810067584"><ele>83.0</ele><time>2026-04-02T13:26:51.001Z</time></trkpt><trkpt lat="45.26821502518316" lon="9.273620764766935"><ele>83.0</ele><time>2026-04-02T13:26:52.001Z</time></trkpt><trkpt lat="45.26828578952968" lon="9.27365466110194"><ele>83.0</ele><time>2026-04-02T13:26:53.001Z</time></trkpt><trkpt lat="45.26836815673689" lon="9.27363428383522"><ele>83.0</ele><time>2026-04-02T13:26:54.001Z</time></trkpt><trkpt lat="45.268434972227595" lon="9.273534397071835"><ele>82.80000000000001</ele><time>2026-04-02T13:26:55.001Z</time></trkpt><trkpt lat="45.268500297533066" lon="9.273463724535775"><ele>82.6</ele><time>2026-04-02T13:26:56.001Z</time></trkpt><trkpt lat="45.26856829810302" lon="9.273388468418272"><ele>82.4</ele><time>2026-04-02T13:26:57.001Z</time></trkpt><trkpt lat="45.26864523568836" lon="9.27331646887429"><ele>82.19999999999999</ele><time>2026-04-02T13:26:58.001Z</time></trkpt><trkpt lat="45.26872662995764" lon="9.273244355914104"><ele>82.0</ele><time>2026-04-02T13:26:59.001Z</time></trkpt><trkpt lat="45.26881565875539" lon="9.27316878648636"><ele>82.0</ele><time>2026-04-02T13:27:00.001Z</time></trkpt><trkpt lat="45.268906272661184" lon="9.273095993906459"><ele>82.0</ele><time>2026-04-02T13:27:01.001Z</time></trkpt><trkpt lat="45.26899498754812" lon="9.273025022705541"><ele>82.0</ele><time>2026-04-02T13:27:02.001Z</time></trkpt><trkpt lat="45.26907969085106" lon="9.272953125018146"><ele>82.0</ele><time>2026-04-02T13:27:03.001Z</time></trkpt><trkpt lat="45.269163611995964" lon="9.27288559911485"><ele>82.0</ele><time>2026-04-02T13:27:04.001Z</time></trkpt><trkpt lat="45.26924467402446" lon="9.272824774020364"><ele>81.83333333333333</ele><time>2026-04-02T13:27:05.001Z</time></trkpt><trkpt lat="45.26932289077169" lon="9.272768949733026"><ele>81.66666666666666</ele><time>2026-04-02T13:27:06.001Z</time></trkpt><trkpt lat="45.269402357642115" lon="9.2727218066595"><ele>81.5</ele><time>2026-04-02T13:27:07.001Z</time></trkpt><trkpt lat="45.26947765269908" lon="9.272679262168225"><ele>81.33333333333333</ele><time>2026-04-02T13:27:08.001Z</time></trkpt><trkpt lat="45.269546385885334" lon="9.272626847570528"><ele>81.16666666666667</ele><time>2026-04-02T13:27:09.001Z</time></trkpt><trkpt lat="45.26962098965783" lon="9.2725772341946"><ele>81.0</ele><time>2026-04-02T13:27:10.001Z</time></trkpt><trkpt lat="45.26967451286595" lon="9.272467415055063"><ele>81.0</ele><time>2026-04-02T13:27:11.001Z</time></trkpt><trkpt lat="45.269694917223326" lon="9.272319464434485"><ele>81.0</ele><time>2026-04-02T13:27:12.001Z</time></trkpt><trkpt lat="45.26969780502175" lon="9.272150482110934"><ele>81.0</ele><time>2026-04-02T13:27:13.001Z</time></trkpt><trkpt lat="45.269698641391386" lon="9.272017675464413"><ele>81.0</ele><time>2026-04-02T13:27:14.001Z</time></trkpt><trkpt lat="45.26969928811181" lon="9.271894158582128"><ele>81.0</ele><time>2026-04-02T13:27:15.001Z</time></trkpt><trkpt lat="45.26969867769331" lon="9.271773159998222"><ele>81.0</ele><time>2026-04-02T13:27:16.001Z</time></trkpt><trkpt lat="45.2696955807796" lon="9.271635744554429"><ele>81.0</ele><time>2026-04-02T13:27:17.001Z</time></trkpt><trkpt lat="45.269689447196804" lon="9.271493911292394"><ele>81.0</ele><time>2026-04-02T13:27:18.001Z</time></trkpt><trkpt lat="45.26967316423655" lon="9.27135523018164"><ele>81.0</ele><time>2026-04-02T13:27:19.001Z</time></trkpt><trkpt lat="45.26966675994604" lon="9.271228542254907"><ele>81.0</ele><time>2026-04-02T13:27:20.001Z</time></trkpt><trkpt lat="45.26967069925861" lon="9.27110594819084"><ele>81.0</ele><time>2026-04-02T13:27:21.001Z</time></trkpt><trkpt lat="45.26969775281414" lon="9.270974459143897"><ele>81.0</ele><time>2026-04-02T13:27:22.001Z</time></trkpt><trkpt lat="45.26977942216452" lon="9.270871762294586"><ele>81.0</ele><time>2026-04-02T13:27:23.001Z</time></trkpt><trkpt lat="45.269837257478194" lon="9.270743133757854"><ele>81.0</ele><time>2026-04-02T13:27:24.001Z</time></trkpt><trkpt lat="45.26990952967765" lon="9.270628533220064"><ele>81.0</ele><time>2026-04-02T13:27:25.001Z</time></trkpt><trkpt lat="45.269952625210145" lon="9.270486331595343"><ele>80.8</ele><time>2026-04-02T13:27:26.001Z</time></trkpt><trkpt lat="45.270019747656846" lon="9.270363644481009"><ele>80.6</ele><time>2026-04-02T13:27:27.001Z</time></trkpt><trkpt lat="45.27008544882662" lon="9.270235923297882"><ele>80.4</ele><time>2026-04-02T13:27:28.001Z</time></trkpt><trkpt lat="45.27016628235608" lon="9.27012922889235"><ele>80.2</ele><time>2026-04-02T13:27:29.001Z</time></trkpt><trkpt lat="45.270217515793505" lon="9.27000494055731"><ele>80.0</ele><time>2026-04-02T13:27:30.001Z</time></trkpt><trkpt lat="45.27028021094149" lon="9.269901891902464"><ele>80.0</ele><time>2026-04-02T13:27:31.001Z</time></trkpt><trkpt lat="45.27033673501423" lon="9.269803997294192"><ele>80.0</ele><time>2026-04-02T13:27:32.001Z</time></trkpt><trkpt lat="45.27038838753707" lon="9.26971903092743"><ele>80.0</ele><time>2026-04-02T13:27:33.001Z</time></trkpt><trkpt lat="45.27043433514135" lon="9.269643618804164"><ele>80.0</ele><time>2026-04-02T13:27:34.001Z</time></trkpt><trkpt lat="45.270519416460246" lon="9.269526936085974"><ele>80.0</ele><time>2026-04-02T13:27:36.001Z</time></trkpt><trkpt lat="45.270572779754545" lon="9.269464376131873"><ele>80.0</ele><time>2026-04-02T13:27:37.001Z</time></trkpt><trkpt lat="45.270688486753144" lon="9.269376567978563"><ele>80.2</ele><time>2026-04-02T13:27:39.001Z</time></trkpt><trkpt lat="45.27075389810846" lon="9.269329119807702"><ele>80.4</ele><time>2026-04-02T13:27:40.001Z</time></trkpt><trkpt lat="45.27082256403892" lon="9.269260998447498"><ele>80.6</ele><time>2026-04-02T13:27:41.001Z</time></trkpt><trkpt lat="45.27090265646242" lon="9.269208818058766"><ele>80.8</ele><time>2026-04-02T13:27:42.002Z</time></trkpt><trkpt lat="45.27099154223538" lon="9.269143863806745"><ele>81.0</ele><time>2026-04-02T13:27:43.002Z</time></trkpt><trkpt lat="45.27110215180564" lon="9.2690635246828"><ele>81.0</ele><time>2026-04-02T13:27:44.002Z</time></trkpt><trkpt lat="45.27124049562632" lon="9.268968271550444"><ele>81.0</ele><time>2026-04-02T13:27:45.002Z</time></trkpt><trkpt lat="45.271346646958904" lon="9.268893049029161"><ele>81.0</ele><time>2026-04-02T13:27:46.002Z</time></trkpt><trkpt lat="45.27144825366118" lon="9.268820098455148"><ele>81.0</ele><time>2026-04-02T13:27:47.002Z</time></trkpt><trkpt lat="45.271549897781625" lon="9.268753355205117"><ele>80.6</ele><time>2026-04-02T13:27:48.002Z</time></trkpt><trkpt lat="45.27165034944662" lon="9.268687927984258"><ele>80.19999999999999</ele><time>2026-04-02T13:27:49.002Z</time></trkpt><trkpt lat="45.271744305223024" lon="9.268620494570046"><ele>79.80000000000001</ele><time>2026-04-02T13:27:50.002Z</time></trkpt><trkpt lat="45.27183628603868" lon="9.268557341039312"><ele>79.4</ele><time>2026-04-02T13:27:51.002Z</time></trkpt><trkpt lat="45.271930586241794" lon="9.268506229700252"><ele>79.0</ele><time>2026-04-02T13:27:52.002Z</time></trkpt><trkpt lat="45.27202367456053" lon="9.268454858565823"><ele>79.0</ele><time>2026-04-02T13:27:53.002Z</time></trkpt><trkpt lat="45.2721144947179" lon="9.268379331081603"><ele>79.0</ele><time>2026-04-02T13:27:54.002Z</time></trkpt><trkpt lat="45.27221779136134" lon="9.268291947055504"><ele>79.0</ele><time>2026-04-02T13:27:55.002Z</time></trkpt><trkpt lat="45.27232619283013" lon="9.268201443003857"><ele>79.0</ele><time>2026-04-02T13:27:56.002Z</time></trkpt><trkpt lat="45.27244310925459" lon="9.268110268468357"><ele>79.25</ele><time>2026-04-02T13:27:57Z</time></trkpt><trkpt lat="45.27256360154642" lon="9.268029647868044"><ele>79.5</ele><time>2026-04-02T13:27:58Z</time></trkpt><trkpt lat="45.2726945255618" lon="9.267955043759802"><ele>79.75</ele><time>2026-04-02T13:27:59Z</time></trkpt><trkpt lat="45.27282224739792" lon="9.267886399812971"><ele>80.0</ele><time>2026-04-02T13:28:00Z</time></trkpt><trkpt lat="45.27295007402821" lon="9.267819164491119"><ele>80.0</ele><time>2026-04-02T13:28:01Z</time></trkpt><trkpt lat="45.27307236611158" lon="9.267753337635167"><ele>80.0</ele><time>2026-04-02T13:28:02Z</time></trkpt><trkpt lat="45.27318068430315" lon="9.267689912378392"><ele>80.0</ele><time>2026-04-02T13:28:03Z</time></trkpt><trkpt lat="45.27327515681448" lon="9.267637158682803"><ele>80.0</ele><time>2026-04-02T13:28:04Z</time></trkpt><trkpt lat="45.273357300233144" lon="9.267589515954349"><ele>80.0</ele><time>2026-04-02T13:28:05Z</time></trkpt><trkpt lat="45.27343531794629" lon="9.2675630286239"><ele>80.4</ele><time>2026-04-02T13:28:06Z</time></trkpt><trkpt lat="45.27351744344943" lon="9.267583873343641"><ele>80.8</ele><time>2026-04-02T13:28:07Z</time></trkpt><trkpt lat="45.27360213546519" lon="9.267616218424068"><ele>81.19999999999999</ele><time>2026-04-02T13:28:08Z</time></trkpt><trkpt lat="45.27364575113786" lon="9.2677347596523"><ele>81.6</ele><time>2026-04-02T13:28:09Z</time></trkpt><trkpt lat="45.27368477436036" lon="9.267881686491133"><ele>82.0</ele><time>2026-04-02T13:28:10Z</time></trkpt><trkpt lat="45.2737336946328" lon="9.268093386361441"><ele>82.0</ele><time>2026-04-02T13:28:11Z</time></trkpt><trkpt lat="45.2737746716306" lon="9.268246879427371"><ele>82.0</ele><time>2026-04-02T13:28:12Z</time></trkpt><trkpt lat="45.27381441206029" lon="9.268381548935995"><ele>82.0</ele><time>2026-04-02T13:28:13Z</time></trkpt><trkpt lat="45.273853593993465" lon="9.26851796612326"><ele>82.0</ele><time>2026-04-02T13:28:14Z</time></trkpt><trkpt lat="45.273900688604364" lon="9.268672710619153"><ele>82.0</ele><time>2026-04-02T13:28:15Z</time></trkpt><trkpt lat="45.27395601961329" lon="9.268854618895489"><ele>81.75</ele><time>2026-04-02T13:28:16Z</time></trkpt><trkpt lat="45.27401783210592" lon="9.269044503112148"><ele>81.5</ele><time>2026-04-02T13:28:17Z</time></trkpt><trkpt lat="45.27406966164152" lon="9.269204820597215"><ele>81.25</ele><time>2026-04-02T13:28:18Z</time></trkpt><trkpt lat="45.27412121491309" lon="9.269332815882596"><ele>81.0</ele><time>2026-04-02T13:28:19Z</time></trkpt><trkpt lat="45.2741846248198" lon="9.269449175352868"><ele>81.0</ele><time>2026-04-02T13:28:20Z</time></trkpt><trkpt lat="45.274271659481585" lon="9.269548312348705"><ele>81.0</ele><time>2026-04-02T13:28:21Z</time></trkpt><trkpt lat="45.27437571165262" lon="9.269637096961777"><ele>81.0</ele><time>2026-04-02T13:28:22Z</time></trkpt><trkpt lat="45.27448862547881" lon="9.269728345899447"><ele>81.0</ele><time>2026-04-02T13:28:23Z</time></trkpt><trkpt lat="45.274599810979666" lon="9.269813485625047"><ele>81.0</ele><time>2026-04-02T13:28:24Z</time></trkpt><trkpt lat="45.27471185293654" lon="9.269898797265894"><ele>81.0</ele><time>2026-04-02T13:28:25Z</time></trkpt><trkpt lat="45.27482418420426" lon="9.269977084802054"><ele>81.0</ele><time>2026-04-02T13:28:26Z</time></trkpt><trkpt lat="45.274932185591545" lon="9.270050143622424"><ele>81.0</ele><time>2026-04-02T13:28:27Z</time></trkpt><trkpt lat="45.27503151085129" lon="9.270127137671135"><ele>81.0</ele><time>2026-04-02T13:28:28Z</time></trkpt><trkpt lat="45.275115034037334" lon="9.270217848706542"><ele>81.0</ele><time>2026-04-02T13:28:29Z</time></trkpt><trkpt lat="45.275163383127506" lon="9.270338118283917"><ele>81.0</ele><time>2026-04-02T13:28:30Z</time></trkpt><trkpt lat="45.27520908938419" lon="9.270457238540848"><ele>81.0</ele><time>2026-04-02T13:28:31Z</time></trkpt><trkpt lat="45.27524576053803" lon="9.270593507151682"><ele>81.0</ele><time>2026-04-02T13:28:32Z</time></trkpt><trkpt lat="45.27528875934451" lon="9.270736752716465"><ele>81.0</ele><time>2026-04-02T13:28:33Z</time></trkpt><trkpt lat="45.275336651116966" lon="9.270884370939493"><ele>81.0</ele><time>2026-04-02T13:28:34Z</time></trkpt><trkpt lat="45.275398489488786" lon="9.271042035843497"><ele>81.0</ele><time>2026-04-02T13:28:35Z</time></trkpt><trkpt lat="45.27546412651354" lon="9.27120181225059"><ele>81.0</ele><time>2026-04-02T13:28:36.001Z</time></trkpt><trkpt lat="45.275534578652454" lon="9.271366352318053"><ele>81.25</ele><time>2026-04-02T13:28:37.001Z</time></trkpt><trkpt lat="45.27560701824667" lon="9.271533016998946"><ele>81.5</ele><time>2026-04-02T13:28:38.001Z</time></trkpt><trkpt lat="45.275690605315944" lon="9.271708665238558"><ele>81.75</ele><time>2026-04-02T13:28:39.001Z</time></trkpt><trkpt lat="45.27577358025338" lon="9.271877813273564"><ele>82.0</ele><time>2026-04-02T13:28:40.001Z</time></trkpt><trkpt lat="45.275841052611234" lon="9.272045153957446"><ele>82.0</ele><time>2026-04-02T13:28:41.001Z</time></trkpt><trkpt lat="45.27589826003999" lon="9.272209545028712"><ele>82.0</ele><time>2026-04-02T13:28:42.001Z</time></trkpt><trkpt lat="45.27596030717156" lon="9.272353780355592"><ele>82.0</ele><time>2026-04-02T13:28:43.001Z</time></trkpt><trkpt lat="45.27604010406916" lon="9.27246785592244"><ele>82.0</ele><time>2026-04-02T13:28:44.001Z</time></trkpt><trkpt lat="45.276143945395255" lon="9.272540351752045"><ele>81.75</ele><time>2026-04-02T13:28:45.001Z</time></trkpt><trkpt lat="45.27626331110249" lon="9.272580639020056"><ele>81.5</ele><time>2026-04-02T13:28:46.001Z</time></trkpt><trkpt lat="45.27639111601525" lon="9.272598937298378"><ele>81.25</ele><time>2026-04-02T13:28:47.001Z</time></trkpt><trkpt lat="45.27650562996345" lon="9.272611348275117"><ele>81.0</ele><time>2026-04-02T13:28:48.001Z</time></trkpt><trkpt lat="45.27661638665072" lon="9.272617390735602"><ele>81.6</ele><time>2026-04-02T13:28:49.001Z</time></trkpt><trkpt lat="45.27673060190321" lon="9.272618115467699"><ele>82.19999999999999</ele><time>2026-04-02T13:28:50.001Z</time></trkpt><trkpt lat="45.27684544444445" lon="9.272609478916214"><ele>82.80000000000001</ele><time>2026-04-02T13:28:51.001Z</time></trkpt><trkpt lat="45.27695497362895" lon="9.272598163610855"><ele>83.4</ele><time>2026-04-02T13:28:52.001Z</time></trkpt><trkpt lat="45.277055944337704" lon="9.272594347069022"><ele>84.0</ele><time>2026-04-02T13:28:53.001Z</time></trkpt><trkpt lat="45.27715729133308" lon="9.27259118566921"><ele>83.75</ele><time>2026-04-02T13:28:54.001Z</time></trkpt><trkpt lat="45.2772691505378" lon="9.272605127150209"><ele>83.5</ele><time>2026-04-02T13:28:55.001Z</time></trkpt><trkpt lat="45.277384191422335" lon="9.272646204434759"><ele>83.25</ele><time>2026-04-02T13:28:56.001Z</time></trkpt><trkpt lat="45.27749475164251" lon="9.272703038313791"><ele>83.0</ele><time>2026-04-02T13:28:57.001Z</time></trkpt><trkpt lat="45.27760733949322" lon="9.272764778689547"><ele>83.0</ele><time>2026-04-02T13:28:58.001Z</time></trkpt><trkpt lat="45.27772096224719" lon="9.272819250834278"><ele>83.0</ele><time>2026-04-02T13:28:59.001Z</time></trkpt><trkpt lat="45.277839242747966" lon="9.272857256005166"><ele>83.0</ele><time>2026-04-02T13:29:00.001Z</time></trkpt><trkpt lat="45.27796098051424" lon="9.272879145198525"><ele>83.0</ele><time>2026-04-02T13:29:01.001Z</time></trkpt><trkpt lat="45.278079121529196" lon="9.272891341696099"><ele>83.25</ele><time>2026-04-02T13:29:02.001Z</time></trkpt><trkpt lat="45.278198882024164" lon="9.272900799880746"><ele>83.5</ele><time>2026-04-02T13:29:03.001Z</time></trkpt><trkpt lat="45.27832125363968" lon="9.272912913928208"><ele>83.75</ele><time>2026-04-02T13:29:04.001Z</time></trkpt><trkpt lat="45.278449082895804" lon="9.272919830454134"><ele>84.0</ele><time>2026-04-02T13:29:05.001Z</time></trkpt><trkpt lat="45.2785694154388" lon="9.272925931678369"><ele>84.0</ele><time>2026-04-02T13:29:06.001Z</time></trkpt><trkpt lat="45.27868151611699" lon="9.272933665414538"><ele>84.0</ele><time>2026-04-02T13:29:07.001Z</time></trkpt><trkpt lat="45.27877937266463" lon="9.272960059462147"><ele>84.0</ele><time>2026-04-02T13:29:08.001Z</time></trkpt><trkpt lat="45.27889373834243" lon="9.273007841099467"><ele>84.0</ele><time>2026-04-02T13:29:09.001Z</time></trkpt><trkpt lat="45.278994053448976" lon="9.273075807710638"><ele>84.0</ele><time>2026-04-02T13:29:10.001Z</time></trkpt><trkpt lat="45.279095215918616" lon="9.273163670232242"><ele>83.80000000000001</ele><time>2026-04-02T13:29:11.001Z</time></trkpt><trkpt lat="45.27919301535512" lon="9.273259568023061"><ele>83.60000000000001</ele><time>2026-04-02T13:29:12.001Z</time></trkpt><trkpt lat="45.2792751339253" lon="9.2733569606049"><ele>83.4</ele><time>2026-04-02T13:29:13.001Z</time></trkpt><trkpt lat="45.27934974509289" lon="9.27346194347623"><ele>83.2</ele><time>2026-04-02T13:29:14.001Z</time></trkpt><trkpt lat="45.279426154605424" lon="9.273575531767289"><ele>83.0</ele><time>2026-04-02T13:29:15.001Z</time></trkpt><trkpt lat="45.27950621213995" lon="9.273682673451063"><ele>83.0</ele><time>2026-04-02T13:29:16.001Z</time></trkpt><trkpt lat="45.27959097569472" lon="9.273785286626264"><ele>83.0</ele><time>2026-04-02T13:29:17.001Z</time></trkpt><trkpt lat="45.279679586418084" lon="9.273897596109007"><ele>83.0</ele><time>2026-04-02T13:29:18.001Z</time></trkpt><trkpt lat="45.27975295904474" lon="9.27401602053013"><ele>83.0</ele><time>2026-04-02T13:29:19.001Z</time></trkpt><trkpt lat="45.27981340410395" lon="9.274149031774696"><ele>83.0</ele><time>2026-04-02T13:29:20.001Z</time></trkpt><trkpt lat="45.27986542809457" lon="9.274276851561956"><ele>83.0</ele><time>2026-04-02T13:29:21.001Z</time></trkpt><trkpt lat="45.279915790562335" lon="9.274401788895872"><ele>83.0</ele><time>2026-04-02T13:29:22.001Z</time></trkpt><trkpt lat="45.27996803402917" lon="9.274520724850293"><ele>83.0</ele><time>2026-04-02T13:29:23.001Z</time></trkpt><trkpt lat="45.28003577016284" lon="9.274639484610322"><ele>83.0</ele><time>2026-04-02T13:29:24.001Z</time></trkpt><trkpt lat="45.28011083603431" lon="9.274752685700308"><ele>82.80000000000001</ele><time>2026-04-02T13:29:25.001Z</time></trkpt><trkpt lat="45.28018369791887" lon="9.27486983843099"><ele>82.6</ele><time>2026-04-02T13:29:26.001Z</time></trkpt><trkpt lat="45.28023762608943" lon="9.275007377022165"><ele>82.4</ele><time>2026-04-02T13:29:27.001Z</time></trkpt><trkpt lat="45.28029401130883" lon="9.275144238822058"><ele>82.19999999999999</ele><time>2026-04-02T13:29:28.001Z</time></trkpt><trkpt lat="45.28034739387651" lon="9.275290034992526"><ele>82.0</ele><time>2026-04-02T13:29:29.001Z</time></trkpt><trkpt lat="45.28041031252458" lon="9.275427934940664"><ele>82.0</ele><time>2026-04-02T13:29:30.001Z</time></trkpt><trkpt lat="45.28045651898977" lon="9.275584049314782"><ele>82.0</ele><time>2026-04-02T13:29:31.001Z</time></trkpt><trkpt lat="45.28049749559188" lon="9.275734586962935"><ele>82.0</ele><time>2026-04-02T13:29:32.001Z</time></trkpt><trkpt lat="45.28053078016504" lon="9.27587400453577"><ele>82.0</ele><time>2026-04-02T13:29:33.001Z</time></trkpt><trkpt lat="45.280562241944935" lon="9.27599850769551"><ele>82.0</ele><time>2026-04-02T13:29:34.001Z</time></trkpt><trkpt lat="45.280591763572474" lon="9.276117707701697"><ele>82.33333333333333</ele><time>2026-04-02T13:29:35.001Z</time></trkpt><trkpt lat="45.280618798393995" lon="9.276211852907075"><ele>82.66666666666666</ele><time>2026-04-02T13:29:36.001Z</time></trkpt><trkpt lat="45.28070869163252" lon="9.276304657848689"><ele>83.0</ele><time>2026-04-02T13:29:38.001Z</time></trkpt><trkpt lat="45.280786764423134" lon="9.276227332722437"><ele>83.33333333333333</ele><time>2026-04-02T13:29:39.001Z</time></trkpt><trkpt lat="45.28086557928221" lon="9.276209766281928"><ele>83.66666666666667</ele><time>2026-04-02T13:29:40.001Z</time></trkpt><trkpt lat="45.280934284418805" lon="9.27616899822455"><ele>84.0</ele><time>2026-04-02T13:29:41.001Z</time></trkpt><trkpt lat="45.28099966299347" lon="9.276126534399515"><ele>84.0</ele><time>2026-04-02T13:29:42.001Z</time></trkpt><trkpt lat="45.281061846694506" lon="9.276077333939863"><ele>84.0</ele><time>2026-04-02T13:29:43.001Z</time></trkpt><trkpt lat="45.281114684674016" lon="9.276022741003837"><ele>84.0</ele><time>2026-04-02T13:29:44.001Z</time></trkpt><trkpt lat="45.28116811287546" lon="9.275966441127368"><ele>84.0</ele><time>2026-04-02T13:29:45.001Z</time></trkpt><trkpt lat="45.281229026008866" lon="9.275923527440684"><ele>84.0</ele><time>2026-04-02T13:29:46.001Z</time></trkpt><trkpt lat="45.28130332669311" lon="9.275906424431932"><ele>84.0</ele><time>2026-04-02T13:29:47.001Z</time></trkpt><trkpt lat="45.281375546031114" lon="9.275934987085417"><ele>84.0</ele><time>2026-04-02T13:29:48.001Z</time></trkpt><trkpt lat="45.28144917864745" lon="9.276018516380311"><ele>83.75</ele><time>2026-04-02T13:29:49.001Z</time></trkpt><trkpt lat="45.281528254053185" lon="9.276109901826086"><ele>83.5</ele><time>2026-04-02T13:29:50.002Z</time></trkpt><trkpt lat="45.28161558719332" lon="9.276201535477277"><ele>83.25</ele><time>2026-04-02T13:29:51.002Z</time></trkpt><trkpt lat="45.28172192837062" lon="9.276310915966432"><ele>83.0</ele><time>2026-04-02T13:29:52.002Z</time></trkpt><trkpt lat="45.28181435381795" lon="9.276404406460493"><ele>82.80000000000001</ele><time>2026-04-02T13:29:53.002Z</time></trkpt><trkpt lat="45.28189780090575" lon="9.276490415434996"><ele>82.6</ele><time>2026-04-02T13:29:54.002Z</time></trkpt><trkpt lat="45.281990470899906" lon="9.276571091025065"><ele>82.4</ele><time>2026-04-02T13:29:55.002Z</time></trkpt><trkpt lat="45.28206328003914" lon="9.276677253387081"><ele>82.19999999999999</ele><time>2026-04-02T13:29:56.002Z</time></trkpt><trkpt lat="45.28210884383187" lon="9.276828952772668"><ele>82.0</ele><time>2026-04-02T13:29:57.002Z</time></trkpt><trkpt lat="45.28217000203728" lon="9.2769835671309"><ele>82.0</ele><time>2026-04-02T13:29:58.002Z</time></trkpt><trkpt lat="45.28224041852834" lon="9.277124320237865"><ele>82.0</ele><time>2026-04-02T13:29:59.002Z</time></trkpt><trkpt lat="45.28229458829122" lon="9.277262274580618"><ele>82.0</ele><time>2026-04-02T13:30:00.002Z</time></trkpt><trkpt lat="45.28234464488977" lon="9.27739594842879"><ele>82.0</ele><time>2026-04-02T13:30:01.002Z</time></trkpt><trkpt lat="45.28239350910034" lon="9.27754425180816"><ele>81.19999999999999</ele><time>2026-04-02T13:30:02.002Z</time></trkpt><trkpt lat="45.28243568163973" lon="9.27769677050466"><ele>80.39999999999999</ele><time>2026-04-02T13:30:03Z</time></trkpt><trkpt lat="45.28245763806779" lon="9.277823457657473"><ele>79.6</ele><time>2026-04-02T13:30:04Z</time></trkpt><trkpt lat="45.28245099774556" lon="9.277941490816511"><ele>78.8</ele><time>2026-04-02T13:30:06Z</time></trkpt><trkpt lat="45.282452126107295" lon="9.277805592446011"><ele>78.0</ele><time>2026-04-02T13:30:22Z</time></trkpt><trkpt lat="45.28243924550807" lon="9.277669640899287"><ele>78.0</ele><time>2026-04-02T13:30:24Z</time></trkpt><trkpt lat="45.282528070412965" lon="9.277568164010697"><ele>78.0</ele><time>2026-04-02T13:30:27Z</time></trkpt><trkpt lat="45.28266963850239" lon="9.277558528779034"><ele>78.0</ele><time>2026-04-02T13:30:29Z</time></trkpt><trkpt lat="45.2827468321632" lon="9.277546852032163"><ele>78.0</ele><time>2026-04-02T13:30:30Z</time></trkpt><trkpt lat="45.28285934215886" lon="9.277483567882012"><ele>78.0</ele><time>2026-04-02T13:30:32Z</time></trkpt><trkpt lat="45.282967291799295" lon="9.277400903237664"><ele>78.0</ele><time>2026-04-02T13:30:34Z</time></trkpt><trkpt lat="45.28302432887223" lon="9.277360398575036"><ele>78.0</ele><time>2026-04-02T13:30:35Z</time></trkpt><trkpt lat="45.28308703387675" lon="9.27730764241254"><ele>78.0</ele><time>2026-04-02T13:30:36Z</time></trkpt><trkpt lat="45.28315522515156" lon="9.277248751905121"><ele>78.0</ele><time>2026-04-02T13:30:37Z</time></trkpt><trkpt lat="45.283218953649865" lon="9.277193663055646"><ele>78.0</ele><time>2026-04-02T13:30:38Z</time></trkpt><trkpt lat="45.28330797611893" lon="9.277125192771768"><ele>77.25</ele><time>2026-04-02T13:30:39Z</time></trkpt><trkpt lat="45.28341372451079" lon="9.277057933408646"><ele>76.5</ele><time>2026-04-02T13:30:40Z</time></trkpt><trkpt lat="45.283537571940464" lon="9.276989930466753"><ele>75.75</ele><time>2026-04-02T13:30:41Z</time></trkpt><trkpt lat="45.283651362034945" lon="9.27693699740315"><ele>75.0</ele><time>2026-04-02T13:30:42Z</time></trkpt><trkpt lat="45.283755604656704" lon="9.27688520001762"><ele>75.0</ele><time>2026-04-02T13:30:43Z</time></trkpt><trkpt lat="45.283865249743464" lon="9.276801542745924"><ele>75.0</ele><time>2026-04-02T13:30:44.001Z</time></trkpt><trkpt lat="45.283994440120416" lon="9.276664602058572"><ele>75.0</ele><time>2026-04-02T13:30:45.001Z</time></trkpt><trkpt lat="45.284137613648376" lon="9.276508807677557"><ele>75.33333333333333</ele><time>2026-04-02T13:30:46.001Z</time></trkpt><trkpt lat="45.284262137727985" lon="9.276367569761954"><ele>75.66666666666666</ele><time>2026-04-02T13:30:47.001Z</time></trkpt><trkpt lat="45.28439560136752" lon="9.276214401264777"><ele>76.0</ele><time>2026-04-02T13:30:48.001Z</time></trkpt><trkpt lat="45.284512591186264" lon="9.276084128200093"><ele>76.0</ele><time>2026-04-02T13:30:49.001Z</time></trkpt><trkpt lat="45.28462298367007" lon="9.275965121012351"><ele>76.0</ele><time>2026-04-02T13:30:50.001Z</time></trkpt><trkpt lat="45.28473634403867" lon="9.275844941079194"><ele>76.0</ele><time>2026-04-02T13:30:51.001Z</time></trkpt><trkpt lat="45.284849398955" lon="9.275723242261211"><ele>76.0</ele><time>2026-04-02T13:30:52.001Z</time></trkpt><trkpt lat="45.284967508031535" lon="9.275590447055365"><ele>76.75</ele><time>2026-04-02T13:30:53.001Z</time></trkpt><trkpt lat="45.28509294083152" lon="9.275452369076081"><ele>77.5</ele><time>2026-04-02T13:30:54.001Z</time></trkpt><trkpt lat="45.285205555749265" lon="9.275329531416403"><ele>78.25</ele><time>2026-04-02T13:30:55.001Z</time></trkpt><trkpt lat="45.28529754564723" lon="9.275224219584986"><ele>79.0</ele><time>2026-04-02T13:30:56.001Z</time></trkpt><trkpt lat="45.28536603585886" lon="9.275142203891651"><ele>79.0</ele><time>2026-04-02T13:30:57.001Z</time></trkpt><trkpt lat="45.28541270085117" lon="9.275066898831044"><ele>79.0</ele><time>2026-04-02T13:30:58.001Z</time></trkpt><trkpt lat="45.28544567303003" lon="9.274980928738954"><ele>79.0</ele><time>2026-04-02T13:30:59.001Z</time></trkpt><trkpt lat="45.285489506011075" lon="9.274890485405052"><ele>79.0</ele><time>2026-04-02T13:31:00.001Z</time></trkpt><trkpt lat="45.28548379472771" lon="9.274737990623567"><ele>79.0</ele><time>2026-04-02T13:31:01.001Z</time></trkpt><trkpt lat="45.285504241406564" lon="9.274574529421907"><ele>79.0</ele><time>2026-04-02T13:31:02.001Z</time></trkpt><trkpt lat="45.28550371318412" lon="9.274375825189125"><ele>78.8</ele><time>2026-04-02T13:31:03.001Z</time></trkpt><trkpt lat="45.28550627165364" lon="9.274184171146324"><ele>78.60000000000001</ele><time>2026-04-02T13:31:04.001Z</time></trkpt><trkpt lat="45.285510520126714" lon="9.274035295452807"><ele>78.4</ele><time>2026-04-02T13:31:05.001Z</time></trkpt><trkpt lat="45.28552023898488" lon="9.27391437939872"><ele>78.2</ele><time>2026-04-02T13:31:06.001Z</time></trkpt><trkpt lat="45.285541782027956" lon="9.27381464570807"><ele>78.0</ele><time>2026-04-02T13:31:07.001Z</time></trkpt><trkpt lat="45.28557462895022" lon="9.273722032770142"><ele>78.0</ele><time>2026-04-02T13:31:08.001Z</time></trkpt><trkpt lat="45.2856212239497" lon="9.273634308110994"><ele>78.0</ele><time>2026-04-02T13:31:09.001Z</time></trkpt><trkpt lat="45.28568743377531" lon="9.273550311905945"><ele>78.0</ele><time>2026-04-02T13:31:10.001Z</time></trkpt><trkpt lat="45.28577249969916" lon="9.27349436520667"><ele>78.0</ele><time>2026-04-02T13:31:11.001Z</time></trkpt><trkpt lat="45.285861091869116" lon="9.273406057880226"><ele>78.0</ele><time>2026-04-02T13:31:12.001Z</time></trkpt><trkpt lat="45.28597943824209" lon="9.27335018094891"><ele>78.0</ele><time>2026-04-02T13:31:13.001Z</time></trkpt><trkpt lat="45.28610673112316" lon="9.2732875416542"><ele>78.0</ele><time>2026-04-02T13:31:14.001Z</time></trkpt><trkpt lat="45.28623745782745" lon="9.273224110227773"><ele>78.0</ele><time>2026-04-02T13:31:15.001Z</time></trkpt><trkpt lat="45.28636304525935" lon="9.273166960580225"><ele>78.0</ele><time>2026-04-02T13:31:16.001Z</time></trkpt><trkpt lat="45.28647633705986" lon="9.273127125119148"><ele>78.4</ele><time>2026-04-02T13:31:17.001Z</time></trkpt><trkpt lat="45.286592222594926" lon="9.273090839367233"><ele>78.8</ele><time>2026-04-02T13:31:18.001Z</time></trkpt><trkpt lat="45.286690585071774" lon="9.273068113919454"><ele>79.2</ele><time>2026-04-02T13:31:19.001Z</time></trkpt><trkpt lat="45.28678169741219" lon="9.273038997271803"><ele>79.6</ele><time>2026-04-02T13:31:20.001Z</time></trkpt><trkpt lat="45.28685953524525" lon="9.272991839803346"><ele>80.0</ele><time>2026-04-02T13:31:21.001Z</time></trkpt><trkpt lat="45.28692806774911" lon="9.27292230901809"><ele>80.0</ele><time>2026-04-02T13:31:22.001Z</time></trkpt><trkpt lat="45.286985989594896" lon="9.27282465552011"><ele>80.0</ele><time>2026-04-02T13:31:23.001Z</time></trkpt><trkpt lat="45.28703401481039" lon="9.272698981152512"><ele>80.0</ele><time>2026-04-02T13:31:24.001Z</time></trkpt><trkpt lat="45.28709232689689" lon="9.272553172986228"><ele>80.0</ele><time>2026-04-02T13:31:25.001Z</time></trkpt><trkpt lat="45.28715392124614" lon="9.272382884104102"><ele>80.0</ele><time>2026-04-02T13:31:26.001Z</time></trkpt><trkpt lat="45.28724254409658" lon="9.272211831986965"><ele>80.33333333333334</ele><time>2026-04-02T13:31:27.001Z</time></trkpt><trkpt lat="45.28731759105491" lon="9.271999568767306"><ele>80.66666666666667</ele><time>2026-04-02T13:31:28.001Z</time></trkpt><trkpt lat="45.28740752238491" lon="9.271809651634742"><ele>81.0</ele><time>2026-04-02T13:31:29.001Z</time></trkpt><trkpt lat="45.28748137191447" lon="9.271627594414507"><ele>81.0</ele><time>2026-04-02T13:31:30.001Z</time></trkpt><trkpt lat="45.2875512069223" lon="9.271469962206929"><ele>81.0</ele><time>2026-04-02T13:31:31.001Z</time></trkpt><trkpt lat="45.28761671935317" lon="9.271322790283406"><ele>81.0</ele><time>2026-04-02T13:31:32.001Z</time></trkpt><trkpt lat="45.28768942217379" lon="9.271188599716933"><ele>81.0</ele><time>2026-04-02T13:31:33.001Z</time></trkpt><trkpt lat="45.28777104705249" lon="9.271057613354284"><ele>81.0</ele><time>2026-04-02T13:31:34.001Z</time></trkpt><trkpt lat="45.28786696526391" lon="9.270930704760046"><ele>81.0</ele><time>2026-04-02T13:31:35.001Z</time></trkpt><trkpt lat="45.28797096401859" lon="9.270792960565423"><ele>81.0</ele><time>2026-04-02T13:31:36.001Z</time></trkpt><trkpt lat="45.288079879995735" lon="9.270650672892284"><ele>81.0</ele><time>2026-04-02T13:31:37.001Z</time></trkpt><trkpt lat="45.28819385878811" lon="9.270502737387607"><ele>81.0</ele><time>2026-04-02T13:31:38.001Z</time></trkpt><trkpt lat="45.28831016857872" lon="9.270358644105789"><ele>81.0</ele><time>2026-04-02T13:31:39.001Z</time></trkpt><trkpt lat="45.28842986137379" lon="9.270212763041282"><ele>81.0</ele><time>2026-04-02T13:31:40.001Z</time></trkpt><trkpt lat="45.28854608155129" lon="9.270067656283853"><ele>81.0</ele><time>2026-04-02T13:31:41.001Z</time></trkpt><trkpt lat="45.28867739458492" lon="9.269909577113353"><ele>81.0</ele><time>2026-04-02T13:31:42.001Z</time></trkpt><trkpt lat="45.28881132661747" lon="9.269747310551839"><ele>81.0</ele><time>2026-04-02T13:31:43.001Z</time></trkpt><trkpt lat="45.288933085872884" lon="9.269600199026659"><ele>81.25</ele><time>2026-04-02T13:31:44.001Z</time></trkpt><trkpt lat="45.289052191215276" lon="9.26945739613782"><ele>81.5</ele><time>2026-04-02T13:31:45.001Z</time></trkpt><trkpt lat="45.28916519034742" lon="9.269323351886383"><ele>81.75</ele><time>2026-04-02T13:31:46.001Z</time></trkpt><trkpt lat="45.289260952714656" lon="9.269205973962746"><ele>82.0</ele><time>2026-04-02T13:31:47.001Z</time></trkpt><trkpt lat="45.28936947731352" lon="9.26908470607948"><ele>82.0</ele><time>2026-04-02T13:31:48.001Z</time></trkpt><trkpt lat="45.289473518305584" lon="9.268955939035708"><ele>82.0</ele><time>2026-04-02T13:31:49.001Z</time></trkpt><trkpt lat="45.289571311708485" lon="9.26883949897807"><ele>82.0</ele><time>2026-04-02T13:31:50.001Z</time></trkpt><trkpt lat="45.28966423185159" lon="9.268732294662879"><ele>82.0</ele><time>2026-04-02T13:31:51.001Z</time></trkpt><trkpt lat="45.28975610826114" lon="9.26863578730163"><ele>82.0</ele><time>2026-04-02T13:31:52.001Z</time></trkpt><trkpt lat="45.28985269344434" lon="9.26854273423239"><ele>82.0</ele><time>2026-04-02T13:31:53.001Z</time></trkpt><trkpt lat="45.28994726576081" lon="9.268456858925735"><ele>82.0</ele><time>2026-04-02T13:31:54.001Z</time></trkpt><trkpt lat="45.290041983223766" lon="9.268408979841148"><ele>82.0</ele><time>2026-04-02T13:31:55.001Z</time></trkpt><trkpt lat="45.29012976237438" lon="9.268344737938497"><ele>82.0</ele><time>2026-04-02T13:31:56.001Z</time></trkpt><trkpt lat="45.29021484608617" lon="9.268282468664236"><ele>82.0</ele><time>2026-04-02T13:31:57.001Z</time></trkpt><trkpt lat="45.290287958315645" lon="9.268228960395081"><ele>82.0</ele><time>2026-04-02T13:31:58.001Z</time></trkpt><trkpt lat="45.2903528719052" lon="9.268181452663525"><ele>82.0</ele><time>2026-04-02T13:31:59.001Z</time></trkpt><trkpt lat="45.290449740098666" lon="9.268110817810848"><ele>82.0</ele><time>2026-04-02T13:32:01.001Z</time></trkpt><trkpt lat="45.29052127374951" lon="9.26805774021684"><ele>82.0</ele><time>2026-04-02T13:32:03.002Z</time></trkpt><trkpt lat="45.290590637690116" lon="9.268006106523048"><ele>82.0</ele><time>2026-04-02T13:32:05.002Z</time></trkpt><trkpt lat="45.290705083321726" lon="9.267924365029273"><ele>82.25</ele><time>2026-04-02T13:32:07.002Z</time></trkpt><trkpt lat="45.29080318852104" lon="9.267859571346348"><ele>82.5</ele><time>2026-04-02T13:32:08.002Z</time></trkpt><trkpt lat="45.290926609092075" lon="9.267783305800018"><ele>82.75</ele><time>2026-04-02T13:32:09Z</time></trkpt><trkpt lat="45.29106783777112" lon="9.267699944733435"><ele>83.0</ele><time>2026-04-02T13:32:10Z</time></trkpt><trkpt lat="45.291228925105955" lon="9.267594772441349"><ele>83.0</ele><time>2026-04-02T13:32:11Z</time></trkpt><trkpt lat="45.291395969860865" lon="9.267495461140875"><ele>83.0</ele><time>2026-04-02T13:32:12Z</time></trkpt><trkpt lat="45.291562701152245" lon="9.267406214034665"><ele>83.0</ele><time>2026-04-02T13:32:13Z</time></trkpt><trkpt lat="45.291719751477046" lon="9.267320265871618"><ele>83.0</ele><time>2026-04-02T13:32:14Z</time></trkpt><trkpt lat="45.291864659507496" lon="9.26724624514714"><ele>83.0</ele><time>2026-04-02T13:32:15Z</time></trkpt><trkpt lat="45.29198917199997" lon="9.267179470718617"><ele>83.0</ele><time>2026-04-02T13:32:16Z</time></trkpt><trkpt lat="45.29209139600246" lon="9.26711922464349"><ele>83.0</ele><time>2026-04-02T13:32:17Z</time></trkpt><trkpt lat="45.29218541819993" lon="9.267075553289628"><ele>83.5</ele><time>2026-04-02T13:32:18Z</time></trkpt><trkpt lat="45.292278289346285" lon="9.267042907652508"><ele>84.0</ele><time>2026-04-02T13:32:19Z</time></trkpt><trkpt lat="45.29238674608895" lon="9.26705624609546"><ele>84.5</ele><time>2026-04-02T13:32:20Z</time></trkpt><trkpt lat="45.29250330992343" lon="9.267013296899528"><ele>85.0</ele><time>2026-04-02T13:32:21Z</time></trkpt><trkpt lat="45.29264423958553" lon="9.266967279191627"><ele>85.0</ele><time>2026-04-02T13:32:22Z</time></trkpt><trkpt lat="45.29280998901644" lon="9.266905057393554"><ele>85.0</ele><time>2026-04-02T13:32:23Z</time></trkpt><trkpt lat="45.2929790154415" lon="9.266839257625454"><ele>85.0</ele><time>2026-04-02T13:32:24Z</time></trkpt><trkpt lat="45.29311980042318" lon="9.266782523004704"><ele>84.8</ele><time>2026-04-02T13:32:25Z</time></trkpt><trkpt lat="45.29324285304207" lon="9.266730562278358"><ele>84.6</ele><time>2026-04-02T13:32:26Z</time></trkpt><trkpt lat="45.29334196124314" lon="9.266665686937936"><ele>84.4</ele><time>2026-04-02T13:32:27Z</time></trkpt><trkpt lat="45.29342990620944" lon="9.266627082334013"><ele>84.2</ele><time>2026-04-02T13:32:28Z</time></trkpt><trkpt lat="45.2935068952332" lon="9.266607454732103"><ele>84.0</ele><time>2026-04-02T13:32:29Z</time></trkpt><trkpt lat="45.293587461950004" lon="9.266599578652736"><ele>84.0</ele><time>2026-04-02T13:32:30Z</time></trkpt><trkpt lat="45.293660089802046" lon="9.266613688475703"><ele>84.0</ele><time>2026-04-02T13:32:31Z</time></trkpt><trkpt lat="45.29373241895904" lon="9.26665321645342"><ele>84.0</ele><time>2026-04-02T13:32:32Z</time></trkpt><trkpt lat="45.29378673857772" lon="9.266732723417638"><ele>84.0</ele><time>2026-04-02T13:32:33Z</time></trkpt><trkpt lat="45.29382391111677" lon="9.266825907287707"><ele>84.0</ele><time>2026-04-02T13:32:34Z</time></trkpt><trkpt lat="45.293850986356375" lon="9.266948628360245"><ele>84.0</ele><time>2026-04-02T13:32:35Z</time></trkpt><trkpt lat="45.293878856662516" lon="9.267113504111338"><ele>84.0</ele><time>2026-04-02T13:32:36Z</time></trkpt><trkpt lat="45.29391381079081" lon="9.26730550455805"><ele>84.0</ele><time>2026-04-02T13:32:37Z</time></trkpt><trkpt lat="45.29396361300517" lon="9.2675316085838"><ele>84.0</ele><time>2026-04-02T13:32:38Z</time></trkpt><trkpt lat="45.29401677017811" lon="9.267765882197672"><ele>84.0</ele><time>2026-04-02T13:32:39Z</time></trkpt><trkpt lat="45.294064103722185" lon="9.267958850351745"><ele>84.0</ele><time>2026-04-02T13:32:40Z</time></trkpt><trkpt lat="45.294099482510745" lon="9.268120791679099"><ele>84.0</ele><time>2026-04-02T13:32:41Z</time></trkpt><trkpt lat="45.29413029856383" lon="9.268269889951053"><ele>84.0</ele><time>2026-04-02T13:32:42Z</time></trkpt><trkpt lat="45.29416394242797" lon="9.268386873867264"><ele>84.0</ele><time>2026-04-02T13:32:43Z</time></trkpt><trkpt lat="45.294202042492586" lon="9.268489938729049"><ele>84.0</ele><time>2026-04-02T13:32:44Z</time></trkpt><trkpt lat="45.29426189608751" lon="9.268568601243873"><ele>84.0</ele><time>2026-04-02T13:32:45Z</time></trkpt><trkpt lat="45.29434276313787" lon="9.268616716638844"><ele>84.0</ele><time>2026-04-02T13:32:46Z</time></trkpt><trkpt lat="45.29444132562368" lon="9.268644757356217"><ele>84.0</ele><time>2026-04-02T13:32:47Z</time></trkpt><trkpt lat="45.29455270838964" lon="9.26866193182738"><ele>84.0</ele><time>2026-04-02T13:32:48Z</time></trkpt><trkpt lat="45.2946827664841" lon="9.268682850962318"><ele>84.0</ele><time>2026-04-02T13:32:49Z</time></trkpt><trkpt lat="45.29481638825902" lon="9.268702048135111"><ele>84.0</ele><time>2026-04-02T13:32:50Z</time></trkpt><trkpt lat="45.29495323817766" lon="9.268705004013817"><ele>84.0</ele><time>2026-04-02T13:32:51Z</time></trkpt><trkpt lat="45.295109227647714" lon="9.268699173242549"><ele>84.0</ele><time>2026-04-02T13:32:52Z</time></trkpt><trkpt lat="45.29527092571109" lon="9.268668828297574"><ele>84.0</ele><time>2026-04-02T13:32:53.001Z</time></trkpt><trkpt lat="45.29545225437241" lon="9.268648065375716"><ele>84.0</ele><time>2026-04-02T13:32:54.001Z</time></trkpt><trkpt lat="45.29562950316941" lon="9.268626978006388"><ele>84.0</ele><time>2026-04-02T13:32:55.001Z</time></trkpt><trkpt lat="45.29581448688389" lon="9.268591587048533"><ele>84.0</ele><time>2026-04-02T13:32:56.001Z</time></trkpt><trkpt lat="45.295989251463574" lon="9.268552434291289"><ele>84.0</ele><time>2026-04-02T13:32:57.001Z</time></trkpt><trkpt lat="45.29615091158299" lon="9.268531889761755"><ele>84.0</ele><time>2026-04-02T13:32:58.001Z</time></trkpt><trkpt lat="45.296329685031495" lon="9.268514776291099"><ele>84.0</ele><time>2026-04-02T13:32:59.001Z</time></trkpt><trkpt lat="45.29649160599378" lon="9.26848563088116"><ele>84.0</ele><time>2026-04-02T13:33:00.001Z</time></trkpt><trkpt lat="45.296667972254426" lon="9.268453085440475"><ele>84.0</ele><time>2026-04-02T13:33:01.001Z</time></trkpt><trkpt lat="45.29686384034924" lon="9.26841078428232"><ele>84.0</ele><time>2026-04-02T13:33:02.001Z</time></trkpt><trkpt lat="45.29706272981227" lon="9.268360150054365"><ele>84.0</ele><time>2026-04-02T13:33:03.001Z</time></trkpt><trkpt lat="45.29724059084098" lon="9.268320622271814"><ele>84.0</ele><time>2026-04-02T13:33:04.001Z</time></trkpt><trkpt lat="45.29742074850829" lon="9.268278314100037"><ele>84.0</ele><time>2026-04-02T13:33:05.001Z</time></trkpt><trkpt lat="45.29759870931872" lon="9.268238170596936"><ele>84.0</ele><time>2026-04-02T13:33:06.001Z</time></trkpt><trkpt lat="45.29776957108955" lon="9.268200553327318"><ele>84.0</ele><time>2026-04-02T13:33:07.001Z</time></trkpt><trkpt lat="45.29794564691768" lon="9.268159273070228"><ele>84.0</ele><time>2026-04-02T13:33:08.001Z</time></trkpt><trkpt lat="45.29811308581795" lon="9.268119272590575"><ele>84.0</ele><time>2026-04-02T13:33:09.001Z</time></trkpt><trkpt lat="45.298290810391094" lon="9.268073934832186"><ele>84.0</ele><time>2026-04-02T13:33:10.001Z</time></trkpt><trkpt lat="45.2984611442088" lon="9.268035442439512"><ele>84.0</ele><time>2026-04-02T13:33:11.001Z</time></trkpt><trkpt lat="45.29864141440562" lon="9.267990438865139"><ele>84.0</ele><time>2026-04-02T13:33:12.001Z</time></trkpt><trkpt lat="45.29881732084377" lon="9.26795289057639"><ele>84.0</ele><time>2026-04-02T13:33:13.001Z</time></trkpt><trkpt lat="45.29898106803736" lon="9.267915219157961"><ele>84.0</ele><time>2026-04-02T13:33:14.001Z</time></trkpt><trkpt lat="45.299144348460054" lon="9.267873113991838"><ele>84.0</ele><time>2026-04-02T13:33:15.001Z</time></trkpt><trkpt lat="45.29929706328551" lon="9.267840637681756"><ele>84.0</ele><time>2026-04-02T13:33:16.001Z</time></trkpt><trkpt lat="45.29945647646351" lon="9.267802455076783"><ele>84.0</ele><time>2026-04-02T13:33:17.001Z</time></trkpt><trkpt lat="45.299617247160555" lon="9.267762429015775"><ele>84.0</ele><time>2026-04-02T13:33:18.001Z</time></trkpt><trkpt lat="45.299774055827925" lon="9.267721077524936"><ele>83.66666666666667</ele><time>2026-04-02T13:33:19.001Z</time></trkpt><trkpt lat="45.2999137051832" lon="9.267679994982316"><ele>83.33333333333334</ele><time>2026-04-02T13:33:20.001Z</time></trkpt><trkpt lat="45.30006560511692" lon="9.267628307176846"><ele>83.0</ele><time>2026-04-02T13:33:21.001Z</time></trkpt><trkpt lat="45.30021499853928" lon="9.267577907915186"><ele>83.0</ele><time>2026-04-02T13:33:22.001Z</time></trkpt><trkpt lat="45.300370781350885" lon="9.267552147969578"><ele>83.0</ele><time>2026-04-02T13:33:23.001Z</time></trkpt><trkpt lat="45.3005217255988" lon="9.267504699043302"><ele>83.0</ele><time>2026-04-02T13:33:24.001Z</time></trkpt><trkpt lat="45.30068894556279" lon="9.267454245467691"><ele>83.66666666666667</ele><time>2026-04-02T13:33:25.001Z</time></trkpt><trkpt lat="45.30086364619397" lon="9.26740304558049"><ele>84.33333333333333</ele><time>2026-04-02T13:33:26.001Z</time></trkpt><trkpt lat="45.30104184215125" lon="9.267350229511777"><ele>85.0</ele><time>2026-04-02T13:33:27.001Z</time></trkpt><trkpt lat="45.30121409936008" lon="9.267296768363845"><ele>84.66666666666666</ele><time>2026-04-02T13:33:28.001Z</time></trkpt><trkpt lat="45.301380594838484" lon="9.267241646877558"><ele>84.33333333333333</ele><time>2026-04-02T13:33:29.001Z</time></trkpt><trkpt lat="45.301550626395475" lon="9.267179942639945"><ele>84.0</ele><time>2026-04-02T13:33:30.001Z</time></trkpt><trkpt lat="45.30171755951739" lon="9.267114651173836"><ele>84.0</ele><time>2026-04-02T13:33:31.001Z</time></trkpt><trkpt lat="45.301893519735806" lon="9.267043742394838"><ele>84.0</ele><time>2026-04-02T13:33:32.001Z</time></trkpt><trkpt lat="45.30206359580805" lon="9.266973921058913"><ele>84.0</ele><time>2026-04-02T13:33:33.001Z</time></trkpt><trkpt lat="45.30223014110216" lon="9.266901473908257"><ele>84.33333333333333</ele><time>2026-04-02T13:33:34.001Z</time></trkpt><trkpt lat="45.30238745466498" lon="9.266817549812718"><ele>84.66666666666666</ele><time>2026-04-02T13:33:35.001Z</time></trkpt><trkpt lat="45.30254786116391" lon="9.266723953502025"><ele>85.0</ele><time>2026-04-02T13:33:36.001Z</time></trkpt><trkpt lat="45.30269455363258" lon="9.266630191197315"><ele>85.0</ele><time>2026-04-02T13:33:37.001Z</time></trkpt><trkpt lat="45.30284875215353" lon="9.266561398474222"><ele>85.0</ele><time>2026-04-02T13:33:38.001Z</time></trkpt><trkpt lat="45.30300683553056" lon="9.266498633913908"><ele>85.0</ele><time>2026-04-02T13:33:39.001Z</time></trkpt><trkpt lat="45.30317499844658" lon="9.266434402133541"><ele>84.66666666666666</ele><time>2026-04-02T13:33:40.001Z</time></trkpt><trkpt lat="45.3033664048874" lon="9.266371448986535"><ele>84.33333333333333</ele><time>2026-04-02T13:33:41.001Z</time></trkpt><trkpt lat="45.30352471388079" lon="9.266315246847707"><ele>84.0</ele><time>2026-04-02T13:33:42.001Z</time></trkpt><trkpt lat="45.30365612718623" lon="9.26627066908126"><ele>84.0</ele><time>2026-04-02T13:33:43.001Z</time></trkpt><trkpt lat="45.30377104054221" lon="9.266232219762376"><ele>84.0</ele><time>2026-04-02T13:33:44.001Z</time></trkpt><trkpt lat="45.30389673748204" lon="9.266186192229098"><ele>84.0</ele><time>2026-04-02T13:33:45.001Z</time></trkpt><trkpt lat="45.30406851213905" lon="9.266138379403861"><ele>84.0</ele><time>2026-04-02T13:33:46.001Z</time></trkpt><trkpt lat="45.30424785361533" lon="9.266057292824"><ele>84.0</ele><time>2026-04-02T13:33:47.001Z</time></trkpt><trkpt lat="45.30444113103478" lon="9.265971416586954"><ele>84.0</ele><time>2026-04-02T13:33:48.001Z</time></trkpt><trkpt lat="45.30461480044002" lon="9.265893395848563"><ele>84.0</ele><time>2026-04-02T13:33:49.001Z</time></trkpt><trkpt lat="45.304761118045946" lon="9.265825380254897"><ele>84.0</ele><time>2026-04-02T13:33:50.001Z</time></trkpt><trkpt lat="45.30488847392275" lon="9.265764288119865"><ele>84.0</ele><time>2026-04-02T13:33:51.001Z</time></trkpt><trkpt lat="45.305007468851066" lon="9.265706318457964"><ele>84.0</ele><time>2026-04-02T13:33:52.001Z</time></trkpt><trkpt lat="45.3051162560665" lon="9.265653125569871"><ele>84.0</ele><time>2026-04-02T13:33:53.001Z</time></trkpt><trkpt lat="45.30521296313486" lon="9.26560516373047"><ele>84.16666666666667</ele><time>2026-04-02T13:33:54.001Z</time></trkpt><trkpt lat="45.305279686976" lon="9.265572072057557"><ele>84.33333333333333</ele><time>2026-04-02T13:33:55.001Z</time></trkpt><trkpt lat="45.30536059516691" lon="9.265532346436315"><ele>84.5</ele><time>2026-04-02T13:33:56.001Z</time></trkpt><trkpt lat="45.305435158446315" lon="9.265493653252998"><ele>84.66666666666666</ele><time>2026-04-02T13:33:57.001Z</time></trkpt><trkpt lat="45.30551551931787" lon="9.265451008139536"><ele>84.83333333333333</ele><time>2026-04-02T13:33:58.001Z</time></trkpt><trkpt lat="45.30559101681944" lon="9.265407925407539"><ele>85.0</ele><time>2026-04-02T13:33:59.001Z</time></trkpt><trkpt lat="45.30567068004531" lon="9.265368952618008"><ele>85.0</ele><time>2026-04-02T13:34:01.001Z</time></trkpt><trkpt lat="45.30573637730229" lon="9.265343212358394"><ele>85.0</ele><time>2026-04-02T13:34:02.001Z</time></trkpt><trkpt lat="45.305827286923765" lon="9.265525743680358"><ele>85.0</ele><time>2026-04-02T13:34:03.001Z</time></trkpt><trkpt lat="45.30594775575107" lon="9.265736530085348"><ele>85.0</ele><time>2026-04-02T13:34:04.001Z</time></trkpt><trkpt lat="45.306090983214645" lon="9.265964039071727"><ele>85.0</ele><time>2026-04-02T13:34:05.001Z</time></trkpt><trkpt lat="45.30624052959811" lon="9.26621645548493"><ele>85.0</ele><time>2026-04-02T13:34:06.001Z</time></trkpt><trkpt lat="45.306389529945726" lon="9.266477179121468"><ele>85.66666666666666</ele><time>2026-04-02T13:34:07.001Z</time></trkpt><trkpt lat="45.30652151376267" lon="9.266700853404718"><ele>86.33333333333333</ele><time>2026-04-02T13:34:08.001Z</time></trkpt><trkpt lat="45.30665043702417" lon="9.266920703922953"><ele>87.0</ele><time>2026-04-02T13:34:09.001Z</time></trkpt><trkpt lat="45.30676762851195" lon="9.267122246597305"><ele>86.66666666666667</ele><time>2026-04-02T13:34:10.001Z</time></trkpt><trkpt lat="45.30687797342494" lon="9.267304650277724"><ele>86.33333333333334</ele><time>2026-04-02T13:34:11.001Z</time></trkpt><trkpt lat="45.30698095121936" lon="9.267484308541926"><ele>86.0</ele><time>2026-04-02T13:34:12.001Z</time></trkpt><trkpt lat="45.30707897212987" lon="9.267652403264066"><ele>86.0</ele><time>2026-04-02T13:34:13.002Z</time></trkpt><trkpt lat="45.30717110583541" lon="9.26780751580054"><ele>86.0</ele><time>2026-04-02T13:34:14.002Z</time></trkpt><trkpt lat="45.30725193540735" lon="9.267952074984864"><ele>86.0</ele><time>2026-04-02T13:34:15Z</time></trkpt><trkpt lat="45.307325172847115" lon="9.268090946306705"><ele>86.0</ele><time>2026-04-02T13:34:16Z</time></trkpt><trkpt lat="45.30738317112003" lon="9.268222217059023"><ele>86.0</ele><time>2026-04-02T13:34:17Z</time></trkpt><trkpt lat="45.30742989252437" lon="9.268356910969079"><ele>86.0</ele><time>2026-04-02T13:34:18Z</time></trkpt><trkpt lat="45.30747062192561" lon="9.268497911249918"><ele>86.0</ele><time>2026-04-02T13:34:19Z</time></trkpt><trkpt lat="45.30751946753579" lon="9.268636913836687"><ele>86.0</ele><time>2026-04-02T13:34:20Z</time></trkpt><trkpt lat="45.307603624365505" lon="9.268749489649322"><ele>86.0</ele><time>2026-04-02T13:34:21Z</time></trkpt><trkpt lat="45.30772069366926" lon="9.268841652259933"><ele>86.0</ele><time>2026-04-02T13:34:22Z</time></trkpt><trkpt lat="45.307817927179485" lon="9.268938771761599"><ele>86.0</ele><time>2026-04-02T13:34:23Z</time></trkpt><trkpt lat="45.307901819457165" lon="9.269056653754863"><ele>86.0</ele><time>2026-04-02T13:34:24Z</time></trkpt><trkpt lat="45.30798219588754" lon="9.269191595203644"><ele>86.0</ele><time>2026-04-02T13:34:25Z</time></trkpt><trkpt lat="45.30806264276719" lon="9.269334918657087"><ele>86.25</ele><time>2026-04-02T13:34:26Z</time></trkpt><trkpt lat="45.30814083257805" lon="9.269479338346137"><ele>86.5</ele><time>2026-04-02T13:34:27Z</time></trkpt><trkpt lat="45.308215080281585" lon="9.269612136007"><ele>86.75</ele><time>2026-04-02T13:34:28Z</time></trkpt><trkpt lat="45.3082904555022" lon="9.26974100659573"><ele>87.0</ele><time>2026-04-02T13:34:29Z</time></trkpt><trkpt lat="45.30836293577325" lon="9.269869029267214"><ele>87.0</ele><time>2026-04-02T13:34:30Z</time></trkpt><trkpt lat="45.308434196400185" lon="9.269995533299504"><ele>87.0</ele><time>2026-04-02T13:34:31Z</time></trkpt><trkpt lat="45.308509540560166" lon="9.270121346281433"><ele>87.0</ele><time>2026-04-02T13:34:32Z</time></trkpt><trkpt lat="45.30858725147178" lon="9.270246960903727"><ele>87.0</ele><time>2026-04-02T13:34:33Z</time></trkpt><trkpt lat="45.30866236525883" lon="9.270379278697556"><ele>87.0</ele><time>2026-04-02T13:34:34Z</time></trkpt><trkpt lat="45.30873752825678" lon="9.2705154560178"><ele>87.0</ele><time>2026-04-02T13:34:35Z</time></trkpt><trkpt lat="45.30881507972219" lon="9.270652830885744"><ele>87.0</ele><time>2026-04-02T13:34:36Z</time></trkpt><trkpt lat="45.30888526148116" lon="9.270773790540863"><ele>87.0</ele><time>2026-04-02T13:34:37Z</time></trkpt><trkpt lat="45.30894719515632" lon="9.270886209382185"><ele>86.83333333333333</ele><time>2026-04-02T13:34:38Z</time></trkpt><trkpt lat="45.30899905995481" lon="9.270988298144626"><ele>86.66666666666667</ele><time>2026-04-02T13:34:39Z</time></trkpt><trkpt lat="45.309044922635245" lon="9.27108065493025"><ele>86.5</ele><time>2026-04-02T13:34:40Z</time></trkpt><trkpt lat="45.30908155627864" lon="9.271175536294763"><ele>86.33333333333334</ele><time>2026-04-02T13:34:41Z</time></trkpt><trkpt lat="45.30910438066089" lon="9.271272797434785"><ele>86.16666666666667</ele><time>2026-04-02T13:34:42Z</time></trkpt><trkpt lat="45.30910840025444" lon="9.271373615254051"><ele>86.0</ele><time>2026-04-02T13:34:43Z</time></trkpt><trkpt lat="45.30909901035087" lon="9.27148951296662"><ele>86.4</ele><time>2026-04-02T13:34:44Z</time></trkpt><trkpt lat="45.30908526509512" lon="9.27160634134828"><ele>86.8</ele><time>2026-04-02T13:34:45Z</time></trkpt><trkpt lat="45.30905915654657" lon="9.271704054302939"><ele>87.2</ele><time>2026-04-02T13:34:46Z</time></trkpt><trkpt lat="45.30910928297569" lon="9.271819007249812"><ele>87.60000000000001</ele><time>2026-04-02T13:34:47Z</time></trkpt><trkpt lat="45.30919621810611" lon="9.271962217991373"><ele>88.0</ele><time>2026-04-02T13:34:49Z</time></trkpt><trkpt lat="45.309246611046504" lon="9.272051733401968"><ele>88.0</ele><time>2026-04-02T13:34:50Z</time></trkpt><trkpt lat="45.30930935739083" lon="9.272148750309228"><ele>88.0</ele><time>2026-04-02T13:34:51Z</time></trkpt><trkpt lat="45.309375069278445" lon="9.272274038824236"><ele>88.0</ele><time>2026-04-02T13:34:52Z</time></trkpt><trkpt lat="45.30946443063369" lon="9.272436471303383"><ele>88.0</ele><time>2026-04-02T13:34:53Z</time></trkpt><trkpt lat="45.3095715824676" lon="9.272589409397861"><ele>87.33333333333333</ele><time>2026-04-02T13:34:54Z</time></trkpt><trkpt lat="45.30971393375673" lon="9.272724560823734"><ele>86.66666666666667</ele><time>2026-04-02T13:34:55Z</time></trkpt><trkpt lat="45.309870002171365" lon="9.272824343111434"><ele>86.0</ele><time>2026-04-02T13:34:56Z</time></trkpt><trkpt lat="45.31004612232618" lon="9.27289358350363"><ele>86.0</ele><time>2026-04-02T13:34:57Z</time></trkpt><trkpt lat="45.31022345517648" lon="9.272928491672166"><ele>86.0</ele><time>2026-04-02T13:34:58Z</time></trkpt><trkpt lat="45.31040767477879" lon="9.272924509757258"><ele>86.0</ele><time>2026-04-02T13:34:59Z</time></trkpt><trkpt lat="45.31059288241742" lon="9.272893046201169"><ele>86.0</ele><time>2026-04-02T13:35:00.001Z</time></trkpt><trkpt lat="45.310778995663114" lon="9.272820318285472"><ele>86.0</ele><time>2026-04-02T13:35:01.001Z</time></trkpt><trkpt lat="45.310971806108014" lon="9.272709533289943"><ele>86.0</ele><time>2026-04-02T13:35:02.001Z</time></trkpt><trkpt lat="45.311176959031094" lon="9.272550125982198"><ele>86.0</ele><time>2026-04-02T13:35:03.001Z</time></trkpt><trkpt lat="45.311383549031255" lon="9.272391199468931"><ele>86.0</ele><time>2026-04-02T13:35:04.001Z</time></trkpt><trkpt lat="45.31160823859464" lon="9.272230150846005"><ele>86.5</ele><time>2026-04-02T13:35:05.001Z</time></trkpt><trkpt lat="45.31184353847267" lon="9.272052501293349"><ele>87.0</ele><time>2026-04-02T13:35:06.001Z</time></trkpt><trkpt lat="45.31208210396632" lon="9.27186973893554"><ele>88.0</ele><time>2026-04-02T13:35:07.001Z</time></trkpt><trkpt lat="45.31233019794033" lon="9.271682745394301"><ele>89.0</ele><time>2026-04-02T13:35:08.001Z</time></trkpt><trkpt lat="45.312591307195746" lon="9.27149018571605"><ele>89.0</ele><time>2026-04-02T13:35:09.001Z</time></trkpt><trkpt lat="45.31284774239227" lon="9.271291638583321"><ele>89.0</ele><time>2026-04-02T13:35:10.001Z</time></trkpt><trkpt lat="45.31310443970443" lon="9.2710900525647"><ele>88.5</ele><time>2026-04-02T13:35:11.001Z</time></trkpt><trkpt lat="45.313334403310584" lon="9.270912006296644"><ele>88.0</ele><time>2026-04-02T13:35:12.001Z</time></trkpt><trkpt lat="45.313548413884206" lon="9.270747176773632"><ele>88.0</ele><time>2026-04-02T13:35:13.001Z</time></trkpt><trkpt lat="45.31374521342193" lon="9.27059729633611"><ele>88.0</ele><time>2026-04-02T13:35:14.001Z</time></trkpt><trkpt lat="45.31393345418492" lon="9.270455740801898"><ele>88.0</ele><time>2026-04-02T13:35:15.001Z</time></trkpt><trkpt lat="45.314115573301706" lon="9.270335485014575"><ele>88.0</ele><time>2026-04-02T13:35:16.001Z</time></trkpt><trkpt lat="45.314294229998524" lon="9.270250389678067"><ele>88.0</ele><time>2026-04-02T13:35:17.001Z</time></trkpt><trkpt lat="45.31446785743812" lon="9.270208496905422"><ele>88.0</ele><time>2026-04-02T13:35:18.001Z</time></trkpt><trkpt lat="45.31463609076516" lon="9.270211911659695"><ele>87.66666666666666</ele><time>2026-04-02T13:35:19.001Z</time></trkpt><trkpt lat="45.31481804248832" lon="9.270257551774787"><ele>87.33333333333333</ele><time>2026-04-02T13:35:20.001Z</time></trkpt><trkpt lat="45.3150099010736" lon="9.270327682485041"><ele>87.0</ele><time>2026-04-02T13:35:21.001Z</time></trkpt><trkpt lat="45.315205130765285" lon="9.27040063421816"><ele>87.0</ele><time>2026-04-02T13:35:22.001Z</time></trkpt><trkpt lat="45.31538439402425" lon="9.270454084750742"><ele>87.0</ele><time>2026-04-02T13:35:23.001Z</time></trkpt><trkpt lat="45.31555071981" lon="9.270503638475654"><ele>87.0</ele><time>2026-04-02T13:35:24.001Z</time></trkpt><trkpt lat="45.31570438188972" lon="9.27055872898666"><ele>87.0</ele><time>2026-04-02T13:35:25.001Z</time></trkpt><trkpt lat="45.31584938951895" lon="9.270627846286486"><ele>87.0</ele><time>2026-04-02T13:35:26.001Z</time></trkpt><trkpt lat="45.315986537700724" lon="9.270737624084692"><ele>87.0</ele><time>2026-04-02T13:35:27.001Z</time></trkpt><trkpt lat="45.31612067541843" lon="9.27088844080379"><ele>87.0</ele><time>2026-04-02T13:35:28.001Z</time></trkpt><trkpt lat="45.31625896624264" lon="9.271065488472834"><ele>87.0</ele><time>2026-04-02T13:35:29.001Z</time></trkpt><trkpt lat="45.316409259318974" lon="9.27125882161254"><ele>87.0</ele><time>2026-04-02T13:35:30.001Z</time></trkpt><trkpt lat="45.31657193585719" lon="9.271475131445056"><ele>87.5</ele><time>2026-04-02T13:35:31.001Z</time></trkpt><trkpt lat="45.31674234929963" lon="9.271712754275375"><ele>88.0</ele><time>2026-04-02T13:35:32.001Z</time></trkpt><trkpt lat="45.316925859130144" lon="9.271967067303969"><ele>88.0</ele><time>2026-04-02T13:35:33.001Z</time></trkpt><trkpt lat="45.31711296369901" lon="9.272226651190639"><ele>88.0</ele><time>2026-04-02T13:35:34.001Z</time></trkpt><trkpt lat="45.31730762925762" lon="9.272500304427055"><ele>87.0</ele><time>2026-04-02T13:35:35.001Z</time></trkpt><trkpt lat="45.317507280714615" lon="9.27278637498614"><ele>86.0</ele><time>2026-04-02T13:35:36.001Z</time></trkpt><trkpt lat="45.31769896340574" lon="9.273076247160157"><ele>86.5</ele><time>2026-04-02T13:35:37.001Z</time></trkpt><trkpt lat="45.3178933426676" lon="9.273374041624907"><ele>87.0</ele><time>2026-04-02T13:35:38.001Z</time></trkpt><trkpt lat="45.31808258428161" lon="9.273661108520557"><ele>87.0</ele><time>2026-04-02T13:35:39.001Z</time></trkpt><trkpt lat="45.31826781127799" lon="9.27393407075377"><ele>87.0</ele><time>2026-04-02T13:35:40.001Z</time></trkpt><trkpt lat="45.31844988402143" lon="9.274198616574212"><ele>88.0</ele><time>2026-04-02T13:35:41.001Z</time></trkpt><trkpt lat="45.31862916254413" lon="9.274460524277224"><ele>89.0</ele><time>2026-04-02T13:35:42.001Z</time></trkpt><trkpt lat="45.31881275345552" lon="9.274723008777201"><ele>88.5</ele><time>2026-04-02T13:35:43.001Z</time></trkpt><trkpt lat="45.318999906157224" lon="9.27499057287833"><ele>88.0</ele><time>2026-04-02T13:35:44.001Z</time></trkpt><trkpt lat="45.319186885689945" lon="9.27525829538232"><ele>88.0</ele><time>2026-04-02T13:35:45.001Z</time></trkpt><trkpt lat="45.31935841306447" lon="9.275504833228402"><ele>88.0</ele><time>2026-04-02T13:35:46.001Z</time></trkpt><trkpt lat="45.319523017889225" lon="9.27574075803161"><ele>88.0</ele><time>2026-04-02T13:35:47.001Z</time></trkpt><trkpt lat="45.31968632102498" lon="9.27597358719033"><ele>88.0</ele><time>2026-04-02T13:35:48.001Z</time></trkpt><trkpt lat="45.31983432906556" lon="9.27618162482322"><ele>88.0</ele><time>2026-04-02T13:35:49.001Z</time></trkpt><trkpt lat="45.31997701647688" lon="9.276383834266909"><ele>89.0</ele><time>2026-04-02T13:35:50.001Z</time></trkpt><trkpt lat="45.320113762395394" lon="9.276573886498458"><ele>90.0</ele><time>2026-04-02T13:35:51.001Z</time></trkpt><trkpt lat="45.32026110158158" lon="9.27677835438787"><ele>91.0</ele><time>2026-04-02T13:35:52.001Z</time></trkpt><trkpt lat="45.32041975746786" lon="9.276988604883515"><ele>91.0</ele><time>2026-04-02T13:35:53.001Z</time></trkpt><trkpt lat="45.32055346590413" lon="9.277178923298935"><ele>91.0</ele><time>2026-04-02T13:35:54.001Z</time></trkpt><trkpt lat="45.32067689849297" lon="9.277357197775752"><ele>91.0</ele><time>2026-04-02T13:35:55.001Z</time></trkpt><trkpt lat="45.3207940025259" lon="9.27751921927902"><ele>90.0</ele><time>2026-04-02T13:35:56.001Z</time></trkpt><trkpt lat="45.32090007888173" lon="9.277666996672615"><ele>89.0</ele><time>2026-04-02T13:35:57.001Z</time></trkpt><trkpt lat="45.32098889700397" lon="9.277807120128948"><ele>88.0</ele><time>2026-04-02T13:35:58.001Z</time></trkpt><trkpt lat="45.32105804757112" lon="9.277938320177775"><ele>87.0</ele><time>2026-04-02T13:35:59.001Z</time></trkpt><trkpt lat="45.32110259859068" lon="9.278070657713354"><ele>87.0</ele><time>2026-04-02T13:36:00.001Z</time></trkpt><trkpt lat="45.32112968981215" lon="9.27820316850752"><ele>87.0</ele><time>2026-04-02T13:36:01.001Z</time></trkpt><trkpt lat="45.32116211825641" lon="9.278321038860074"><ele>87.0</ele><time>2026-04-02T13:36:02.001Z</time></trkpt><trkpt lat="45.321229354288825" lon="9.278400771324126"><ele>87.0</ele><time>2026-04-02T13:36:03.001Z</time></trkpt><trkpt lat="45.32135962142533" lon="9.278403348438053"><ele>87.0</ele><time>2026-04-02T13:36:04.001Z</time></trkpt><trkpt lat="45.32147769916155" lon="9.278493858856196"><ele>87.0</ele><time>2026-04-02T13:36:05.001Z</time></trkpt><trkpt lat="45.321590576198126" lon="9.278585547529836"><ele>87.0</ele><time>2026-04-02T13:36:06.001Z</time></trkpt><trkpt lat="45.32170193684655" lon="9.27873150323146"><ele>87.0</ele><time>2026-04-02T13:36:07.001Z</time></trkpt><trkpt lat="45.32182754238388" lon="9.278911907365996"><ele>87.0</ele><time>2026-04-02T13:36:08.001Z</time></trkpt><trkpt lat="45.32197253143394" lon="9.279122075555573"><ele>87.0</ele><time>2026-04-02T13:36:09.001Z</time></trkpt><trkpt lat="45.322121332759934" lon="9.279350946669641"><ele>87.0</ele><time>2026-04-02T13:36:10.001Z</time></trkpt><trkpt lat="45.322262407642015" lon="9.279572160849607"><ele>87.0</ele><time>2026-04-02T13:36:11.001Z</time></trkpt><trkpt lat="45.32242845699924" lon="9.279800458083114"><ele>87.0</ele><time>2026-04-02T13:36:12.001Z</time></trkpt><trkpt lat="45.32261343841962" lon="9.280036242361737"><ele>87.0</ele><time>2026-04-02T13:36:13.001Z</time></trkpt><trkpt lat="45.32281814296382" lon="9.280291542431481"><ele>87.0</ele><time>2026-04-02T13:36:14.001Z</time></trkpt><trkpt lat="45.323017134096744" lon="9.280591398994668"><ele>87.5</ele><time>2026-04-02T13:36:15.001Z</time></trkpt><trkpt lat="45.32323945339992" lon="9.280870762221376"><ele>88.0</ele><time>2026-04-02T13:36:16.001Z</time></trkpt><trkpt lat="45.32343933848266" lon="9.281188215968195"><ele>88.5</ele><time>2026-04-02T13:36:17.001Z</time></trkpt><trkpt lat="45.323639827084286" lon="9.281494976318289"><ele>89.0</ele><time>2026-04-02T13:36:18.001Z</time></trkpt><trkpt lat="45.3238463306923" lon="9.28178873795485"><ele>89.0</ele><time>2026-04-02T13:36:19.001Z</time></trkpt><trkpt lat="45.32403883600546" lon="9.282049382354913"><ele>89.0</ele><time>2026-04-02T13:36:20.001Z</time></trkpt><trkpt lat="45.32421284428704" lon="9.2822873430893"><ele>88.66666666666667</ele><time>2026-04-02T13:36:21Z</time></trkpt><trkpt lat="45.324354888940384" lon="9.282482277663345"><ele>88.33333333333333</ele><time>2026-04-02T13:36:22Z</time></trkpt><trkpt lat="45.32447892160218" lon="9.28265212532092"><ele>88.0</ele><time>2026-04-02T13:36:23Z</time></trkpt><trkpt lat="45.32458288090367" lon="9.282804607918107"><ele>88.0</ele><time>2026-04-02T13:36:24Z</time></trkpt><trkpt lat="45.32466538507712" lon="9.282951596634614"><ele>88.0</ele><time>2026-04-02T13:36:25Z</time></trkpt><trkpt lat="45.32473926973876" lon="9.283085247511268"><ele>88.0</ele><time>2026-04-02T13:36:26Z</time></trkpt><trkpt lat="45.324746655147806" lon="9.283242027542997"><ele>88.0</ele><time>2026-04-02T13:36:27Z</time></trkpt><trkpt lat="45.32477511175524" lon="9.283360460581001"><ele>87.80000000000001</ele><time>2026-04-02T13:36:28Z</time></trkpt><trkpt lat="45.32485368550031" lon="9.283405214017892"><ele>87.6</ele><time>2026-04-02T13:36:29Z</time></trkpt><trkpt lat="45.32494333930032" lon="9.283372667242896"><ele>87.4</ele><time>2026-04-02T13:36:30Z</time></trkpt><trkpt lat="45.32501208021306" lon="9.283272371934592"><ele>87.19999999999999</ele><time>2026-04-02T13:36:31Z</time></trkpt><trkpt lat="45.32506703151383" lon="9.28311983376802"><ele>87.0</ele><time>2026-04-02T13:36:32Z</time></trkpt><trkpt lat="45.325143448921715" lon="9.282918000372772"><ele>87.66666666666667</ele><time>2026-04-02T13:36:33Z</time></trkpt><trkpt lat="45.32525145385016" lon="9.282726721707737"><ele>88.33333333333334</ele><time>2026-04-02T13:36:34Z</time></trkpt><trkpt lat="45.32536984678117" lon="9.282570740096718"><ele>89.0</ele><time>2026-04-02T13:36:35Z</time></trkpt><trkpt lat="45.32544448182008" lon="9.282388674426514"><ele>89.0</ele><time>2026-04-02T13:36:36Z</time></trkpt><trkpt lat="45.325535499360754" lon="9.282226482176261"><ele>89.0</ele><time>2026-04-02T13:36:37Z</time></trkpt><trkpt lat="45.32562517906009" lon="9.282072958608468"><ele>89.0</ele><time>2026-04-02T13:36:38Z</time></trkpt><trkpt lat="45.32573334706787" lon="9.281943872470356"><ele>89.0</ele><time>2026-04-02T13:36:39Z</time></trkpt><trkpt lat="45.32583167612203" lon="9.281807959619588"><ele>90.0</ele><time>2026-04-02T13:36:40Z</time></trkpt><trkpt lat="45.34048235159247" lon="9.2697602323092"><ele>90.2</ele><time>2026-04-02T13:38:32Z</time></trkpt><trkpt lat="45.34058645926083" lon="9.26973493424365"><ele>90.4</ele><time>2026-04-02T13:38:33Z</time></trkpt><trkpt lat="45.34066832107471" lon="9.269717018160256"><ele>90.6</ele><time>2026-04-02T13:38:34Z</time></trkpt><trkpt lat="45.34076338870758" lon="9.269733371651508"><ele>90.8</ele><time>2026-04-02T13:38:37Z</time></trkpt><trkpt lat="45.34080928160031" lon="9.269934438006109"><ele>91.0</ele><time>2026-04-02T13:38:40Z</time></trkpt><trkpt lat="45.34083839516027" lon="9.270023558383441"><ele>92.0</ele><time>2026-04-02T13:38:41Z</time></trkpt><trkpt lat="45.34084065688802" lon="9.270117310040973"><ele>92.0</ele><time>2026-04-02T13:38:42Z</time></trkpt><trkpt lat="45.34085117470571" lon="9.270218838470177"><ele>92.0</ele><time>2026-04-02T13:38:43Z</time></trkpt><trkpt lat="45.3408630896713" lon="9.270332061125844"><ele>92.0</ele><time>2026-04-02T13:38:44Z</time></trkpt><trkpt lat="45.34087947335836" lon="9.270437400736851"><ele>92.0</ele><time>2026-04-02T13:38:45Z</time></trkpt></trkseg></trk></gpx>